<?xml version='1.0' encoding='UTF-8'?><gpx version="1.1" creator="JPX - https://github.com/jenetics/jpx" xmlns="http://www.topografix.com/GPX/1/1"><trk><trkseg><trkpt lat="43.40935324071083" lon="10.412802749394167"><ele>72.0</ele><time>2026-04-12T07:00:52.994Z</time></trkpt><trkpt lat="43.40928976654563" lon="10.41272903708157"><ele>72.0</ele><time>2026-04-12T07:00:56.995Z</time></trkpt><trkpt lat="43.40922932720336" lon="10.412675435107449"><ele>72.0</ele><time>2026-04-12T07:01:00.996Z</time></trkpt><trkpt lat="43.40921977451702" lon="10.41258505191186"><ele>72.0</ele><time>2026-04-12T07:01:04.997Z</time></trkpt><trkpt lat="43.40922758713154" lon="10.412475039939226"><ele>72.0</ele><time>2026-04-12T07:01:35Z</time></trkpt><trkpt lat="43.40918711539746" lon="10.412357221008659"><ele>72.0</ele><time>2026-04-12T07:01:38Z</time></trkpt><trkpt lat="43.40915471608558" lon="10.412240893448828"><ele>70.8</ele><time>2026-04-12T07:01:40Z</time></trkpt><trkpt lat="43.40911772419433" lon="10.412102387576908"><ele>69.6</ele><time>2026-04-12T07:01:42Z</time></trkpt><trkpt lat="43.40907834369105" lon="10.411951260472511"><ele>68.39999999999999</ele><time>2026-04-12T07:01:44Z</time></trkpt><trkpt lat="43.409049984366824" lon="10.411778617562"><ele>67.2</ele><time>2026-04-12T07:01:46Z</time></trkpt><trkpt lat="43.4090293344205" lon="10.411692944835682"><ele>66.0</ele><time>2026-04-12T07:01:47Z</time></trkpt><trkpt lat="43.409011876199735" lon="10.411600574101481"><ele>66.0</ele><time>2026-04-12T07:01:48Z</time></trkpt><trkpt lat="43.408989944709425" lon="10.411509733936832"><ele>66.0</ele><time>2026-04-12T07:01:49Z</time></trkpt><trkpt lat="43.40897355746022" lon="10.411412156616343"><ele>66.0</ele><time>2026-04-12T07:01:50Z</time></trkpt><trkpt lat="43.40893948166285" lon="10.4113207814467"><ele>66.0</ele><time>2026-04-12T07:01:51Z</time></trkpt><trkpt lat="43.408879560475185" lon="10.411266377247069"><ele>66.0</ele><time>2026-04-12T07:01:52Z</time></trkpt><trkpt lat="43.40880619271959" lon="10.411254067765737"><ele>66.0</ele><time>2026-04-12T07:01:53Z</time></trkpt><trkpt lat="43.408735472100304" lon="10.411276033389639"><ele>66.0</ele><time>2026-04-12T07:01:54Z</time></trkpt><trkpt lat="43.40868730719861" lon="10.411353697048716"><ele>64.83333333333333</ele><time>2026-04-12T07:01:55Z</time></trkpt><trkpt lat="43.408644184483045" lon="10.411440956823078"><ele>63.66666666666667</ele><time>2026-04-12T07:01:56Z</time></trkpt><trkpt lat="43.4086427679597" lon="10.411564439102841"><ele>62.5</ele><time>2026-04-12T07:01:57Z</time></trkpt><trkpt lat="43.40863634170633" lon="10.411674667659787"><ele>61.333333333333336</ele><time>2026-04-12T07:01:58Z</time></trkpt><trkpt lat="43.40861036081914" lon="10.411787786069516"><ele>60.16666666666667</ele><time>2026-04-12T07:01:59Z</time></trkpt><trkpt lat="43.40859465005193" lon="10.411894109623296"><ele>59.0</ele><time>2026-04-12T07:02:00Z</time></trkpt><trkpt lat="43.40857475801004" lon="10.411981483211813"><ele>59.00000000000001</ele><time>2026-04-12T07:02:01Z</time></trkpt><trkpt lat="43.40851158754399" lon="10.41203110304421"><ele>59.0</ele><time>2026-04-12T07:02:02Z</time></trkpt><trkpt lat="43.408421708770966" lon="10.41203055251476"><ele>59.0</ele><time>2026-04-12T07:02:03Z</time></trkpt><trkpt lat="43.40833754039139" lon="10.412001662238902"><ele>59.0</ele><time>2026-04-12T07:02:04Z</time></trkpt><trkpt lat="43.40826287669262" lon="10.411943341915705"><ele>59.00000000000001</ele><time>2026-04-12T07:02:05Z</time></trkpt><trkpt lat="43.40819902148814" lon="10.411838493226503"><ele>59.0</ele><time>2026-04-12T07:02:06Z</time></trkpt><trkpt lat="43.40815145791451" lon="10.411740432156373"><ele>59.0</ele><time>2026-04-12T07:02:07Z</time></trkpt><trkpt lat="43.40808733431383" lon="10.411649565870688"><ele>59.00000000000001</ele><time>2026-04-12T07:02:08Z</time></trkpt><trkpt lat="43.40800180474248" lon="10.411573849118248"><ele>59.00000000000001</ele><time>2026-04-12T07:02:09Z</time></trkpt><trkpt lat="43.40790549526673" lon="10.411533403694422"><ele>59.0</ele><time>2026-04-12T07:02:10Z</time></trkpt><trkpt lat="43.4078020161602" lon="10.411507062636506"><ele>59.0</ele><time>2026-04-12T07:02:11Z</time></trkpt><trkpt lat="43.40769480190778" lon="10.411473836204639"><ele>58.0</ele><time>2026-04-12T07:02:12Z</time></trkpt><trkpt lat="43.40758324296997" lon="10.411445414820664"><ele>57.0</ele><time>2026-04-12T07:02:13Z</time></trkpt><trkpt lat="43.40748051017137" lon="10.41141885461703"><ele>56.0</ele><time>2026-04-12T07:02:14Z</time></trkpt><trkpt lat="43.40736749168362" lon="10.411392457051889"><ele>55.0</ele><time>2026-04-12T07:02:15Z</time></trkpt><trkpt lat="43.40725117838722" lon="10.411369717650224"><ele>53.666666666666664</ele><time>2026-04-12T07:02:16Z</time></trkpt><trkpt lat="43.40714766246454" lon="10.411342697702842"><ele>52.33333333333333</ele><time>2026-04-12T07:02:17Z</time></trkpt><trkpt lat="43.40705650352886" lon="10.411338725535071"><ele>51.0</ele><time>2026-04-12T07:02:18Z</time></trkpt><trkpt lat="43.40697389500431" lon="10.411359613875527"><ele>49.666666666666664</ele><time>2026-04-12T07:02:19Z</time></trkpt><trkpt lat="43.40689202117281" lon="10.411356809551789"><ele>48.33333333333333</ele><time>2026-04-12T07:02:20Z</time></trkpt><trkpt lat="43.4068309637683" lon="10.411313955361221"><ele>47.0</ele><time>2026-04-12T07:02:21Z</time></trkpt><trkpt lat="43.4067797086203" lon="10.411249232599221"><ele>46.166666666666664</ele><time>2026-04-12T07:02:22Z</time></trkpt><trkpt lat="43.406754581661986" lon="10.411148351112805"><ele>45.33333333333333</ele><time>2026-04-12T07:02:23Z</time></trkpt><trkpt lat="43.40674445287081" lon="10.411033516094694"><ele>44.5</ele><time>2026-04-12T07:02:24Z</time></trkpt><trkpt lat="43.40674231918003" lon="10.410925488659034"><ele>43.666666666666664</ele><time>2026-04-12T07:02:25Z</time></trkpt><trkpt lat="43.40675312596728" lon="10.410834973640604"><ele>42.833333333333336</ele><time>2026-04-12T07:02:26Z</time></trkpt><trkpt lat="43.40678443730278" lon="10.410745045395768"><ele>42.0</ele><time>2026-04-12T07:02:27Z</time></trkpt><trkpt lat="43.4068431098579" lon="10.410672949274874"><ele>42.0</ele><time>2026-04-12T07:02:28Z</time></trkpt><trkpt lat="43.4069048053773" lon="10.410606877235692"><ele>42.0</ele><time>2026-04-12T07:02:29Z</time></trkpt><trkpt lat="43.406961725052035" lon="10.410532474223013"><ele>42.0</ele><time>2026-04-12T07:02:30Z</time></trkpt><trkpt lat="43.40701825115989" lon="10.410459303163202"><ele>42.0</ele><time>2026-04-12T07:02:31Z</time></trkpt><trkpt lat="43.40706683297556" lon="10.41038643939954"><ele>42.0</ele><time>2026-04-12T07:02:32Z</time></trkpt><trkpt lat="43.40713203301609" lon="10.410292190956824"><ele>42.0</ele><time>2026-04-12T07:02:33Z</time></trkpt><trkpt lat="43.40718725651117" lon="10.410200787861967"><ele>41.4</ele><time>2026-04-12T07:02:34Z</time></trkpt><trkpt lat="43.40725250019046" lon="10.410099039575078"><ele>40.800000000000004</ele><time>2026-04-12T07:02:35Z</time></trkpt><trkpt lat="43.40732368393584" lon="10.410009432590067"><ele>40.2</ele><time>2026-04-12T07:02:36Z</time></trkpt><trkpt lat="43.407391216701406" lon="10.4099189857528"><ele>39.6</ele><time>2026-04-12T07:02:37Z</time></trkpt><trkpt lat="43.40745252899352" lon="10.409818619478125"><ele>39.0</ele><time>2026-04-12T07:02:38Z</time></trkpt><trkpt lat="43.407521246379964" lon="10.409729626251025"><ele>37.4</ele><time>2026-04-12T07:02:39Z</time></trkpt><trkpt lat="43.40759107433981" lon="10.409638513656706"><ele>35.8</ele><time>2026-04-12T07:02:40Z</time></trkpt><trkpt lat="43.407654379012115" lon="10.409541509091795"><ele>34.2</ele><time>2026-04-12T07:02:41Z</time></trkpt><trkpt lat="43.40772119245813" lon="10.40944765935935"><ele>32.6</ele><time>2026-04-12T07:02:42Z</time></trkpt><trkpt lat="43.40778824370546" lon="10.409355751463876"><ele>31.0</ele><time>2026-04-12T07:02:43Z</time></trkpt><trkpt lat="43.4078584916656" lon="10.4092691566584"><ele>31.0</ele><time>2026-04-12T07:02:44Z</time></trkpt><trkpt lat="43.40792860784693" lon="10.40918023405416"><ele>31.0</ele><time>2026-04-12T07:02:45Z</time></trkpt><trkpt lat="43.40800204029494" lon="10.409095847365046"><ele>31.0</ele><time>2026-04-12T07:02:46Z</time></trkpt><trkpt lat="43.40805967733514" lon="10.409021168515435"><ele>31.0</ele><time>2026-04-12T07:02:47Z</time></trkpt><trkpt lat="43.408124941851625" lon="10.408907826740478"><ele>31.0</ele><time>2026-04-12T07:02:49Z</time></trkpt><trkpt lat="43.40810357819304" lon="10.40874018429574"><ele>30.000000000000004</ele><time>2026-04-12T07:02:51.001Z</time></trkpt><trkpt lat="43.408078603658694" lon="10.40864255368256"><ele>29.0</ele><time>2026-04-12T07:02:52.001Z</time></trkpt><trkpt lat="43.408061828073365" lon="10.408540331235901"><ele>28.0</ele><time>2026-04-12T07:02:53.001Z</time></trkpt><trkpt lat="43.40804498440586" lon="10.408429315742094"><ele>27.0</ele><time>2026-04-12T07:02:54Z</time></trkpt><trkpt lat="43.40802886265464" lon="10.408323557372753"><ele>26.000000000000004</ele><time>2026-04-12T07:02:55Z</time></trkpt><trkpt lat="43.40801635090473" lon="10.408235622886519"><ele>25.0</ele><time>2026-04-12T07:02:56Z</time></trkpt><trkpt lat="43.408000308069155" lon="10.408112946635335"><ele>25.000000000000004</ele><time>2026-04-12T07:02:58Z</time></trkpt><trkpt lat="43.408064586032864" lon="10.408015845397404"><ele>25.0</ele><time>2026-04-12T07:03:02Z</time></trkpt><trkpt lat="43.40813846944145" lon="10.407987111914714"><ele>25.0</ele><time>2026-04-12T07:03:04Z</time></trkpt><trkpt lat="43.408215486030805" lon="10.407959729741247"><ele>25.0</ele><time>2026-04-12T07:03:06Z</time></trkpt><trkpt lat="43.408305085263116" lon="10.407933482741598"><ele>25.000000000000004</ele><time>2026-04-12T07:03:08Z</time></trkpt><trkpt lat="43.40839627673391" lon="10.407898354985797"><ele>25.0</ele><time>2026-04-12T07:03:10Z</time></trkpt><trkpt lat="43.408487473576656" lon="10.407866035649686"><ele>23.2</ele><time>2026-04-12T07:03:12Z</time></trkpt><trkpt lat="43.408576434861224" lon="10.40783742244091"><ele>21.4</ele><time>2026-04-12T07:03:14Z</time></trkpt><trkpt lat="43.408665370621705" lon="10.407804817330826"><ele>19.6</ele><time>2026-04-12T07:03:16Z</time></trkpt><trkpt lat="43.40875973655457" lon="10.407784337558223"><ele>17.8</ele><time>2026-04-12T07:03:18Z</time></trkpt><trkpt lat="43.408860327988855" lon="10.407757350344653"><ele>16.0</ele><time>2026-04-12T07:03:20Z</time></trkpt><trkpt lat="43.40897244450409" lon="10.40771796275734"><ele>15.999999999999998</ele><time>2026-04-12T07:03:22Z</time></trkpt><trkpt lat="43.40908962041495" lon="10.407683435546687"><ele>16.0</ele><time>2026-04-12T07:03:24Z</time></trkpt><trkpt lat="43.40921177223554" lon="10.407638676156335"><ele>16.0</ele><time>2026-04-12T07:03:26Z</time></trkpt><trkpt lat="43.40927426853383" lon="10.407624807646933"><ele>16.0</ele><time>2026-04-12T07:03:27Z</time></trkpt><trkpt lat="43.40934201229151" lon="10.407615214116602"><ele>15.999999999999998</ele><time>2026-04-12T07:03:28Z</time></trkpt><trkpt lat="43.40940856026251" lon="10.407612036592955"><ele>16.0</ele><time>2026-04-12T07:03:29Z</time></trkpt><trkpt lat="43.40947192375217" lon="10.407618311397764"><ele>16.0</ele><time>2026-04-12T07:03:30Z</time></trkpt><trkpt lat="43.4095385137222" lon="10.407624640288391"><ele>15.999999999999998</ele><time>2026-04-12T07:03:31Z</time></trkpt><trkpt lat="43.40960347913906" lon="10.40762686303818"><ele>16.0</ele><time>2026-04-12T07:03:32Z</time></trkpt><trkpt lat="43.40967016775653" lon="10.407630369683607"><ele>16.0</ele><time>2026-04-12T07:03:33Z</time></trkpt><trkpt lat="43.40973414608706" lon="10.407636573658579"><ele>15.999999999999998</ele><time>2026-04-12T07:03:34Z</time></trkpt><trkpt lat="43.409802424452984" lon="10.407642355856012"><ele>16.0</ele><time>2026-04-12T07:03:35Z</time></trkpt><trkpt lat="43.40987078011279" lon="10.407648766245728"><ele>16.0</ele><time>2026-04-12T07:03:36Z</time></trkpt><trkpt lat="43.4099409612767" lon="10.407657542525781"><ele>16.285714285714285</ele><time>2026-04-12T07:03:37Z</time></trkpt><trkpt lat="43.41000854754203" lon="10.407656113169208"><ele>16.57142857142857</ele><time>2026-04-12T07:03:38Z</time></trkpt><trkpt lat="43.410076101555426" lon="10.407642225328834"><ele>16.857142857142858</ele><time>2026-04-12T07:03:39Z</time></trkpt><trkpt lat="43.410138695252904" lon="10.407610960863295"><ele>17.142857142857142</ele><time>2026-04-12T07:03:40Z</time></trkpt><trkpt lat="43.410195630122345" lon="10.407562440549759"><ele>17.42857142857143</ele><time>2026-04-12T07:03:41Z</time></trkpt><trkpt lat="43.41023355805886" lon="10.407489110191255"><ele>17.714285714285715</ele><time>2026-04-12T07:03:42Z</time></trkpt><trkpt lat="43.41026089616476" lon="10.40740654264596"><ele>18.0</ele><time>2026-04-12T07:03:43Z</time></trkpt><trkpt lat="43.41026994882165" lon="10.407315604342642"><ele>17.4</ele><time>2026-04-12T07:03:44Z</time></trkpt><trkpt lat="43.41025468549683" lon="10.407149779582394"><ele>16.8</ele><time>2026-04-12T07:03:46Z</time></trkpt><trkpt lat="43.410212421179985" lon="10.406991309125141"><ele>16.2</ele><time>2026-04-12T07:03:48Z</time></trkpt><trkpt lat="43.41018790693321" lon="10.406824032187979"><ele>15.6</ele><time>2026-04-12T07:03:50Z</time></trkpt><trkpt lat="43.410172631173545" lon="10.406739805435887"><ele>15.0</ele><time>2026-04-12T07:03:51Z</time></trkpt><trkpt lat="43.41015847853132" lon="10.4066042474642"><ele>15.0</ele><time>2026-04-12T07:03:53Z</time></trkpt><trkpt lat="43.410131502205196" lon="10.406469527518233"><ele>15.0</ele><time>2026-04-12T07:03:55Z</time></trkpt><trkpt lat="43.41011839740539" lon="10.406341018424124"><ele>15.0</ele><time>2026-04-12T07:03:57Z</time></trkpt><trkpt lat="43.41010694378528" lon="10.406215189897935"><ele>15.0</ele><time>2026-04-12T07:03:59Z</time></trkpt><trkpt lat="43.41008938730009" lon="10.406098573208105"><ele>15.0</ele><time>2026-04-12T07:04:01Z</time></trkpt><trkpt lat="43.41007910609463" lon="10.405981271076117"><ele>15.0</ele><time>2026-04-12T07:04:03Z</time></trkpt><trkpt lat="43.41007563434966" lon="10.405860059166454"><ele>15.0</ele><time>2026-04-12T07:04:05Z</time></trkpt><trkpt lat="43.41008668189386" lon="10.405741202059183"><ele>15.0</ele><time>2026-04-12T07:04:07Z</time></trkpt><trkpt lat="43.410100121740264" lon="10.40562184629386"><ele>15.0</ele><time>2026-04-12T07:04:09Z</time></trkpt><trkpt lat="43.41010447248407" lon="10.405503334598224"><ele>15.0</ele><time>2026-04-12T07:04:11Z</time></trkpt><trkpt lat="43.41011744724262" lon="10.405383889328265"><ele>15.0</ele><time>2026-04-12T07:04:13Z</time></trkpt><trkpt lat="43.410139974768676" lon="10.405268839317971"><ele>15.0</ele><time>2026-04-12T07:04:15Z</time></trkpt><trkpt lat="43.41015607261779" lon="10.405168538394994"><ele>15.0</ele><time>2026-04-12T07:04:17Z</time></trkpt><trkpt lat="43.410186075352044" lon="10.405054294334109"><ele>15.0</ele><time>2026-04-12T07:04:19Z</time></trkpt><trkpt lat="43.410214564145235" lon="10.404942605536204"><ele>15.0</ele><time>2026-04-12T07:04:21Z</time></trkpt><trkpt lat="43.41023675749407" lon="10.404825401470152"><ele>15.0</ele><time>2026-04-12T07:04:23Z</time></trkpt><trkpt lat="43.41025995873079" lon="10.404713625176369"><ele>15.0</ele><time>2026-04-12T07:04:25Z</time></trkpt><trkpt lat="43.41029621256531" lon="10.404613230671007"><ele>13.714285714285715</ele><time>2026-04-12T07:04:27Z</time></trkpt><trkpt lat="43.410325685038345" lon="10.40453303318904"><ele>12.428571428571427</ele><time>2026-04-12T07:04:29Z</time></trkpt><trkpt lat="43.410355764384846" lon="10.4044420590329"><ele>11.142857142857142</ele><time>2026-04-12T07:04:31Z</time></trkpt><trkpt lat="43.41039922149652" lon="10.404361068260675"><ele>9.857142857142858</ele><time>2026-04-12T07:04:33Z</time></trkpt><trkpt lat="43.410453849103874" lon="10.40428261904223"><ele>8.571428571428571</ele><time>2026-04-12T07:04:35Z</time></trkpt><trkpt lat="43.41051004557765" lon="10.40420531800859"><ele>7.285714285714285</ele><time>2026-04-12T07:04:37Z</time></trkpt><trkpt lat="43.41057437366443" lon="10.404153340070089"><ele>6.0</ele><time>2026-04-12T07:04:39Z</time></trkpt><trkpt lat="43.410632631170635" lon="10.404093105784439"><ele>9.333333333333332</ele><time>2026-04-12T07:04:41Z</time></trkpt><trkpt lat="43.410696740207435" lon="10.404042861096235"><ele>12.666666666666666</ele><time>2026-04-12T07:04:43Z</time></trkpt><trkpt lat="43.41076710758557" lon="10.40399551988731"><ele>16.0</ele><time>2026-04-12T07:04:45Z</time></trkpt><trkpt lat="43.41083896057184" lon="10.403962525725536"><ele>19.333333333333332</ele><time>2026-04-12T07:04:47Z</time></trkpt><trkpt lat="43.41091085478458" lon="10.403926818888541"><ele>22.666666666666664</ele><time>2026-04-12T07:04:49Z</time></trkpt><trkpt lat="43.41098559877034" lon="10.403904567946565"><ele>26.0</ele><time>2026-04-12T07:04:51Z</time></trkpt><trkpt lat="43.41106276494334" lon="10.403902584491039"><ele>26.0</ele><time>2026-04-12T07:04:53Z</time></trkpt><trkpt lat="43.41114234346163" lon="10.403909893287988"><ele>26.0</ele><time>2026-04-12T07:04:55Z</time></trkpt><trkpt lat="43.41121441408377" lon="10.403902493696753"><ele>26.0</ele><time>2026-04-12T07:04:57Z</time></trkpt><trkpt lat="43.411285861803165" lon="10.403922230669764"><ele>26.0</ele><time>2026-04-12T07:04:59Z</time></trkpt><trkpt lat="43.41135676176978" lon="10.403945122452482"><ele>26.0</ele><time>2026-04-12T07:05:01Z</time></trkpt><trkpt lat="43.411414982812744" lon="10.403983055317054"><ele>26.0</ele><time>2026-04-12T07:05:03Z</time></trkpt><trkpt lat="43.41149000909627" lon="10.40400764212944"><ele>26.0</ele><time>2026-04-12T07:05:05Z</time></trkpt><trkpt lat="43.41156562029228" lon="10.404030900396823"><ele>26.166666666666664</ele><time>2026-04-12T07:05:07Z</time></trkpt><trkpt lat="43.41164103030828" lon="10.404049646531739"><ele>26.333333333333332</ele><time>2026-04-12T07:05:09Z</time></trkpt><trkpt lat="43.4117121478674" lon="10.404081264530229"><ele>26.5</ele><time>2026-04-12T07:05:11Z</time></trkpt><trkpt lat="43.41179264498812" lon="10.404110586177712"><ele>26.666666666666664</ele><time>2026-04-12T07:05:13Z</time></trkpt><trkpt lat="43.41188344474721" lon="10.404134833654194"><ele>26.833333333333332</ele><time>2026-04-12T07:05:15Z</time></trkpt><trkpt lat="43.411947967375916" lon="10.404147195633223"><ele>27.0</ele><time>2026-04-12T07:05:17Z</time></trkpt><trkpt lat="43.4120326972149" lon="10.404162206086426"><ele>27.0</ele><time>2026-04-12T07:05:19Z</time></trkpt><trkpt lat="43.41211400437659" lon="10.404166229890741"><ele>27.0</ele><time>2026-04-12T07:05:21Z</time></trkpt><trkpt lat="43.41219637837396" lon="10.404153971506057"><ele>27.0</ele><time>2026-04-12T07:05:23Z</time></trkpt><trkpt lat="43.412272099595036" lon="10.404120825083062"><ele>27.0</ele><time>2026-04-12T07:05:25Z</time></trkpt><trkpt lat="43.41235156300636" lon="10.40408104309802"><ele>27.0</ele><time>2026-04-12T07:05:27Z</time></trkpt><trkpt lat="43.41242967569469" lon="10.404040601378243"><ele>27.0</ele><time>2026-04-12T07:05:29Z</time></trkpt><trkpt lat="43.412510307500504" lon="10.403989644446467"><ele>28.200000000000003</ele><time>2026-04-12T07:05:31Z</time></trkpt><trkpt lat="43.4125809327289" lon="10.403925450821141"><ele>29.400000000000002</ele><time>2026-04-12T07:05:33Z</time></trkpt><trkpt lat="43.41264946852109" lon="10.403854398290486"><ele>30.599999999999998</ele><time>2026-04-12T07:05:35Z</time></trkpt><trkpt lat="43.412727124751655" lon="10.403776094157466"><ele>31.799999999999997</ele><time>2026-04-12T07:05:37Z</time></trkpt><trkpt lat="43.41279815750815" lon="10.403686942499416"><ele>33.0</ele><time>2026-04-12T07:05:39Z</time></trkpt><trkpt lat="43.41286872416217" lon="10.403577840191868"><ele>33.75</ele><time>2026-04-12T07:05:41Z</time></trkpt><trkpt lat="43.41293530912051" lon="10.403463049394713"><ele>34.5</ele><time>2026-04-12T07:05:43Z</time></trkpt><trkpt lat="43.4130070596885" lon="10.403340448272626"><ele>35.25</ele><time>2026-04-12T07:05:45Z</time></trkpt><trkpt lat="43.4130748763077" lon="10.403199996788388"><ele>36.0</ele><time>2026-04-12T07:05:47Z</time></trkpt><trkpt lat="43.41315262900466" lon="10.403072898791907"><ele>30.75</ele><time>2026-04-12T07:05:49Z</time></trkpt><trkpt lat="43.41322792699963" lon="10.40294481172208"><ele>25.5</ele><time>2026-04-12T07:05:51Z</time></trkpt><trkpt lat="43.41330721260069" lon="10.402828322395445"><ele>20.25</ele><time>2026-04-12T07:05:53Z</time></trkpt><trkpt lat="43.41340665156233" lon="10.40274150567236"><ele>15.0</ele><time>2026-04-12T07:05:55Z</time></trkpt><trkpt lat="43.41351631015061" lon="10.402686096662318"><ele>15.0</ele><time>2026-04-12T07:05:57Z</time></trkpt><trkpt lat="43.413624467399806" lon="10.40266109998364"><ele>15.0</ele><time>2026-04-12T07:05:59Z</time></trkpt><trkpt lat="43.413734318421966" lon="10.402683675726594"><ele>15.0</ele><time>2026-04-12T07:06:01Z</time></trkpt><trkpt lat="43.41383874193155" lon="10.402721171720154"><ele>15.0</ele><time>2026-04-12T07:06:03Z</time></trkpt><trkpt lat="43.41393784848192" lon="10.402751304085287"><ele>15.0</ele><time>2026-04-12T07:06:05Z</time></trkpt><trkpt lat="43.414036066554026" lon="10.402757019324529"><ele>16.4</ele><time>2026-04-12T07:06:07Z</time></trkpt><trkpt lat="43.41413647768309" lon="10.402737724020307"><ele>17.8</ele><time>2026-04-12T07:06:09Z</time></trkpt><trkpt lat="43.414237299739135" lon="10.402687523220207"><ele>19.200000000000003</ele><time>2026-04-12T07:06:11Z</time></trkpt><trkpt lat="43.414342104506034" lon="10.402639355683597"><ele>20.6</ele><time>2026-04-12T07:06:13Z</time></trkpt><trkpt lat="43.41445107949593" lon="10.402575468549598"><ele>22.0</ele><time>2026-04-12T07:06:15Z</time></trkpt><trkpt lat="43.414563533011986" lon="10.402499986891705"><ele>22.0</ele><time>2026-04-12T07:06:17Z</time></trkpt><trkpt lat="43.414620503585006" lon="10.402453947627093"><ele>22.0</ele><time>2026-04-12T07:06:18Z</time></trkpt><trkpt lat="43.41467728168981" lon="10.402403635881488"><ele>22.0</ele><time>2026-04-12T07:06:19Z</time></trkpt><trkpt lat="43.414734332185674" lon="10.402350687426424"><ele>22.0</ele><time>2026-04-12T07:06:20Z</time></trkpt><trkpt lat="43.414791795245236" lon="10.402298290302975"><ele>22.0</ele><time>2026-04-12T07:06:21Z</time></trkpt><trkpt lat="43.414855083819816" lon="10.402249974974865"><ele>22.0</ele><time>2026-04-12T07:06:22Z</time></trkpt><trkpt lat="43.41491810673357" lon="10.402202457142396"><ele>22.0</ele><time>2026-04-12T07:06:23Z</time></trkpt><trkpt lat="43.41498674541639" lon="10.402166668839138"><ele>19.666666666666664</ele><time>2026-04-12T07:06:24Z</time></trkpt><trkpt lat="43.41505683292188" lon="10.40214136448629"><ele>17.333333333333332</ele><time>2026-04-12T07:06:25Z</time></trkpt><trkpt lat="43.41513406562333" lon="10.402121430943838"><ele>15.0</ele><time>2026-04-12T07:06:26Z</time></trkpt><trkpt lat="43.415211000727645" lon="10.402116783802077"><ele>12.666666666666666</ele><time>2026-04-12T07:06:27Z</time></trkpt><trkpt lat="43.41528370938971" lon="10.402108492619984"><ele>10.333333333333332</ele><time>2026-04-12T07:06:28Z</time></trkpt><trkpt lat="43.415357986547825" lon="10.402069365633926"><ele>8.0</ele><time>2026-04-12T07:06:29Z</time></trkpt><trkpt lat="43.41542662868072" lon="10.402007898476585"><ele>10.666666666666666</ele><time>2026-04-12T07:06:30Z</time></trkpt><trkpt lat="43.41548895976199" lon="10.40193147022045"><ele>13.333333333333332</ele><time>2026-04-12T07:06:31Z</time></trkpt><trkpt lat="43.41555657824694" lon="10.401851486425553"><ele>16.0</ele><time>2026-04-12T07:06:32Z</time></trkpt><trkpt lat="43.41561502389008" lon="10.401767874439336"><ele>18.666666666666668</ele><time>2026-04-12T07:06:33Z</time></trkpt><trkpt lat="43.41567356603381" lon="10.401676484544936"><ele>21.333333333333332</ele><time>2026-04-12T07:06:34Z</time></trkpt><trkpt lat="43.41573311448613" lon="10.401584343756095"><ele>24.0</ele><time>2026-04-12T07:06:35Z</time></trkpt><trkpt lat="43.415798963784475" lon="10.401491072020614"><ele>24.0</ele><time>2026-04-12T07:06:36Z</time></trkpt><trkpt lat="43.41588012713622" lon="10.401414897103045"><ele>24.0</ele><time>2026-04-12T07:06:37Z</time></trkpt><trkpt lat="43.41597452823109" lon="10.401364776275441"><ele>24.0</ele><time>2026-04-12T07:06:38Z</time></trkpt><trkpt lat="43.41607704705736" lon="10.401344152586281"><ele>24.0</ele><time>2026-04-12T07:06:39Z</time></trkpt><trkpt lat="43.41617959411332" lon="10.401340572226626"><ele>24.0</ele><time>2026-04-12T07:06:40Z</time></trkpt><trkpt lat="43.41628482465725" lon="10.401340733118216"><ele>24.4</ele><time>2026-04-12T07:06:41Z</time></trkpt><trkpt lat="43.41638563972235" lon="10.401349399583717"><ele>24.799999999999997</ele><time>2026-04-12T07:06:42Z</time></trkpt><trkpt lat="43.416482555250184" lon="10.401372157616258"><ele>25.200000000000003</ele><time>2026-04-12T07:06:43Z</time></trkpt><trkpt lat="43.41659640634818" lon="10.40140891700512"><ele>25.6</ele><time>2026-04-12T07:06:44Z</time></trkpt><trkpt lat="43.41670003118006" lon="10.4014316672874"><ele>26.0</ele><time>2026-04-12T07:06:45Z</time></trkpt><trkpt lat="43.41679584773187" lon="10.401455853358641"><ele>26.0</ele><time>2026-04-12T07:06:46Z</time></trkpt><trkpt lat="43.41689617879484" lon="10.401472575954275"><ele>26.0</ele><time>2026-04-12T07:06:47Z</time></trkpt><trkpt lat="43.41700016910027" lon="10.401473859331462"><ele>26.0</ele><time>2026-04-12T07:06:48Z</time></trkpt><trkpt lat="43.41709123161072" lon="10.401496794664652"><ele>26.0</ele><time>2026-04-12T07:06:49Z</time></trkpt><trkpt lat="43.417190150947526" lon="10.401521487560203"><ele>26.0</ele><time>2026-04-12T07:06:50Z</time></trkpt><trkpt lat="43.41727666602173" lon="10.401539927270672"><ele>24.999999999999996</ele><time>2026-04-12T07:06:51Z</time></trkpt><trkpt lat="43.41736536278683" lon="10.401556386276287"><ele>24.0</ele><time>2026-04-12T07:06:52Z</time></trkpt><trkpt lat="43.417451859693685" lon="10.40157497842247"><ele>23.0</ele><time>2026-04-12T07:06:53Z</time></trkpt><trkpt lat="43.41753554171087" lon="10.40158949680022"><ele>22.0</ele><time>2026-04-12T07:06:54Z</time></trkpt><trkpt lat="43.417624145546704" lon="10.401607641826002"><ele>21.0</ele><time>2026-04-12T07:06:55Z</time></trkpt><trkpt lat="43.417708305835454" lon="10.401624954698699"><ele>20.0</ele><time>2026-04-12T07:06:56Z</time></trkpt><trkpt lat="43.41779171162694" lon="10.401639351470685"><ele>20.0</ele><time>2026-04-12T07:06:57Z</time></trkpt><trkpt lat="43.417875635234836" lon="10.40165853702764"><ele>20.0</ele><time>2026-04-12T07:06:58Z</time></trkpt><trkpt lat="43.41795239486494" lon="10.401680508844562"><ele>20.0</ele><time>2026-04-12T07:06:59Z</time></trkpt><trkpt lat="43.418034101039645" lon="10.40169787314676"><ele>20.0</ele><time>2026-04-12T07:07:00Z</time></trkpt><trkpt lat="43.418112588309306" lon="10.40171010155531"><ele>20.0</ele><time>2026-04-12T07:07:01Z</time></trkpt><trkpt lat="43.418186448229854" lon="10.40172868823949"><ele>20.0</ele><time>2026-04-12T07:07:02Z</time></trkpt><trkpt lat="43.41826558464842" lon="10.40174811433419"><ele>19.333333333333336</ele><time>2026-04-12T07:07:03Z</time></trkpt><trkpt lat="43.41834280014949" lon="10.401759778656533"><ele>18.666666666666668</ele><time>2026-04-12T07:07:04Z</time></trkpt><trkpt lat="43.41841847217084" lon="10.401775249736867"><ele>18.0</ele><time>2026-04-12T07:07:05Z</time></trkpt><trkpt lat="43.41849579566587" lon="10.401789053849008"><ele>17.333333333333332</ele><time>2026-04-12T07:07:06Z</time></trkpt><trkpt lat="43.41856795326331" lon="10.401809059829624"><ele>16.666666666666664</ele><time>2026-04-12T07:07:07Z</time></trkpt><trkpt lat="43.41864178588112" lon="10.401826586043624"><ele>16.0</ele><time>2026-04-12T07:07:08Z</time></trkpt><trkpt lat="43.41871403664821" lon="10.401838426619513"><ele>16.0</ele><time>2026-04-12T07:07:09Z</time></trkpt><trkpt lat="43.41878485372271" lon="10.401852391924153"><ele>15.999999999999998</ele><time>2026-04-12T07:07:10Z</time></trkpt><trkpt lat="43.41886416734273" lon="10.401846730065145"><ele>16.0</ele><time>2026-04-12T07:07:11Z</time></trkpt><trkpt lat="43.41893755747281" lon="10.40186096472919"><ele>16.0</ele><time>2026-04-12T07:07:12Z</time></trkpt><trkpt lat="43.419007200020005" lon="10.401863693285716"><ele>15.999999999999998</ele><time>2026-04-12T07:07:13Z</time></trkpt><trkpt lat="43.419080661367886" lon="10.4018702254664"><ele>16.0</ele><time>2026-04-12T07:07:14Z</time></trkpt><trkpt lat="43.41915166508996" lon="10.401873531410844"><ele>16.0</ele><time>2026-04-12T07:07:15Z</time></trkpt><trkpt lat="43.419226354462275" lon="10.401874120764516"><ele>15.714285714285714</ele><time>2026-04-12T07:07:16Z</time></trkpt><trkpt lat="43.4192972931864" lon="10.401874707304563"><ele>15.428571428571427</ele><time>2026-04-12T07:07:17Z</time></trkpt><trkpt lat="43.41936890879113" lon="10.401876640878566"><ele>15.142857142857142</ele><time>2026-04-12T07:07:18Z</time></trkpt><trkpt lat="43.41943653237538" lon="10.401876593112453"><ele>14.857142857142858</ele><time>2026-04-12T07:07:19Z</time></trkpt><trkpt lat="43.4195041450795" lon="10.401883132448116"><ele>14.571428571428571</ele><time>2026-04-12T07:07:20Z</time></trkpt><trkpt lat="43.41957320684052" lon="10.401885982146146"><ele>14.285714285714285</ele><time>2026-04-12T07:07:21Z</time></trkpt><trkpt lat="43.41964214978012" lon="10.401887650983996"><ele>14.0</ele><time>2026-04-12T07:07:22Z</time></trkpt><trkpt lat="43.4197097003099" lon="10.401885123290239"><ele>13.285714285714286</ele><time>2026-04-12T07:07:23Z</time></trkpt><trkpt lat="43.419774539838016" lon="10.401884684321876"><ele>12.571428571428571</ele><time>2026-04-12T07:07:24Z</time></trkpt><trkpt lat="43.41984173411622" lon="10.401884945144733"><ele>11.857142857142858</ele><time>2026-04-12T07:07:25Z</time></trkpt><trkpt lat="43.419906327099866" lon="10.401894123910655"><ele>11.142857142857142</ele><time>2026-04-12T07:07:26Z</time></trkpt><trkpt lat="43.4199715131303" lon="10.40189992430459"><ele>10.428571428571429</ele><time>2026-04-12T07:07:27Z</time></trkpt><trkpt lat="43.42003750818604" lon="10.40190139817431"><ele>9.714285714285715</ele><time>2026-04-12T07:07:28Z</time></trkpt><trkpt lat="43.42010620777347" lon="10.4018789885295"><ele>9.0</ele><time>2026-04-12T07:07:29Z</time></trkpt><trkpt lat="43.42023119690593" lon="10.401839127011895"><ele>9.0</ele><time>2026-04-12T07:07:31Z</time></trkpt><trkpt lat="43.42028993235923" lon="10.401801852094783"><ele>9.0</ele><time>2026-04-12T07:07:32Z</time></trkpt><trkpt lat="43.420350840672775" lon="10.40175917251988"><ele>9.0</ele><time>2026-04-12T07:07:33Z</time></trkpt><trkpt lat="43.42046705381801" lon="10.401679123738639"><ele>9.0</ele><time>2026-04-12T07:07:35Z</time></trkpt><trkpt lat="43.420520671905116" lon="10.401625344604511"><ele>9.0</ele><time>2026-04-12T07:07:36Z</time></trkpt><trkpt lat="43.42057798031179" lon="10.401579948050548"><ele>9.0</ele><time>2026-04-12T07:07:37Z</time></trkpt><trkpt lat="43.42063447441565" lon="10.401531061457698"><ele>8.5</ele><time>2026-04-12T07:07:38Z</time></trkpt><trkpt lat="43.42068803942648" lon="10.40148047691165"><ele>8.0</ele><time>2026-04-12T07:07:39Z</time></trkpt><trkpt lat="43.42074339541181" lon="10.401432556022852"><ele>7.5</ele><time>2026-04-12T07:07:40Z</time></trkpt><trkpt lat="43.420854449281684" lon="10.401343280035212"><ele>7.0</ele><time>2026-04-12T07:07:42Z</time></trkpt><trkpt lat="43.42090903202375" lon="10.401294991921597"><ele>6.5</ele><time>2026-04-12T07:07:43Z</time></trkpt><trkpt lat="43.42096595385389" lon="10.401257794747636"><ele>6.0</ele><time>2026-04-12T07:07:44Z</time></trkpt><trkpt lat="43.42102505363564" lon="10.401225408592696"><ele>6.0</ele><time>2026-04-12T07:07:45Z</time></trkpt><trkpt lat="43.42108569929458" lon="10.401199594234857"><ele>6.0</ele><time>2026-04-12T07:07:46Z</time></trkpt><trkpt lat="43.42120390402113" lon="10.401179382778801"><ele>6.0</ele><time>2026-04-12T07:07:48Z</time></trkpt><trkpt lat="43.421266755763654" lon="10.401193264636415"><ele>6.0</ele><time>2026-04-12T07:07:49Z</time></trkpt><trkpt lat="43.42138872027289" lon="10.401219366132882"><ele>6.0</ele><time>2026-04-12T07:07:51Z</time></trkpt><trkpt lat="43.42150004890628" lon="10.40125247050761"><ele>7.0</ele><time>2026-04-12T07:07:53Z</time></trkpt><trkpt lat="43.4216039832536" lon="10.401275188919424"><ele>8.0</ele><time>2026-04-12T07:07:55Z</time></trkpt><trkpt lat="43.42172512136044" lon="10.40130506207119"><ele>9.0</ele><time>2026-04-12T07:07:57Z</time></trkpt><trkpt lat="43.42184390811747" lon="10.401335854244998"><ele>10.0</ele><time>2026-04-12T07:07:59Z</time></trkpt><trkpt lat="43.421958438192654" lon="10.401368007887774"><ele>12.2</ele><time>2026-04-12T07:08:01Z</time></trkpt><trkpt lat="43.42206859730465" lon="10.401392205360027"><ele>14.4</ele><time>2026-04-12T07:08:03Z</time></trkpt><trkpt lat="43.42217893839818" lon="10.401422958729134"><ele>16.6</ele><time>2026-04-12T07:08:05Z</time></trkpt><trkpt lat="43.42229182607997" lon="10.401452907487572"><ele>18.8</ele><time>2026-04-12T07:08:07Z</time></trkpt><trkpt lat="43.422399794382784" lon="10.401477681855148"><ele>21.0</ele><time>2026-04-12T07:08:09Z</time></trkpt><trkpt lat="43.422505176331185" lon="10.401507270101527"><ele>21.0</ele><time>2026-04-12T07:08:11Z</time></trkpt><trkpt lat="43.42261094611465" lon="10.401531307285753"><ele>21.0</ele><time>2026-04-12T07:08:13Z</time></trkpt><trkpt lat="43.42271603532168" lon="10.401554843287057"><ele>21.0</ele><time>2026-04-12T07:08:15Z</time></trkpt><trkpt lat="43.42281789653313" lon="10.401590397402167"><ele>21.0</ele><time>2026-04-12T07:08:17Z</time></trkpt><trkpt lat="43.42292594411425" lon="10.401604396754342"><ele>21.0</ele><time>2026-04-12T07:08:19Z</time></trkpt><trkpt lat="43.42303160830243" lon="10.40163806212048"><ele>21.0</ele><time>2026-04-12T07:08:21Z</time></trkpt><trkpt lat="43.423144461671846" lon="10.40163667861886"><ele>21.0</ele><time>2026-04-12T07:08:23Z</time></trkpt><trkpt lat="43.42325807001864" lon="10.401602705521393"><ele>21.0</ele><time>2026-04-12T07:08:25Z</time></trkpt><trkpt lat="43.423369874253815" lon="10.40155770571989"><ele>21.0</ele><time>2026-04-12T07:08:27Z</time></trkpt><trkpt lat="43.423481887764915" lon="10.40151527808228"><ele>21.0</ele><time>2026-04-12T07:08:29Z</time></trkpt><trkpt lat="43.42359162793002" lon="10.401477913622134"><ele>21.0</ele><time>2026-04-12T07:08:31Z</time></trkpt><trkpt lat="43.42369987591222" lon="10.401433175626325"><ele>21.0</ele><time>2026-04-12T07:08:33Z</time></trkpt><trkpt lat="43.42380757561752" lon="10.401393683599874"><ele>21.0</ele><time>2026-04-12T07:08:35Z</time></trkpt><trkpt lat="43.423923739417646" lon="10.401369581490039"><ele>21.4</ele><time>2026-04-12T07:08:37Z</time></trkpt><trkpt lat="43.4240344180548" lon="10.401344285169843"><ele>21.8</ele><time>2026-04-12T07:08:39Z</time></trkpt><trkpt lat="43.42414516633603" lon="10.401330758291603"><ele>22.2</ele><time>2026-04-12T07:08:41Z</time></trkpt><trkpt lat="43.42425677314009" lon="10.401314840412969"><ele>22.599999999999998</ele><time>2026-04-12T07:08:43Z</time></trkpt><trkpt lat="43.424367507456175" lon="10.401296806457736"><ele>23.0</ele><time>2026-04-12T07:08:45Z</time></trkpt><trkpt lat="43.42447706222091" lon="10.401280443888881"><ele>19.75</ele><time>2026-04-12T07:08:47Z</time></trkpt><trkpt lat="43.424587065309815" lon="10.401262043868234"><ele>16.5</ele><time>2026-04-12T07:08:49Z</time></trkpt><trkpt lat="43.42469644699968" lon="10.401243921189558"><ele>13.25</ele><time>2026-04-12T07:08:51Z</time></trkpt><trkpt lat="43.42480694090244" lon="10.401207780272815"><ele>10.0</ele><time>2026-04-12T07:08:53Z</time></trkpt><trkpt lat="43.42492192931035" lon="10.401162931424748"><ele>10.0</ele><time>2026-04-12T07:08:55Z</time></trkpt><trkpt lat="43.425033725273465" lon="10.401105858737841"><ele>10.0</ele><time>2026-04-12T07:08:57Z</time></trkpt><trkpt lat="43.42514913255506" lon="10.401063540286442"><ele>10.0</ele><time>2026-04-12T07:08:59Z</time></trkpt><trkpt lat="43.425263946969785" lon="10.401022448220909"><ele>10.0</ele><time>2026-04-12T07:09:01Z</time></trkpt><trkpt lat="43.425374720066124" lon="10.400983963672783"><ele>12.0</ele><time>2026-04-12T07:09:03Z</time></trkpt><trkpt lat="43.42549262319536" lon="10.400937633292475"><ele>14.0</ele><time>2026-04-12T07:09:05Z</time></trkpt><trkpt lat="43.425549301379306" lon="10.400887288037879"><ele>16.0</ele><time>2026-04-12T07:09:06Z</time></trkpt><trkpt lat="43.42566334255429" lon="10.400841144120385"><ele>18.0</ele><time>2026-04-12T07:09:08Z</time></trkpt><trkpt lat="43.42576494048567" lon="10.400770107328858"><ele>20.0</ele><time>2026-04-12T07:09:10Z</time></trkpt><trkpt lat="43.42583356498639" lon="10.40064256139976"><ele>20.0</ele><time>2026-04-12T07:09:12Z</time></trkpt><trkpt lat="43.42590526112704" lon="10.400503686942415"><ele>20.0</ele><time>2026-04-12T07:09:14Z</time></trkpt><trkpt lat="43.42596992009767" lon="10.400362811164058"><ele>20.0</ele><time>2026-04-12T07:09:16Z</time></trkpt><trkpt lat="43.42604339790057" lon="10.400219763553606"><ele>20.0</ele><time>2026-04-12T07:09:18Z</time></trkpt><trkpt lat="43.426087748770605" lon="10.400149654773838"><ele>20.0</ele><time>2026-04-12T07:09:19Z</time></trkpt><trkpt lat="43.42614061509737" lon="10.400090692848195"><ele>19.5</ele><time>2026-04-12T07:09:20Z</time></trkpt><trkpt lat="43.42619427093324" lon="10.400038942708017"><ele>19.0</ele><time>2026-04-12T07:09:21Z</time></trkpt><trkpt lat="43.42625262577747" lon="10.399997932195223"><ele>18.5</ele><time>2026-04-12T07:09:22Z</time></trkpt><trkpt lat="43.426319211983596" lon="10.399970057321603"><ele>18.0</ele><time>2026-04-12T07:09:23Z</time></trkpt><trkpt lat="43.42638104879078" lon="10.399949383250826"><ele>17.5</ele><time>2026-04-12T07:09:24Z</time></trkpt><trkpt lat="43.426498579144265" lon="10.399920965810857"><ele>17.0</ele><time>2026-04-12T07:09:26Z</time></trkpt><trkpt lat="43.426606562704904" lon="10.39987657560046"><ele>17.0</ele><time>2026-04-12T07:09:28Z</time></trkpt><trkpt lat="43.42669074037348" lon="10.399790684361212"><ele>17.0</ele><time>2026-04-12T07:09:30Z</time></trkpt><trkpt lat="43.42676632512952" lon="10.399689368696782"><ele>17.0</ele><time>2026-04-12T07:09:32Z</time></trkpt><trkpt lat="43.42682083285748" lon="10.399560215541396"><ele>17.0</ele><time>2026-04-12T07:09:34Z</time></trkpt><trkpt lat="43.42686509636865" lon="10.399411930757879"><ele>17.0</ele><time>2026-04-12T07:09:36Z</time></trkpt><trkpt lat="43.42690917003087" lon="10.39925577970101"><ele>17.4</ele><time>2026-04-12T07:09:38Z</time></trkpt><trkpt lat="43.42695744165701" lon="10.399115635609745"><ele>17.799999999999997</ele><time>2026-04-12T07:09:40Z</time></trkpt><trkpt lat="43.427039245797395" lon="10.398991586638594"><ele>18.2</ele><time>2026-04-12T07:09:42Z</time></trkpt><trkpt lat="43.42709580494086" lon="10.398952304063465"><ele>18.599999999999998</ele><time>2026-04-12T07:09:43Z</time></trkpt><trkpt lat="43.42721004900288" lon="10.398906199390591"><ele>19.0</ele><time>2026-04-12T07:09:45Z</time></trkpt><trkpt lat="43.42732247179576" lon="10.398890701474755"><ele>19.0</ele><time>2026-04-12T07:09:47Z</time></trkpt><trkpt lat="43.42744331262728" lon="10.398865784056543"><ele>19.0</ele><time>2026-04-12T07:09:49Z</time></trkpt><trkpt lat="43.42756220304927" lon="10.398848647191635"><ele>19.0</ele><time>2026-04-12T07:09:51Z</time></trkpt><trkpt lat="43.427679390725444" lon="10.39883312537068"><ele>19.0</ele><time>2026-04-12T07:09:53Z</time></trkpt><trkpt lat="43.427794230176" lon="10.3987881213269"><ele>18.4</ele><time>2026-04-12T07:09:55Z</time></trkpt><trkpt lat="43.427894119327746" lon="10.398697153528042"><ele>17.799999999999997</ele><time>2026-04-12T07:09:57Z</time></trkpt><trkpt lat="43.42798747953137" lon="10.398578784243895"><ele>17.200000000000003</ele><time>2026-04-12T07:09:59Z</time></trkpt><trkpt lat="43.428034346049614" lon="10.398519847808888"><ele>16.6</ele><time>2026-04-12T07:10:00Z</time></trkpt><trkpt lat="43.428079195509554" lon="10.398456655752724"><ele>16.0</ele><time>2026-04-12T07:10:01Z</time></trkpt><trkpt lat="43.428169600108184" lon="10.398339368693092"><ele>16.0</ele><time>2026-04-12T07:10:03Z</time></trkpt><trkpt lat="43.42820800120982" lon="10.398270600883238"><ele>16.0</ele><time>2026-04-12T07:10:04Z</time></trkpt><trkpt lat="43.42828452937415" lon="10.398151661464258"><ele>16.0</ele><time>2026-04-12T07:10:06Z</time></trkpt><trkpt lat="43.42835135137108" lon="10.398036781876375"><ele>16.0</ele><time>2026-04-12T07:10:08Z</time></trkpt><trkpt lat="43.42840946863595" lon="10.397924119593759"><ele>16.0</ele><time>2026-04-12T07:10:10Z</time></trkpt><trkpt lat="43.428445971464114" lon="10.397805411207743"><ele>16.166666666666664</ele><time>2026-04-12T07:10:12Z</time></trkpt><trkpt lat="43.428475293363675" lon="10.397686177429753"><ele>16.333333333333332</ele><time>2026-04-12T07:10:14Z</time></trkpt><trkpt lat="43.42849965168662" lon="10.397567978193203"><ele>16.5</ele><time>2026-04-12T07:10:16Z</time></trkpt><trkpt lat="43.42852332969109" lon="10.397449437814455"><ele>16.666666666666668</ele><time>2026-04-12T07:10:18Z</time></trkpt><trkpt lat="43.428550430085465" lon="10.397330804615896"><ele>16.833333333333336</ele><time>2026-04-12T07:10:20Z</time></trkpt><trkpt lat="43.42856955664677" lon="10.397212269289522"><ele>17.0</ele><time>2026-04-12T07:10:22Z</time></trkpt><trkpt lat="43.42859544842899" lon="10.39709513339597"><ele>16.666666666666668</ele><time>2026-04-12T07:10:24Z</time></trkpt><trkpt lat="43.4286173749147" lon="10.396985499286004"><ele>16.333333333333336</ele><time>2026-04-12T07:10:26Z</time></trkpt><trkpt lat="43.428648374809626" lon="10.39687176929025"><ele>16.0</ele><time>2026-04-12T07:10:28Z</time></trkpt><trkpt lat="43.428689016007766" lon="10.396763476277117"><ele>15.666666666666668</ele><time>2026-04-12T07:10:30Z</time></trkpt><trkpt lat="43.42873828042125" lon="10.396661505090323"><ele>15.333333333333334</ele><time>2026-04-12T07:10:32Z</time></trkpt><trkpt lat="43.42879967123662" lon="10.396566596728052"><ele>15.0</ele><time>2026-04-12T07:10:34Z</time></trkpt><trkpt lat="43.4288714500028" lon="10.396476993666665"><ele>16.2</ele><time>2026-04-12T07:10:36Z</time></trkpt><trkpt lat="43.428951416629396" lon="10.396404200281467"><ele>17.4</ele><time>2026-04-12T07:10:38Z</time></trkpt><trkpt lat="43.429039367960584" lon="10.396338593286606"><ele>18.6</ele><time>2026-04-12T07:10:40Z</time></trkpt><trkpt lat="43.429125488667765" lon="10.396277367246284"><ele>19.8</ele><time>2026-04-12T07:10:42Z</time></trkpt><trkpt lat="43.42921694100182" lon="10.396214285098365"><ele>21.0</ele><time>2026-04-12T07:10:44Z</time></trkpt><trkpt lat="43.429301147590024" lon="10.396140355113415"><ele>21.0</ele><time>2026-04-12T07:10:46Z</time></trkpt><trkpt lat="43.4293827474187" lon="10.396054323057335"><ele>21.0</ele><time>2026-04-12T07:10:48Z</time></trkpt><trkpt lat="43.42944058646123" lon="10.395943168624399"><ele>21.0</ele><time>2026-04-12T07:10:50Z</time></trkpt><trkpt lat="43.4294913641548" lon="10.395823408794449"><ele>21.0</ele><time>2026-04-12T07:10:52Z</time></trkpt><trkpt lat="43.429541870720584" lon="10.395715636444116"><ele>21.0</ele><time>2026-04-12T07:10:54Z</time></trkpt><trkpt lat="43.42958386768843" lon="10.395612002140703"><ele>21.0</ele><time>2026-04-12T07:10:56Z</time></trkpt><trkpt lat="43.4296239881956" lon="10.395506017039851"><ele>21.0</ele><time>2026-04-12T07:10:58Z</time></trkpt><trkpt lat="43.429665213460346" lon="10.395406585250502"><ele>21.0</ele><time>2026-04-12T07:11:00Z</time></trkpt><trkpt lat="43.42971108476021" lon="10.395305490162707"><ele>21.0</ele><time>2026-04-12T07:11:02Z</time></trkpt><trkpt lat="43.42975882823883" lon="10.39521105237065"><ele>21.0</ele><time>2026-04-12T07:11:04Z</time></trkpt><trkpt lat="43.42980176898348" lon="10.395136497368739"><ele>21.0</ele><time>2026-04-12T07:11:05Z</time></trkpt><trkpt lat="43.42985812685694" lon="10.395057960215512"><ele>21.0</ele><time>2026-04-12T07:11:07Z</time></trkpt><trkpt lat="43.42993741423417" lon="10.39497646698641"><ele>21.0</ele><time>2026-04-12T07:11:09Z</time></trkpt><trkpt lat="43.43001899884621" lon="10.394916172129347"><ele>21.0</ele><time>2026-04-12T07:11:11Z</time></trkpt><trkpt lat="43.43008180147537" lon="10.394899832329342"><ele>21.0</ele><time>2026-04-12T07:11:13Z</time></trkpt><trkpt lat="43.43013536742733" lon="10.394806127760061"><ele>21.0</ele><time>2026-04-12T07:11:23Z</time></trkpt><trkpt lat="43.430211547536985" lon="10.394702440877166"><ele>21.0</ele><time>2026-04-12T07:11:26Z</time></trkpt><trkpt lat="43.43028247393846" lon="10.394597949236616"><ele>21.0</ele><time>2026-04-12T07:11:28Z</time></trkpt><trkpt lat="43.43035657383266" lon="10.39446735512682"><ele>21.0</ele><time>2026-04-12T07:11:30Z</time></trkpt><trkpt lat="43.43039598887014" lon="10.394397456902952"><ele>21.0</ele><time>2026-04-12T07:11:31Z</time></trkpt><trkpt lat="43.430434735606" lon="10.394320461958939"><ele>21.0</ele><time>2026-04-12T07:11:32Z</time></trkpt><trkpt lat="43.430477586855915" lon="10.394238827249083"><ele>21.0</ele><time>2026-04-12T07:11:33Z</time></trkpt><trkpt lat="43.430517829430265" lon="10.39415356817521"><ele>21.0</ele><time>2026-04-12T07:11:34Z</time></trkpt><trkpt lat="43.43055614377406" lon="10.394062920356324"><ele>21.0</ele><time>2026-04-12T07:11:35Z</time></trkpt><trkpt lat="43.430600806577964" lon="10.39397485862093"><ele>21.0</ele><time>2026-04-12T07:11:36Z</time></trkpt><trkpt lat="43.430648205081724" lon="10.393884944901812"><ele>21.0</ele><time>2026-04-12T07:11:37Z</time></trkpt><trkpt lat="43.43069844306175" lon="10.39379340714543"><ele>21.0</ele><time>2026-04-12T07:11:38Z</time></trkpt><trkpt lat="43.43074651036029" lon="10.39369729764236"><ele>21.0</ele><time>2026-04-12T07:11:39Z</time></trkpt><trkpt lat="43.43079607227647" lon="10.393598401662965"><ele>21.0</ele><time>2026-04-12T07:11:40Z</time></trkpt><trkpt lat="43.43084396596901" lon="10.393500262105274"><ele>20.333333333333332</ele><time>2026-04-12T07:11:41Z</time></trkpt><trkpt lat="43.43089074571368" lon="10.393398700164624"><ele>19.666666666666668</ele><time>2026-04-12T07:11:42Z</time></trkpt><trkpt lat="43.43093021297511" lon="10.393300098111121"><ele>19.0</ele><time>2026-04-12T07:11:43Z</time></trkpt><trkpt lat="43.430972912073614" lon="10.39320364460799"><ele>18.333333333333336</ele><time>2026-04-12T07:11:44Z</time></trkpt><trkpt lat="43.431014272770184" lon="10.393111313493074"><ele>17.666666666666668</ele><time>2026-04-12T07:11:45Z</time></trkpt><trkpt lat="43.43104282852139" lon="10.393012358889413"><ele>17.0</ele><time>2026-04-12T07:11:46Z</time></trkpt><trkpt lat="43.4310593274663" lon="10.392911969641892"><ele>16.2</ele><time>2026-04-12T07:11:47Z</time></trkpt><trkpt lat="43.431067641677124" lon="10.392811506461497"><ele>15.399999999999999</ele><time>2026-04-12T07:11:48Z</time></trkpt><trkpt lat="43.43106734130274" lon="10.392715813780335"><ele>14.600000000000001</ele><time>2026-04-12T07:11:49Z</time></trkpt><trkpt lat="43.4310634441644" lon="10.392623812934694"><ele>13.8</ele><time>2026-04-12T07:11:50Z</time></trkpt><trkpt lat="43.43106214583245" lon="10.392449077056874"><ele>13.0</ele><time>2026-04-12T07:11:52Z</time></trkpt><trkpt lat="43.43106854661539" lon="10.392274930023994"><ele>12.200000000000001</ele><time>2026-04-12T07:11:54Z</time></trkpt><trkpt lat="43.431096222196906" lon="10.392119028318627"><ele>11.4</ele><time>2026-04-12T07:11:56Z</time></trkpt><trkpt lat="43.43113322736342" lon="10.391976951799077"><ele>10.600000000000001</ele><time>2026-04-12T07:11:58Z</time></trkpt><trkpt lat="43.43118368163211" lon="10.391841710339868"><ele>9.8</ele><time>2026-04-12T07:12:00Z</time></trkpt><trkpt lat="43.43124858905057" lon="10.391721484966268"><ele>9.0</ele><time>2026-04-12T07:12:02Z</time></trkpt><trkpt lat="43.431315432145475" lon="10.391615160599597"><ele>10.4</ele><time>2026-04-12T07:12:04Z</time></trkpt><trkpt lat="43.43139753121021" lon="10.391517250182906"><ele>11.8</ele><time>2026-04-12T07:12:06Z</time></trkpt><trkpt lat="43.43147987063932" lon="10.391429665171371"><ele>13.200000000000001</ele><time>2026-04-12T07:12:08Z</time></trkpt><trkpt lat="43.431567948799675" lon="10.391347761053433"><ele>14.600000000000001</ele><time>2026-04-12T07:12:10Z</time></trkpt><trkpt lat="43.431658914108574" lon="10.391278888147047"><ele>16.0</ele><time>2026-04-12T07:12:12Z</time></trkpt><trkpt lat="43.43174772888765" lon="10.39121627988148"><ele>16.0</ele><time>2026-04-12T07:12:14Z</time></trkpt><trkpt lat="43.43184512186911" lon="10.391132550578295"><ele>16.0</ele><time>2026-04-12T07:12:16Z</time></trkpt><trkpt lat="43.43193738403557" lon="10.391071846399788"><ele>16.0</ele><time>2026-04-12T07:12:18Z</time></trkpt><trkpt lat="43.43202928295417" lon="10.391005525663399"><ele>16.0</ele><time>2026-04-12T07:12:20Z</time></trkpt><trkpt lat="43.432118537035635" lon="10.39093318379806"><ele>16.0</ele><time>2026-04-12T07:12:22Z</time></trkpt><trkpt lat="43.43221523413055" lon="10.390872419183689"><ele>17.0</ele><time>2026-04-12T07:12:24Z</time></trkpt><trkpt lat="43.4323003342369" lon="10.39081188815578"><ele>18.0</ele><time>2026-04-12T07:12:26Z</time></trkpt><trkpt lat="43.43239265344278" lon="10.390730817926558"><ele>19.0</ele><time>2026-04-12T07:12:28Z</time></trkpt><trkpt lat="43.43247950759115" lon="10.390680893568849"><ele>20.0</ele><time>2026-04-12T07:12:30Z</time></trkpt><trkpt lat="43.43257250272743" lon="10.390610634503332"><ele>21.0</ele><time>2026-04-12T07:12:32Z</time></trkpt><trkpt lat="43.432668754467755" lon="10.390547738359087"><ele>20.8</ele><time>2026-04-12T07:12:34Z</time></trkpt><trkpt lat="43.43276544674572" lon="10.390469670356822"><ele>20.6</ele><time>2026-04-12T07:12:36Z</time></trkpt><trkpt lat="43.432847620815146" lon="10.39040207822695"><ele>20.4</ele><time>2026-04-12T07:12:38Z</time></trkpt><trkpt lat="43.43290460833748" lon="10.390360456185654"><ele>20.2</ele><time>2026-04-12T07:12:39Z</time></trkpt><trkpt lat="43.43299127624109" lon="10.390297799759853"><ele>20.0</ele><time>2026-04-12T07:12:41Z</time></trkpt><trkpt lat="43.43308869545085" lon="10.390235110297606"><ele>20.0</ele><time>2026-04-12T07:12:43Z</time></trkpt><trkpt lat="43.433180592815035" lon="10.390168037995604"><ele>20.0</ele><time>2026-04-12T07:12:45Z</time></trkpt><trkpt lat="43.43327732820497" lon="10.390094966209592"><ele>20.0</ele><time>2026-04-12T07:12:47Z</time></trkpt><trkpt lat="43.43336465596203" lon="10.390045692686295"><ele>20.0</ele><time>2026-04-12T07:12:49Z</time></trkpt><trkpt lat="43.43345352703769" lon="10.389969558318903"><ele>20.0</ele><time>2026-04-12T07:12:51Z</time></trkpt><trkpt lat="43.433563329047615" lon="10.389932286303365"><ele>20.0</ele><time>2026-04-12T07:12:53Z</time></trkpt><trkpt lat="43.4336404246856" lon="10.389868902465553"><ele>20.0</ele><time>2026-04-12T07:12:55Z</time></trkpt><trkpt lat="43.43373030214467" lon="10.389784791634654"><ele>20.0</ele><time>2026-04-12T07:12:57Z</time></trkpt><trkpt lat="43.43381565828433" lon="10.389715232557622"><ele>20.0</ele><time>2026-04-12T07:12:59Z</time></trkpt><trkpt lat="43.43391180563339" lon="10.389669837288917"><ele>20.0</ele><time>2026-04-12T07:13:01Z</time></trkpt><trkpt lat="43.43400009573449" lon="10.389593246581464"><ele>19.4</ele><time>2026-04-12T07:13:03Z</time></trkpt><trkpt lat="43.43408993641314" lon="10.389516199962756"><ele>18.8</ele><time>2026-04-12T07:13:05Z</time></trkpt><trkpt lat="43.434181031508444" lon="10.389453202800789"><ele>18.2</ele><time>2026-04-12T07:13:07Z</time></trkpt><trkpt lat="43.43426726071423" lon="10.389386874473285"><ele>17.6</ele><time>2026-04-12T07:13:09Z</time></trkpt><trkpt lat="43.434350997336466" lon="10.389316288126961"><ele>17.0</ele><time>2026-04-12T07:13:11Z</time></trkpt><trkpt lat="43.43444359672648" lon="10.389252899971124"><ele>17.0</ele><time>2026-04-12T07:13:13Z</time></trkpt><trkpt lat="43.43452174659176" lon="10.389168144829577"><ele>17.0</ele><time>2026-04-12T07:13:15Z</time></trkpt><trkpt lat="43.434613837638494" lon="10.389099101505696"><ele>17.0</ele><time>2026-04-12T07:13:17Z</time></trkpt><trkpt lat="43.43470851551103" lon="10.389042762807657"><ele>17.0</ele><time>2026-04-12T07:13:19Z</time></trkpt><trkpt lat="43.434787928893044" lon="10.388985888400137"><ele>17.0</ele><time>2026-04-12T07:13:21Z</time></trkpt><trkpt lat="43.43485067289582" lon="10.388939579766399"><ele>17.2</ele><time>2026-04-12T07:13:22Z</time></trkpt><trkpt lat="43.43493657762085" lon="10.388885886838002"><ele>17.4</ele><time>2026-04-12T07:13:24Z</time></trkpt><trkpt lat="43.43503053699163" lon="10.388817888396057"><ele>17.6</ele><time>2026-04-12T07:13:26Z</time></trkpt><trkpt lat="43.435126971736565" lon="10.388753312582956"><ele>17.8</ele><time>2026-04-12T07:13:28Z</time></trkpt><trkpt lat="43.43523471768885" lon="10.388699565564496"><ele>18.0</ele><time>2026-04-12T07:13:30Z</time></trkpt><trkpt lat="43.435342850914154" lon="10.388615145825518"><ele>18.0</ele><time>2026-04-12T07:13:32Z</time></trkpt><trkpt lat="43.435423359556346" lon="10.388567298102343"><ele>18.0</ele><time>2026-04-12T07:13:34Z</time></trkpt><trkpt lat="43.435477808433696" lon="10.388512621362704"><ele>18.0</ele><time>2026-04-12T07:13:36Z</time></trkpt><trkpt lat="43.435572469316895" lon="10.388448843399997"><ele>18.0</ele><time>2026-04-12T07:13:37Z</time></trkpt><trkpt lat="43.43564358920778" lon="10.388404308444334"><ele>18.0</ele><time>2026-04-12T07:13:38Z</time></trkpt><trkpt lat="43.4357151010438" lon="10.388366260754303"><ele>18.0</ele><time>2026-04-12T07:13:39Z</time></trkpt><trkpt lat="43.43577780253736" lon="10.388329527951589"><ele>18.28571428571429</ele><time>2026-04-12T07:13:40Z</time></trkpt><trkpt lat="43.435842299012144" lon="10.38829580425827"><ele>18.571428571428573</ele><time>2026-04-12T07:13:41Z</time></trkpt><trkpt lat="43.4359110303044" lon="10.388262364353777"><ele>18.857142857142858</ele><time>2026-04-12T07:13:42Z</time></trkpt><trkpt lat="43.43597730624011" lon="10.388220588356118"><ele>19.142857142857146</ele><time>2026-04-12T07:13:43Z</time></trkpt><trkpt lat="43.436044258122244" lon="10.388188958936523"><ele>19.42857142857143</ele><time>2026-04-12T07:13:44Z</time></trkpt><trkpt lat="43.43611250472385" lon="10.388151321617412"><ele>19.714285714285715</ele><time>2026-04-12T07:13:45Z</time></trkpt><trkpt lat="43.43617995808341" lon="10.388121578914639"><ele>20.0</ele><time>2026-04-12T07:13:46Z</time></trkpt><trkpt lat="43.43624572558372" lon="10.388084477087496"><ele>20.0</ele><time>2026-04-12T07:13:47Z</time></trkpt><trkpt lat="43.43632254644996" lon="10.3880507682738"><ele>20.0</ele><time>2026-04-12T07:13:48Z</time></trkpt><trkpt lat="43.436383399069804" lon="10.388016268861831"><ele>20.0</ele><time>2026-04-12T07:13:49Z</time></trkpt><trkpt lat="43.43644778045528" lon="10.387982542472965"><ele>20.0</ele><time>2026-04-12T07:13:50Z</time></trkpt><trkpt lat="43.436511243979524" lon="10.387947112735088"><ele>20.0</ele><time>2026-04-12T07:13:51Z</time></trkpt><trkpt lat="43.43658272094791" lon="10.387913268677993"><ele>20.0</ele><time>2026-04-12T07:13:52Z</time></trkpt><trkpt lat="43.436650221069385" lon="10.387878380961169"><ele>20.0</ele><time>2026-04-12T07:13:53Z</time></trkpt><trkpt lat="43.436722308281595" lon="10.387842242814305"><ele>19.57142857142857</ele><time>2026-04-12T07:13:54Z</time></trkpt><trkpt lat="43.43678743959724" lon="10.38781129081869"><ele>19.142857142857142</ele><time>2026-04-12T07:13:55Z</time></trkpt><trkpt lat="43.436853974681156" lon="10.387774967665383"><ele>18.714285714285715</ele><time>2026-04-12T07:13:56Z</time></trkpt><trkpt lat="43.43692107953732" lon="10.387742366165691"><ele>18.285714285714285</ele><time>2026-04-12T07:13:57Z</time></trkpt><trkpt lat="43.436987344337275" lon="10.387704916755682"><ele>17.857142857142858</ele><time>2026-04-12T07:13:58Z</time></trkpt><trkpt lat="43.43705529964256" lon="10.387671257937804"><ele>17.428571428571427</ele><time>2026-04-12T07:13:59Z</time></trkpt><trkpt lat="43.43712283395667" lon="10.387654691281453"><ele>17.0</ele><time>2026-04-12T07:14:00Z</time></trkpt><trkpt lat="43.437186191669916" lon="10.387607042999244"><ele>17.0</ele><time>2026-04-12T07:14:01Z</time></trkpt><trkpt lat="43.43724976827851" lon="10.387575552152223"><ele>17.0</ele><time>2026-04-12T07:14:02Z</time></trkpt><trkpt lat="43.43731428614413" lon="10.38753891625331"><ele>17.0</ele><time>2026-04-12T07:14:03Z</time></trkpt><trkpt lat="43.43737406260018" lon="10.387507873762216"><ele>17.0</ele><time>2026-04-12T07:14:04Z</time></trkpt><trkpt lat="43.43749246243119" lon="10.387445473426014"><ele>17.0</ele><time>2026-04-12T07:14:06Z</time></trkpt><trkpt lat="43.437553162806786" lon="10.38741524376388"><ele>17.0</ele><time>2026-04-12T07:14:07Z</time></trkpt><trkpt lat="43.437666744339396" lon="10.387352174114975"><ele>17.0</ele><time>2026-04-12T07:14:09Z</time></trkpt><trkpt lat="43.43778543091514" lon="10.387292644223923"><ele>17.0</ele><time>2026-04-12T07:14:11Z</time></trkpt><trkpt lat="43.43784484159933" lon="10.387261338424022"><ele>17.0</ele><time>2026-04-12T07:14:12Z</time></trkpt><trkpt lat="43.437955655573475" lon="10.387200849916727"><ele>17.0</ele><time>2026-04-12T07:14:14Z</time></trkpt><trkpt lat="43.43807095236085" lon="10.38714284164943"><ele>17.0</ele><time>2026-04-12T07:14:16Z</time></trkpt><trkpt lat="43.438132726516976" lon="10.38711240310947"><ele>15.75</ele><time>2026-04-12T07:14:17Z</time></trkpt><trkpt lat="43.43825062114962" lon="10.3870530649979"><ele>14.5</ele><time>2026-04-12T07:14:19Z</time></trkpt><trkpt lat="43.43836671375326" lon="10.386992925127773"><ele>13.25</ele><time>2026-04-12T07:14:21Z</time></trkpt><trkpt lat="43.43848184304444" lon="10.386935012783379"><ele>12.0</ele><time>2026-04-12T07:14:23Z</time></trkpt><trkpt lat="43.438594684373555" lon="10.3868745016393"><ele>12.0</ele><time>2026-04-12T07:14:25Z</time></trkpt><trkpt lat="43.438656633269595" lon="10.386845148285639"><ele>12.0</ele><time>2026-04-12T07:14:26Z</time></trkpt><trkpt lat="43.438717213438586" lon="10.386817073151693"><ele>12.0</ele><time>2026-04-12T07:14:27Z</time></trkpt><trkpt lat="43.43883623473473" lon="10.38675588827821"><ele>12.0</ele><time>2026-04-12T07:14:29Z</time></trkpt><trkpt lat="43.438953217000204" lon="10.386698748922688"><ele>12.0</ele><time>2026-04-12T07:14:31Z</time></trkpt><trkpt lat="43.4390791756176" lon="10.386642274634765"><ele>13.25</ele><time>2026-04-12T07:14:33Z</time></trkpt><trkpt lat="43.439185390303315" lon="10.38657924190211"><ele>14.5</ele><time>2026-04-12T07:14:35Z</time></trkpt><trkpt lat="43.439298019828634" lon="10.386517454048331"><ele>15.75</ele><time>2026-04-12T07:14:37Z</time></trkpt><trkpt lat="43.439407105019534" lon="10.386456022506325"><ele>17.0</ele><time>2026-04-12T07:14:39Z</time></trkpt><trkpt lat="43.439513617819514" lon="10.386377708426346"><ele>17.0</ele><time>2026-04-12T07:14:41Z</time></trkpt><trkpt lat="43.439578637173106" lon="10.386347416960922"><ele>17.0</ele><time>2026-04-12T07:14:42Z</time></trkpt><trkpt lat="43.43968962085706" lon="10.386294229599411"><ele>17.0</ele><time>2026-04-12T07:14:44Z</time></trkpt><trkpt lat="43.439794064168105" lon="10.386239065932557"><ele>17.0</ele><time>2026-04-12T07:14:46Z</time></trkpt><trkpt lat="43.439909346300155" lon="10.386184486803272"><ele>17.0</ele><time>2026-04-12T07:14:48Z</time></trkpt><trkpt lat="43.440018108573916" lon="10.38614039781508"><ele>17.0</ele><time>2026-04-12T07:14:50Z</time></trkpt><trkpt lat="43.44012200479442" lon="10.386071984986309"><ele>17.0</ele><time>2026-04-12T07:14:52Z</time></trkpt><trkpt lat="43.4402263399313" lon="10.386008058678962"><ele>17.0</ele><time>2026-04-12T07:14:54Z</time></trkpt><trkpt lat="43.44032655968631" lon="10.38593762208442"><ele>17.0</ele><time>2026-04-12T07:14:56Z</time></trkpt><trkpt lat="43.440437039743784" lon="10.385871281496662"><ele>17.0</ele><time>2026-04-12T07:14:58Z</time></trkpt><trkpt lat="43.44053773898731" lon="10.385797482181003"><ele>17.0</ele><time>2026-04-12T07:15:00Z</time></trkpt><trkpt lat="43.440630466325686" lon="10.385719711510829"><ele>17.0</ele><time>2026-04-12T07:15:02Z</time></trkpt><trkpt lat="43.44073441801285" lon="10.385652273138552"><ele>17.0</ele><time>2026-04-12T07:15:04Z</time></trkpt><trkpt lat="43.44084629200953" lon="10.385579326743706"><ele>16.5</ele><time>2026-04-12T07:15:06Z</time></trkpt><trkpt lat="43.44094616637183" lon="10.385502009454576"><ele>16.0</ele><time>2026-04-12T07:15:08Z</time></trkpt><trkpt lat="43.44105160947982" lon="10.385424551452084"><ele>15.5</ele><time>2026-04-12T07:15:10Z</time></trkpt><trkpt lat="43.44115240778242" lon="10.385349494771388"><ele>15.0</ele><time>2026-04-12T07:15:12Z</time></trkpt><trkpt lat="43.44125183529725" lon="10.38528362594488"><ele>16.0</ele><time>2026-04-12T07:15:14Z</time></trkpt><trkpt lat="43.44135179014519" lon="10.385218365012186"><ele>17.0</ele><time>2026-04-12T07:15:16Z</time></trkpt><trkpt lat="43.44145537104105" lon="10.385157310916185"><ele>18.0</ele><time>2026-04-12T07:15:18Z</time></trkpt><trkpt lat="43.44155126504658" lon="10.385078911299853"><ele>19.0</ele><time>2026-04-12T07:15:20Z</time></trkpt><trkpt lat="43.44164914817945" lon="10.385014059095496"><ele>20.0</ele><time>2026-04-12T07:15:22Z</time></trkpt><trkpt lat="43.4417445538895" lon="10.384939446925454"><ele>20.0</ele><time>2026-04-12T07:15:23.999Z</time></trkpt><trkpt lat="43.44184327866604" lon="10.38486641765146"><ele>20.0</ele><time>2026-04-12T07:15:25.999Z</time></trkpt><trkpt lat="43.44194317198255" lon="10.384804098215895"><ele>20.0</ele><time>2026-04-12T07:15:28Z</time></trkpt><trkpt lat="43.44203846434383" lon="10.38473282337454"><ele>20.0</ele><time>2026-04-12T07:15:30Z</time></trkpt><trkpt lat="43.442132320996855" lon="10.384657662829783"><ele>20.0</ele><time>2026-04-12T07:15:32Z</time></trkpt><trkpt lat="43.442236405641914" lon="10.384592684271015"><ele>18.5</ele><time>2026-04-12T07:15:34Z</time></trkpt><trkpt lat="43.442346481309556" lon="10.384524251020043"><ele>17.0</ele><time>2026-04-12T07:15:36Z</time></trkpt><trkpt lat="43.44244894432474" lon="10.384451500917597"><ele>15.5</ele><time>2026-04-12T07:15:38Z</time></trkpt><trkpt lat="43.44254534033322" lon="10.384369756906644"><ele>14.0</ele><time>2026-04-12T07:15:40Z</time></trkpt><trkpt lat="43.44264167697129" lon="10.384297913016779"><ele>14.0</ele><time>2026-04-12T07:15:42Z</time></trkpt><trkpt lat="43.44274124227007" lon="10.384229447688542"><ele>14.0</ele><time>2026-04-12T07:15:44Z</time></trkpt><trkpt lat="43.442841478796545" lon="10.384150184052386"><ele>14.0</ele><time>2026-04-12T07:15:46Z</time></trkpt><trkpt lat="43.442945429252156" lon="10.384076902534261"><ele>14.0</ele><time>2026-04-12T07:15:48Z</time></trkpt><trkpt lat="43.44304922912301" lon="10.384002163984164"><ele>13.75</ele><time>2026-04-12T07:15:50Z</time></trkpt><trkpt lat="43.44314927612172" lon="10.383922460470332"><ele>13.5</ele><time>2026-04-12T07:15:52Z</time></trkpt><trkpt lat="43.44325395594446" lon="10.38386401545429"><ele>13.25</ele><time>2026-04-12T07:15:54Z</time></trkpt><trkpt lat="43.44335321331689" lon="10.383792036370673"><ele>13.0</ele><time>2026-04-12T07:15:56Z</time></trkpt><trkpt lat="43.44345106617206" lon="10.383714137958165"><ele>13.0</ele><time>2026-04-12T07:15:58Z</time></trkpt><trkpt lat="43.443543285480345" lon="10.383643132506872"><ele>13.0</ele><time>2026-04-12T07:16:00Z</time></trkpt><trkpt lat="43.443641432940886" lon="10.383566685349857"><ele>13.0</ele><time>2026-04-12T07:16:02Z</time></trkpt><trkpt lat="43.44373521615807" lon="10.383507629403894"><ele>13.0</ele><time>2026-04-12T07:16:04Z</time></trkpt><trkpt lat="43.44383670821154" lon="10.38344654673165"><ele>13.0</ele><time>2026-04-12T07:16:06Z</time></trkpt><trkpt lat="43.44392455726659" lon="10.383373942683912"><ele>14.2</ele><time>2026-04-12T07:16:08Z</time></trkpt><trkpt lat="43.44401842442577" lon="10.383314643358464"><ele>15.4</ele><time>2026-04-12T07:16:10Z</time></trkpt><trkpt lat="43.44411919458454" lon="10.38328145977697"><ele>16.599999999999998</ele><time>2026-04-12T07:16:12Z</time></trkpt><trkpt lat="43.444206601147876" lon="10.383244173259282"><ele>17.8</ele><time>2026-04-12T07:16:14Z</time></trkpt><trkpt lat="43.44429754201415" lon="10.383201690983542"><ele>19.0</ele><time>2026-04-12T07:16:16Z</time></trkpt><trkpt lat="43.44438074766241" lon="10.38317073942957"><ele>19.0</ele><time>2026-04-12T07:16:18Z</time></trkpt><trkpt lat="43.444460469170615" lon="10.383131604377901"><ele>19.0</ele><time>2026-04-12T07:16:20Z</time></trkpt><trkpt lat="43.44455110322229" lon="10.383106321459712"><ele>19.0</ele><time>2026-04-12T07:16:22Z</time></trkpt><trkpt lat="43.444631228634584" lon="10.38308177737397"><ele>19.0</ele><time>2026-04-12T07:16:24Z</time></trkpt><trkpt lat="43.444719410267965" lon="10.383062236517794"><ele>19.0</ele><time>2026-04-12T07:16:26Z</time></trkpt><trkpt lat="43.44480396600068" lon="10.383035334237208"><ele>19.0</ele><time>2026-04-12T07:16:28Z</time></trkpt><trkpt lat="43.44488722011851" lon="10.38301257861527"><ele>17.4</ele><time>2026-04-12T07:16:30Z</time></trkpt><trkpt lat="43.44497567631067" lon="10.38298222936811"><ele>15.799999999999999</ele><time>2026-04-12T07:16:32Z</time></trkpt><trkpt lat="43.4450654201112" lon="10.382952037913636"><ele>14.2</ele><time>2026-04-12T07:16:34Z</time></trkpt><trkpt lat="43.445152308766964" lon="10.382939378942107"><ele>12.600000000000001</ele><time>2026-04-12T07:16:36Z</time></trkpt><trkpt lat="43.445245211818815" lon="10.382922893354664"><ele>11.0</ele><time>2026-04-12T07:16:38Z</time></trkpt><trkpt lat="43.44534050440994" lon="10.382938739706765"><ele>11.0</ele><time>2026-04-12T07:16:40Z</time></trkpt><trkpt lat="43.445431807452934" lon="10.382949292921461"><ele>11.0</ele><time>2026-04-12T07:16:42Z</time></trkpt><trkpt lat="43.44552519044225" lon="10.382957797707824"><ele>11.0</ele><time>2026-04-12T07:16:44Z</time></trkpt><trkpt lat="43.44561549509824" lon="10.382963171134374"><ele>11.0</ele><time>2026-04-12T07:16:46Z</time></trkpt><trkpt lat="43.44570602659922" lon="10.382950428555072"><ele>11.0</ele><time>2026-04-12T07:16:48Z</time></trkpt><trkpt lat="43.44579313039811" lon="10.382907469746911"><ele>11.4</ele><time>2026-04-12T07:16:50Z</time></trkpt><trkpt lat="43.445885461616" lon="10.38284903250327"><ele>11.8</ele><time>2026-04-12T07:16:52Z</time></trkpt><trkpt lat="43.445982991421765" lon="10.382779518446046"><ele>12.200000000000001</ele><time>2026-04-12T07:16:54Z</time></trkpt><trkpt lat="43.44607719609953" lon="10.382703536059065"><ele>12.600000000000001</ele><time>2026-04-12T07:16:56Z</time></trkpt><trkpt lat="43.446182192702985" lon="10.382637675746125"><ele>13.0</ele><time>2026-04-12T07:16:58Z</time></trkpt><trkpt lat="43.44628392773229" lon="10.382558177949512"><ele>12.333333333333332</ele><time>2026-04-12T07:17:00Z</time></trkpt><trkpt lat="43.44638611377277" lon="10.382470293692425"><ele>11.666666666666666</ele><time>2026-04-12T07:17:02Z</time></trkpt><trkpt lat="43.446490878114155" lon="10.382374782554841"><ele>11.0</ele><time>2026-04-12T07:17:04Z</time></trkpt><trkpt lat="43.44654581905367" lon="10.382330037946913"><ele>10.333333333333332</ele><time>2026-04-12T07:17:05Z</time></trkpt><trkpt lat="43.44660134528968" lon="10.382281753191462"><ele>9.666666666666666</ele><time>2026-04-12T07:17:06Z</time></trkpt><trkpt lat="43.446657511934795" lon="10.382230245320295"><ele>9.0</ele><time>2026-04-12T07:17:07Z</time></trkpt><trkpt lat="43.446713366533956" lon="10.38217981549241"><ele>9.000000000000002</ele><time>2026-04-12T07:17:08Z</time></trkpt><trkpt lat="43.44677279493499" lon="10.382127525859197"><ele>9.0</ele><time>2026-04-12T07:17:09Z</time></trkpt><trkpt lat="43.4468298031783" lon="10.382073731843423"><ele>9.0</ele><time>2026-04-12T07:17:10Z</time></trkpt><trkpt lat="43.44688424775975" lon="10.382017644171597"><ele>9.0</ele><time>2026-04-12T07:17:11Z</time></trkpt><trkpt lat="43.44694159019612" lon="10.381962181256654"><ele>9.0</ele><time>2026-04-12T07:17:12Z</time></trkpt><trkpt lat="43.44699829612546" lon="10.38191129786053"><ele>9.000000000000002</ele><time>2026-04-12T07:17:13Z</time></trkpt><trkpt lat="43.44705950040157" lon="10.381858992158598"><ele>9.0</ele><time>2026-04-12T07:17:14Z</time></trkpt><trkpt lat="43.44712030945584" lon="10.381803406072642"><ele>11.166666666666666</ele><time>2026-04-12T07:17:15Z</time></trkpt><trkpt lat="43.44717964970554" lon="10.381746453965055"><ele>13.333333333333332</ele><time>2026-04-12T07:17:16Z</time></trkpt><trkpt lat="43.447239326462714" lon="10.38169072390598"><ele>15.5</ele><time>2026-04-12T07:17:17Z</time></trkpt><trkpt lat="43.44729919838542" lon="10.381625076769472"><ele>17.666666666666664</ele><time>2026-04-12T07:17:18Z</time></trkpt><trkpt lat="43.44736351421132" lon="10.381566224506024"><ele>19.833333333333332</ele><time>2026-04-12T07:17:19Z</time></trkpt><trkpt lat="43.4474297898707" lon="10.381508002414797"><ele>22.0</ele><time>2026-04-12T07:17:20Z</time></trkpt><trkpt lat="43.447497460701875" lon="10.381450900118304"><ele>22.0</ele><time>2026-04-12T07:17:21Z</time></trkpt><trkpt lat="43.44756444868767" lon="10.381388125851068"><ele>22.0</ele><time>2026-04-12T07:17:22Z</time></trkpt><trkpt lat="43.4476287277728" lon="10.381323758338402"><ele>22.0</ele><time>2026-04-12T07:17:23Z</time></trkpt><trkpt lat="43.44769898376393" lon="10.381259230166455"><ele>22.0</ele><time>2026-04-12T07:17:24Z</time></trkpt><trkpt lat="43.447767676050795" lon="10.381196208828458"><ele>22.0</ele><time>2026-04-12T07:17:25Z</time></trkpt><trkpt lat="43.447836022650755" lon="10.381124833375859"><ele>22.0</ele><time>2026-04-12T07:17:26Z</time></trkpt><trkpt lat="43.44790671398429" lon="10.381057847661575"><ele>20.666666666666664</ele><time>2026-04-12T07:17:26.999Z</time></trkpt><trkpt lat="43.4479739706639" lon="10.380993126132218"><ele>19.333333333333332</ele><time>2026-04-12T07:17:27.999Z</time></trkpt><trkpt lat="43.4480492134103" lon="10.380919816034444"><ele>18.0</ele><time>2026-04-12T07:17:28.999Z</time></trkpt><trkpt lat="43.44812564816203" lon="10.380854230205351"><ele>16.666666666666668</ele><time>2026-04-12T07:17:29.999Z</time></trkpt><trkpt lat="43.4481986720745" lon="10.380786783070645"><ele>15.333333333333334</ele><time>2026-04-12T07:17:30.999Z</time></trkpt><trkpt lat="43.44827661410619" lon="10.380707180796371"><ele>14.0</ele><time>2026-04-12T07:17:31.999Z</time></trkpt><trkpt lat="43.448353164931326" lon="10.380641026708416"><ele>14.0</ele><time>2026-04-12T07:17:33Z</time></trkpt><trkpt lat="43.448431418672016" lon="10.380563730800906"><ele>13.999999999999998</ele><time>2026-04-12T07:17:34Z</time></trkpt><trkpt lat="43.448509712349946" lon="10.380488391138478"><ele>13.999999999999998</ele><time>2026-04-12T07:17:35Z</time></trkpt><trkpt lat="43.44859111523181" lon="10.380415450077974"><ele>14.0</ele><time>2026-04-12T07:17:36Z</time></trkpt><trkpt lat="43.44867589703702" lon="10.380346895336235"><ele>14.0</ele><time>2026-04-12T07:17:37Z</time></trkpt><trkpt lat="43.44876146383593" lon="10.380279989518833"><ele>13.399999999999999</ele><time>2026-04-12T07:17:38Z</time></trkpt><trkpt lat="43.448834405585075" lon="10.380202644853368"><ele>12.799999999999999</ele><time>2026-04-12T07:17:39Z</time></trkpt><trkpt lat="43.44891447267186" lon="10.380122137326286"><ele>12.2</ele><time>2026-04-12T07:17:40Z</time></trkpt><trkpt lat="43.448991125779685" lon="10.380048269255271"><ele>11.600000000000001</ele><time>2026-04-12T07:17:41Z</time></trkpt><trkpt lat="43.449066708589505" lon="10.379968178283836"><ele>11.0</ele><time>2026-04-12T07:17:42Z</time></trkpt><trkpt lat="43.449139660267086" lon="10.379895860634008"><ele>11.0</ele><time>2026-04-12T07:17:43Z</time></trkpt><trkpt lat="43.44921242886222" lon="10.379821248907822"><ele>11.0</ele><time>2026-04-12T07:17:44Z</time></trkpt><trkpt lat="43.44927935226853" lon="10.379746477901179"><ele>11.0</ele><time>2026-04-12T07:17:45Z</time></trkpt><trkpt lat="43.44934814145847" lon="10.3796836190899"><ele>11.0</ele><time>2026-04-12T07:17:46Z</time></trkpt><trkpt lat="43.44941578915857" lon="10.379617854644723"><ele>11.0</ele><time>2026-04-12T07:17:47Z</time></trkpt><trkpt lat="43.44947185880565" lon="10.379549526490639"><ele>11.0</ele><time>2026-04-12T07:17:48Z</time></trkpt><trkpt lat="43.44953580957392" lon="10.379484592976205"><ele>11.285714285714286</ele><time>2026-04-12T07:17:49Z</time></trkpt><trkpt lat="43.44959954164952" lon="10.379425561304373"><ele>11.571428571428571</ele><time>2026-04-12T07:17:50Z</time></trkpt><trkpt lat="43.44965420544415" lon="10.379365314005009"><ele>11.857142857142858</ele><time>2026-04-12T07:17:51Z</time></trkpt><trkpt lat="43.44971030240654" lon="10.379301823615457"><ele>12.142857142857142</ele><time>2026-04-12T07:17:52Z</time></trkpt><trkpt lat="43.44976606383157" lon="10.379245533121152"><ele>12.428571428571429</ele><time>2026-04-12T07:17:53Z</time></trkpt><trkpt lat="43.44982580185175" lon="10.379206944318211"><ele>12.714285714285714</ele><time>2026-04-12T07:17:54Z</time></trkpt><trkpt lat="43.44989368002083" lon="10.379213932600845"><ele>13.0</ele><time>2026-04-12T07:17:55Z</time></trkpt><trkpt lat="43.449956925143" lon="10.379193135461087"><ele>13.0</ele><time>2026-04-12T07:17:56Z</time></trkpt><trkpt lat="43.450027395579276" lon="10.379274520857145"><ele>13.0</ele><time>2026-04-12T07:17:57Z</time></trkpt><trkpt lat="43.45001271982179" lon="10.37942218491988"><ele>13.0</ele><time>2026-04-12T07:17:58Z</time></trkpt><trkpt lat="43.45007937334653" lon="10.379521844057429"><ele>13.0</ele><time>2026-04-12T07:18:00Z</time></trkpt><trkpt lat="43.45017926616448" lon="10.37938205797288"><ele>13.0</ele><time>2026-04-12T07:18:02Z</time></trkpt><trkpt lat="43.45021988156364" lon="10.379266450225202"><ele>13.0</ele><time>2026-04-12T07:18:04Z</time></trkpt><trkpt lat="43.45024806069612" lon="10.37914701159417"><ele>13.0</ele><time>2026-04-12T07:18:06Z</time></trkpt><trkpt lat="43.450285352957174" lon="10.379027477319957"><ele>13.0</ele><time>2026-04-12T07:18:08Z</time></trkpt><trkpt lat="43.450330667288284" lon="10.378920154717893"><ele>13.0</ele><time>2026-04-12T07:18:10Z</time></trkpt><trkpt lat="43.45037111398565" lon="10.378801529794746"><ele>13.0</ele><time>2026-04-12T07:18:12Z</time></trkpt><trkpt lat="43.45042223012993" lon="10.378703789354272"><ele>15.2</ele><time>2026-04-12T07:18:14Z</time></trkpt><trkpt lat="43.450470024618106" lon="10.378598927171039"><ele>17.4</ele><time>2026-04-12T07:18:16Z</time></trkpt><trkpt lat="43.450522625830004" lon="10.378488188188134"><ele>19.599999999999998</ele><time>2026-04-12T07:18:18Z</time></trkpt><trkpt lat="43.4505794590552" lon="10.37839360139407"><ele>21.8</ele><time>2026-04-12T07:18:20Z</time></trkpt><trkpt lat="43.45063631271008" lon="10.378285851970608"><ele>24.0</ele><time>2026-04-12T07:18:22Z</time></trkpt><trkpt lat="43.450687724163515" lon="10.378183706383243"><ele>24.0</ele><time>2026-04-12T07:18:24Z</time></trkpt><trkpt lat="43.45074301515823" lon="10.37808295116646"><ele>24.0</ele><time>2026-04-12T07:18:26Z</time></trkpt><trkpt lat="43.450794852080065" lon="10.377979546498398"><ele>24.0</ele><time>2026-04-12T07:18:28Z</time></trkpt><trkpt lat="43.45084964587469" lon="10.377880331585313"><ele>24.0</ele><time>2026-04-12T07:18:30Z</time></trkpt><trkpt lat="43.4509076736189" lon="10.377788468241924"><ele>24.0</ele><time>2026-04-12T07:18:32Z</time></trkpt><trkpt lat="43.45097169772145" lon="10.377700892871129"><ele>23.0</ele><time>2026-04-12T07:18:34Z</time></trkpt><trkpt lat="43.45103410473695" lon="10.377616052786239"><ele>22.0</ele><time>2026-04-12T07:18:36Z</time></trkpt><trkpt lat="43.45110022731766" lon="10.37753294422524"><ele>21.0</ele><time>2026-04-12T07:18:38Z</time></trkpt><trkpt lat="43.451165223946276" lon="10.377435971996462"><ele>20.0</ele><time>2026-04-12T07:18:40Z</time></trkpt><trkpt lat="43.451234420458036" lon="10.377352557093653"><ele>19.0</ele><time>2026-04-12T07:18:42Z</time></trkpt><trkpt lat="43.45131053008708" lon="10.377275409879529"><ele>19.799999999999997</ele><time>2026-04-12T07:18:44Z</time></trkpt><trkpt lat="43.45138880259549" lon="10.377195291742604"><ele>20.599999999999998</ele><time>2026-04-12T07:18:46Z</time></trkpt><trkpt lat="43.4514709665995" lon="10.377131841723632"><ele>21.4</ele><time>2026-04-12T07:18:48Z</time></trkpt><trkpt lat="43.451556053006975" lon="10.377069552989958"><ele>22.2</ele><time>2026-04-12T07:18:50Z</time></trkpt><trkpt lat="43.45163566231318" lon="10.377006815339662"><ele>23.0</ele><time>2026-04-12T07:18:52Z</time></trkpt><trkpt lat="43.451729914311244" lon="10.376956525346516"><ele>23.0</ele><time>2026-04-12T07:18:54Z</time></trkpt><trkpt lat="43.451801554131706" lon="10.376880200099961"><ele>23.0</ele><time>2026-04-12T07:18:56Z</time></trkpt><trkpt lat="43.45187987112592" lon="10.376812764651413"><ele>23.0</ele><time>2026-04-12T07:18:58Z</time></trkpt><trkpt lat="43.4519623915242" lon="10.376752944751942"><ele>23.0</ele><time>2026-04-12T07:19:00Z</time></trkpt><trkpt lat="43.452048664704314" lon="10.376694811346699"><ele>23.0</ele><time>2026-04-12T07:19:02Z</time></trkpt><trkpt lat="43.45213047010286" lon="10.376632641751204"><ele>23.599999999999998</ele><time>2026-04-12T07:19:04Z</time></trkpt><trkpt lat="43.452213349379754" lon="10.376573855478357"><ele>24.2</ele><time>2026-04-12T07:19:06Z</time></trkpt><trkpt lat="43.45229052355277" lon="10.376513774035272"><ele>24.8</ele><time>2026-04-12T07:19:08Z</time></trkpt><trkpt lat="43.45236901734104" lon="10.376455624286407"><ele>25.4</ele><time>2026-04-12T07:19:10Z</time></trkpt><trkpt lat="43.452447420195455" lon="10.376396942586492"><ele>26.0</ele><time>2026-04-12T07:19:12Z</time></trkpt><trkpt lat="43.45252468880194" lon="10.376329757379102"><ele>26.0</ele><time>2026-04-12T07:19:14Z</time></trkpt><trkpt lat="43.45260216100585" lon="10.376263043593479"><ele>26.0</ele><time>2026-04-12T07:19:16Z</time></trkpt><trkpt lat="43.452684155310315" lon="10.376205497892853"><ele>26.0</ele><time>2026-04-12T07:19:18Z</time></trkpt><trkpt lat="43.452764947657656" lon="10.376149255496902"><ele>26.0</ele><time>2026-04-12T07:19:20Z</time></trkpt><trkpt lat="43.45284521392429" lon="10.376085919860136"><ele>26.0</ele><time>2026-04-12T07:19:22Z</time></trkpt><trkpt lat="43.45292458395185" lon="10.376020719116118"><ele>27.4</ele><time>2026-04-12T07:19:24Z</time></trkpt><trkpt lat="43.45300781476918" lon="10.37595744870858"><ele>28.8</ele><time>2026-04-12T07:19:26Z</time></trkpt><trkpt lat="43.45309168084959" lon="10.375895284782208"><ele>30.199999999999996</ele><time>2026-04-12T07:19:28Z</time></trkpt><trkpt lat="43.4531723340815" lon="10.375826285786882"><ele>31.599999999999998</ele><time>2026-04-12T07:19:30Z</time></trkpt><trkpt lat="43.453259856457066" lon="10.375764142130182"><ele>33.0</ele><time>2026-04-12T07:19:32Z</time></trkpt><trkpt lat="43.453348741243246" lon="10.375698426487286"><ele>33.0</ele><time>2026-04-12T07:19:34Z</time></trkpt><trkpt lat="43.45344085455028" lon="10.375633486883498"><ele>33.0</ele><time>2026-04-12T07:19:36Z</time></trkpt><trkpt lat="43.45353039145224" lon="10.375563303388931"><ele>33.0</ele><time>2026-04-12T07:19:37.999Z</time></trkpt><trkpt lat="43.453621674674686" lon="10.37549281353606"><ele>33.0</ele><time>2026-04-12T07:19:40Z</time></trkpt><trkpt lat="43.4537102960321" lon="10.375417020823791"><ele>33.0</ele><time>2026-04-12T07:19:42Z</time></trkpt><trkpt lat="43.45380481125399" lon="10.375341603956098"><ele>32.6</ele><time>2026-04-12T07:19:44Z</time></trkpt><trkpt lat="43.453901215637885" lon="10.375265581018635"><ele>32.199999999999996</ele><time>2026-04-12T07:19:46Z</time></trkpt><trkpt lat="43.45400018972419" lon="10.375195938559795"><ele>31.8</ele><time>2026-04-12T07:19:48Z</time></trkpt><trkpt lat="43.454091881518245" lon="10.375115031117643"><ele>31.4</ele><time>2026-04-12T07:19:50Z</time></trkpt><trkpt lat="43.454189521737646" lon="10.375041994945782"><ele>31.0</ele><time>2026-04-12T07:19:52Z</time></trkpt><trkpt lat="43.45428710155387" lon="10.374967233484192"><ele>31.0</ele><time>2026-04-12T07:19:54Z</time></trkpt><trkpt lat="43.45437912612764" lon="10.374891926951369"><ele>31.0</ele><time>2026-04-12T07:19:56Z</time></trkpt><trkpt lat="43.45447397067526" lon="10.374815048893716"><ele>31.0</ele><time>2026-04-12T07:19:58Z</time></trkpt><trkpt lat="43.45456277787902" lon="10.37473508139106"><ele>31.0</ele><time>2026-04-12T07:20:00Z</time></trkpt><trkpt lat="43.454651056323414" lon="10.374650470066216"><ele>31.0</ele><time>2026-04-12T07:20:02Z</time></trkpt><trkpt lat="43.45473600597208" lon="10.37455929907754"><ele>31.200000000000003</ele><time>2026-04-12T07:20:04Z</time></trkpt><trkpt lat="43.454821765017265" lon="10.374463604593533"><ele>31.400000000000002</ele><time>2026-04-12T07:20:06Z</time></trkpt><trkpt lat="43.45490194993552" lon="10.374362773969631"><ele>31.6</ele><time>2026-04-12T07:20:08Z</time></trkpt><trkpt lat="43.4549866548563" lon="10.374265597093375"><ele>31.8</ele><time>2026-04-12T07:20:10Z</time></trkpt><trkpt lat="43.45507078976719" lon="10.374176986378181"><ele>32.0</ele><time>2026-04-12T07:20:12Z</time></trkpt><trkpt lat="43.455150442247266" lon="10.374070153149615"><ele>32.0</ele><time>2026-04-12T07:20:14Z</time></trkpt><trkpt lat="43.45523495617797" lon="10.373968634832742"><ele>32.0</ele><time>2026-04-12T07:20:16Z</time></trkpt><trkpt lat="43.45532129685761" lon="10.373866610059368"><ele>32.0</ele><time>2026-04-12T07:20:18Z</time></trkpt><trkpt lat="43.45540394153763" lon="10.37376190687051"><ele>32.0</ele><time>2026-04-12T07:20:20Z</time></trkpt><trkpt lat="43.45549007760848" lon="10.373661410303919"><ele>32.25</ele><time>2026-04-12T07:20:22Z</time></trkpt><trkpt lat="43.45557216010048" lon="10.37355548871379"><ele>32.5</ele><time>2026-04-12T07:20:24Z</time></trkpt><trkpt lat="43.455657506638865" lon="10.3734544502112"><ele>32.75</ele><time>2026-04-12T07:20:26Z</time></trkpt><trkpt lat="43.455745217683734" lon="10.3733540710926"><ele>33.0</ele><time>2026-04-12T07:20:28Z</time></trkpt><trkpt lat="43.45583148771102" lon="10.373250602956048"><ele>33.0</ele><time>2026-04-12T07:20:30Z</time></trkpt><trkpt lat="43.455913397855696" lon="10.373144137956665"><ele>33.0</ele><time>2026-04-12T07:20:32Z</time></trkpt><trkpt lat="43.45600298816842" lon="10.373043192854214"><ele>33.0</ele><time>2026-04-12T07:20:34Z</time></trkpt><trkpt lat="43.4560889232218" lon="10.372929622310636"><ele>33.0</ele><time>2026-04-12T07:20:36Z</time></trkpt><trkpt lat="43.45618495337437" lon="10.372823315338433"><ele>32.57142857142857</ele><time>2026-04-12T07:20:38Z</time></trkpt><trkpt lat="43.4562340366278" lon="10.372768463593726"><ele>32.142857142857146</ele><time>2026-04-12T07:20:39Z</time></trkpt><trkpt lat="43.456282675563436" lon="10.372710786966534"><ele>31.714285714285715</ele><time>2026-04-12T07:20:40Z</time></trkpt><trkpt lat="43.45633127364676" lon="10.372652278023345"><ele>31.285714285714285</ele><time>2026-04-12T07:20:41Z</time></trkpt><trkpt lat="43.45638108882727" lon="10.372592825096895"><ele>30.857142857142854</ele><time>2026-04-12T07:20:42Z</time></trkpt><trkpt lat="43.45642904340759" lon="10.372529455465193"><ele>30.42857142857143</ele><time>2026-04-12T07:20:43Z</time></trkpt><trkpt lat="43.45647918523377" lon="10.372467786776403"><ele>30.0</ele><time>2026-04-12T07:20:44Z</time></trkpt><trkpt lat="43.456529553690615" lon="10.3724058806195"><ele>30.0</ele><time>2026-04-12T07:20:45Z</time></trkpt><trkpt lat="43.45657942423441" lon="10.37234663788896"><ele>30.0</ele><time>2026-04-12T07:20:46Z</time></trkpt><trkpt lat="43.45662871748353" lon="10.372288138491038"><ele>30.0</ele><time>2026-04-12T07:20:47Z</time></trkpt><trkpt lat="43.45667688451851" lon="10.372226184035107"><ele>30.0</ele><time>2026-04-12T07:20:48Z</time></trkpt><trkpt lat="43.45673083323349" lon="10.372162915559569"><ele>30.0</ele><time>2026-04-12T07:20:49Z</time></trkpt><trkpt lat="43.456780666576236" lon="10.372099883277878"><ele>30.0</ele><time>2026-04-12T07:20:50Z</time></trkpt><trkpt lat="43.45683168537858" lon="10.372038379023252"><ele>30.0</ele><time>2026-04-12T07:20:51Z</time></trkpt><trkpt lat="43.456881492396235" lon="10.371979548010575"><ele>30.5</ele><time>2026-04-12T07:20:52Z</time></trkpt><trkpt lat="43.456926563046494" lon="10.37191813918337"><ele>31.0</ele><time>2026-04-12T07:20:53Z</time></trkpt><trkpt lat="43.45696986149137" lon="10.3718531319568"><ele>31.5</ele><time>2026-04-12T07:20:54Z</time></trkpt><trkpt lat="43.45702035660638" lon="10.37179696173917"><ele>32.0</ele><time>2026-04-12T07:20:55Z</time></trkpt><trkpt lat="43.457070039361554" lon="10.37173803623098"><ele>32.5</ele><time>2026-04-12T07:20:56Z</time></trkpt><trkpt lat="43.45712053808637" lon="10.37168344679244"><ele>33.0</ele><time>2026-04-12T07:20:57Z</time></trkpt><trkpt lat="43.45716987690828" lon="10.371627219908348"><ele>33.5</ele><time>2026-04-12T07:20:58Z</time></trkpt><trkpt lat="43.45721616672967" lon="10.371567727138059"><ele>34.0</ele><time>2026-04-12T07:20:59Z</time></trkpt><trkpt lat="43.457301133008286" lon="10.371445016295183"><ele>34.0</ele><time>2026-04-12T07:21:01Z</time></trkpt><trkpt lat="43.45733978430736" lon="10.37137609299548"><ele>34.0</ele><time>2026-04-12T07:21:02Z</time></trkpt><trkpt lat="43.45743899687265" lon="10.371266835243974"><ele>34.0</ele><time>2026-04-12T07:21:04Z</time></trkpt><trkpt lat="43.457488857487654" lon="10.371212649946798"><ele>34.0</ele><time>2026-04-12T07:21:05Z</time></trkpt><trkpt lat="43.45754160284863" lon="10.371160698256162"><ele>34.0</ele><time>2026-04-12T07:21:06Z</time></trkpt><trkpt lat="43.457636870841355" lon="10.371053205833366"><ele>34.0</ele><time>2026-04-12T07:21:08Z</time></trkpt><trkpt lat="43.45772406067203" lon="10.370951012898825"><ele>31.75</ele><time>2026-04-12T07:21:10Z</time></trkpt><trkpt lat="43.457806611092714" lon="10.370839067550925"><ele>29.5</ele><time>2026-04-12T07:21:12Z</time></trkpt><trkpt lat="43.45787783466314" lon="10.370719214211412"><ele>27.25</ele><time>2026-04-12T07:21:14Z</time></trkpt><trkpt lat="43.45793193366686" lon="10.370571632573418"><ele>25.0</ele><time>2026-04-12T07:21:16Z</time></trkpt><trkpt lat="43.45798816142115" lon="10.37042238966121"><ele>24.8</ele><time>2026-04-12T07:21:18Z</time></trkpt><trkpt lat="43.458035757501165" lon="10.370256791871583"><ele>24.6</ele><time>2026-04-12T07:21:20Z</time></trkpt><trkpt lat="43.4580690078974" lon="10.370178138895026"><ele>24.4</ele><time>2026-04-12T07:21:21Z</time></trkpt><trkpt lat="43.45811523738301" lon="10.37001850803847"><ele>24.2</ele><time>2026-04-12T07:21:23Z</time></trkpt><trkpt lat="43.45814165981102" lon="10.369935066612879"><ele>24.0</ele><time>2026-04-12T07:21:24Z</time></trkpt><trkpt lat="43.458167942603204" lon="10.369851870230939"><ele>23.999999999999996</ele><time>2026-04-12T07:21:25Z</time></trkpt><trkpt lat="43.45819274719898" lon="10.369764953336086"><ele>24.0</ele><time>2026-04-12T07:21:26Z</time></trkpt><trkpt lat="43.45821951243561" lon="10.369681883936709"><ele>24.0</ele><time>2026-04-12T07:21:27Z</time></trkpt><trkpt lat="43.45824684388034" lon="10.369598775447054"><ele>24.0</ele><time>2026-04-12T07:21:28Z</time></trkpt><trkpt lat="43.458270078188654" lon="10.369511867307304"><ele>24.0</ele><time>2026-04-12T07:21:29Z</time></trkpt><trkpt lat="43.458293638997546" lon="10.369423707064753"><ele>23.999999999999996</ele><time>2026-04-12T07:21:30Z</time></trkpt><trkpt lat="43.45831539181219" lon="10.36933203429515"><ele>24.0</ele><time>2026-04-12T07:21:31Z</time></trkpt><trkpt lat="43.458338943295594" lon="10.369241572737682"><ele>23.57142857142857</ele><time>2026-04-12T07:21:32Z</time></trkpt><trkpt lat="43.45836411180054" lon="10.36915342204479"><ele>23.142857142857142</ele><time>2026-04-12T07:21:32.999Z</time></trkpt><trkpt lat="43.458391769249026" lon="10.36906316666929"><ele>22.714285714285715</ele><time>2026-04-12T07:21:33.999Z</time></trkpt><trkpt lat="43.4584189647977" lon="10.368970530800233"><ele>22.285714285714285</ele><time>2026-04-12T07:21:34.999Z</time></trkpt><trkpt lat="43.45844934194961" lon="10.368882891454117"><ele>21.857142857142858</ele><time>2026-04-12T07:21:35.999Z</time></trkpt><trkpt lat="43.45848445356468" lon="10.368800475465754"><ele>21.428571428571427</ele><time>2026-04-12T07:21:36.999Z</time></trkpt><trkpt lat="43.4585167634278" lon="10.368718332668132"><ele>21.0</ele><time>2026-04-12T07:21:37.999Z</time></trkpt><trkpt lat="43.458550709930236" lon="10.368642579463868"><ele>21.0</ele><time>2026-04-12T07:21:38.999Z</time></trkpt><trkpt lat="43.45858620722307" lon="10.368567931595921"><ele>21.0</ele><time>2026-04-12T07:21:39.999Z</time></trkpt><trkpt lat="43.45867049208286" lon="10.368442222780438"><ele>21.0</ele><time>2026-04-12T07:21:41.999Z</time></trkpt><trkpt lat="43.45876606911025" lon="10.368341555019946"><ele>21.0</ele><time>2026-04-12T07:21:43.999Z</time></trkpt><trkpt lat="43.458867580959314" lon="10.368242438015967"><ele>21.0</ele><time>2026-04-12T07:21:46Z</time></trkpt><trkpt lat="43.45896057690735" lon="10.3681407446547"><ele>21.5</ele><time>2026-04-12T07:21:48Z</time></trkpt><trkpt lat="43.45905749034403" lon="10.36805057498967"><ele>22.0</ele><time>2026-04-12T07:21:50Z</time></trkpt><trkpt lat="43.45915540823519" lon="10.367961944019559"><ele>22.5</ele><time>2026-04-12T07:21:52Z</time></trkpt><trkpt lat="43.459251080056745" lon="10.367862468291092"><ele>23.0</ele><time>2026-04-12T07:21:54Z</time></trkpt><trkpt lat="43.45935396469606" lon="10.367779224595656"><ele>23.0</ele><time>2026-04-12T07:21:56Z</time></trkpt><trkpt lat="43.459457862413565" lon="10.367702775211391"><ele>23.0</ele><time>2026-04-12T07:21:58Z</time></trkpt><trkpt lat="43.459569507169704" lon="10.36763523505364"><ele>23.0</ele><time>2026-04-12T07:22:00Z</time></trkpt><trkpt lat="43.45968629438546" lon="10.367566290925014"><ele>23.0</ele><time>2026-04-12T07:22:02Z</time></trkpt><trkpt lat="43.4597459159277" lon="10.367534982747188"><ele>23.0</ele><time>2026-04-12T07:22:03Z</time></trkpt><trkpt lat="43.45980373660886" lon="10.367498416368358"><ele>22.4</ele><time>2026-04-12T07:22:04Z</time></trkpt><trkpt lat="43.45986975711466" lon="10.36748032295517"><ele>21.799999999999997</ele><time>2026-04-12T07:22:05Z</time></trkpt><trkpt lat="43.459934526844116" lon="10.367456999776763"><ele>21.2</ele><time>2026-04-12T07:22:06Z</time></trkpt><trkpt lat="43.460059127563405" lon="10.367397022460876"><ele>20.6</ele><time>2026-04-12T07:22:08Z</time></trkpt><trkpt lat="43.46018380617804" lon="10.367349206523556"><ele>20.0</ele><time>2026-04-12T07:22:10Z</time></trkpt><trkpt lat="43.46024740287435" lon="10.36731594917613"><ele>20.0</ele><time>2026-04-12T07:22:11Z</time></trkpt><trkpt lat="43.460306894981876" lon="10.367275150774066"><ele>20.0</ele><time>2026-04-12T07:22:12Z</time></trkpt><trkpt lat="43.4603661733761" lon="10.367235390182461"><ele>20.0</ele><time>2026-04-12T07:22:13Z</time></trkpt><trkpt lat="43.46042052783085" lon="10.367190965158397"><ele>20.0</ele><time>2026-04-12T07:22:14Z</time></trkpt><trkpt lat="43.46047966413703" lon="10.367151818190706"><ele>20.0</ele><time>2026-04-12T07:22:15Z</time></trkpt><trkpt lat="43.460576170393495" lon="10.367040853336565"><ele>20.0</ele><time>2026-04-12T07:22:17Z</time></trkpt><trkpt lat="43.46066425721944" lon="10.366922762965942"><ele>20.0</ele><time>2026-04-12T07:22:19Z</time></trkpt><trkpt lat="43.46074170536816" lon="10.36679134922679"><ele>20.0</ele><time>2026-04-12T07:22:21Z</time></trkpt><trkpt lat="43.460809061049495" lon="10.36664583075995"><ele>20.0</ele><time>2026-04-12T07:22:23Z</time></trkpt><trkpt lat="43.460861723118676" lon="10.366494785038135"><ele>20.0</ele><time>2026-04-12T07:22:25Z</time></trkpt><trkpt lat="43.460903978406556" lon="10.36634128134275"><ele>20.0</ele><time>2026-04-12T07:22:27Z</time></trkpt><trkpt lat="43.46093741990026" lon="10.366185430994413"><ele>20.0</ele><time>2026-04-12T07:22:29Z</time></trkpt><trkpt lat="43.46096605277325" lon="10.366025120703766"><ele>20.0</ele><time>2026-04-12T07:22:31Z</time></trkpt><trkpt lat="43.46100005478594" lon="10.365870138641961"><ele>20.0</ele><time>2026-04-12T07:22:33Z</time></trkpt><trkpt lat="43.461033054351454" lon="10.365713755605128"><ele>20.0</ele><time>2026-04-12T07:22:35Z</time></trkpt><trkpt lat="43.46108321049715" lon="10.365561541438009"><ele>20.0</ele><time>2026-04-12T07:22:37Z</time></trkpt><trkpt lat="43.46114342137342" lon="10.365421694533126"><ele>20.0</ele><time>2026-04-12T07:22:39Z</time></trkpt><trkpt lat="43.46121580305393" lon="10.365305038191616"><ele>20.0</ele><time>2026-04-12T07:22:41Z</time></trkpt><trkpt lat="43.46129776640607" lon="10.365206552289887"><ele>21.4</ele><time>2026-04-12T07:22:43Z</time></trkpt><trkpt lat="43.46137238818735" lon="10.365120485954188"><ele>22.8</ele><time>2026-04-12T07:22:45Z</time></trkpt><trkpt lat="43.46144656607703" lon="10.36502226215004"><ele>24.200000000000003</ele><time>2026-04-12T07:22:47Z</time></trkpt><trkpt lat="43.46151775133993" lon="10.364937812244"><ele>25.6</ele><time>2026-04-12T07:22:49Z</time></trkpt><trkpt lat="43.46158760481788" lon="10.364844305563988"><ele>27.0</ele><time>2026-04-12T07:22:51Z</time></trkpt><trkpt lat="43.461651529186554" lon="10.364744495399984"><ele>27.166666666666668</ele><time>2026-04-12T07:22:53Z</time></trkpt><trkpt lat="43.46170520746314" lon="10.364653077662945"><ele>27.333333333333336</ele><time>2026-04-12T07:22:55Z</time></trkpt><trkpt lat="43.46175320981647" lon="10.364551833100553"><ele>27.5</ele><time>2026-04-12T07:22:57Z</time></trkpt><trkpt lat="43.46179716187127" lon="10.364424869574572"><ele>27.666666666666668</ele><time>2026-04-12T07:22:59Z</time></trkpt><trkpt lat="43.46183035079392" lon="10.364324519459863"><ele>27.833333333333336</ele><time>2026-04-12T07:23:01Z</time></trkpt><trkpt lat="43.4618613878388" lon="10.364204737507038"><ele>28.0</ele><time>2026-04-12T07:23:03Z</time></trkpt><trkpt lat="43.461894240296935" lon="10.364088041196972"><ele>28.000000000000004</ele><time>2026-04-12T07:23:05Z</time></trkpt><trkpt lat="43.46192517816788" lon="10.363973087155502"><ele>28.0</ele><time>2026-04-12T07:23:07Z</time></trkpt><trkpt lat="43.4619579175301" lon="10.363853204763878"><ele>28.0</ele><time>2026-04-12T07:23:09Z</time></trkpt><trkpt lat="43.461986024607" lon="10.363738080495345"><ele>28.0</ele><time>2026-04-12T07:23:11Z</time></trkpt><trkpt lat="43.46201623226074" lon="10.363623594888683"><ele>28.000000000000004</ele><time>2026-04-12T07:23:13Z</time></trkpt><trkpt lat="43.46204507327924" lon="10.363510472441376"><ele>28.0</ele><time>2026-04-12T07:23:15Z</time></trkpt><trkpt lat="43.462077030693024" lon="10.36339577159044"><ele>28.666666666666668</ele><time>2026-04-12T07:23:17Z</time></trkpt><trkpt lat="43.46211211965607" lon="10.363286737684339"><ele>29.333333333333336</ele><time>2026-04-12T07:23:19Z</time></trkpt><trkpt lat="43.4621522299185" lon="10.36318010743517"><ele>30.0</ele><time>2026-04-12T07:23:21Z</time></trkpt><trkpt lat="43.46220411691707" lon="10.363077947138873"><ele>30.666666666666664</ele><time>2026-04-12T07:23:23Z</time></trkpt><trkpt lat="43.462256791446464" lon="10.362981709700149"><ele>31.333333333333332</ele><time>2026-04-12T07:23:25Z</time></trkpt><trkpt lat="43.46230978838731" lon="10.362899230845498"><ele>32.0</ele><time>2026-04-12T07:23:27Z</time></trkpt><trkpt lat="43.46237521972801" lon="10.362832257813087"><ele>34.166666666666664</ele><time>2026-04-12T07:23:29Z</time></trkpt><trkpt lat="43.4624418127212" lon="10.362765035540027"><ele>36.33333333333333</ele><time>2026-04-12T07:23:31Z</time></trkpt><trkpt lat="43.462506060043985" lon="10.362707636054568"><ele>38.5</ele><time>2026-04-12T07:23:33Z</time></trkpt><trkpt lat="43.462580640323964" lon="10.362667292288199"><ele>40.666666666666664</ele><time>2026-04-12T07:23:35Z</time></trkpt><trkpt lat="43.46265286248584" lon="10.362631380110422"><ele>42.833333333333336</ele><time>2026-04-12T07:23:37Z</time></trkpt><trkpt lat="43.46272648082454" lon="10.362602550550168"><ele>45.0</ele><time>2026-04-12T07:23:39Z</time></trkpt><trkpt lat="43.46279764324225" lon="10.362576991365335"><ele>45.0</ele><time>2026-04-12T07:23:41Z</time></trkpt><trkpt lat="43.462870306711906" lon="10.362549686177102"><ele>45.0</ele><time>2026-04-12T07:23:43Z</time></trkpt><trkpt lat="43.46294493351579" lon="10.362537371980341"><ele>45.0</ele><time>2026-04-12T07:23:44.999Z</time></trkpt><trkpt lat="43.463016273020045" lon="10.362510762822959"><ele>45.0</ele><time>2026-04-12T07:23:46.999Z</time></trkpt><trkpt lat="43.463085419356275" lon="10.362482187045625"><ele>45.0</ele><time>2026-04-12T07:23:48.999Z</time></trkpt><trkpt lat="43.463156214611935" lon="10.362468437512444"><ele>45.0</ele><time>2026-04-12T07:23:51Z</time></trkpt><trkpt lat="43.46320434532206" lon="10.362359704854201"><ele>46.42857142857142</ele><time>2026-04-12T07:23:53Z</time></trkpt><trkpt lat="43.463246683716015" lon="10.362282442861506"><ele>47.85714285714286</ele><time>2026-04-12T07:23:55Z</time></trkpt><trkpt lat="43.4632773915664" lon="10.362205818429162"><ele>49.285714285714285</ele><time>2026-04-12T07:23:57Z</time></trkpt><trkpt lat="43.463305247434995" lon="10.362115686821346"><ele>50.71428571428571</ele><time>2026-04-12T07:23:59Z</time></trkpt><trkpt lat="43.46329451018815" lon="10.3619937407972"><ele>52.14285714285714</ele><time>2026-04-12T07:24:01Z</time></trkpt><trkpt lat="43.46325435916715" lon="10.361919814870213"><ele>53.57142857142857</ele><time>2026-04-12T07:24:03Z</time></trkpt><trkpt lat="43.463200122834564" lon="10.361840182447843"><ele>55.0</ele><time>2026-04-12T07:24:05Z</time></trkpt><trkpt lat="43.46312989274796" lon="10.361797057395616"><ele>54.33333333333333</ele><time>2026-04-12T07:24:07Z</time></trkpt><trkpt lat="43.46305045892995" lon="10.361780458241425"><ele>53.666666666666664</ele><time>2026-04-12T07:24:09Z</time></trkpt><trkpt lat="43.46297271339545" lon="10.361781512246544"><ele>53.0</ele><time>2026-04-12T07:24:11Z</time></trkpt><trkpt lat="43.46289309751689" lon="10.361773197301348"><ele>52.33333333333333</ele><time>2026-04-12T07:24:13Z</time></trkpt><trkpt lat="43.46281282094102" lon="10.361767421233527"><ele>51.666666666666664</ele><time>2026-04-12T07:24:15Z</time></trkpt><trkpt lat="43.46274082568301" lon="10.361758799271076"><ele>51.0</ele><time>2026-04-12T07:24:17Z</time></trkpt><trkpt lat="43.46266806207227" lon="10.361748336671795"><ele>51.0</ele><time>2026-04-12T07:24:19Z</time></trkpt><trkpt lat="43.462594916249685" lon="10.361732893382678"><ele>51.0</ele><time>2026-04-12T07:24:21Z</time></trkpt><trkpt lat="43.462522081958774" lon="10.361706674037405"><ele>51.0</ele><time>2026-04-12T07:24:23Z</time></trkpt><trkpt lat="43.46245785696258" lon="10.361669357556005"><ele>51.0</ele><time>2026-04-12T07:24:25Z</time></trkpt><trkpt lat="43.46240651098791" lon="10.36159687208014"><ele>51.0</ele><time>2026-04-12T07:24:27Z</time></trkpt><trkpt lat="43.46238102335265" lon="10.361505524807558"><ele>51.0</ele><time>2026-04-12T07:24:29Z</time></trkpt><trkpt lat="43.462371321371975" lon="10.361406562408499"><ele>51.0</ele><time>2026-04-12T07:24:31Z</time></trkpt><trkpt lat="43.46237426866852" lon="10.361306121377224"><ele>52.57142857142857</ele><time>2026-04-12T07:24:33Z</time></trkpt><trkpt lat="43.46237576348369" lon="10.36120697579112"><ele>54.142857142857146</ele><time>2026-04-12T07:24:35Z</time></trkpt><trkpt lat="43.462372008109405" lon="10.36110553777501"><ele>55.714285714285715</ele><time>2026-04-12T07:24:37Z</time></trkpt><trkpt lat="43.462359886598364" lon="10.361010231370402"><ele>57.28571428571429</ele><time>2026-04-12T07:24:39Z</time></trkpt><trkpt lat="43.46235306967002" lon="10.360914870142283"><ele>58.85714285714286</ele><time>2026-04-12T07:24:41Z</time></trkpt><trkpt lat="43.46234965944902" lon="10.360813652702586"><ele>60.42857142857143</ele><time>2026-04-12T07:24:43Z</time></trkpt><trkpt lat="43.462343258869026" lon="10.360714514962696"><ele>62.0</ele><time>2026-04-12T07:24:45Z</time></trkpt><trkpt lat="43.46233722929085" lon="10.360613084668513"><ele>61.42857142857143</ele><time>2026-04-12T07:24:47Z</time></trkpt><trkpt lat="43.462326137712836" lon="10.360516347165023"><ele>60.85714285714286</ele><time>2026-04-12T07:24:49Z</time></trkpt><trkpt lat="43.462348561526454" lon="10.360414624025129"><ele>60.28571428571429</ele><time>2026-04-12T07:24:51Z</time></trkpt><trkpt lat="43.4623859950126" lon="10.36032111282854"><ele>59.71428571428572</ele><time>2026-04-12T07:24:53Z</time></trkpt><trkpt lat="43.462423074981245" lon="10.360247285235145"><ele>59.142857142857146</ele><time>2026-04-12T07:24:55Z</time></trkpt><trkpt lat="43.462453884522986" lon="10.360147391953202"><ele>58.571428571428584</ele><time>2026-04-12T07:24:57Z</time></trkpt><trkpt lat="43.46248083895016" lon="10.36006010115586"><ele>58.00000000000001</ele><time>2026-04-12T07:24:59Z</time></trkpt><trkpt lat="43.46251106450405" lon="10.359970864925677"><ele>58.00000000000001</ele><time>2026-04-12T07:25:01Z</time></trkpt><trkpt lat="43.462546911258734" lon="10.359880314164947"><ele>58.0</ele><time>2026-04-12T07:25:03Z</time></trkpt><trkpt lat="43.462578811372985" lon="10.35979628565754"><ele>58.00000000000001</ele><time>2026-04-12T07:25:05Z</time></trkpt><trkpt lat="43.46262211142965" lon="10.359719060672834"><ele>58.00000000000001</ele><time>2026-04-12T07:25:07Z</time></trkpt><trkpt lat="43.462670889862956" lon="10.35964429477814"><ele>58.0</ele><time>2026-04-12T07:25:09Z</time></trkpt><trkpt lat="43.46272899014458" lon="10.359587918726506"><ele>58.00000000000001</ele><time>2026-04-12T07:25:11Z</time></trkpt><trkpt lat="43.46278635904984" lon="10.359539412621945"><ele>58.00000000000001</ele><time>2026-04-12T07:25:13Z</time></trkpt><trkpt lat="43.462846220752304" lon="10.359491462752818"><ele>56.14285714285715</ele><time>2026-04-12T07:25:15Z</time></trkpt><trkpt lat="43.46290418325158" lon="10.359440804794254"><ele>54.28571428571429</ele><time>2026-04-12T07:25:17Z</time></trkpt><trkpt lat="43.46296262713666" lon="10.359389456995943"><ele>52.42857142857143</ele><time>2026-04-12T07:25:19Z</time></trkpt><trkpt lat="43.4630186564575" lon="10.35933365356134"><ele>50.57142857142858</ele><time>2026-04-12T07:25:21Z</time></trkpt><trkpt lat="43.46307641641051" lon="10.359285592368897"><ele>48.71428571428572</ele><time>2026-04-12T07:25:23Z</time></trkpt><trkpt lat="43.46313652016897" lon="10.359237379510605"><ele>46.857142857142854</ele><time>2026-04-12T07:25:25Z</time></trkpt><trkpt lat="43.46319734740558" lon="10.359195276181229"><ele>45.0</ele><time>2026-04-12T07:25:27Z</time></trkpt><trkpt lat="43.46325598309969" lon="10.35914839209496"><ele>47.57142857142857</ele><time>2026-04-12T07:25:29Z</time></trkpt><trkpt lat="43.46331654459942" lon="10.359093999447433"><ele>50.142857142857146</ele><time>2026-04-12T07:25:31Z</time></trkpt><trkpt lat="43.463377027091276" lon="10.35905479220057"><ele>52.714285714285715</ele><time>2026-04-12T07:25:33Z</time></trkpt><trkpt lat="43.46343514981005" lon="10.3590108194319"><ele>55.285714285714285</ele><time>2026-04-12T07:25:35Z</time></trkpt><trkpt lat="43.46349116108361" lon="10.35894890022473"><ele>57.85714285714286</ele><time>2026-04-12T07:25:37Z</time></trkpt><trkpt lat="43.463547747327056" lon="10.35889909292631"><ele>60.42857142857143</ele><time>2026-04-12T07:25:39Z</time></trkpt><trkpt lat="43.46359845106594" lon="10.358834828986684"><ele>63.0</ele><time>2026-04-12T07:25:41Z</time></trkpt><trkpt lat="43.463644526965396" lon="10.358758324202762"><ele>63.0</ele><time>2026-04-12T07:25:43Z</time></trkpt><trkpt lat="43.46368629316484" lon="10.358680278943268"><ele>63.0</ele><time>2026-04-12T07:25:45Z</time></trkpt><trkpt lat="43.46371314380525" lon="10.358587770128585"><ele>63.0</ele><time>2026-04-12T07:25:47Z</time></trkpt><trkpt lat="43.46373027140015" lon="10.358488626895882"><ele>63.0</ele><time>2026-04-12T07:25:48.999Z</time></trkpt><trkpt lat="43.4637464528341" lon="10.358377815165392"><ele>63.0</ele><time>2026-04-12T07:25:50.999Z</time></trkpt><trkpt lat="43.46377377795122" lon="10.358278442300103"><ele>63.0</ele><time>2026-04-12T07:25:52.999Z</time></trkpt><trkpt lat="43.463805924731055" lon="10.358179837360886"><ele>67.0</ele><time>2026-04-12T07:25:54.999Z</time></trkpt><trkpt lat="43.46381402001473" lon="10.358053441376082"><ele>71.0</ele><time>2026-04-12T07:25:58Z</time></trkpt><trkpt lat="43.463845675525334" lon="10.35795687013078"><ele>75.0</ele><time>2026-04-12T07:26:00Z</time></trkpt><trkpt lat="43.4639013552104" lon="10.358045084136446"><ele>79.0</ele><time>2026-04-12T07:26:02Z</time></trkpt><trkpt lat="43.463860194121324" lon="10.35815075097722"><ele>83.0</ele><time>2026-04-12T07:26:04Z</time></trkpt><trkpt lat="43.463822977669054" lon="10.358230870135506"><ele>87.0</ele><time>2026-04-12T07:26:06Z</time></trkpt><trkpt lat="43.46381518718244" lon="10.358317339623914"><ele>87.33333333333333</ele><time>2026-04-12T07:26:08Z</time></trkpt><trkpt lat="43.46379370679184" lon="10.358443851934911"><ele>87.66666666666667</ele><time>2026-04-12T07:26:11Z</time></trkpt><trkpt lat="43.46377387573517" lon="10.358566879661696"><ele>88.0</ele><time>2026-04-12T07:26:14Z</time></trkpt><trkpt lat="43.46375795786653" lon="10.358652860380811"><ele>88.33333333333334</ele><time>2026-04-12T07:26:16Z</time></trkpt><trkpt lat="43.46373972512205" lon="10.3587798960203"><ele>88.66666666666667</ele><time>2026-04-12T07:26:19Z</time></trkpt><trkpt lat="43.46372095101407" lon="10.358865568226987"><ele>89.0</ele><time>2026-04-12T07:26:21Z</time></trkpt><trkpt lat="43.46370129588648" lon="10.358992472385566"><ele>86.16666666666667</ele><time>2026-04-12T07:26:24Z</time></trkpt><trkpt lat="43.4636765280762" lon="10.359119791388334"><ele>83.33333333333334</ele><time>2026-04-12T07:26:27Z</time></trkpt><trkpt lat="43.46366643842545" lon="10.359249649253329"><ele>80.5</ele><time>2026-04-12T07:26:30Z</time></trkpt><trkpt lat="43.46364140991403" lon="10.359376598280813"><ele>77.66666666666667</ele><time>2026-04-12T07:26:33Z</time></trkpt><trkpt lat="43.46361962636891" lon="10.35946391855663"><ele>74.83333333333333</ele><time>2026-04-12T07:26:35Z</time></trkpt><trkpt lat="43.4635835560398" lon="10.359540389911913"><ele>72.0</ele><time>2026-04-12T07:26:37Z</time></trkpt><trkpt lat="43.46354067799673" lon="10.359609561081687"><ele>73.71428571428572</ele><time>2026-04-12T07:26:39Z</time></trkpt><trkpt lat="43.46347472568162" lon="10.359701288230136"><ele>75.42857142857143</ele><time>2026-04-12T07:26:42Z</time></trkpt><trkpt lat="43.463432112410814" lon="10.35977418458782"><ele>77.14285714285714</ele><time>2026-04-12T07:26:44Z</time></trkpt><trkpt lat="43.46338516632155" lon="10.359845079723431"><ele>78.85714285714286</ele><time>2026-04-12T07:26:46Z</time></trkpt><trkpt lat="43.46334220081291" lon="10.359910757865217"><ele>80.57142857142857</ele><time>2026-04-12T07:26:48Z</time></trkpt><trkpt lat="43.46329190964318" lon="10.359993422293213"><ele>82.28571428571429</ele><time>2026-04-12T07:26:50Z</time></trkpt><trkpt lat="43.463249162605436" lon="10.360070759790764"><ele>84.0</ele><time>2026-04-12T07:26:52Z</time></trkpt><trkpt lat="43.463221572681746" lon="10.360151751410292"><ele>84.0</ele><time>2026-04-12T07:26:54Z</time></trkpt><trkpt lat="43.463214908527576" lon="10.3602588507349"><ele>84.0</ele><time>2026-04-12T07:26:56Z</time></trkpt><trkpt lat="43.463232341181424" lon="10.360343163477685"><ele>84.0</ele><time>2026-04-12T07:26:58Z</time></trkpt><trkpt lat="43.463278439377035" lon="10.360436895831695"><ele>84.0</ele><time>2026-04-12T07:27:00Z</time></trkpt><trkpt lat="43.4633331507862" lon="10.360509570179019"><ele>84.0</ele><time>2026-04-12T07:27:02Z</time></trkpt><trkpt lat="43.463395261129726" lon="10.360535044065466"><ele>84.0</ele><time>2026-04-12T07:27:04Z</time></trkpt><trkpt lat="43.46346353034931" lon="10.360539039003339"><ele>84.0</ele><time>2026-04-12T07:27:06Z</time></trkpt><trkpt lat="43.46354523308318" lon="10.360509695325758"><ele>84.0</ele><time>2026-04-12T07:27:08Z</time></trkpt><trkpt lat="43.463599322348884" lon="10.360440458043398"><ele>84.0</ele><time>2026-04-12T07:27:10Z</time></trkpt><trkpt lat="43.463622874835295" lon="10.360348413999706"><ele>84.0</ele><time>2026-04-12T07:27:12Z</time></trkpt><trkpt lat="43.46364303362576" lon="10.360247184075325"><ele>84.0</ele><time>2026-04-12T07:27:14Z</time></trkpt><trkpt lat="43.463663914688134" lon="10.360150003292647"><ele>84.0</ele><time>2026-04-12T07:27:16Z</time></trkpt><trkpt lat="43.463679790886985" lon="10.360052511709014"><ele>84.0</ele><time>2026-04-12T07:27:18Z</time></trkpt><trkpt lat="43.46371339703997" lon="10.359973521610883"><ele>84.0</ele><time>2026-04-12T07:27:20Z</time></trkpt><trkpt lat="43.46376317261334" lon="10.359895392731122"><ele>86.0</ele><time>2026-04-12T07:27:22Z</time></trkpt><trkpt lat="43.46381279983479" lon="10.359818554710918"><ele>88.0</ele><time>2026-04-12T07:27:24Z</time></trkpt><trkpt lat="43.46386486484351" lon="10.35974724895505"><ele>90.0</ele><time>2026-04-12T07:27:26Z</time></trkpt><trkpt lat="43.4639108526858" lon="10.359672127229643"><ele>92.0</ele><time>2026-04-12T07:27:28Z</time></trkpt><trkpt lat="43.46395994505881" lon="10.359584108055609"><ele>94.0</ele><time>2026-04-12T07:27:30Z</time></trkpt><trkpt lat="43.46399727514585" lon="10.359498774852804"><ele>96.0</ele><time>2026-04-12T07:27:32Z</time></trkpt><trkpt lat="43.46402827561494" lon="10.359407442579515"><ele>98.0</ele><time>2026-04-12T07:27:34Z</time></trkpt><trkpt lat="43.464052721187215" lon="10.359309654045475"><ele>98.0</ele><time>2026-04-12T07:27:36Z</time></trkpt><trkpt lat="43.46408097352956" lon="10.359221379453723"><ele>98.0</ele><time>2026-04-12T07:27:38Z</time></trkpt><trkpt lat="43.4641072127731" lon="10.359129361773507"><ele>98.0</ele><time>2026-04-12T07:27:40Z</time></trkpt><trkpt lat="43.46414050323842" lon="10.359045644164484"><ele>98.0</ele><time>2026-04-12T07:27:42Z</time></trkpt><trkpt lat="43.46416726020953" lon="10.358952043099313"><ele>98.0</ele><time>2026-04-12T07:27:44Z</time></trkpt><trkpt lat="43.464189301651146" lon="10.35885904719997"><ele>98.0</ele><time>2026-04-12T07:27:46Z</time></trkpt><trkpt lat="43.464211017157446" lon="10.358766684195288"><ele>98.0</ele><time>2026-04-12T07:27:48Z</time></trkpt><trkpt lat="43.46423329368156" lon="10.35866729346117"><ele>96.71428571428571</ele><time>2026-04-12T07:27:50Z</time></trkpt><trkpt lat="43.464259409338986" lon="10.358572689758759"><ele>95.42857142857143</ele><time>2026-04-12T07:27:52Z</time></trkpt><trkpt lat="43.464300672668294" lon="10.358493785596467"><ele>94.14285714285714</ele><time>2026-04-12T07:27:54Z</time></trkpt><trkpt lat="43.46432692737745" lon="10.358405338828074"><ele>92.85714285714286</ele><time>2026-04-12T07:27:56Z</time></trkpt><trkpt lat="43.46436594668148" lon="10.35831944019478"><ele>91.57142857142857</ele><time>2026-04-12T07:27:58Z</time></trkpt><trkpt lat="43.46439557110911" lon="10.358231800569428"><ele>90.28571428571428</ele><time>2026-04-12T07:28:00Z</time></trkpt><trkpt lat="43.46442397400644" lon="10.358141068367757"><ele>89.0</ele><time>2026-04-12T07:28:02Z</time></trkpt><trkpt lat="43.46444956110748" lon="10.358057283025293"><ele>88.71428571428571</ele><time>2026-04-12T07:28:04Z</time></trkpt><trkpt lat="43.46448333619398" lon="10.357970496201267"><ele>88.42857142857143</ele><time>2026-04-12T07:28:06Z</time></trkpt><trkpt lat="43.46451825183899" lon="10.357886585450856"><ele>88.14285714285714</ele><time>2026-04-12T07:28:08Z</time></trkpt><trkpt lat="43.46455651902936" lon="10.357800559600898"><ele>87.85714285714286</ele><time>2026-04-12T07:28:10Z</time></trkpt><trkpt lat="43.464604715993936" lon="10.357716502314391"><ele>87.57142857142857</ele><time>2026-04-12T07:28:12Z</time></trkpt><trkpt lat="43.46467033648152" lon="10.35766780904074"><ele>87.28571428571428</ele><time>2026-04-12T07:28:14Z</time></trkpt><trkpt lat="43.46474152179227" lon="10.357649395058917"><ele>87.0</ele><time>2026-04-12T07:28:16Z</time></trkpt><trkpt lat="43.46481832443601" lon="10.357678422070581"><ele>89.71428571428571</ele><time>2026-04-12T07:28:18Z</time></trkpt><trkpt lat="43.46488105166754" lon="10.35776926972919"><ele>92.42857142857143</ele><time>2026-04-12T07:28:21Z</time></trkpt><trkpt lat="43.46488360737902" lon="10.357859876649972"><ele>95.14285714285714</ele><time>2026-04-12T07:28:23Z</time></trkpt><trkpt lat="43.464851433863025" lon="10.357941800992275"><ele>97.85714285714286</ele><time>2026-04-12T07:28:25Z</time></trkpt><trkpt lat="43.464808617095365" lon="10.35801421029145"><ele>100.57142857142857</ele><time>2026-04-12T07:28:27Z</time></trkpt><trkpt lat="43.464770281868596" lon="10.358085832394961"><ele>103.28571428571429</ele><time>2026-04-12T07:28:29Z</time></trkpt><trkpt lat="43.46471959741644" lon="10.358157787870827"><ele>106.0</ele><time>2026-04-12T07:28:31Z</time></trkpt><trkpt lat="43.46467435111612" lon="10.358226647738949"><ele>107.85714285714286</ele><time>2026-04-12T07:28:33Z</time></trkpt><trkpt lat="43.46463056107893" lon="10.358310929922087"><ele>109.71428571428571</ele><time>2026-04-12T07:28:35Z</time></trkpt><trkpt lat="43.46459461870895" lon="10.358394348521202"><ele>111.57142857142857</ele><time>2026-04-12T07:28:37Z</time></trkpt><trkpt lat="43.46456695323481" lon="10.358490013383486"><ele>113.42857142857143</ele><time>2026-04-12T07:28:39Z</time></trkpt><trkpt lat="43.46454204699379" lon="10.358583073855932"><ele>115.28571428571428</ele><time>2026-04-12T07:28:41Z</time></trkpt><trkpt lat="43.4645271691738" lon="10.358679970979559"><ele>117.14285714285714</ele><time>2026-04-12T07:28:43Z</time></trkpt><trkpt lat="43.46452074145101" lon="10.358775467864428"><ele>119.0</ele><time>2026-04-12T07:28:45Z</time></trkpt><trkpt lat="43.46450408953915" lon="10.358866172960198"><ele>116.0</ele><time>2026-04-12T07:28:47Z</time></trkpt><trkpt lat="43.46449983130425" lon="10.35896646533391"><ele>113.0</ele><time>2026-04-12T07:28:49Z</time></trkpt><trkpt lat="43.464500153861025" lon="10.359059851887089"><ele>110.0</ele><time>2026-04-12T07:28:51Z</time></trkpt><trkpt lat="43.46449920538903" lon="10.359159532692866"><ele>107.0</ele><time>2026-04-12T07:28:53Z</time></trkpt><trkpt lat="43.46450275561819" lon="10.359256777369222"><ele>104.0</ele><time>2026-04-12T07:28:55Z</time></trkpt><trkpt lat="43.464513260802754" lon="10.359353571097637"><ele>101.0</ele><time>2026-04-12T07:28:57Z</time></trkpt><trkpt lat="43.46450975082187" lon="10.359448230508281"><ele>98.0</ele><time>2026-04-12T07:28:59Z</time></trkpt><trkpt lat="43.464516331116435" lon="10.359537508455453"><ele>98.0</ele><time>2026-04-12T07:29:01Z</time></trkpt><trkpt lat="43.46454252892975" lon="10.359632832913247"><ele>98.0</ele><time>2026-04-12T07:29:03Z</time></trkpt><trkpt lat="43.464579165440725" lon="10.359719636165643"><ele>98.0</ele><time>2026-04-12T07:29:05Z</time></trkpt><trkpt lat="43.464622991995824" lon="10.359793424714717"><ele>98.0</ele><time>2026-04-12T07:29:07Z</time></trkpt><trkpt lat="43.46467285151119" lon="10.359859104574731"><ele>98.0</ele><time>2026-04-12T07:29:09Z</time></trkpt><trkpt lat="43.46473087659444" lon="10.359911330442026"><ele>98.0</ele><time>2026-04-12T07:29:11Z</time></trkpt><trkpt lat="43.46479042821694" lon="10.359957180256053"><ele>98.0</ele><time>2026-04-12T07:29:13Z</time></trkpt><trkpt lat="43.46485510464607" lon="10.359988824750161"><ele>101.14285714285714</ele><time>2026-04-12T07:29:15Z</time></trkpt><trkpt lat="43.464920955082995" lon="10.360012705961994"><ele>104.28571428571428</ele><time>2026-04-12T07:29:17Z</time></trkpt><trkpt lat="43.46498247395814" lon="10.360043585456927"><ele>107.42857142857143</ele><time>2026-04-12T07:29:19Z</time></trkpt><trkpt lat="43.465056167276316" lon="10.360050263888967"><ele>110.57142857142857</ele><time>2026-04-12T07:29:21Z</time></trkpt><trkpt lat="43.46513052517575" lon="10.360047942450407"><ele>113.71428571428571</ele><time>2026-04-12T07:29:23Z</time></trkpt><trkpt lat="43.465203796129984" lon="10.360019273744568"><ele>116.85714285714286</ele><time>2026-04-12T07:29:25Z</time></trkpt><trkpt lat="43.4652735024125" lon="10.359992043000526"><ele>120.0</ele><time>2026-04-12T07:29:27Z</time></trkpt><trkpt lat="43.46533594677551" lon="10.359964085339774"><ele>120.0</ele><time>2026-04-12T07:29:29Z</time></trkpt><trkpt lat="43.46540013345688" lon="10.359919551351982"><ele>120.0</ele><time>2026-04-12T07:29:31Z</time></trkpt><trkpt lat="43.465463097799464" lon="10.359869732061632"><ele>120.0</ele><time>2026-04-12T07:29:33Z</time></trkpt><trkpt lat="43.46552799811027" lon="10.359809961890225"><ele>120.0</ele><time>2026-04-12T07:29:35Z</time></trkpt><trkpt lat="43.465590737229505" lon="10.359760535047798"><ele>120.0</ele><time>2026-04-12T07:29:37Z</time></trkpt><trkpt lat="43.465656238844886" lon="10.35970723552518"><ele>120.0</ele><time>2026-04-12T07:29:39Z</time></trkpt><trkpt lat="43.4657486399387" lon="10.35965674997767"><ele>122.33333333333333</ele><time>2026-04-12T07:29:42Z</time></trkpt><trkpt lat="43.465819173187576" lon="10.359652206895683"><ele>124.66666666666666</ele><time>2026-04-12T07:29:44Z</time></trkpt><trkpt lat="43.46591318485664" lon="10.35962528928728"><ele>127.0</ele><time>2026-04-12T07:29:47Z</time></trkpt><trkpt lat="43.465978928814096" lon="10.359597025350348"><ele>129.33333333333331</ele><time>2026-04-12T07:29:49Z</time></trkpt><trkpt lat="43.46603751893637" lon="10.359539270117203"><ele>131.66666666666666</ele><time>2026-04-12T07:29:51Z</time></trkpt><trkpt lat="43.46610026471427" lon="10.359490072701698"><ele>134.0</ele><time>2026-04-12T07:29:53Z</time></trkpt><trkpt lat="43.46616103837934" lon="10.359427729929703"><ele>134.0</ele><time>2026-04-12T07:29:55Z</time></trkpt><trkpt lat="43.466207287429405" lon="10.359350450810803"><ele>134.0</ele><time>2026-04-12T07:29:57Z</time></trkpt><trkpt lat="43.46626132840873" lon="10.359275491108853"><ele>134.0</ele><time>2026-04-12T07:29:58.999Z</time></trkpt><trkpt lat="43.46630852804129" lon="10.359200941327664"><ele>134.0</ele><time>2026-04-12T07:30:00.999Z</time></trkpt><trkpt lat="43.46635621719414" lon="10.359125709270675"><ele>134.0</ele><time>2026-04-12T07:30:02.999Z</time></trkpt><trkpt lat="43.46641712246154" lon="10.359033965471406"><ele>134.0</ele><time>2026-04-12T07:30:05.999Z</time></trkpt><trkpt lat="43.466488067296545" lon="10.358977659100244"><ele>134.0</ele><time>2026-04-12T07:30:07.999Z</time></trkpt><trkpt lat="43.4665559002152" lon="10.358950217049482"><ele>134.0</ele><time>2026-04-12T07:30:10Z</time></trkpt><trkpt lat="43.4666291671628" lon="10.35895000814491"><ele>134.0</ele><time>2026-04-12T07:30:12Z</time></trkpt><trkpt lat="43.46670374121803" lon="10.358962276058678"><ele>134.0</ele><time>2026-04-12T07:30:14Z</time></trkpt><trkpt lat="43.4667792120777" lon="10.358976963034383"><ele>134.0</ele><time>2026-04-12T07:30:16Z</time></trkpt><trkpt lat="43.46684339377415" lon="10.358996433464108"><ele>134.0</ele><time>2026-04-12T07:30:18Z</time></trkpt><trkpt lat="43.46692148362982" lon="10.359025545095463"><ele>134.0</ele><time>2026-04-12T07:30:20Z</time></trkpt><trkpt lat="43.46698692320765" lon="10.35906511853585"><ele>134.0</ele><time>2026-04-12T07:30:22Z</time></trkpt><trkpt lat="43.467056884012166" lon="10.359091163399146"><ele>134.0</ele><time>2026-04-12T07:30:24Z</time></trkpt><trkpt lat="43.467129948643446" lon="10.359109532567839"><ele>134.0</ele><time>2026-04-12T07:30:26Z</time></trkpt><trkpt lat="43.467200893065964" lon="10.359128609937073"><ele>134.0</ele><time>2026-04-12T07:30:28Z</time></trkpt><trkpt lat="43.46727014310747" lon="10.359112034151888"><ele>134.0</ele><time>2026-04-12T07:30:30Z</time></trkpt><trkpt lat="43.46733016310179" lon="10.35906995139399"><ele>134.0</ele><time>2026-04-12T07:30:32Z</time></trkpt><trkpt lat="43.46739532485555" lon="10.359025871170791"><ele>134.0</ele><time>2026-04-12T07:30:34Z</time></trkpt><trkpt lat="43.46747073188442" lon="10.35892859557469"><ele>135.33333333333331</ele><time>2026-04-12T07:30:37Z</time></trkpt><trkpt lat="43.46752525739088" lon="10.358881140967867"><ele>136.66666666666666</ele><time>2026-04-12T07:30:39Z</time></trkpt><trkpt lat="43.46759307084964" lon="10.358835905979397"><ele>138.0</ele><time>2026-04-12T07:30:41Z</time></trkpt><trkpt lat="43.46766642531156" lon="10.358812121574935"><ele>139.33333333333334</ele><time>2026-04-12T07:30:43Z</time></trkpt><trkpt lat="43.467754314975785" lon="10.358823890246148"><ele>140.66666666666669</ele><time>2026-04-12T07:30:46Z</time></trkpt><trkpt lat="43.46782695395545" lon="10.358822287162706"><ele>142.0</ele><time>2026-04-12T07:30:48Z</time></trkpt><trkpt lat="43.46792758369544" lon="10.3588409459447"><ele>141.85714285714286</ele><time>2026-04-12T07:30:51Z</time></trkpt><trkpt lat="43.46800027486688" lon="10.358850698869285"><ele>141.7142857142857</ele><time>2026-04-12T07:30:53Z</time></trkpt><trkpt lat="43.468065551768454" lon="10.35886314367687"><ele>141.57142857142856</ele><time>2026-04-12T07:30:55Z</time></trkpt><trkpt lat="43.468139527259154" lon="10.358878542440653"><ele>141.42857142857142</ele><time>2026-04-12T07:30:57Z</time></trkpt><trkpt lat="43.468214495436655" lon="10.358888089649488"><ele>141.28571428571428</ele><time>2026-04-12T07:30:59Z</time></trkpt><trkpt lat="43.46828511958482" lon="10.358898747160687"><ele>141.14285714285714</ele><time>2026-04-12T07:31:01Z</time></trkpt><trkpt lat="43.468355846476605" lon="10.35888859661283"><ele>141.0</ele><time>2026-04-12T07:31:03Z</time></trkpt><trkpt lat="43.46842681603888" lon="10.35886617822083"><ele>142.66666666666666</ele><time>2026-04-12T07:31:05Z</time></trkpt><trkpt lat="43.46849179729167" lon="10.358826723114063"><ele>144.33333333333334</ele><time>2026-04-12T07:31:07Z</time></trkpt><trkpt lat="43.46855263896147" lon="10.358771419949234"><ele>146.0</ele><time>2026-04-12T07:31:09Z</time></trkpt><trkpt lat="43.46861131876157" lon="10.358719545365362"><ele>147.66666666666669</ele><time>2026-04-12T07:31:11Z</time></trkpt><trkpt lat="43.46866522016968" lon="10.358644294919932"><ele>149.33333333333334</ele><time>2026-04-12T07:31:13Z</time></trkpt><trkpt lat="43.46874639785641" lon="10.358569710666192"><ele>151.0</ele><time>2026-04-12T07:31:16Z</time></trkpt><trkpt lat="43.46879765637536" lon="10.358495042626894"><ele>151.0</ele><time>2026-04-12T07:31:18Z</time></trkpt><trkpt lat="43.46885598215602" lon="10.35842414350788"><ele>151.0</ele><time>2026-04-12T07:31:20Z</time></trkpt><trkpt lat="43.46891951895914" lon="10.358324679518256"><ele>151.0</ele><time>2026-04-12T07:31:23Z</time></trkpt><trkpt lat="43.468962738418625" lon="10.35825111821337"><ele>151.0</ele><time>2026-04-12T07:31:25Z</time></trkpt><trkpt lat="43.469007534223714" lon="10.358179635823962"><ele>151.0</ele><time>2026-04-12T07:31:27Z</time></trkpt><trkpt lat="43.469051245038735" lon="10.35810370715332"><ele>151.0</ele><time>2026-04-12T07:31:29Z</time></trkpt><trkpt lat="43.46909638834444" lon="10.358031023109362"><ele>153.00000000000003</ele><time>2026-04-12T07:31:31Z</time></trkpt><trkpt lat="43.46914238580766" lon="10.357960188093005"><ele>155.0</ele><time>2026-04-12T07:31:33Z</time></trkpt><trkpt lat="43.46917856793818" lon="10.357880934539926"><ele>157.0</ele><time>2026-04-12T07:31:35Z</time></trkpt><trkpt lat="43.469227368883956" lon="10.357806020092143"><ele>159.0</ele><time>2026-04-12T07:31:37Z</time></trkpt><trkpt lat="43.469278767985195" lon="10.357739966387204"><ele>161.0</ele><time>2026-04-12T07:31:39Z</time></trkpt><trkpt lat="43.46934324108021" lon="10.35768123068444"><ele>163.00000000000003</ele><time>2026-04-12T07:31:41Z</time></trkpt><trkpt lat="43.469404366047854" lon="10.357641483588877"><ele>165.0</ele><time>2026-04-12T07:31:43Z</time></trkpt><trkpt lat="43.46947285460538" lon="10.35760867971173"><ele>165.00000000000003</ele><time>2026-04-12T07:31:45Z</time></trkpt><trkpt lat="43.46954137397642" lon="10.357585256010575"><ele>165.0</ele><time>2026-04-12T07:31:47Z</time></trkpt><trkpt lat="43.469609745660684" lon="10.357565126967401"><ele>165.0</ele><time>2026-04-12T07:31:49Z</time></trkpt><trkpt lat="43.469680060324656" lon="10.357539209070584"><ele>165.0</ele><time>2026-04-12T07:31:51Z</time></trkpt><trkpt lat="43.46974714168732" lon="10.357514304257752"><ele>165.0</ele><time>2026-04-12T07:31:53Z</time></trkpt><trkpt lat="43.469814832510515" lon="10.357498342546752"><ele>165.00000000000003</ele><time>2026-04-12T07:31:55Z</time></trkpt><trkpt lat="43.469884425146056" lon="10.357487433611137"><ele>165.0</ele><time>2026-04-12T07:31:57Z</time></trkpt><trkpt lat="43.46995218185072" lon="10.357480731170815"><ele>164.57142857142858</ele><time>2026-04-12T07:31:59Z</time></trkpt><trkpt lat="43.47002078480638" lon="10.357465885679119"><ele>164.14285714285714</ele><time>2026-04-12T07:32:01Z</time></trkpt><trkpt lat="43.47011917540303" lon="10.357447369535812"><ele>163.71428571428572</ele><time>2026-04-12T07:32:03.999Z</time></trkpt><trkpt lat="43.47018843564092" lon="10.357446070918675"><ele>163.28571428571428</ele><time>2026-04-12T07:32:05.999Z</time></trkpt><trkpt lat="43.470260132876874" lon="10.357431244501697"><ele>162.85714285714286</ele><time>2026-04-12T07:32:07.999Z</time></trkpt><trkpt lat="43.470325687586644" lon="10.357427715382814"><ele>162.42857142857144</ele><time>2026-04-12T07:32:09.999Z</time></trkpt><trkpt lat="43.47039827793824" lon="10.357433358416236"><ele>162.0</ele><time>2026-04-12T07:32:11.999Z</time></trkpt><trkpt lat="43.47046233872131" lon="10.357436051374659"><ele>162.0</ele><time>2026-04-12T07:32:13.999Z</time></trkpt><trkpt lat="43.470534178814155" lon="10.357445360412257"><ele>162.0</ele><time>2026-04-12T07:32:16Z</time></trkpt><trkpt lat="43.47060435515815" lon="10.357466664689397"><ele>162.0</ele><time>2026-04-12T07:32:18Z</time></trkpt><trkpt lat="43.4706661925467" lon="10.357495870148258"><ele>162.0</ele><time>2026-04-12T07:32:20Z</time></trkpt><trkpt lat="43.47073285260535" lon="10.357522169739148"><ele>162.0</ele><time>2026-04-12T07:32:22Z</time></trkpt><trkpt lat="43.47080372345545" lon="10.357548599263238"><ele>162.0</ele><time>2026-04-12T07:32:24Z</time></trkpt><trkpt lat="43.47086800928176" lon="10.357578514207042"><ele>162.0</ele><time>2026-04-12T07:32:26Z</time></trkpt><trkpt lat="43.4709350926698" lon="10.357620280018423"><ele>162.0</ele><time>2026-04-12T07:32:28Z</time></trkpt><trkpt lat="43.470993150548885" lon="10.357657922554589"><ele>162.0</ele><time>2026-04-12T07:32:30Z</time></trkpt><trkpt lat="43.47105935192671" lon="10.35769843866206"><ele>162.0</ele><time>2026-04-12T07:32:32Z</time></trkpt><trkpt lat="43.47112305677984" lon="10.357736745851572"><ele>162.0</ele><time>2026-04-12T07:32:34Z</time></trkpt><trkpt lat="43.47118532452556" lon="10.357788231544976"><ele>162.0</ele><time>2026-04-12T07:32:36Z</time></trkpt><trkpt lat="43.47124813943936" lon="10.357823945561123"><ele>162.0</ele><time>2026-04-12T07:32:38Z</time></trkpt><trkpt lat="43.47130759135307" lon="10.357868383794179"><ele>162.0</ele><time>2026-04-12T07:32:40Z</time></trkpt><trkpt lat="43.471370787629496" lon="10.357911170146117"><ele>161.83333333333334</ele><time>2026-04-12T07:32:42Z</time></trkpt><trkpt lat="43.4714299394736" lon="10.357953794436835"><ele>161.66666666666666</ele><time>2026-04-12T07:32:44Z</time></trkpt><trkpt lat="43.471506945711525" lon="10.357992141753884"><ele>161.5</ele><time>2026-04-12T07:32:46Z</time></trkpt><trkpt lat="43.47157565565709" lon="10.358025016971718"><ele>161.33333333333331</ele><time>2026-04-12T07:32:48Z</time></trkpt><trkpt lat="43.471655541735664" lon="10.358039809731181"><ele>161.16666666666666</ele><time>2026-04-12T07:32:50Z</time></trkpt><trkpt lat="43.47173873181238" lon="10.358060375723293"><ele>161.0</ele><time>2026-04-12T07:32:53Z</time></trkpt><trkpt lat="43.47182979781357" lon="10.358029998160864"><ele>162.71428571428572</ele><time>2026-04-12T07:32:55Z</time></trkpt><trkpt lat="43.47190088766236" lon="10.358042803213925"><ele>164.42857142857144</ele><time>2026-04-12T07:32:57Z</time></trkpt><trkpt lat="43.471965452171496" lon="10.358052770094828"><ele>166.14285714285714</ele><time>2026-04-12T07:32:59Z</time></trkpt><trkpt lat="43.47205172336273" lon="10.358075536898651"><ele>167.85714285714286</ele><time>2026-04-12T07:33:01Z</time></trkpt><trkpt lat="43.47210135451355" lon="10.358152338141345"><ele>169.57142857142858</ele><time>2026-04-12T07:33:03Z</time></trkpt><trkpt lat="43.47213505670824" lon="10.35823472304035"><ele>171.28571428571428</ele><time>2026-04-12T07:33:05Z</time></trkpt><trkpt lat="43.47216071192425" lon="10.358325419175074"><ele>173.0</ele><time>2026-04-12T07:33:07Z</time></trkpt><trkpt lat="43.472190892164704" lon="10.358409993821102"><ele>173.0</ele><time>2026-04-12T07:33:09Z</time></trkpt><trkpt lat="43.47222130802608" lon="10.358503869212258"><ele>173.0</ele><time>2026-04-12T07:33:11Z</time></trkpt><trkpt lat="43.47226379947795" lon="10.358583488381456"><ele>173.0</ele><time>2026-04-12T07:33:13Z</time></trkpt><trkpt lat="43.47230423187297" lon="10.358663137743777"><ele>173.0</ele><time>2026-04-12T07:33:15Z</time></trkpt><trkpt lat="43.47236964302245" lon="10.358748906529637"><ele>173.0</ele><time>2026-04-12T07:33:18Z</time></trkpt><trkpt lat="43.472430936611836" lon="10.358795761289626"><ele>173.0</ele><time>2026-04-12T07:33:20Z</time></trkpt><trkpt lat="43.47249607684029" lon="10.3588229311925"><ele>173.0</ele><time>2026-04-12T07:33:22Z</time></trkpt><trkpt lat="43.47257047660678" lon="10.358832565535216"><ele>173.0</ele><time>2026-04-12T07:33:24Z</time></trkpt><trkpt lat="43.47264098007371" lon="10.358822370910357"><ele>173.0</ele><time>2026-04-12T07:33:26Z</time></trkpt><trkpt lat="43.47271512189654" lon="10.358817509163515"><ele>173.0</ele><time>2026-04-12T07:33:28Z</time></trkpt><trkpt lat="43.47277976354377" lon="10.358793525872061"><ele>173.0</ele><time>2026-04-12T07:33:30Z</time></trkpt><trkpt lat="43.47284521065942" lon="10.35876778326602"><ele>173.0</ele><time>2026-04-12T07:33:32Z</time></trkpt><trkpt lat="43.47291493082051" lon="10.358733299920393"><ele>173.0</ele><time>2026-04-12T07:33:34Z</time></trkpt><trkpt lat="43.472991411293826" lon="10.358724975601076"><ele>173.0</ele><time>2026-04-12T07:33:36Z</time></trkpt><trkpt lat="43.473066879658866" lon="10.358750944702102"><ele>172.57142857142856</ele><time>2026-04-12T07:33:38Z</time></trkpt><trkpt lat="43.473138933763714" lon="10.35875044032566"><ele>172.14285714285717</ele><time>2026-04-12T07:33:40Z</time></trkpt><trkpt lat="43.473206298945335" lon="10.358771369861014"><ele>171.71428571428572</ele><time>2026-04-12T07:33:42Z</time></trkpt><trkpt lat="43.47327758845759" lon="10.358798958528523"><ele>171.28571428571428</ele><time>2026-04-12T07:33:44Z</time></trkpt><trkpt lat="43.47335433560954" lon="10.35880864423923"><ele>170.85714285714283</ele><time>2026-04-12T07:33:46Z</time></trkpt><trkpt lat="43.473427729000434" lon="10.358819227270358"><ele>170.42857142857144</ele><time>2026-04-12T07:33:48Z</time></trkpt><trkpt lat="43.473500895301335" lon="10.358806597984382"><ele>170.0</ele><time>2026-04-12T07:33:50Z</time></trkpt><trkpt lat="43.473576376374595" lon="10.35879405902413"><ele>170.0</ele><time>2026-04-12T07:33:52Z</time></trkpt><trkpt lat="43.47365487497302" lon="10.358773897240072"><ele>170.0</ele><time>2026-04-12T07:33:54Z</time></trkpt><trkpt lat="43.47373625624824" lon="10.358743059250333"><ele>170.0</ele><time>2026-04-12T07:33:56Z</time></trkpt><trkpt lat="43.47381358167416" lon="10.358691271590496"><ele>170.0</ele><time>2026-04-12T07:33:58Z</time></trkpt><trkpt lat="43.47389438676316" lon="10.358628667636372"><ele>170.0</ele><time>2026-04-12T07:34:00Z</time></trkpt><trkpt lat="43.47397498099099" lon="10.358564501102764"><ele>170.0</ele><time>2026-04-12T07:34:01.999Z</time></trkpt><trkpt lat="43.474064576378126" lon="10.358521667946208"><ele>170.8</ele><time>2026-04-12T07:34:03.999Z</time></trkpt><trkpt lat="43.4741523071471" lon="10.358490060460156"><ele>171.6</ele><time>2026-04-12T07:34:05.999Z</time></trkpt><trkpt lat="43.47424234444077" lon="10.358471857836186"><ele>172.39999999999998</ele><time>2026-04-12T07:34:07.999Z</time></trkpt><trkpt lat="43.474330206193045" lon="10.358457752230967"><ele>173.2</ele><time>2026-04-12T07:34:09.999Z</time></trkpt><trkpt lat="43.474420148695806" lon="10.358443572707802"><ele>174.0</ele><time>2026-04-12T07:34:11.999Z</time></trkpt><trkpt lat="43.47450968651766" lon="10.358431881141689"><ele>174.0</ele><time>2026-04-12T07:34:13.999Z</time></trkpt><trkpt lat="43.474600091532345" lon="10.35843123835563"><ele>174.0</ele><time>2026-04-12T07:34:15.999Z</time></trkpt><trkpt lat="43.474691415548214" lon="10.358446229945438"><ele>174.0</ele><time>2026-04-12T07:34:17.999Z</time></trkpt><trkpt lat="43.474776860346715" lon="10.358480771709027"><ele>174.0</ele><time>2026-04-12T07:34:19.999Z</time></trkpt><trkpt lat="43.474848702456086" lon="10.358560875616492"><ele>174.0</ele><time>2026-04-12T07:34:22Z</time></trkpt><trkpt lat="43.474902726134665" lon="10.358654526289573"><ele>173.83333333333334</ele><time>2026-04-12T07:34:24Z</time></trkpt><trkpt lat="43.474944585075825" lon="10.358759091491757"><ele>173.66666666666666</ele><time>2026-04-12T07:34:26Z</time></trkpt><trkpt lat="43.474987051050206" lon="10.358859250462068"><ele>173.5</ele><time>2026-04-12T07:34:28Z</time></trkpt><trkpt lat="43.475035641331296" lon="10.358966212034382"><ele>173.33333333333331</ele><time>2026-04-12T07:34:30Z</time></trkpt><trkpt lat="43.475078176990124" lon="10.359069110208894"><ele>173.16666666666666</ele><time>2026-04-12T07:34:32Z</time></trkpt><trkpt lat="43.47511304631934" lon="10.35917174332843"><ele>173.0</ele><time>2026-04-12T07:34:34Z</time></trkpt><trkpt lat="43.47515866176002" lon="10.359266558637072"><ele>175.66666666666666</ele><time>2026-04-12T07:34:36Z</time></trkpt><trkpt lat="43.47520218505942" lon="10.359368995292265"><ele>178.33333333333331</ele><time>2026-04-12T07:34:38Z</time></trkpt><trkpt lat="43.475243006548524" lon="10.359466854765127"><ele>181.0</ele><time>2026-04-12T07:34:40Z</time></trkpt><trkpt lat="43.475281575026266" lon="10.359562055807983"><ele>183.66666666666666</ele><time>2026-04-12T07:34:42Z</time></trkpt><trkpt lat="43.47532102078838" lon="10.359659953949292"><ele>186.33333333333334</ele><time>2026-04-12T07:34:44Z</time></trkpt><trkpt lat="43.47536260924629" lon="10.359755150998017"><ele>189.0</ele><time>2026-04-12T07:34:46Z</time></trkpt><trkpt lat="43.47541282612173" lon="10.359846146612293"><ele>189.33333333333334</ele><time>2026-04-12T07:34:48Z</time></trkpt><trkpt lat="43.475463953112026" lon="10.359922526750942"><ele>189.66666666666666</ele><time>2026-04-12T07:34:50Z</time></trkpt><trkpt lat="43.47552105691402" lon="10.359996189474728"><ele>190.0</ele><time>2026-04-12T07:34:52Z</time></trkpt><trkpt lat="43.47558961614156" lon="10.360049217869348"><ele>190.33333333333331</ele><time>2026-04-12T07:34:54Z</time></trkpt><trkpt lat="43.47566994383627" lon="10.360083632084258"><ele>190.66666666666666</ele><time>2026-04-12T07:34:56Z</time></trkpt><trkpt lat="43.47573567139945" lon="10.360122179009316"><ele>191.0</ele><time>2026-04-12T07:34:58Z</time></trkpt><trkpt lat="43.47580119312228" lon="10.360172409301908"><ele>191.0</ele><time>2026-04-12T07:35:00Z</time></trkpt><trkpt lat="43.47586469191921" lon="10.360247779621812"><ele>191.0</ele><time>2026-04-12T07:35:02Z</time></trkpt><trkpt lat="43.47591718190177" lon="10.360340854244864"><ele>191.0</ele><time>2026-04-12T07:35:04Z</time></trkpt><trkpt lat="43.47596660334064" lon="10.360430538535606"><ele>191.0</ele><time>2026-04-12T07:35:06Z</time></trkpt><trkpt lat="43.47600769315753" lon="10.360530736422067"><ele>191.0</ele><time>2026-04-12T07:35:08Z</time></trkpt><trkpt lat="43.47606136009597" lon="10.360617707354805"><ele>191.0</ele><time>2026-04-12T07:35:10Z</time></trkpt><trkpt lat="43.47612171831031" lon="10.36070471698855"><ele>190.66666666666666</ele><time>2026-04-12T07:35:12Z</time></trkpt><trkpt lat="43.47617017710779" lon="10.360789363132369"><ele>190.33333333333331</ele><time>2026-04-12T07:35:14Z</time></trkpt><trkpt lat="43.47623400707029" lon="10.360856363483924"><ele>190.0</ele><time>2026-04-12T07:35:16Z</time></trkpt><trkpt lat="43.47629237874509" lon="10.360932296743044"><ele>189.66666666666666</ele><time>2026-04-12T07:35:18Z</time></trkpt><trkpt lat="43.476349301208906" lon="10.361022927618704"><ele>189.33333333333334</ele><time>2026-04-12T07:35:20Z</time></trkpt><trkpt lat="43.47638870988386" lon="10.36111607207292"><ele>189.0</ele><time>2026-04-12T07:35:22Z</time></trkpt><trkpt lat="43.476430502888334" lon="10.361215498321465"><ele>189.0</ele><time>2026-04-12T07:35:24Z</time></trkpt><trkpt lat="43.47646235222496" lon="10.36131094094652"><ele>189.0</ele><time>2026-04-12T07:35:26Z</time></trkpt><trkpt lat="43.4764955617117" lon="10.361410821705435"><ele>189.0</ele><time>2026-04-12T07:35:28Z</time></trkpt><trkpt lat="43.47653646416421" lon="10.361516182395459"><ele>189.0</ele><time>2026-04-12T07:35:30Z</time></trkpt><trkpt lat="43.47656124051569" lon="10.361621365304922"><ele>189.0</ele><time>2026-04-12T07:35:32Z</time></trkpt><trkpt lat="43.476571570019324" lon="10.361730395529992"><ele>189.0</ele><time>2026-04-12T07:35:34Z</time></trkpt><trkpt lat="43.4765889351684" lon="10.36183782508492"><ele>190.0</ele><time>2026-04-12T07:35:36Z</time></trkpt><trkpt lat="43.47661124957258" lon="10.36193509697623"><ele>191.0</ele><time>2026-04-12T07:35:38Z</time></trkpt><trkpt lat="43.47661818927717" lon="10.362056231485123"><ele>192.0</ele><time>2026-04-12T07:35:40Z</time></trkpt><trkpt lat="43.476638707605325" lon="10.362166432939027"><ele>193.0</ele><time>2026-04-12T07:35:42Z</time></trkpt><trkpt lat="43.4766648056818" lon="10.362270422343379"><ele>194.0</ele><time>2026-04-12T07:35:44Z</time></trkpt><trkpt lat="43.476694325087614" lon="10.36238046141544"><ele>195.0</ele><time>2026-04-12T07:35:46Z</time></trkpt><trkpt lat="43.47671828967828" lon="10.36247656708692"><ele>195.0</ele><time>2026-04-12T07:35:48Z</time></trkpt><trkpt lat="43.47674126176827" lon="10.362568692508628"><ele>195.0</ele><time>2026-04-12T07:35:50Z</time></trkpt><trkpt lat="43.4768531493114" lon="10.362569469165004"><ele>195.0</ele><time>2026-04-12T07:35:51Z</time></trkpt><trkpt lat="43.476906843753525" lon="10.362640339064676"><ele>195.0</ele><time>2026-04-12T07:35:53Z</time></trkpt><trkpt lat="43.476964767538206" lon="10.36272380723232"><ele>195.0</ele><time>2026-04-12T07:35:55Z</time></trkpt><trkpt lat="43.47703129651678" lon="10.362796533792151"><ele>195.0</ele><time>2026-04-12T07:35:57Z</time></trkpt><trkpt lat="43.47707959918756" lon="10.362866672600429"><ele>195.42857142857142</ele><time>2026-04-12T07:35:59Z</time></trkpt><trkpt lat="43.47713216361191" lon="10.36295161728227"><ele>195.85714285714283</ele><time>2026-04-12T07:36:01Z</time></trkpt><trkpt lat="43.4771733142578" lon="10.363022635489141"><ele>196.28571428571428</ele><time>2026-04-12T07:36:03Z</time></trkpt><trkpt lat="43.477229066011816" lon="10.363093879664017"><ele>196.71428571428572</ele><time>2026-04-12T07:36:05Z</time></trkpt><trkpt lat="43.4772865059775" lon="10.363155531513927"><ele>197.14285714285714</ele><time>2026-04-12T07:36:07Z</time></trkpt><trkpt lat="43.477341044389" lon="10.363225750896305"><ele>197.57142857142858</ele><time>2026-04-12T07:36:09Z</time></trkpt><trkpt lat="43.47739033572313" lon="10.363299252647208"><ele>198.0</ele><time>2026-04-12T07:36:11Z</time></trkpt><trkpt lat="43.47743890504305" lon="10.363370100504362"><ele>198.0</ele><time>2026-04-12T07:36:13Z</time></trkpt><trkpt lat="43.47749168944302" lon="10.363441300554976"><ele>198.0</ele><time>2026-04-12T07:36:15Z</time></trkpt><trkpt lat="43.47754477021504" lon="10.363505866548184"><ele>198.0</ele><time>2026-04-12T07:36:17Z</time></trkpt><trkpt lat="43.477603358642476" lon="10.363568840401848"><ele>198.0</ele><time>2026-04-12T07:36:19Z</time></trkpt><trkpt lat="43.477666615282" lon="10.363623306654654"><ele>198.0</ele><time>2026-04-12T07:36:21Z</time></trkpt><trkpt lat="43.47772363595296" lon="10.363670476157832"><ele>198.0</ele><time>2026-04-12T07:36:22.999Z</time></trkpt><trkpt lat="43.47778044847043" lon="10.36371746368549"><ele>198.0</ele><time>2026-04-12T07:36:24.999Z</time></trkpt><trkpt lat="43.47786800681878" lon="10.363778713144777"><ele>198.0</ele><time>2026-04-12T07:36:28Z</time></trkpt><trkpt lat="43.47792771023048" lon="10.363818889899754"><ele>198.0</ele><time>2026-04-12T07:36:30Z</time></trkpt><trkpt lat="43.47798900887549" lon="10.36385250463371"><ele>198.0</ele><time>2026-04-12T07:36:32Z</time></trkpt><trkpt lat="43.478048000045995" lon="10.363892765291817"><ele>198.0</ele><time>2026-04-12T07:36:34Z</time></trkpt><trkpt lat="43.47811837423921" lon="10.363935178567582"><ele>198.0</ele><time>2026-04-12T07:36:36Z</time></trkpt><trkpt lat="43.478182369194975" lon="10.363983922533809"><ele>198.0</ele><time>2026-04-12T07:36:38Z</time></trkpt><trkpt lat="43.4782545402883" lon="10.364024585471881"><ele>198.0</ele><time>2026-04-12T07:36:40Z</time></trkpt><trkpt lat="43.478315113595926" lon="10.364065791110118"><ele>199.83333333333334</ele><time>2026-04-12T07:36:42Z</time></trkpt><trkpt lat="43.478377092654014" lon="10.364113199706521"><ele>201.66666666666669</ele><time>2026-04-12T07:36:44Z</time></trkpt><trkpt lat="43.47846198467169" lon="10.364172585606775"><ele>203.5</ele><time>2026-04-12T07:36:47Z</time></trkpt><trkpt lat="43.47852530803114" lon="10.364213569752767"><ele>205.33333333333334</ele><time>2026-04-12T07:36:49Z</time></trkpt><trkpt lat="43.47858532687976" lon="10.364244011970975"><ele>207.16666666666669</ele><time>2026-04-12T07:36:51Z</time></trkpt><trkpt lat="43.478652193999025" lon="10.364290070162987"><ele>209.0</ele><time>2026-04-12T07:36:53Z</time></trkpt><trkpt lat="43.47872800590948" lon="10.364331199279391"><ele>210.50000000000003</ele><time>2026-04-12T07:36:55Z</time></trkpt><trkpt lat="43.47879060593117" lon="10.364396803318378"><ele>212.0</ele><time>2026-04-12T07:36:57Z</time></trkpt><trkpt lat="43.4788577322254" lon="10.364446302312263"><ele>213.5</ele><time>2026-04-12T07:36:59Z</time></trkpt><trkpt lat="43.4789287038208" lon="10.36451900850829"><ele>215.0</ele><time>2026-04-12T07:37:01Z</time></trkpt><trkpt lat="43.47896084397234" lon="10.364628322842293"><ele>216.50000000000003</ele><time>2026-04-12T07:37:04Z</time></trkpt><trkpt lat="43.478976588600375" lon="10.364714762025779"><ele>218.0</ele><time>2026-04-12T07:37:06Z</time></trkpt><trkpt lat="43.47899258310879" lon="10.36481881634352"><ele>218.0</ele><time>2026-04-12T07:37:08Z</time></trkpt><trkpt lat="43.47897995828666" lon="10.364921001480944"><ele>218.0</ele><time>2026-04-12T07:37:10Z</time></trkpt><trkpt lat="43.47896891469982" lon="10.36501886672975"><ele>218.0</ele><time>2026-04-12T07:37:12Z</time></trkpt><trkpt lat="43.47898112945833" lon="10.36511440528974"><ele>218.0</ele><time>2026-04-12T07:37:14Z</time></trkpt><trkpt lat="43.478999447656626" lon="10.365210400018091"><ele>218.0</ele><time>2026-04-12T07:37:16Z</time></trkpt><trkpt lat="43.479030349387514" lon="10.365299445959595"><ele>218.0</ele><time>2026-04-12T07:37:18Z</time></trkpt><trkpt lat="43.47906627089608" lon="10.365382778388154"><ele>218.0</ele><time>2026-04-12T07:37:20Z</time></trkpt><trkpt lat="43.47911332439669" lon="10.365466548360416"><ele>217.42857142857144</ele><time>2026-04-12T07:37:22Z</time></trkpt><trkpt lat="43.479156134894396" lon="10.365544324746427"><ele>216.85714285714286</ele><time>2026-04-12T07:37:24Z</time></trkpt><trkpt lat="43.479202717495134" lon="10.36562903727413"><ele>216.28571428571428</ele><time>2026-04-12T07:37:26Z</time></trkpt><trkpt lat="43.479247740522524" lon="10.36570564090654"><ele>215.71428571428572</ele><time>2026-04-12T07:37:28Z</time></trkpt><trkpt lat="43.47928912621261" lon="10.365783388872519"><ele>215.14285714285714</ele><time>2026-04-12T07:37:30Z</time></trkpt><trkpt lat="43.47932980738374" lon="10.365857747041675"><ele>214.57142857142858</ele><time>2026-04-12T07:37:32Z</time></trkpt><trkpt lat="43.47937971971702" lon="10.365923037420856"><ele>214.0</ele><time>2026-04-12T07:37:34Z</time></trkpt><trkpt lat="43.47942140826292" lon="10.365999245448126"><ele>214.00000000000003</ele><time>2026-04-12T07:37:36Z</time></trkpt><trkpt lat="43.479465129588576" lon="10.366082858115098"><ele>214.0</ele><time>2026-04-12T07:37:38Z</time></trkpt><trkpt lat="43.47952748265455" lon="10.36615541220507"><ele>214.0</ele><time>2026-04-12T07:37:40Z</time></trkpt><trkpt lat="43.479590507275375" lon="10.366208506793651"><ele>214.0</ele><time>2026-04-12T07:37:42Z</time></trkpt><trkpt lat="43.47964908393892" lon="10.36626223207102"><ele>214.0</ele><time>2026-04-12T07:37:44Z</time></trkpt><trkpt lat="43.47970817662353" lon="10.366321503950777"><ele>214.00000000000003</ele><time>2026-04-12T07:37:46Z</time></trkpt><trkpt lat="43.47976548721157" lon="10.366381026071231"><ele>214.0</ele><time>2026-04-12T07:37:48Z</time></trkpt><trkpt lat="43.47982116600156" lon="10.366441382626276"><ele>215.42857142857144</ele><time>2026-04-12T07:37:50Z</time></trkpt><trkpt lat="43.4798625102879" lon="10.36652074977643"><ele>216.85714285714286</ele><time>2026-04-12T07:37:52Z</time></trkpt><trkpt lat="43.47990762333574" lon="10.366604577747513"><ele>218.28571428571428</ele><time>2026-04-12T07:37:54Z</time></trkpt><trkpt lat="43.47994242594329" lon="10.366691193546"><ele>219.71428571428572</ele><time>2026-04-12T07:37:56Z</time></trkpt><trkpt lat="43.47997063773895" lon="10.366789429631531"><ele>221.14285714285714</ele><time>2026-04-12T07:37:58Z</time></trkpt><trkpt lat="43.47999378207257" lon="10.366884785778332"><ele>222.57142857142858</ele><time>2026-04-12T07:38:00Z</time></trkpt><trkpt lat="43.480008842547875" lon="10.366979004939019"><ele>224.0</ele><time>2026-04-12T07:38:02Z</time></trkpt><trkpt lat="43.48001254380389" lon="10.367081927453356"><ele>224.0</ele><time>2026-04-12T07:38:04Z</time></trkpt><trkpt lat="43.48001766684988" lon="10.367180935749284"><ele>224.0</ele><time>2026-04-12T07:38:06Z</time></trkpt><trkpt lat="43.480014500978555" lon="10.36727733716954"><ele>224.0</ele><time>2026-04-12T07:38:08Z</time></trkpt><trkpt lat="43.48000644845172" lon="10.367372312493226"><ele>224.0</ele><time>2026-04-12T07:38:10Z</time></trkpt><trkpt lat="43.47999850960792" lon="10.367469449848794"><ele>224.0</ele><time>2026-04-12T07:38:12Z</time></trkpt><trkpt lat="43.47998540487557" lon="10.367565619215194"><ele>224.0</ele><time>2026-04-12T07:38:14Z</time></trkpt><trkpt lat="43.47996891749714" lon="10.36765487312876"><ele>224.0</ele><time>2026-04-12T07:38:16Z</time></trkpt><trkpt lat="43.47996352051106" lon="10.36775345118957"><ele>224.28571428571428</ele><time>2026-04-12T07:38:18Z</time></trkpt><trkpt lat="43.479958422170064" lon="10.367854065033482"><ele>224.57142857142856</ele><time>2026-04-12T07:38:20Z</time></trkpt><trkpt lat="43.47994984462643" lon="10.367948274787265"><ele>224.85714285714286</ele><time>2026-04-12T07:38:21.999Z</time></trkpt><trkpt lat="43.47994209918224" lon="10.368043034975543"><ele>225.14285714285714</ele><time>2026-04-12T07:38:23.999Z</time></trkpt><trkpt lat="43.479934282348474" lon="10.368141571181761"><ele>225.42857142857142</ele><time>2026-04-12T07:38:25.999Z</time></trkpt><trkpt lat="43.4799294965722" lon="10.368239490039556"><ele>225.71428571428572</ele><time>2026-04-12T07:38:27.999Z</time></trkpt><trkpt lat="43.479916462933055" lon="10.368340407871088"><ele>226.0</ele><time>2026-04-12T07:38:29.999Z</time></trkpt><trkpt lat="43.4799049196182" lon="10.368435877706268"><ele>226.71428571428572</ele><time>2026-04-12T07:38:31.999Z</time></trkpt><trkpt lat="43.47989414522741" lon="10.36852901297599"><ele>227.42857142857142</ele><time>2026-04-12T07:38:34Z</time></trkpt><trkpt lat="43.47989280140302" lon="10.368628061758029"><ele>228.14285714285714</ele><time>2026-04-12T07:38:36Z</time></trkpt><trkpt lat="43.479884566564195" lon="10.368723224715612"><ele>228.85714285714286</ele><time>2026-04-12T07:38:38Z</time></trkpt><trkpt lat="43.47987169785281" lon="10.36881626429186"><ele>229.57142857142856</ele><time>2026-04-12T07:38:40Z</time></trkpt><trkpt lat="43.47985896922745" lon="10.368911234926385"><ele>230.28571428571428</ele><time>2026-04-12T07:38:42Z</time></trkpt><trkpt lat="43.479841306648424" lon="10.369002651872375"><ele>231.0</ele><time>2026-04-12T07:38:44Z</time></trkpt><trkpt lat="43.479850086994574" lon="10.369096987027538"><ele>231.66666666666666</ele><time>2026-04-12T07:38:46Z</time></trkpt><trkpt lat="43.479851955585374" lon="10.369203471786728"><ele>232.33333333333331</ele><time>2026-04-12T07:38:48Z</time></trkpt><trkpt lat="43.479883770921354" lon="10.3692848224246"><ele>233.0</ele><time>2026-04-12T07:38:50Z</time></trkpt><trkpt lat="43.479935414581625" lon="10.369334471908829"><ele>233.66666666666666</ele><time>2026-04-12T07:38:52Z</time></trkpt><trkpt lat="43.48002621830253" lon="10.369289267518996"><ele>234.33333333333331</ele><time>2026-04-12T07:38:54Z</time></trkpt><trkpt lat="43.480076672048654" lon="10.369208216617016"><ele>235.0</ele><time>2026-04-12T07:38:56Z</time></trkpt><trkpt lat="43.480131852169414" lon="10.36914308957149"><ele>234.99999999999997</ele><time>2026-04-12T07:38:58Z</time></trkpt><trkpt lat="43.480184321070844" lon="10.369068543452949"><ele>235.0</ele><time>2026-04-12T07:39:00Z</time></trkpt><trkpt lat="43.48024079368309" lon="10.369009796033179"><ele>235.0</ele><time>2026-04-12T07:39:02Z</time></trkpt><trkpt lat="43.48029162801205" lon="10.36893894667698"><ele>235.0</ele><time>2026-04-12T07:39:04Z</time></trkpt><trkpt lat="43.480345325291886" lon="10.368861498768172"><ele>234.99999999999997</ele><time>2026-04-12T07:39:06Z</time></trkpt><trkpt lat="43.48039893929364" lon="10.368789392604803"><ele>235.0</ele><time>2026-04-12T07:39:08Z</time></trkpt><trkpt lat="43.4804502539323" lon="10.368706799612967"><ele>235.57142857142856</ele><time>2026-04-12T07:39:10Z</time></trkpt><trkpt lat="43.48050364488819" lon="10.368638375330809"><ele>236.1428571428571</ele><time>2026-04-12T07:39:12Z</time></trkpt><trkpt lat="43.48055530617565" lon="10.3685672049466"><ele>236.71428571428572</ele><time>2026-04-12T07:39:14Z</time></trkpt><trkpt lat="43.48060932446295" lon="10.368506481561184"><ele>237.28571428571428</ele><time>2026-04-12T07:39:16Z</time></trkpt><trkpt lat="43.480663001189654" lon="10.368452083346961"><ele>237.85714285714286</ele><time>2026-04-12T07:39:18Z</time></trkpt><trkpt lat="43.48071027330652" lon="10.368389451264953"><ele>238.42857142857144</ele><time>2026-04-12T07:39:20Z</time></trkpt><trkpt lat="43.480764974143234" lon="10.368333071881842"><ele>239.00000000000003</ele><time>2026-04-12T07:39:22Z</time></trkpt><trkpt lat="43.48082171984937" lon="10.368278361461648"><ele>239.00000000000003</ele><time>2026-04-12T07:39:24Z</time></trkpt><trkpt lat="43.480885022393394" lon="10.368238480661244"><ele>239.0</ele><time>2026-04-12T07:39:26Z</time></trkpt><trkpt lat="43.48094862503549" lon="10.36819131351496"><ele>239.00000000000003</ele><time>2026-04-12T07:39:28Z</time></trkpt><trkpt lat="43.481012083778104" lon="10.36814653143481"><ele>239.00000000000003</ele><time>2026-04-12T07:39:30Z</time></trkpt><trkpt lat="43.48108001350494" lon="10.368113330678604"><ele>239.0</ele><time>2026-04-12T07:39:32Z</time></trkpt><trkpt lat="43.481141956230644" lon="10.36807615505715"><ele>239.00000000000003</ele><time>2026-04-12T07:39:34Z</time></trkpt><trkpt lat="43.48120671520541" lon="10.368054756745313"><ele>239.00000000000003</ele><time>2026-04-12T07:39:36Z</time></trkpt><trkpt lat="43.48126533549875" lon="10.368005634067616"><ele>240.5714285714286</ele><time>2026-04-12T07:39:38Z</time></trkpt><trkpt lat="43.48132477915265" lon="10.367968270374142"><ele>242.14285714285717</ele><time>2026-04-12T07:39:40Z</time></trkpt><trkpt lat="43.48138176079284" lon="10.367911893781084"><ele>243.71428571428572</ele><time>2026-04-12T07:39:42Z</time></trkpt><trkpt lat="43.48143558781458" lon="10.367858242683598"><ele>245.2857142857143</ele><time>2026-04-12T07:39:44Z</time></trkpt><trkpt lat="43.4814741649861" lon="10.367772988730325"><ele>246.8571428571429</ele><time>2026-04-12T07:39:46Z</time></trkpt><trkpt lat="43.48150215795139" lon="10.367684600992142"><ele>248.42857142857142</ele><time>2026-04-12T07:39:48Z</time></trkpt><trkpt lat="43.481521731690776" lon="10.367592372722699"><ele>250.0</ele><time>2026-04-12T07:39:50Z</time></trkpt><trkpt lat="43.48153035106633" lon="10.367495611424848"><ele>250.0</ele><time>2026-04-12T07:39:52Z</time></trkpt><trkpt lat="43.48153378494676" lon="10.367397478818587"><ele>250.0</ele><time>2026-04-12T07:39:54Z</time></trkpt><trkpt lat="43.48153434274092" lon="10.367309068153443"><ele>250.0</ele><time>2026-04-12T07:39:56Z</time></trkpt><trkpt lat="43.48153770921202" lon="10.367212105623627"><ele>250.0</ele><time>2026-04-12T07:39:58Z</time></trkpt><trkpt lat="43.481541703159344" lon="10.36711889072958"><ele>250.0</ele><time>2026-04-12T07:40:00Z</time></trkpt><trkpt lat="43.48155176698734" lon="10.367023498607683"><ele>250.0</ele><time>2026-04-12T07:40:02Z</time></trkpt><trkpt lat="43.481557481256914" lon="10.366927208656062"><ele>250.0</ele><time>2026-04-12T07:40:04Z</time></trkpt><trkpt lat="43.48156464849538" lon="10.366829831265006"><ele>250.57142857142856</ele><time>2026-04-12T07:40:06Z</time></trkpt><trkpt lat="43.48157744058103" lon="10.36673626101021"><ele>251.14285714285717</ele><time>2026-04-12T07:40:08Z</time></trkpt><trkpt lat="43.48158723962262" lon="10.366638903944972"><ele>251.71428571428572</ele><time>2026-04-12T07:40:10Z</time></trkpt><trkpt lat="43.48159066286039" lon="10.366541227804435"><ele>252.28571428571428</ele><time>2026-04-12T07:40:12Z</time></trkpt><trkpt lat="43.48159919336619" lon="10.366449210517953"><ele>252.85714285714283</ele><time>2026-04-12T07:40:14Z</time></trkpt><trkpt lat="43.48160596964591" lon="10.36635385902257"><ele>253.42857142857144</ele><time>2026-04-12T07:40:16Z</time></trkpt><trkpt lat="43.48161124520825" lon="10.366263516887154"><ele>254.0</ele><time>2026-04-12T07:40:18Z</time></trkpt><trkpt lat="43.481624284677046" lon="10.36616657498149"><ele>254.28571428571428</ele><time>2026-04-12T07:40:20Z</time></trkpt><trkpt lat="43.481630158544725" lon="10.36606053725303"><ele>254.57142857142856</ele><time>2026-04-12T07:40:22Z</time></trkpt><trkpt lat="43.48164306924263" lon="10.365964818386963"><ele>254.85714285714283</ele><time>2026-04-12T07:40:24Z</time></trkpt><trkpt lat="43.48165212744632" lon="10.365868523337495"><ele>255.14285714285714</ele><time>2026-04-12T07:40:26Z</time></trkpt><trkpt lat="43.481669512285514" lon="10.365771746729745"><ele>255.4285714285714</ele><time>2026-04-12T07:40:28Z</time></trkpt><trkpt lat="43.48169297506246" lon="10.365684432093605"><ele>255.7142857142857</ele><time>2026-04-12T07:40:30Z</time></trkpt><trkpt lat="43.48170867074462" lon="10.365587606831726"><ele>256.0</ele><time>2026-04-12T07:40:32Z</time></trkpt><trkpt lat="43.48173571249723" lon="10.365508139323328"><ele>256.8333333333333</ele><time>2026-04-12T07:40:33.999Z</time></trkpt><trkpt lat="43.481783366615836" lon="10.365397211454235"><ele>257.66666666666663</ele><time>2026-04-12T07:40:36.999Z</time></trkpt><trkpt lat="43.48183863293941" lon="10.365296342500907"><ele>258.5</ele><time>2026-04-12T07:40:40Z</time></trkpt><trkpt lat="43.481899686324226" lon="10.365198986873448"><ele>259.3333333333333</ele><time>2026-04-12T07:40:43Z</time></trkpt><trkpt lat="43.481966698315254" lon="10.36511357341538"><ele>260.1666666666667</ele><time>2026-04-12T07:40:46Z</time></trkpt><trkpt lat="43.482017584496646" lon="10.365058798519849"><ele>261.0</ele><time>2026-04-12T07:40:48Z</time></trkpt><trkpt lat="43.482092720181285" lon="10.364982095819133"><ele>262.1666666666667</ele><time>2026-04-12T07:40:51Z</time></trkpt><trkpt lat="43.48214570445685" lon="10.364935146015355"><ele>263.3333333333333</ele><time>2026-04-12T07:40:53Z</time></trkpt><trkpt lat="43.4822021562872" lon="10.364895803568535"><ele>264.5</ele><time>2026-04-12T07:40:55Z</time></trkpt><trkpt lat="43.482285720235396" lon="10.36484419011541"><ele>265.66666666666663</ele><time>2026-04-12T07:40:58Z</time></trkpt><trkpt lat="43.48237479689144" lon="10.364808789850153"><ele>266.8333333333333</ele><time>2026-04-12T07:41:01Z</time></trkpt><trkpt lat="43.48246029817431" lon="10.364764931283705"><ele>268.0</ele><time>2026-04-12T07:41:04Z</time></trkpt><trkpt lat="43.48254465751324" lon="10.36471746958098"><ele>269.3333333333333</ele><time>2026-04-12T07:41:07Z</time></trkpt><trkpt lat="43.482626505806834" lon="10.364659962233764"><ele>270.66666666666663</ele><time>2026-04-12T07:41:10Z</time></trkpt><trkpt lat="43.482680600692134" lon="10.364607230371206"><ele>272.0</ele><time>2026-04-12T07:41:12Z</time></trkpt><trkpt lat="43.482729581111556" lon="10.3645452732549"><ele>273.3333333333333</ele><time>2026-04-12T07:41:14Z</time></trkpt><trkpt lat="43.482774962483" lon="10.36446273169973"><ele>274.6666666666667</ele><time>2026-04-12T07:41:16Z</time></trkpt><trkpt lat="43.4828250972234" lon="10.364368780304638"><ele>276.0</ele><time>2026-04-12T07:41:18Z</time></trkpt><trkpt lat="43.482888957465086" lon="10.364265549325467"><ele>275.0</ele><time>2026-04-12T07:41:20Z</time></trkpt><trkpt lat="43.48296641072188" lon="10.364181557306162"><ele>274.0</ele><time>2026-04-12T07:41:22Z</time></trkpt><trkpt lat="43.483048795451275" lon="10.364119072724224"><ele>273.0</ele><time>2026-04-12T07:41:24Z</time></trkpt><trkpt lat="43.48312082504048" lon="10.364060499548422"><ele>272.0</ele><time>2026-04-12T07:41:26Z</time></trkpt><trkpt lat="43.483196469309256" lon="10.364006891643971"><ele>271.0</ele><time>2026-04-12T07:41:28Z</time></trkpt><trkpt lat="43.48327122283397" lon="10.363966185308286"><ele>270.0</ele><time>2026-04-12T07:41:30Z</time></trkpt><trkpt lat="43.4833451809488" lon="10.363929862977706"><ele>270.0</ele><time>2026-04-12T07:41:32Z</time></trkpt><trkpt lat="43.48341673009177" lon="10.363901322551552"><ele>270.0</ele><time>2026-04-12T07:41:34Z</time></trkpt><trkpt lat="43.48348682802441" lon="10.363863883398079"><ele>270.0</ele><time>2026-04-12T07:41:36Z</time></trkpt><trkpt lat="43.48355564021889" lon="10.363824277961045"><ele>270.0</ele><time>2026-04-12T07:41:38Z</time></trkpt><trkpt lat="43.483620516069855" lon="10.363792650295078"><ele>270.0</ele><time>2026-04-12T07:41:40Z</time></trkpt><trkpt lat="43.48368337041277" lon="10.363751567733935"><ele>270.0</ele><time>2026-04-12T07:41:42Z</time></trkpt><trkpt lat="43.48374469653824" lon="10.363702438219567"><ele>270.0</ele><time>2026-04-12T07:41:44Z</time></trkpt><trkpt lat="43.48380657511276" lon="10.363649506179273"><ele>271.2857142857143</ele><time>2026-04-12T07:41:46Z</time></trkpt><trkpt lat="43.4838729294235" lon="10.363594985311732"><ele>272.57142857142856</ele><time>2026-04-12T07:41:48Z</time></trkpt><trkpt lat="43.48395267617422" lon="10.363546733773834"><ele>273.85714285714283</ele><time>2026-04-12T07:41:50Z</time></trkpt><trkpt lat="43.48400757138583" lon="10.363490488651754"><ele>275.1428571428571</ele><time>2026-04-12T07:41:52Z</time></trkpt><trkpt lat="43.48405904883389" lon="10.363430533998368"><ele>276.42857142857144</ele><time>2026-04-12T07:41:54Z</time></trkpt><trkpt lat="43.48412748819021" lon="10.363391108123787"><ele>277.71428571428567</ele><time>2026-04-12T07:41:56Z</time></trkpt><trkpt lat="43.484192484025876" lon="10.363351997135274"><ele>279.0</ele><time>2026-04-12T07:41:58Z</time></trkpt><trkpt lat="43.4842599529865" lon="10.363313883467448"><ele>279.0</ele><time>2026-04-12T07:42:00Z</time></trkpt><trkpt lat="43.48432753925051" lon="10.363278488359885"><ele>279.0</ele><time>2026-04-12T07:42:02Z</time></trkpt><trkpt lat="43.48439740122919" lon="10.363245083915082"><ele>279.0</ele><time>2026-04-12T07:42:04Z</time></trkpt><trkpt lat="43.48446788729837" lon="10.363212634784723"><ele>279.0</ele><time>2026-04-12T07:42:06Z</time></trkpt><trkpt lat="43.48454022186023" lon="10.36319109281377"><ele>279.0</ele><time>2026-04-12T07:42:08Z</time></trkpt><trkpt lat="43.48462179183677" lon="10.36318189898123"><ele>279.0</ele><time>2026-04-12T07:42:10Z</time></trkpt><trkpt lat="43.484704042392075" lon="10.363183242639725"><ele>278.8</ele><time>2026-04-12T07:42:12Z</time></trkpt><trkpt lat="43.48477851063707" lon="10.363199105978135"><ele>278.59999999999997</ele><time>2026-04-12T07:42:14Z</time></trkpt><trkpt lat="43.48486236302778" lon="10.36320483040584"><ele>278.4</ele><time>2026-04-12T07:42:16Z</time></trkpt><trkpt lat="43.48495054958616" lon="10.363224163481608"><ele>278.2</ele><time>2026-04-12T07:42:18Z</time></trkpt><trkpt lat="43.485057916083896" lon="10.363222366558906"><ele>278.0</ele><time>2026-04-12T07:42:20Z</time></trkpt><trkpt lat="43.48517054985966" lon="10.36318523113907"><ele>278.0</ele><time>2026-04-12T07:42:22Z</time></trkpt><trkpt lat="43.485284573369505" lon="10.363149264205346"><ele>278.0</ele><time>2026-04-12T07:42:24Z</time></trkpt><trkpt lat="43.48534535626266" lon="10.36311585351597"><ele>278.0</ele><time>2026-04-12T07:42:25Z</time></trkpt><trkpt lat="43.48540555652732" lon="10.363083360524408"><ele>278.0</ele><time>2026-04-12T07:42:26Z</time></trkpt><trkpt lat="43.485519942887215" lon="10.363024976116868"><ele>278.0</ele><time>2026-04-12T07:42:28Z</time></trkpt><trkpt lat="43.485638664948944" lon="10.36298926752935"><ele>277.6</ele><time>2026-04-12T07:42:30Z</time></trkpt><trkpt lat="43.485752304732486" lon="10.362944470826813"><ele>277.20000000000005</ele><time>2026-04-12T07:42:32Z</time></trkpt><trkpt lat="43.485863134193615" lon="10.362908324188334"><ele>276.8</ele><time>2026-04-12T07:42:34Z</time></trkpt><trkpt lat="43.485971850368685" lon="10.36289761461808"><ele>276.40000000000003</ele><time>2026-04-12T07:42:36Z</time></trkpt><trkpt lat="43.486065923139876" lon="10.362917655235625"><ele>276.0</ele><time>2026-04-12T07:42:38Z</time></trkpt><trkpt lat="43.48615061744687" lon="10.362939286404549"><ele>276.0</ele><time>2026-04-12T07:42:40Z</time></trkpt><trkpt lat="43.48623626009708" lon="10.362957535426391"><ele>276.0</ele><time>2026-04-12T07:42:42Z</time></trkpt><trkpt lat="43.48631786008354" lon="10.362989346783504"><ele>276.0</ele><time>2026-04-12T07:42:43.999Z</time></trkpt><trkpt lat="43.486403348137586" lon="10.363015615844693"><ele>276.0</ele><time>2026-04-12T07:42:46Z</time></trkpt><trkpt lat="43.48648586329011" lon="10.363038023098904"><ele>276.0</ele><time>2026-04-12T07:42:48Z</time></trkpt><trkpt lat="43.486567596129206" lon="10.363066959631906"><ele>276.0</ele><time>2026-04-12T07:42:50Z</time></trkpt><trkpt lat="43.48664880902245" lon="10.363091200032766"><ele>277.0</ele><time>2026-04-12T07:42:52Z</time></trkpt><trkpt lat="43.486729038138925" lon="10.363111338757577"><ele>278.0</ele><time>2026-04-12T07:42:54Z</time></trkpt><trkpt lat="43.486803315324075" lon="10.363139398526739"><ele>279.0</ele><time>2026-04-12T07:42:56Z</time></trkpt><trkpt lat="43.486880858489535" lon="10.36315826437922"><ele>280.0</ele><time>2026-04-12T07:42:58Z</time></trkpt><trkpt lat="43.486957606070646" lon="10.363170720501476"><ele>281.0</ele><time>2026-04-12T07:43:00Z</time></trkpt><trkpt lat="43.48703007080806" lon="10.363199031811769"><ele>282.0</ele><time>2026-04-12T07:43:02Z</time></trkpt><trkpt lat="43.48711118951483" lon="10.363239932952732"><ele>282.0</ele><time>2026-04-12T07:43:04Z</time></trkpt><trkpt lat="43.48719661153118" lon="10.36326667739496"><ele>282.0</ele><time>2026-04-12T07:43:06Z</time></trkpt><trkpt lat="43.487290042980554" lon="10.363286959666988"><ele>282.0</ele><time>2026-04-12T07:43:08Z</time></trkpt><trkpt lat="43.48739970609172" lon="10.363325986307737"><ele>282.0</ele><time>2026-04-12T07:43:10Z</time></trkpt><trkpt lat="43.4875192094038" lon="10.363349990233104"><ele>282.0</ele><time>2026-04-12T07:43:12Z</time></trkpt><trkpt lat="43.487583158147935" lon="10.36336875661463"><ele>282.0</ele><time>2026-04-12T07:43:13Z</time></trkpt><trkpt lat="43.48765536240072" lon="10.363384264395304"><ele>282.0</ele><time>2026-04-12T07:43:14Z</time></trkpt><trkpt lat="43.48773206028362" lon="10.363397147499855"><ele>282.0</ele><time>2026-04-12T07:43:15Z</time></trkpt><trkpt lat="43.48780797107652" lon="10.363400500179564"><ele>282.0</ele><time>2026-04-12T07:43:16Z</time></trkpt><trkpt lat="43.48788576595258" lon="10.363394400726968"><ele>282.0</ele><time>2026-04-12T07:43:17Z</time></trkpt><trkpt lat="43.487961180942136" lon="10.363382971582503"><ele>282.0</ele><time>2026-04-12T07:43:18Z</time></trkpt><trkpt lat="43.48803776693436" lon="10.363380726426348"><ele>282.1666666666667</ele><time>2026-04-12T07:43:19Z</time></trkpt><trkpt lat="43.488112908950036" lon="10.363380782479664"><ele>282.3333333333333</ele><time>2026-04-12T07:43:20Z</time></trkpt><trkpt lat="43.48818456893972" lon="10.363372961878262"><ele>282.5</ele><time>2026-04-12T07:43:21Z</time></trkpt><trkpt lat="43.488252645265575" lon="10.36334835779258"><ele>282.66666666666663</ele><time>2026-04-12T07:43:22Z</time></trkpt><trkpt lat="43.488311762774295" lon="10.363307208946063"><ele>282.8333333333333</ele><time>2026-04-12T07:43:23Z</time></trkpt><trkpt lat="43.48837408385505" lon="10.363274883280809"><ele>283.0</ele><time>2026-04-12T07:43:24Z</time></trkpt><trkpt lat="43.488475952833284" lon="10.363192983367018"><ele>283.0</ele><time>2026-04-12T07:43:26Z</time></trkpt><trkpt lat="43.48855013468934" lon="10.363086233486724"><ele>283.0</ele><time>2026-04-12T07:43:28Z</time></trkpt><trkpt lat="43.488618085754155" lon="10.362979336775808"><ele>283.0</ele><time>2026-04-12T07:43:30Z</time></trkpt><trkpt lat="43.488674642996834" lon="10.362856946915677"><ele>283.0</ele><time>2026-04-12T07:43:32Z</time></trkpt><trkpt lat="43.48873206608178" lon="10.362743514812879"><ele>283.0</ele><time>2026-04-12T07:43:34Z</time></trkpt><trkpt lat="43.48879056808513" lon="10.362631136312471"><ele>283.66666666666663</ele><time>2026-04-12T07:43:36Z</time></trkpt><trkpt lat="43.48885263729818" lon="10.36252639146395"><ele>284.3333333333333</ele><time>2026-04-12T07:43:38Z</time></trkpt><trkpt lat="43.48891895013898" lon="10.362437480110867"><ele>285.0</ele><time>2026-04-12T07:43:40Z</time></trkpt><trkpt lat="43.488984066214385" lon="10.362374292687605"><ele>285.6666666666667</ele><time>2026-04-12T07:43:42Z</time></trkpt><trkpt lat="43.489060156026774" lon="10.362309700226083"><ele>286.33333333333337</ele><time>2026-04-12T07:43:44Z</time></trkpt><trkpt lat="43.48913808907907" lon="10.362274155228963"><ele>287.0</ele><time>2026-04-12T07:43:46Z</time></trkpt><trkpt lat="43.489217456429834" lon="10.362239550065429"><ele>287.0</ele><time>2026-04-12T07:43:48Z</time></trkpt><trkpt lat="43.48929857911038" lon="10.362216923523658"><ele>287.0</ele><time>2026-04-12T07:43:50Z</time></trkpt><trkpt lat="43.48938763208442" lon="10.362199791811824"><ele>287.0</ele><time>2026-04-12T07:43:52Z</time></trkpt><trkpt lat="43.48948130123689" lon="10.362179926791462"><ele>287.0</ele><time>2026-04-12T07:43:54Z</time></trkpt><trkpt lat="43.489575079984085" lon="10.362144234558027"><ele>287.0</ele><time>2026-04-12T07:43:56Z</time></trkpt><trkpt lat="43.489670188815424" lon="10.36209496521144"><ele>287.2</ele><time>2026-04-12T07:43:58Z</time></trkpt><trkpt lat="43.48975345276596" lon="10.362013803656662"><ele>287.4</ele><time>2026-04-12T07:44:00Z</time></trkpt><trkpt lat="43.489818037619905" lon="10.36191007914954"><ele>287.6</ele><time>2026-04-12T07:44:02Z</time></trkpt><trkpt lat="43.48986765992184" lon="10.36179519630837"><ele>287.8</ele><time>2026-04-12T07:44:04Z</time></trkpt><trkpt lat="43.4898982297885" lon="10.361663781218569"><ele>288.0</ele><time>2026-04-12T07:44:06Z</time></trkpt><trkpt lat="43.489913753792706" lon="10.361532830279291"><ele>288.0</ele><time>2026-04-12T07:44:08Z</time></trkpt><trkpt lat="43.48990530222159" lon="10.36140543174517"><ele>288.0</ele><time>2026-04-12T07:44:10Z</time></trkpt><trkpt lat="43.48988270603233" lon="10.361274949597027"><ele>288.0</ele><time>2026-04-12T07:44:12Z</time></trkpt><trkpt lat="43.48985336680674" lon="10.36115539994533"><ele>288.0</ele><time>2026-04-12T07:44:14Z</time></trkpt><trkpt lat="43.48982475270771" lon="10.36102785126065"><ele>288.0</ele><time>2026-04-12T07:44:16Z</time></trkpt><trkpt lat="43.48979398024268" lon="10.360902194584584"><ele>288.8</ele><time>2026-04-12T07:44:18Z</time></trkpt><trkpt lat="43.489762653201254" lon="10.360773646810884"><ele>289.6</ele><time>2026-04-12T07:44:20Z</time></trkpt><trkpt lat="43.48972880408879" lon="10.36064450392027"><ele>290.4</ele><time>2026-04-12T07:44:22Z</time></trkpt><trkpt lat="43.4896977885671" lon="10.36051785104784"><ele>291.2</ele><time>2026-04-12T07:44:24Z</time></trkpt><trkpt lat="43.48967847682977" lon="10.360393660331093"><ele>292.0</ele><time>2026-04-12T07:44:26Z</time></trkpt><trkpt lat="43.48966070753132" lon="10.360269982465468"><ele>292.6</ele><time>2026-04-12T07:44:28Z</time></trkpt><trkpt lat="43.48965113320469" lon="10.360141748428534"><ele>293.2</ele><time>2026-04-12T07:44:30Z</time></trkpt><trkpt lat="43.48964478324387" lon="10.36002492211425"><ele>293.8</ele><time>2026-04-12T07:44:32Z</time></trkpt><trkpt lat="43.48965550487609" lon="10.359899887319367"><ele>294.4</ele><time>2026-04-12T07:44:34Z</time></trkpt><trkpt lat="43.48966849683802" lon="10.359768888843778"><ele>295.0</ele><time>2026-04-12T07:44:36Z</time></trkpt><trkpt lat="43.48968925523579" lon="10.359644987346858"><ele>293.6</ele><time>2026-04-12T07:44:38Z</time></trkpt><trkpt lat="43.4897348388769" lon="10.359530021783335"><ele>292.2</ele><time>2026-04-12T07:44:40Z</time></trkpt><trkpt lat="43.4897951568996" lon="10.359430157089308"><ele>290.8</ele><time>2026-04-12T07:44:42Z</time></trkpt><trkpt lat="43.489861235848345" lon="10.35934352178702"><ele>289.4</ele><time>2026-04-12T07:44:43.999Z</time></trkpt><trkpt lat="43.48992618296907" lon="10.359249356195324"><ele>288.0</ele><time>2026-04-12T07:44:45.999Z</time></trkpt><trkpt lat="43.48999196839263" lon="10.359153386971158"><ele>288.0</ele><time>2026-04-12T07:44:47.999Z</time></trkpt><trkpt lat="43.49005694429689" lon="10.359065657213527"><ele>288.0</ele><time>2026-04-12T07:44:49.999Z</time></trkpt><trkpt lat="43.49012402801061" lon="10.358968755002492"><ele>288.0</ele><time>2026-04-12T07:44:52Z</time></trkpt><trkpt lat="43.490188065690866" lon="10.358881236026127"><ele>288.0</ele><time>2026-04-12T07:44:54Z</time></trkpt><trkpt lat="43.49025421734612" lon="10.35880208522846"><ele>288.0</ele><time>2026-04-12T07:44:56Z</time></trkpt><trkpt lat="43.490313313020366" lon="10.358726682155245"><ele>288.0</ele><time>2026-04-12T07:44:58Z</time></trkpt><trkpt lat="43.49036177866324" lon="10.358654964324016"><ele>288.0</ele><time>2026-04-12T07:45:00Z</time></trkpt><trkpt lat="43.49042647134835" lon="10.358594785994281"><ele>288.0</ele><time>2026-04-12T07:45:02Z</time></trkpt><trkpt lat="43.49051934235014" lon="10.358539498352963"><ele>288.0</ele><time>2026-04-12T07:45:04Z</time></trkpt><trkpt lat="43.49063041474768" lon="10.358482264437265"><ele>288.0</ele><time>2026-04-12T07:45:06Z</time></trkpt><trkpt lat="43.49072781656451" lon="10.358409545959015"><ele>288.0</ele><time>2026-04-12T07:45:08Z</time></trkpt><trkpt lat="43.49081554146547" lon="10.358377534197624"><ele>288.0</ele><time>2026-04-12T07:45:10Z</time></trkpt><trkpt lat="43.49089567073234" lon="10.358360405088963"><ele>288.0</ele><time>2026-04-12T07:45:12Z</time></trkpt><trkpt lat="43.490961032738795" lon="10.358423147074122"><ele>288.0</ele><time>2026-04-12T07:45:14Z</time></trkpt><trkpt lat="43.49100718107956" lon="10.358528920764037"><ele>288.0</ele><time>2026-04-12T07:45:16Z</time></trkpt><trkpt lat="43.49104539180457" lon="10.358631636170522"><ele>288.0</ele><time>2026-04-12T07:45:18Z</time></trkpt><trkpt lat="43.49108243809677" lon="10.358712279126221"><ele>288.0</ele><time>2026-04-12T07:45:20Z</time></trkpt><trkpt lat="43.491129771837755" lon="10.358800067326111"><ele>287.8</ele><time>2026-04-12T07:45:22Z</time></trkpt><trkpt lat="43.4911891465732" lon="10.35890500904096"><ele>287.6</ele><time>2026-04-12T07:45:24Z</time></trkpt><trkpt lat="43.49126526864968" lon="10.35899532514825"><ele>287.4</ele><time>2026-04-12T07:45:26Z</time></trkpt><trkpt lat="43.49136232018792" lon="10.35906350273253"><ele>287.2</ele><time>2026-04-12T07:45:28Z</time></trkpt><trkpt lat="43.4914776352263" lon="10.359102359303792"><ele>287.0</ele><time>2026-04-12T07:45:30Z</time></trkpt><trkpt lat="43.49154642544902" lon="10.359102032677011"><ele>286.0</ele><time>2026-04-12T07:45:31Z</time></trkpt><trkpt lat="43.491614435543546" lon="10.359092269657982"><ele>285.0</ele><time>2026-04-12T07:45:32Z</time></trkpt><trkpt lat="43.49168561857845" lon="10.359082616557258"><ele>284.0</ele><time>2026-04-12T07:45:33Z</time></trkpt><trkpt lat="43.49176246498419" lon="10.359078334495555"><ele>283.0</ele><time>2026-04-12T07:45:34Z</time></trkpt><trkpt lat="43.49184322162901" lon="10.359066183996918"><ele>282.0</ele><time>2026-04-12T07:45:35Z</time></trkpt><trkpt lat="43.4919242394414" lon="10.359042417802243"><ele>281.0</ele><time>2026-04-12T07:45:36Z</time></trkpt><trkpt lat="43.49200748525086" lon="10.35901168023103"><ele>280.2</ele><time>2026-04-12T07:45:37Z</time></trkpt><trkpt lat="43.49210058345392" lon="10.358973152373345"><ele>279.40000000000003</ele><time>2026-04-12T07:45:38Z</time></trkpt><trkpt lat="43.49218939442902" lon="10.358919588380955"><ele>278.6</ele><time>2026-04-12T07:45:39Z</time></trkpt><trkpt lat="43.492284090265066" lon="10.358884483586381"><ele>277.8</ele><time>2026-04-12T07:45:40Z</time></trkpt><trkpt lat="43.49238011133647" lon="10.358835804161426"><ele>277.0</ele><time>2026-04-12T07:45:41Z</time></trkpt><trkpt lat="43.49248091904454" lon="10.358780751640628"><ele>274.4</ele><time>2026-04-12T07:45:42Z</time></trkpt><trkpt lat="43.49257936690373" lon="10.358722681815081"><ele>271.79999999999995</ele><time>2026-04-12T07:45:43Z</time></trkpt><trkpt lat="43.492680392509556" lon="10.358667191216483"><ele>269.2</ele><time>2026-04-12T07:45:44Z</time></trkpt><trkpt lat="43.492788711297734" lon="10.358622348883864"><ele>266.59999999999997</ele><time>2026-04-12T07:45:45Z</time></trkpt><trkpt lat="43.49288930599968" lon="10.358570537892687"><ele>264.0</ele><time>2026-04-12T07:45:46Z</time></trkpt><trkpt lat="43.4929822267238" lon="10.35852669188085"><ele>262.2</ele><time>2026-04-12T07:45:47Z</time></trkpt><trkpt lat="43.49307801206852" lon="10.35850520649858"><ele>260.4</ele><time>2026-04-12T07:45:48Z</time></trkpt><trkpt lat="43.49317151515347" lon="10.35852872797771"><ele>258.6</ele><time>2026-04-12T07:45:49Z</time></trkpt><trkpt lat="43.49324616142687" lon="10.358598637520423"><ele>256.8</ele><time>2026-04-12T07:45:50Z</time></trkpt><trkpt lat="43.49331051418284" lon="10.358698903266193"><ele>255.0</ele><time>2026-04-12T07:45:51Z</time></trkpt><trkpt lat="43.493383125119415" lon="10.358795498220164"><ele>257.4</ele><time>2026-04-12T07:45:52Z</time></trkpt><trkpt lat="43.49345484025805" lon="10.358894035153252"><ele>259.8</ele><time>2026-04-12T07:45:53Z</time></trkpt><trkpt lat="43.49352441062765" lon="10.358997198132268"><ele>262.2</ele><time>2026-04-12T07:45:54Z</time></trkpt><trkpt lat="43.493588200305815" lon="10.359108043662975"><ele>264.6</ele><time>2026-04-12T07:45:55Z</time></trkpt><trkpt lat="43.493635435260444" lon="10.359236855181068"><ele>267.0</ele><time>2026-04-12T07:45:56Z</time></trkpt><trkpt lat="43.49367509898449" lon="10.359374593500869"><ele>267.0</ele><time>2026-04-12T07:45:57Z</time></trkpt><trkpt lat="43.49370557307401" lon="10.359520512750324"><ele>267.0</ele><time>2026-04-12T07:45:58Z</time></trkpt><trkpt lat="43.49373504198351" lon="10.35966868172841"><ele>267.0</ele><time>2026-04-12T07:45:59Z</time></trkpt><trkpt lat="43.49375869518957" lon="10.359820351333328"><ele>267.0</ele><time>2026-04-12T07:46:00Z</time></trkpt><trkpt lat="43.493786203344406" lon="10.359971938222447"><ele>267.0</ele><time>2026-04-12T07:46:01Z</time></trkpt><trkpt lat="43.49379486773005" lon="10.360130895235356"><ele>263.0</ele><time>2026-04-12T07:46:02Z</time></trkpt><trkpt lat="43.49381951791074" lon="10.360287445811098"><ele>259.0</ele><time>2026-04-12T07:46:03Z</time></trkpt><trkpt lat="43.49385149510083" lon="10.360443674495691"><ele>255.0</ele><time>2026-04-12T07:46:04Z</time></trkpt><trkpt lat="43.493898965982915" lon="10.3606000386688"><ele>251.0</ele><time>2026-04-12T07:46:05Z</time></trkpt><trkpt lat="43.4939817151218" lon="10.360730306122774"><ele>251.0</ele><time>2026-04-12T07:46:06Z</time></trkpt><trkpt lat="43.49405357962906" lon="10.360866453628395"><ele>251.0</ele><time>2026-04-12T07:46:07Z</time></trkpt><trkpt lat="43.494130831869654" lon="10.36099852125382"><ele>251.0</ele><time>2026-04-12T07:46:08Z</time></trkpt><trkpt lat="43.494210522896864" lon="10.361125460445049"><ele>251.0</ele><time>2026-04-12T07:46:09Z</time></trkpt><trkpt lat="43.494293063719574" lon="10.361223007358063"><ele>251.0</ele><time>2026-04-12T07:46:10Z</time></trkpt><trkpt lat="43.49438711424484" lon="10.361276610525499"><ele>251.00000000000003</ele><time>2026-04-12T07:46:11Z</time></trkpt><trkpt lat="43.49448851620104" lon="10.361277433744146"><ele>251.00000000000003</ele><time>2026-04-12T07:46:12Z</time></trkpt><trkpt lat="43.4945850918231" lon="10.361241921207437"><ele>251.0</ele><time>2026-04-12T07:46:13Z</time></trkpt><trkpt lat="43.494673635221595" lon="10.361163070677572"><ele>251.0</ele><time>2026-04-12T07:46:14Z</time></trkpt><trkpt lat="43.49473834724898" lon="10.361048767606421"><ele>249.20000000000002</ele><time>2026-04-12T07:46:15Z</time></trkpt><trkpt lat="43.49476763653658" lon="10.360907797181918"><ele>247.40000000000003</ele><time>2026-04-12T07:46:16Z</time></trkpt><trkpt lat="43.49476234943226" lon="10.360759290481315"><ele>245.6</ele><time>2026-04-12T07:46:17Z</time></trkpt><trkpt lat="43.49473171074378" lon="10.360622475261517"><ele>243.8</ele><time>2026-04-12T07:46:18Z</time></trkpt><trkpt lat="43.49472563914335" lon="10.360476168453223"><ele>242.0</ele><time>2026-04-12T07:46:19Z</time></trkpt><trkpt lat="43.494706040904795" lon="10.360325754511445"><ele>241.2</ele><time>2026-04-12T07:46:20Z</time></trkpt><trkpt lat="43.494689800286636" lon="10.360187237086244"><ele>240.39999999999998</ele><time>2026-04-12T07:46:21Z</time></trkpt><trkpt lat="43.49473654005358" lon="10.360053657696684"><ele>239.60000000000002</ele><time>2026-04-12T07:46:22Z</time></trkpt><trkpt lat="43.49480861927856" lon="10.359941384588675"><ele>238.8</ele><time>2026-04-12T07:46:23Z</time></trkpt><trkpt lat="43.494907517662625" lon="10.359869292053821"><ele>238.0</ele><time>2026-04-12T07:46:24Z</time></trkpt><trkpt lat="43.494998321089454" lon="10.359799755134926"><ele>238.0</ele><time>2026-04-12T07:46:25Z</time></trkpt><trkpt lat="43.49509250868627" lon="10.359732919894181"><ele>238.0</ele><time>2026-04-12T07:46:26Z</time></trkpt><trkpt lat="43.4951853875151" lon="10.359660021612553"><ele>238.0</ele><time>2026-04-12T07:46:27Z</time></trkpt><trkpt lat="43.495280071769706" lon="10.359587314134107"><ele>238.0</ele><time>2026-04-12T07:46:28Z</time></trkpt><trkpt lat="43.49537344174324" lon="10.359518986549658"><ele>238.0</ele><time>2026-04-12T07:46:29Z</time></trkpt><trkpt lat="43.49547210900172" lon="10.359449677268517"><ele>237.0</ele><time>2026-04-12T07:46:30Z</time></trkpt><trkpt lat="43.49556593746828" lon="10.359381890624167"><ele>236.0</ele><time>2026-04-12T07:46:31Z</time></trkpt><trkpt lat="43.49565705212657" lon="10.359309139984662"><ele>235.0</ele><time>2026-04-12T07:46:32Z</time></trkpt><trkpt lat="43.495751685834286" lon="10.35923747777887"><ele>234.0</ele><time>2026-04-12T07:46:33Z</time></trkpt><trkpt lat="43.49584438649108" lon="10.359165044983659"><ele>233.0</ele><time>2026-04-12T07:46:34Z</time></trkpt><trkpt lat="43.495941185791125" lon="10.359099531617192"><ele>233.0</ele><time>2026-04-12T07:46:35Z</time></trkpt><trkpt lat="43.496033949990405" lon="10.359022192174015"><ele>233.0</ele><time>2026-04-12T07:46:36Z</time></trkpt><trkpt lat="43.496127412845894" lon="10.358948009485704"><ele>233.0</ele><time>2026-04-12T07:46:37Z</time></trkpt><trkpt lat="43.496221683106185" lon="10.358876932802803"><ele>233.0</ele><time>2026-04-12T07:46:38Z</time></trkpt><trkpt lat="43.49631404347744" lon="10.358803476411692"><ele>233.0</ele><time>2026-04-12T07:46:39Z</time></trkpt><trkpt lat="43.49640738917622" lon="10.358734860593183"><ele>232.0</ele><time>2026-04-12T07:46:40Z</time></trkpt><trkpt lat="43.49649357197352" lon="10.358653502814665"><ele>231.0</ele><time>2026-04-12T07:46:41Z</time></trkpt><trkpt lat="43.49656526515181" lon="10.358544360302233"><ele>230.0</ele><time>2026-04-12T07:46:42Z</time></trkpt><trkpt lat="43.49660531883406" lon="10.358405875839225"><ele>229.0</ele><time>2026-04-12T07:46:43Z</time></trkpt><trkpt lat="43.49661778790947" lon="10.358256769731252"><ele>228.0</ele><time>2026-04-12T07:46:44Z</time></trkpt><trkpt lat="43.4966248786662" lon="10.358108478623203"><ele>227.8</ele><time>2026-04-12T07:46:45Z</time></trkpt><trkpt lat="43.49662639463814" lon="10.357958860423002"><ele>227.60000000000002</ele><time>2026-04-12T07:46:46Z</time></trkpt><trkpt lat="43.49661934469433" lon="10.357824244959108"><ele>227.39999999999998</ele><time>2026-04-12T07:46:47Z</time></trkpt><trkpt lat="43.49659658192719" lon="10.3577189836976"><ele>227.2</ele><time>2026-04-12T07:46:48Z</time></trkpt><trkpt lat="43.49656276019567" lon="10.357633069082867"><ele>227.0</ele><time>2026-04-12T07:46:49Z</time></trkpt><trkpt lat="43.49650973672945" lon="10.357514178681956"><ele>227.00000000000003</ele><time>2026-04-12T07:46:50.999Z</time></trkpt><trkpt lat="43.49647985564064" lon="10.357415459969438"><ele>227.0</ele><time>2026-04-12T07:46:53.999Z</time></trkpt><trkpt lat="43.4964066819545" lon="10.35737831632875"><ele>227.0</ele><time>2026-04-12T07:46:57Z</time></trkpt><trkpt lat="43.496332275414254" lon="10.357384111519227"><ele>227.0</ele><time>2026-04-12T07:47:00Z</time></trkpt><trkpt lat="43.49622828325332" lon="10.357411257110266"><ele>227.00000000000003</ele><time>2026-04-12T07:47:03Z</time></trkpt><trkpt lat="43.49613558699254" lon="10.357435717729548"><ele>227.0</ele><time>2026-04-12T07:47:05Z</time></trkpt><trkpt lat="43.49603850467823" lon="10.357508377842603"><ele>226.33333333333334</ele><time>2026-04-12T07:47:07Z</time></trkpt><trkpt lat="43.49595100557559" lon="10.357630262036503"><ele>225.66666666666669</ele><time>2026-04-12T07:47:09Z</time></trkpt><trkpt lat="43.49590585516807" lon="10.35769977816649"><ele>225.0</ele><time>2026-04-12T07:47:10Z</time></trkpt><trkpt lat="43.49585544178233" lon="10.357767920389671"><ele>224.33333333333331</ele><time>2026-04-12T07:47:11Z</time></trkpt><trkpt lat="43.49580053536818" lon="10.357836026941728"><ele>223.66666666666666</ele><time>2026-04-12T07:47:12Z</time></trkpt><trkpt lat="43.49574780318955" lon="10.35791288079824"><ele>223.0</ele><time>2026-04-12T07:47:13Z</time></trkpt><trkpt lat="43.4956934515504" lon="10.357984323411042"><ele>222.99999999999997</ele><time>2026-04-12T07:47:14Z</time></trkpt><trkpt lat="43.4956341316227" lon="10.358056546603358"><ele>223.0</ele><time>2026-04-12T07:47:15Z</time></trkpt><trkpt lat="43.495582261583195" lon="10.358133587465497"><ele>223.0</ele><time>2026-04-12T07:47:16Z</time></trkpt><trkpt lat="43.49545911220267" lon="10.358121079621613"><ele>223.0</ele><time>2026-04-12T07:47:18Z</time></trkpt><trkpt lat="43.495428826271166" lon="10.358037953896893"><ele>222.99999999999997</ele><time>2026-04-12T07:47:19Z</time></trkpt><trkpt lat="43.495453978854684" lon="10.3579175344564"><ele>223.0</ele><time>2026-04-12T07:47:20Z</time></trkpt><trkpt lat="43.49551072839498" lon="10.357823955963841"><ele>222.99999999999997</ele><time>2026-04-12T07:47:21Z</time></trkpt><trkpt lat="43.49556390066116" lon="10.357740197681723"><ele>223.0</ele><time>2026-04-12T07:47:22Z</time></trkpt><trkpt lat="43.49559670183589" lon="10.357656149683306"><ele>223.0</ele><time>2026-04-12T07:47:23Z</time></trkpt><trkpt lat="43.49561901553408" lon="10.357545542700992"><ele>223.0</ele><time>2026-04-12T07:47:24Z</time></trkpt><trkpt lat="43.495644528209155" lon="10.357429078713057"><ele>222.99999999999997</ele><time>2026-04-12T07:47:25Z</time></trkpt><trkpt lat="43.49566847291492" lon="10.35730990464663"><ele>223.0</ele><time>2026-04-12T07:47:26Z</time></trkpt><trkpt lat="43.495692692410955" lon="10.35718654249441"><ele>220.4</ele><time>2026-04-12T07:47:27Z</time></trkpt><trkpt lat="43.4957147186294" lon="10.3570608271869"><ele>217.8</ele><time>2026-04-12T07:47:28Z</time></trkpt><trkpt lat="43.495756992677904" lon="10.356939728968849"><ele>215.2</ele><time>2026-04-12T07:47:29Z</time></trkpt><trkpt lat="43.49581879828917" lon="10.35683705231235"><ele>212.6</ele><time>2026-04-12T07:47:30Z</time></trkpt><trkpt lat="43.495900125978174" lon="10.356770470315066"><ele>210.0</ele><time>2026-04-12T07:47:31Z</time></trkpt><trkpt lat="43.495998273031546" lon="10.356741000615346"><ele>210.0</ele><time>2026-04-12T07:47:32Z</time></trkpt><trkpt lat="43.49609441345685" lon="10.356704567497577"><ele>210.0</ele><time>2026-04-12T07:47:33Z</time></trkpt><trkpt lat="43.49618527766333" lon="10.35663576542322"><ele>210.0</ele><time>2026-04-12T07:47:34Z</time></trkpt><trkpt lat="43.49626542564818" lon="10.35653608348576"><ele>210.0</ele><time>2026-04-12T07:47:35Z</time></trkpt><trkpt lat="43.49633204042017" lon="10.356413361709624"><ele>210.0</ele><time>2026-04-12T07:47:36Z</time></trkpt><trkpt lat="43.496391579567266" lon="10.356281673761398"><ele>208.4</ele><time>2026-04-12T07:47:37Z</time></trkpt><trkpt lat="43.496447997984795" lon="10.356144143301616"><ele>206.8</ele><time>2026-04-12T07:47:38Z</time></trkpt><trkpt lat="43.49649935496118" lon="10.356007829395164"><ele>205.2</ele><time>2026-04-12T07:47:39Z</time></trkpt><trkpt lat="43.496557737508645" lon="10.355889059677256"><ele>203.6</ele><time>2026-04-12T07:47:40Z</time></trkpt><trkpt lat="43.49662994326107" lon="10.35578691185628"><ele>202.0</ele><time>2026-04-12T07:47:41Z</time></trkpt><trkpt lat="43.496715926008164" lon="10.355704482812895"><ele>202.0</ele><time>2026-04-12T07:47:42Z</time></trkpt><trkpt lat="43.49680900433905" lon="10.355654714428884"><ele>202.0</ele><time>2026-04-12T07:47:43Z</time></trkpt><trkpt lat="43.496912674334276" lon="10.35563244736857"><ele>202.0</ele><time>2026-04-12T07:47:44Z</time></trkpt><trkpt lat="43.497018630169244" lon="10.35561892833141"><ele>202.0</ele><time>2026-04-12T07:47:45Z</time></trkpt><trkpt lat="43.497126321514294" lon="10.35559409113762"><ele>202.0</ele><time>2026-04-12T07:47:46Z</time></trkpt><trkpt lat="43.49722401528524" lon="10.355550635693605"><ele>199.8</ele><time>2026-04-12T07:47:47Z</time></trkpt><trkpt lat="43.49732877083578" lon="10.355499082737714"><ele>197.6</ele><time>2026-04-12T07:47:48Z</time></trkpt><trkpt lat="43.49742531685161" lon="10.355423987094891"><ele>195.4</ele><time>2026-04-12T07:47:49Z</time></trkpt><trkpt lat="43.49750387349621" lon="10.355355662960227"><ele>193.20000000000002</ele><time>2026-04-12T07:47:50Z</time></trkpt><trkpt lat="43.497602345930375" lon="10.355323258055952"><ele>191.0</ele><time>2026-04-12T07:47:51Z</time></trkpt><trkpt lat="43.49770091693569" lon="10.355296206117602"><ele>191.0</ele><time>2026-04-12T07:47:52Z</time></trkpt><trkpt lat="43.497799488410855" lon="10.355286472592551"><ele>191.0</ele><time>2026-04-12T07:47:53Z</time></trkpt><trkpt lat="43.49789725022209" lon="10.35528015438288"><ele>191.0</ele><time>2026-04-12T07:47:54Z</time></trkpt><trkpt lat="43.49799351490089" lon="10.355261678741103"><ele>191.0</ele><time>2026-04-12T07:47:55Z</time></trkpt><trkpt lat="43.49809539647121" lon="10.35525155488548"><ele>191.0</ele><time>2026-04-12T07:47:56Z</time></trkpt><trkpt lat="43.49819613701856" lon="10.355231321843528"><ele>190.4</ele><time>2026-04-12T07:47:57Z</time></trkpt><trkpt lat="43.49829427026736" lon="10.35520806311554"><ele>189.8</ele><time>2026-04-12T07:47:58Z</time></trkpt><trkpt lat="43.4983870996872" lon="10.355170895073949"><ele>189.20000000000002</ele><time>2026-04-12T07:47:59Z</time></trkpt><trkpt lat="43.498475906111494" lon="10.355093496326148"><ele>188.60000000000002</ele><time>2026-04-12T07:48:00Z</time></trkpt><trkpt lat="43.49854539077545" lon="10.354999784258368"><ele>188.0</ele><time>2026-04-12T07:48:01Z</time></trkpt><trkpt lat="43.498616863226935" lon="10.354899462932941"><ele>188.0</ele><time>2026-04-12T07:48:02Z</time></trkpt><trkpt lat="43.498695513990846" lon="10.354813916026519"><ele>188.0</ele><time>2026-04-12T07:48:03Z</time></trkpt><trkpt lat="43.49876055742549" lon="10.354745275108"><ele>188.0</ele><time>2026-04-12T07:48:04Z</time></trkpt><trkpt lat="43.49882916908597" lon="10.354716008251065"><ele>188.0</ele><time>2026-04-12T07:48:05Z</time></trkpt><trkpt lat="43.498927017301575" lon="10.354768690922375"><ele>188.0</ele><time>2026-04-12T07:48:07Z</time></trkpt><trkpt lat="43.498943387542326" lon="10.354893593036847"><ele>186.16666666666666</ele><time>2026-04-12T07:48:08Z</time></trkpt><trkpt lat="43.49893280531052" lon="10.355012982648619"><ele>184.33333333333331</ele><time>2026-04-12T07:48:09Z</time></trkpt><trkpt lat="43.49891856986084" lon="10.355109808925548"><ele>182.5</ele><time>2026-04-12T07:48:10Z</time></trkpt><trkpt lat="43.498935626460664" lon="10.355201075456181"><ele>180.66666666666666</ele><time>2026-04-12T07:48:11Z</time></trkpt><trkpt lat="43.499036891043225" lon="10.355272674461963"><ele>178.83333333333334</ele><time>2026-04-12T07:48:13Z</time></trkpt><trkpt lat="43.499102382614545" lon="10.355233948841674"><ele>177.0</ele><time>2026-04-12T07:48:14Z</time></trkpt><trkpt lat="43.499134177850415" lon="10.35514467422115"><ele>177.0</ele><time>2026-04-12T07:48:15Z</time></trkpt><trkpt lat="43.49914013698227" lon="10.355044026067832"><ele>177.0</ele><time>2026-04-12T07:48:16Z</time></trkpt><trkpt lat="43.499133209455856" lon="10.354945068486117"><ele>177.0</ele><time>2026-04-12T07:48:17Z</time></trkpt><trkpt lat="43.4991349586666" lon="10.354842808048131"><ele>177.0</ele><time>2026-04-12T07:48:18Z</time></trkpt><trkpt lat="43.49912979317403" lon="10.354734888020099"><ele>177.0</ele><time>2026-04-12T07:48:19Z</time></trkpt><trkpt lat="43.499121379374095" lon="10.354627248880865"><ele>177.0</ele><time>2026-04-12T07:48:20Z</time></trkpt><trkpt lat="43.49910896875975" lon="10.354509768140657"><ele>175.8</ele><time>2026-04-12T07:48:21Z</time></trkpt><trkpt lat="43.499098482565536" lon="10.354403478728237"><ele>174.6</ele><time>2026-04-12T07:48:22Z</time></trkpt><trkpt lat="43.49908579313138" lon="10.354300458971215"><ele>173.4</ele><time>2026-04-12T07:48:23Z</time></trkpt><trkpt lat="43.499081297818336" lon="10.354208988759352"><ele>172.20000000000002</ele><time>2026-04-12T07:48:24Z</time></trkpt><trkpt lat="43.499168817572276" lon="10.354079699441549"><ele>171.0</ele><time>2026-04-12T07:48:26Z</time></trkpt><trkpt lat="43.49928676526513" lon="10.354154224230541"><ele>171.0</ele><time>2026-04-12T07:48:28Z</time></trkpt><trkpt lat="43.49929854085924" lon="10.354258219419492"><ele>171.0</ele><time>2026-04-12T07:48:29Z</time></trkpt><trkpt lat="43.499313793456615" lon="10.35443665012987"><ele>171.0</ele><time>2026-04-12T07:48:31Z</time></trkpt><trkpt lat="43.499329865727134" lon="10.354528942526315"><ele>171.0</ele><time>2026-04-12T07:48:32Z</time></trkpt><trkpt lat="43.499337684294275" lon="10.354620334845183"><ele>171.0</ele><time>2026-04-12T07:48:33Z</time></trkpt><trkpt lat="43.49934083248272" lon="10.354716541138057"><ele>171.0</ele><time>2026-04-12T07:48:34Z</time></trkpt><trkpt lat="43.49934151709354" lon="10.354814136097051"><ele>171.85714285714283</ele><time>2026-04-12T07:48:35Z</time></trkpt><trkpt lat="43.49933139151845" lon="10.354909360711314"><ele>172.71428571428572</ele><time>2026-04-12T07:48:36Z</time></trkpt><trkpt lat="43.499324063492224" lon="10.355005833406059"><ele>173.57142857142856</ele><time>2026-04-12T07:48:37Z</time></trkpt><trkpt lat="43.49932448215779" lon="10.355104390365861"><ele>174.42857142857142</ele><time>2026-04-12T07:48:38Z</time></trkpt><trkpt lat="43.49932575068644" lon="10.355205439179455"><ele>175.28571428571428</ele><time>2026-04-12T07:48:39Z</time></trkpt><trkpt lat="43.4993201561773" lon="10.355309913257418"><ele>176.14285714285714</ele><time>2026-04-12T07:48:40Z</time></trkpt><trkpt lat="43.49931023194836" lon="10.355418081763546"><ele>177.0</ele><time>2026-04-12T07:48:41Z</time></trkpt><trkpt lat="43.49932146084208" lon="10.355521773411363"><ele>177.0</ele><time>2026-04-12T07:48:42Z</time></trkpt><trkpt lat="43.49937236231939" lon="10.35557533278069"><ele>177.0</ele><time>2026-04-12T07:48:43Z</time></trkpt><trkpt lat="43.49943987869606" lon="10.355577312545492"><ele>177.0</ele><time>2026-04-12T07:48:44Z</time></trkpt><trkpt lat="43.499504561261" lon="10.355589976322236"><ele>177.0</ele><time>2026-04-12T07:48:45Z</time></trkpt><trkpt lat="43.49954245933092" lon="10.355447971296297"><ele>177.0</ele><time>2026-04-12T07:48:46Z</time></trkpt><trkpt lat="43.499551833034424" lon="10.355272844016701"><ele>177.0</ele><time>2026-04-12T07:48:48Z</time></trkpt><trkpt lat="43.4995588342215" lon="10.355177685637624"><ele>177.0</ele><time>2026-04-12T07:48:48.999Z</time></trkpt><trkpt lat="43.499565388094275" lon="10.355078962340365"><ele>177.0</ele><time>2026-04-12T07:48:49.999Z</time></trkpt><trkpt lat="43.499571431022424" lon="10.354979712869861"><ele>177.0</ele><time>2026-04-12T07:48:50.999Z</time></trkpt><trkpt lat="43.49957568491708" lon="10.354879520936711"><ele>177.0</ele><time>2026-04-12T07:48:51.999Z</time></trkpt><trkpt lat="43.499576782769616" lon="10.354776265747363"><ele>177.0</ele><time>2026-04-12T07:48:52.999Z</time></trkpt><trkpt lat="43.499589002111065" lon="10.354670370754018"><ele>177.0</ele><time>2026-04-12T07:48:53.999Z</time></trkpt><trkpt lat="43.49959918416871" lon="10.354562190206764"><ele>177.0</ele><time>2026-04-12T07:48:54.999Z</time></trkpt><trkpt lat="43.499601962616495" lon="10.354449571530612"><ele>172.4</ele><time>2026-04-12T07:48:55.999Z</time></trkpt><trkpt lat="43.49961395940604" lon="10.354332866237304"><ele>167.79999999999998</ele><time>2026-04-12T07:48:56.999Z</time></trkpt><trkpt lat="43.499642905079" lon="10.354212071989984"><ele>163.2</ele><time>2026-04-12T07:48:57.999Z</time></trkpt><trkpt lat="43.49967814032131" lon="10.35409412027693"><ele>158.6</ele><time>2026-04-12T07:48:58.999Z</time></trkpt><trkpt lat="43.49972661863722" lon="10.353985902063046"><ele>154.0</ele><time>2026-04-12T07:48:59.999Z</time></trkpt><trkpt lat="43.49978022435919" lon="10.353882717561046"><ele>152.6</ele><time>2026-04-12T07:49:00.999Z</time></trkpt><trkpt lat="43.499838188482876" lon="10.353780158397223"><ele>151.2</ele><time>2026-04-12T07:49:01.999Z</time></trkpt><trkpt lat="43.49989317136632" lon="10.353693639359639"><ele>149.79999999999998</ele><time>2026-04-12T07:49:03Z</time></trkpt><trkpt lat="43.49992613580023" lon="10.353613757763172"><ele>148.4</ele><time>2026-04-12T07:49:04Z</time></trkpt><trkpt lat="43.49987464383933" lon="10.3534443520316"><ele>147.0</ele><time>2026-04-12T07:49:06Z</time></trkpt><trkpt lat="43.499798327608204" lon="10.353398691139022"><ele>147.0</ele><time>2026-04-12T07:49:07Z</time></trkpt><trkpt lat="43.49971370672355" lon="10.353379653519724"><ele>147.0</ele><time>2026-04-12T07:49:08Z</time></trkpt><trkpt lat="43.49963627867218" lon="10.35335818391382"><ele>147.0</ele><time>2026-04-12T07:49:09Z</time></trkpt><trkpt lat="43.499559377073616" lon="10.353334805282225"><ele>147.0</ele><time>2026-04-12T07:49:10Z</time></trkpt><trkpt lat="43.499480608550776" lon="10.353300147581468"><ele>147.0</ele><time>2026-04-12T07:49:11Z</time></trkpt><trkpt lat="43.499401823427526" lon="10.353247970086711"><ele>147.0</ele><time>2026-04-12T07:49:12Z</time></trkpt><trkpt lat="43.499323704082094" lon="10.353227751274488"><ele>148.16666666666666</ele><time>2026-04-12T07:49:13Z</time></trkpt><trkpt lat="43.49924379885107" lon="10.353201362592136"><ele>149.33333333333334</ele><time>2026-04-12T07:49:14Z</time></trkpt><trkpt lat="43.49916427143193" lon="10.353177324437068"><ele>150.5</ele><time>2026-04-12T07:49:15Z</time></trkpt><trkpt lat="43.49907423597449" lon="10.353168621139156"><ele>151.66666666666669</ele><time>2026-04-12T07:49:16Z</time></trkpt><trkpt lat="43.4989869890779" lon="10.353194222563047"><ele>152.83333333333334</ele><time>2026-04-12T07:49:17Z</time></trkpt><trkpt lat="43.49889842546964" lon="10.353216451493369"><ele>154.0</ele><time>2026-04-12T07:49:18Z</time></trkpt><trkpt lat="43.498812360715945" lon="10.353261372344958"><ele>153.83333333333334</ele><time>2026-04-12T07:49:19Z</time></trkpt><trkpt lat="43.49872957956293" lon="10.353313655903289"><ele>153.66666666666669</ele><time>2026-04-12T07:49:20Z</time></trkpt><trkpt lat="43.49864492166408" lon="10.353356688071791"><ele>153.5</ele><time>2026-04-12T07:49:21Z</time></trkpt><trkpt lat="43.49855537322164" lon="10.353395735416996"><ele>153.33333333333334</ele><time>2026-04-12T07:49:22Z</time></trkpt><trkpt lat="43.498479794339644" lon="10.353421115275466"><ele>153.16666666666666</ele><time>2026-04-12T07:49:23Z</time></trkpt><trkpt lat="43.498414478765106" lon="10.353401108603254"><ele>153.0</ele><time>2026-04-12T07:49:24Z</time></trkpt><trkpt lat="43.49835618314212" lon="10.35334792660076"><ele>153.0</ele><time>2026-04-12T07:49:25Z</time></trkpt><trkpt lat="43.49832806808983" lon="10.353254192039095"><ele>153.0</ele><time>2026-04-12T07:49:26Z</time></trkpt><trkpt lat="43.49827857118994" lon="10.353170140612718"><ele>153.0</ele><time>2026-04-12T07:49:27Z</time></trkpt><trkpt lat="43.49824382586177" lon="10.35307329023423"><ele>153.0</ele><time>2026-04-12T07:49:28Z</time></trkpt><trkpt lat="43.49820436689966" lon="10.352986023774918"><ele>153.0</ele><time>2026-04-12T07:49:29Z</time></trkpt><trkpt lat="43.49816079496614" lon="10.352916842725703"><ele>153.0</ele><time>2026-04-12T07:49:30Z</time></trkpt><trkpt lat="43.49812049448973" lon="10.352832226638801"><ele>153.0</ele><time>2026-04-12T07:49:31Z</time></trkpt><trkpt lat="43.49807697406591" lon="10.352752928737415"><ele>151.66666666666666</ele><time>2026-04-12T07:49:32Z</time></trkpt><trkpt lat="43.498016126369286" lon="10.352688520976656"><ele>150.33333333333334</ele><time>2026-04-12T07:49:33Z</time></trkpt><trkpt lat="43.497941461206594" lon="10.352643352452011"><ele>149.0</ele><time>2026-04-12T07:49:34Z</time></trkpt><trkpt lat="43.49785540464634" lon="10.352632511571635"><ele>147.66666666666669</ele><time>2026-04-12T07:49:35Z</time></trkpt><trkpt lat="43.49776084939262" lon="10.352633148754459"><ele>146.33333333333334</ele><time>2026-04-12T07:49:36Z</time></trkpt><trkpt lat="43.49766759803655" lon="10.352611562734227"><ele>145.0</ele><time>2026-04-12T07:49:37Z</time></trkpt><trkpt lat="43.49759892331267" lon="10.352556154199231"><ele>145.0</ele><time>2026-04-12T07:49:38Z</time></trkpt><trkpt lat="43.49754145280133" lon="10.352482462314919"><ele>145.0</ele><time>2026-04-12T07:49:39Z</time></trkpt><trkpt lat="43.49752205287207" lon="10.352386244110102"><ele>145.0</ele><time>2026-04-12T07:49:40Z</time></trkpt><trkpt lat="43.497534050920656" lon="10.352284282775129"><ele>145.0</ele><time>2026-04-12T07:49:41Z</time></trkpt><trkpt lat="43.49754356460783" lon="10.352168614267189"><ele>145.0</ele><time>2026-04-12T07:49:42Z</time></trkpt><trkpt lat="43.49757215803245" lon="10.35206723649552"><ele>145.0</ele><time>2026-04-12T07:49:43Z</time></trkpt><trkpt lat="43.497590340992176" lon="10.351970825118737"><ele>145.0</ele><time>2026-04-12T07:49:44Z</time></trkpt><trkpt lat="43.497604902063095" lon="10.351871833959546"><ele>145.0</ele><time>2026-04-12T07:49:45Z</time></trkpt><trkpt lat="43.49762346118428" lon="10.351781008071173"><ele>145.0</ele><time>2026-04-12T07:49:46Z</time></trkpt><trkpt lat="43.497636587122635" lon="10.351685817928946"><ele>145.0</ele><time>2026-04-12T07:49:47Z</time></trkpt><trkpt lat="43.49765603965608" lon="10.351601688952163"><ele>145.0</ele><time>2026-04-12T07:49:48Z</time></trkpt><trkpt lat="43.49767249090044" lon="10.351513203180833"><ele>145.0</ele><time>2026-04-12T07:49:49Z</time></trkpt><trkpt lat="43.49770581869619" lon="10.351346499170848"><ele>144.33333333333334</ele><time>2026-04-12T07:49:51Z</time></trkpt><trkpt lat="43.49772935547631" lon="10.351265630551964"><ele>143.66666666666669</ele><time>2026-04-12T07:49:52Z</time></trkpt><trkpt lat="43.49774539549997" lon="10.351094277008304"><ele>143.0</ele><time>2026-04-12T07:49:54Z</time></trkpt><trkpt lat="43.4977767402448" lon="10.350929044488588"><ele>142.33333333333334</ele><time>2026-04-12T07:49:56Z</time></trkpt><trkpt lat="43.49778494453207" lon="10.350837709338009"><ele>141.66666666666666</ele><time>2026-04-12T07:49:57Z</time></trkpt><trkpt lat="43.497797742273" lon="10.350749770953197"><ele>141.0</ele><time>2026-04-12T07:49:58Z</time></trkpt><trkpt lat="43.49782911152329" lon="10.35058106699311"><ele>140.0</ele><time>2026-04-12T07:50:00Z</time></trkpt><trkpt lat="43.49784201297796" lon="10.35049058352893"><ele>139.0</ele><time>2026-04-12T07:50:01Z</time></trkpt><trkpt lat="43.497856411160726" lon="10.350400449153707"><ele>138.0</ele><time>2026-04-12T07:50:02Z</time></trkpt><trkpt lat="43.497870322658095" lon="10.350308975655617"><ele>137.0</ele><time>2026-04-12T07:50:03Z</time></trkpt><trkpt lat="43.49788472051239" lon="10.350213052379926"><ele>136.0</ele><time>2026-04-12T07:50:04Z</time></trkpt><trkpt lat="43.49789774416856" lon="10.350115763849852"><ele>135.0</ele><time>2026-04-12T07:50:05Z</time></trkpt><trkpt lat="43.49791591617158" lon="10.350014832953796"><ele>134.0</ele><time>2026-04-12T07:50:06Z</time></trkpt><trkpt lat="43.49794303131497" lon="10.349913650205279"><ele>133.0</ele><time>2026-04-12T07:50:07Z</time></trkpt><trkpt lat="43.49797458583336" lon="10.349812115400912"><ele>132.0</ele><time>2026-04-12T07:50:08Z</time></trkpt><trkpt lat="43.498021044904306" lon="10.349723095160497"><ele>131.0</ele><time>2026-04-12T07:50:09Z</time></trkpt><trkpt lat="43.49807894812876" lon="10.349628525880378"><ele>130.0</ele><time>2026-04-12T07:50:10Z</time></trkpt><trkpt lat="43.49815525019029" lon="10.349542659124854"><ele>129.0</ele><time>2026-04-12T07:50:11Z</time></trkpt><trkpt lat="43.49822818659925" lon="10.34945036705421"><ele>128.0</ele><time>2026-04-12T07:50:12Z</time></trkpt><trkpt lat="43.49830373177412" lon="10.34936029128082"><ele>128.0</ele><time>2026-04-12T07:50:13Z</time></trkpt><trkpt lat="43.49837157014086" lon="10.34926876490833"><ele>128.0</ele><time>2026-04-12T07:50:14Z</time></trkpt><trkpt lat="43.49844370938857" lon="10.349180435030522"><ele>128.0</ele><time>2026-04-12T07:50:15Z</time></trkpt><trkpt lat="43.49852066610347" lon="10.349094142041203"><ele>128.0</ele><time>2026-04-12T07:50:16Z</time></trkpt><trkpt lat="43.49860193009953" lon="10.349012524966497"><ele>128.0</ele><time>2026-04-12T07:50:17Z</time></trkpt><trkpt lat="43.498664227405534" lon="10.348933782841165"><ele>126.83333333333333</ele><time>2026-04-12T07:50:18Z</time></trkpt><trkpt lat="43.498723693178604" lon="10.348842363378438"><ele>125.66666666666666</ele><time>2026-04-12T07:50:19Z</time></trkpt><trkpt lat="43.498774367761996" lon="10.348749008592598"><ele>124.5</ele><time>2026-04-12T07:50:20Z</time></trkpt><trkpt lat="43.49882665336265" lon="10.348654739286133"><ele>123.33333333333334</ele><time>2026-04-12T07:50:21Z</time></trkpt><trkpt lat="43.4988825009996" lon="10.348552728874111"><ele>122.16666666666667</ele><time>2026-04-12T07:50:22Z</time></trkpt><trkpt lat="43.498935522302546" lon="10.34845328156363"><ele>121.0</ele><time>2026-04-12T07:50:23Z</time></trkpt><trkpt lat="43.49897962933838" lon="10.348357271883955"><ele>121.00000000000001</ele><time>2026-04-12T07:50:24Z</time></trkpt><trkpt lat="43.499031887489764" lon="10.348284882866572"><ele>121.0</ele><time>2026-04-12T07:50:25Z</time></trkpt><trkpt lat="43.49906868483959" lon="10.3481849663445"><ele>121.0</ele><time>2026-04-12T07:50:26Z</time></trkpt><trkpt lat="43.49910196712963" lon="10.348071392996504"><ele>121.0</ele><time>2026-04-12T07:50:27Z</time></trkpt><trkpt lat="43.49913457239801" lon="10.34796213632073"><ele>121.00000000000001</ele><time>2026-04-12T07:50:28Z</time></trkpt><trkpt lat="43.49916509964087" lon="10.347857525541597"><ele>121.0</ele><time>2026-04-12T07:50:29Z</time></trkpt><trkpt lat="43.499184446858" lon="10.347742931478885"><ele>119.50000000000001</ele><time>2026-04-12T07:50:30Z</time></trkpt><trkpt lat="43.49918841477926" lon="10.347625636441595"><ele>118.0</ele><time>2026-04-12T07:50:31Z</time></trkpt><trkpt lat="43.49918995936042" lon="10.34750654325036"><ele>116.5</ele><time>2026-04-12T07:50:32Z</time></trkpt><trkpt lat="43.49919609998458" lon="10.34739727994625"><ele>115.0</ele><time>2026-04-12T07:50:33Z</time></trkpt><trkpt lat="43.499212305546315" lon="10.347271254925284"><ele>113.50000000000001</ele><time>2026-04-12T07:50:34Z</time></trkpt><trkpt lat="43.49921261560023" lon="10.347150089074994"><ele>112.0</ele><time>2026-04-12T07:50:35Z</time></trkpt><trkpt lat="43.4992089520828" lon="10.347034712105565"><ele>111.16666666666667</ele><time>2026-04-12T07:50:36Z</time></trkpt><trkpt lat="43.49921251638093" lon="10.346925587095788"><ele>110.33333333333334</ele><time>2026-04-12T07:50:37Z</time></trkpt><trkpt lat="43.499212018599415" lon="10.346816206793099"><ele>109.5</ele><time>2026-04-12T07:50:38Z</time></trkpt><trkpt lat="43.49919703191104" lon="10.346700736754205"><ele>108.66666666666666</ele><time>2026-04-12T07:50:39Z</time></trkpt><trkpt lat="43.49915538872266" lon="10.346598890111158"><ele>107.83333333333333</ele><time>2026-04-12T07:50:40Z</time></trkpt><trkpt lat="43.499093299226324" lon="10.346521472414615"><ele>107.0</ele><time>2026-04-12T07:50:41Z</time></trkpt><trkpt lat="43.49901921140111" lon="10.34645903675179"><ele>106.99999999999999</ele><time>2026-04-12T07:50:42Z</time></trkpt><trkpt lat="43.49893850959237" lon="10.346401083358607"><ele>107.0</ele><time>2026-04-12T07:50:43Z</time></trkpt><trkpt lat="43.49885441797577" lon="10.346349368244594"><ele>107.0</ele><time>2026-04-12T07:50:44Z</time></trkpt><trkpt lat="43.498777375278195" lon="10.346314038357004"><ele>107.0</ele><time>2026-04-12T07:50:45Z</time></trkpt><trkpt lat="43.498701671910055" lon="10.346297489508624"><ele>106.99999999999999</ele><time>2026-04-12T07:50:46Z</time></trkpt><trkpt lat="43.49862256122597" lon="10.346332813959405"><ele>107.0</ele><time>2026-04-12T07:50:47Z</time></trkpt><trkpt lat="43.49854404811807" lon="10.34639808490868"><ele>105.99999999999999</ele><time>2026-04-12T07:50:48Z</time></trkpt><trkpt lat="43.49847616661796" lon="10.346480567225795"><ele>105.0</ele><time>2026-04-12T07:50:49Z</time></trkpt><trkpt lat="43.49843740331169" lon="10.346589501090735"><ele>104.0</ele><time>2026-04-12T07:50:50Z</time></trkpt><trkpt lat="43.49833439393239" lon="10.34666239000496"><ele>103.0</ele><time>2026-04-12T07:50:52Z</time></trkpt><trkpt lat="43.49826751936193" lon="10.346649218567624"><ele>101.99999999999999</ele><time>2026-04-12T07:50:53Z</time></trkpt><trkpt lat="43.498213844872225" lon="10.34659604669276"><ele>101.0</ele><time>2026-04-12T07:50:54Z</time></trkpt><trkpt lat="43.498187882629225" lon="10.346509492403836"><ele>99.19999999999999</ele><time>2026-04-12T07:50:55Z</time></trkpt><trkpt lat="43.49824991013505" lon="10.34631891008134"><ele>97.39999999999999</ele><time>2026-04-12T07:50:57Z</time></trkpt><trkpt lat="43.498303363708786" lon="10.3462446331701"><ele>95.6</ele><time>2026-04-12T07:50:58Z</time></trkpt><trkpt lat="43.49834782488173" lon="10.34616669918411"><ele>93.8</ele><time>2026-04-12T07:50:59Z</time></trkpt><trkpt lat="43.4983836631326" lon="10.346077277453917"><ele>92.0</ele><time>2026-04-12T07:51:00Z</time></trkpt><trkpt lat="43.498413387431064" lon="10.345978935991717"><ele>92.0</ele><time>2026-04-12T07:51:01Z</time></trkpt><trkpt lat="43.498443093200514" lon="10.345865997121505"><ele>92.0</ele><time>2026-04-12T07:51:02Z</time></trkpt><trkpt lat="43.49845662934533" lon="10.34575291315758"><ele>92.0</ele><time>2026-04-12T07:51:03Z</time></trkpt><trkpt lat="43.49847669081874" lon="10.345624768465083"><ele>92.0</ele><time>2026-04-12T07:51:04Z</time></trkpt><trkpt lat="43.49850353433328" lon="10.345491518618518"><ele>92.0</ele><time>2026-04-12T07:51:05Z</time></trkpt><trkpt lat="43.498546485534696" lon="10.345362722345188"><ele>90.19999999999999</ele><time>2026-04-12T07:51:06Z</time></trkpt><trkpt lat="43.49859709214374" lon="10.345234087005359"><ele>88.4</ele><time>2026-04-12T07:51:06.999Z</time></trkpt><trkpt lat="43.49863934860642" lon="10.345094239430416"><ele>86.6</ele><time>2026-04-12T07:51:07.999Z</time></trkpt><trkpt lat="43.498689274637314" lon="10.344953426304459"><ele>84.80000000000001</ele><time>2026-04-12T07:51:09Z</time></trkpt><trkpt lat="43.498736037667086" lon="10.34481553890778"><ele>83.0</ele><time>2026-04-12T07:51:10Z</time></trkpt><trkpt lat="43.49878816013213" lon="10.344669791163485"><ele>82.4</ele><time>2026-04-12T07:51:11Z</time></trkpt><trkpt lat="43.49883541307902" lon="10.344524628928557"><ele>81.80000000000001</ele><time>2026-04-12T07:51:12Z</time></trkpt><trkpt lat="43.49888289193495" lon="10.344375718599938"><ele>81.2</ele><time>2026-04-12T07:51:13Z</time></trkpt><trkpt lat="43.498921512503024" lon="10.344246342082428"><ele>80.6</ele><time>2026-04-12T07:51:14Z</time></trkpt><trkpt lat="43.49897171205555" lon="10.344106336777479"><ele>80.0</ele><time>2026-04-12T07:51:15Z</time></trkpt><trkpt lat="43.499020551462245" lon="10.34396879657836"><ele>79.0</ele><time>2026-04-12T07:51:16Z</time></trkpt><trkpt lat="43.49906941273064" lon="10.343818351807446"><ele>78.0</ele><time>2026-04-12T07:51:17Z</time></trkpt><trkpt lat="43.4991202469065" lon="10.343678254793154"><ele>77.0</ele><time>2026-04-12T07:51:18Z</time></trkpt><trkpt lat="43.499164587129954" lon="10.343541964755229"><ele>76.0</ele><time>2026-04-12T07:51:19Z</time></trkpt><trkpt lat="43.499212180241216" lon="10.34341471626162"><ele>75.0</ele><time>2026-04-12T07:51:20Z</time></trkpt><trkpt lat="43.499265580052224" lon="10.343286863056116"><ele>75.0</ele><time>2026-04-12T07:51:21Z</time></trkpt><trkpt lat="43.49933938096302" lon="10.343165054842268"><ele>75.0</ele><time>2026-04-12T07:51:22Z</time></trkpt><trkpt lat="43.49942167559574" lon="10.343055246876625"><ele>75.0</ele><time>2026-04-12T07:51:23Z</time></trkpt><trkpt lat="43.499511374840665" lon="10.342956644136434"><ele>75.0</ele><time>2026-04-12T07:51:24Z</time></trkpt><trkpt lat="43.499602373657744" lon="10.34285433463665"><ele>74.0</ele><time>2026-04-12T07:51:25Z</time></trkpt><trkpt lat="43.49968993163157" lon="10.342752792674565"><ele>73.0</ele><time>2026-04-12T07:51:26Z</time></trkpt><trkpt lat="43.49977466458274" lon="10.342640843947443"><ele>72.0</ele><time>2026-04-12T07:51:27Z</time></trkpt><trkpt lat="43.49985718628896" lon="10.342559244100604"><ele>71.0</ele><time>2026-04-12T07:51:28Z</time></trkpt><trkpt lat="43.49993180552623" lon="10.342481436306393"><ele>70.0</ele><time>2026-04-12T07:51:29Z</time></trkpt><trkpt lat="43.50000436238968" lon="10.34239645622185"><ele>70.0</ele><time>2026-04-12T07:51:30Z</time></trkpt><trkpt lat="43.50007763230672" lon="10.342320248803189"><ele>70.0</ele><time>2026-04-12T07:51:31Z</time></trkpt><trkpt lat="43.50015136871429" lon="10.34223865251838"><ele>70.0</ele><time>2026-04-12T07:51:32Z</time></trkpt><trkpt lat="43.50022478494124" lon="10.34215954756347"><ele>70.0</ele><time>2026-04-12T07:51:33Z</time></trkpt><trkpt lat="43.50030358207038" lon="10.342086884642173"><ele>70.0</ele><time>2026-04-12T07:51:34Z</time></trkpt><trkpt lat="43.50038699361531" lon="10.342036386884859"><ele>69.4</ele><time>2026-04-12T07:51:35Z</time></trkpt><trkpt lat="43.50047455280889" lon="10.341987471744261"><ele>68.8</ele><time>2026-04-12T07:51:36Z</time></trkpt><trkpt lat="43.50056107626499" lon="10.341945182510822"><ele>68.2</ele><time>2026-04-12T07:51:37Z</time></trkpt><trkpt lat="43.500653844575034" lon="10.341939589141367"><ele>67.6</ele><time>2026-04-12T07:51:38Z</time></trkpt><trkpt lat="43.500738523412565" lon="10.341888565028583"><ele>67.0</ele><time>2026-04-12T07:51:39Z</time></trkpt><trkpt lat="43.50082792221447" lon="10.34184559920834"><ele>67.0</ele><time>2026-04-12T07:51:40Z</time></trkpt><trkpt lat="43.50090998501556" lon="10.341779008805606"><ele>67.0</ele><time>2026-04-12T07:51:41Z</time></trkpt><trkpt lat="43.50098544720626" lon="10.341701773687825"><ele>67.0</ele><time>2026-04-12T07:51:42Z</time></trkpt><trkpt lat="43.5010492780468" lon="10.341604978138633"><ele>67.0</ele><time>2026-04-12T07:51:43Z</time></trkpt><trkpt lat="43.50110124971892" lon="10.341487808216254"><ele>67.0</ele><time>2026-04-12T07:51:44Z</time></trkpt><trkpt lat="43.50114151535002" lon="10.34136731247299"><ele>66.6</ele><time>2026-04-12T07:51:45Z</time></trkpt><trkpt lat="43.501187267308104" lon="10.341251699106788"><ele>66.2</ele><time>2026-04-12T07:51:46Z</time></trkpt><trkpt lat="43.50124147571282" lon="10.341144542768786"><ele>65.8</ele><time>2026-04-12T07:51:47Z</time></trkpt><trkpt lat="43.50130321722326" lon="10.341039400294047"><ele>65.4</ele><time>2026-04-12T07:51:48Z</time></trkpt><trkpt lat="43.50137333675966" lon="10.340934219270396"><ele>65.0</ele><time>2026-04-12T07:51:49Z</time></trkpt><trkpt lat="43.501441941976644" lon="10.34083553903116"><ele>64.6</ele><time>2026-04-12T07:51:50Z</time></trkpt><trkpt lat="43.501517422337166" lon="10.340737861525886"><ele>64.2</ele><time>2026-04-12T07:51:51Z</time></trkpt><trkpt lat="43.501598254110256" lon="10.340643442372851"><ele>63.8</ele><time>2026-04-12T07:51:52Z</time></trkpt><trkpt lat="43.501682382022324" lon="10.340556655727022"><ele>63.4</ele><time>2026-04-12T07:51:53Z</time></trkpt><trkpt lat="43.50176643897455" lon="10.340472408472328"><ele>63.0</ele><time>2026-04-12T07:51:54Z</time></trkpt><trkpt lat="43.50185072162711" lon="10.340390957047646"><ele>63.0</ele><time>2026-04-12T07:51:55Z</time></trkpt><trkpt lat="43.501931342359" lon="10.340300959875288"><ele>63.0</ele><time>2026-04-12T07:51:56Z</time></trkpt><trkpt lat="43.50201666436023" lon="10.340211712917416"><ele>63.0</ele><time>2026-04-12T07:51:57Z</time></trkpt><trkpt lat="43.50210319176311" lon="10.340126569304703"><ele>63.0</ele><time>2026-04-12T07:51:58Z</time></trkpt><trkpt lat="43.50219392534485" lon="10.340050169182899"><ele>63.0</ele><time>2026-04-12T07:51:59Z</time></trkpt><trkpt lat="43.502280790208594" lon="10.339972290279633"><ele>62.0</ele><time>2026-04-12T07:52:00Z</time></trkpt><trkpt lat="43.50236729165678" lon="10.33988920998679"><ele>61.0</ele><time>2026-04-12T07:52:01Z</time></trkpt><trkpt lat="43.502446926503524" lon="10.339808922460643"><ele>60.0</ele><time>2026-04-12T07:52:02Z</time></trkpt><trkpt lat="43.50252864871911" lon="10.339720152769571"><ele>59.0</ele><time>2026-04-12T07:52:03Z</time></trkpt><trkpt lat="43.50260722090167" lon="10.33963100021628"><ele>58.0</ele><time>2026-04-12T07:52:04Z</time></trkpt><trkpt lat="43.502682899503554" lon="10.339546283413481"><ele>58.0</ele><time>2026-04-12T07:52:05Z</time></trkpt><trkpt lat="43.50275782141151" lon="10.339457176362954"><ele>58.0</ele><time>2026-04-12T07:52:06Z</time></trkpt><trkpt lat="43.50282829034221" lon="10.33936850380188"><ele>58.0</ele><time>2026-04-12T07:52:07Z</time></trkpt><trkpt lat="43.5029011522401" lon="10.339279943156368"><ele>58.0</ele><time>2026-04-12T07:52:08Z</time></trkpt><trkpt lat="43.50296697284093" lon="10.33918575306628"><ele>58.0</ele><time>2026-04-12T07:52:09Z</time></trkpt><trkpt lat="43.50303452391505" lon="10.339100809003092"><ele>58.166666666666664</ele><time>2026-04-12T07:52:10Z</time></trkpt><trkpt lat="43.5030993784671" lon="10.339015625179291"><ele>58.33333333333333</ele><time>2026-04-12T07:52:11Z</time></trkpt><trkpt lat="43.50316816475082" lon="10.338939189772674"><ele>58.5</ele><time>2026-04-12T07:52:12Z</time></trkpt><trkpt lat="43.50323770723762" lon="10.338865155521923"><ele>58.66666666666667</ele><time>2026-04-12T07:52:13Z</time></trkpt><trkpt lat="43.503316773398005" lon="10.338810486709258"><ele>58.833333333333336</ele><time>2026-04-12T07:52:14Z</time></trkpt><trkpt lat="43.50338800007167" lon="10.338771240398453"><ele>59.0</ele><time>2026-04-12T07:52:15Z</time></trkpt><trkpt lat="43.503461694876464" lon="10.338714629312612"><ele>59.00000000000001</ele><time>2026-04-12T07:52:16Z</time></trkpt><trkpt lat="43.50354169941875" lon="10.338681286498709"><ele>59.0</ele><time>2026-04-12T07:52:17Z</time></trkpt><trkpt lat="43.50361554657976" lon="10.338635212166636"><ele>59.0</ele><time>2026-04-12T07:52:18Z</time></trkpt><trkpt lat="43.50368941968831" lon="10.338593512594581"><ele>59.0</ele><time>2026-04-12T07:52:19Z</time></trkpt><trkpt lat="43.503762792169766" lon="10.338555100056528"><ele>59.00000000000001</ele><time>2026-04-12T07:52:20Z</time></trkpt><trkpt lat="43.50383610382222" lon="10.338520191032918"><ele>59.0</ele><time>2026-04-12T07:52:21Z</time></trkpt><trkpt lat="43.50390655993635" lon="10.338473270355735"><ele>58.42857142857142</ele><time>2026-04-12T07:52:22Z</time></trkpt><trkpt lat="43.50397522802519" lon="10.338428336042123"><ele>57.85714285714286</ele><time>2026-04-12T07:52:23Z</time></trkpt><trkpt lat="43.50404374040425" lon="10.338389560918383"><ele>57.285714285714285</ele><time>2026-04-12T07:52:24Z</time></trkpt><trkpt lat="43.50411055068897" lon="10.33835510692397"><ele>56.71428571428571</ele><time>2026-04-12T07:52:25Z</time></trkpt><trkpt lat="43.50417847047592" lon="10.33830535546595"><ele>56.14285714285714</ele><time>2026-04-12T07:52:26Z</time></trkpt><trkpt lat="43.50424869226081" lon="10.338273038196695"><ele>55.57142857142857</ele><time>2026-04-12T07:52:27Z</time></trkpt><trkpt lat="43.50431797081299" lon="10.338240561829783"><ele>55.0</ele><time>2026-04-12T07:52:28Z</time></trkpt><trkpt lat="43.5043860770797" lon="10.338200724254937"><ele>54.99999999999999</ele><time>2026-04-12T07:52:29Z</time></trkpt><trkpt lat="43.5044545245142" lon="10.338160690923202"><ele>55.0</ele><time>2026-04-12T07:52:30Z</time></trkpt><trkpt lat="43.50452354353982" lon="10.338124171394625"><ele>55.0</ele><time>2026-04-12T07:52:31Z</time></trkpt><trkpt lat="43.50459236965665" lon="10.338086973268048"><ele>55.0</ele><time>2026-04-12T07:52:32Z</time></trkpt><trkpt lat="43.50466396116545" lon="10.338048121226896"><ele>54.99999999999999</ele><time>2026-04-12T07:52:33Z</time></trkpt><trkpt lat="43.50473503562362" lon="10.338007547614637"><ele>55.0</ele><time>2026-04-12T07:52:34Z</time></trkpt><trkpt lat="43.50480476548614" lon="10.337957511970835"><ele>54.33333333333333</ele><time>2026-04-12T07:52:35Z</time></trkpt><trkpt lat="43.504882055894626" lon="10.337923096242939"><ele>53.666666666666664</ele><time>2026-04-12T07:52:36Z</time></trkpt><trkpt lat="43.50495949937807" lon="10.337893595739999"><ele>53.0</ele><time>2026-04-12T07:52:37Z</time></trkpt><trkpt lat="43.505037715829026" lon="10.337850242779666"><ele>52.33333333333333</ele><time>2026-04-12T07:52:38Z</time></trkpt><trkpt lat="43.5051150253202" lon="10.33780805051288"><ele>51.666666666666664</ele><time>2026-04-12T07:52:39Z</time></trkpt><trkpt lat="43.50519257131562" lon="10.337761809431617"><ele>51.0</ele><time>2026-04-12T07:52:40Z</time></trkpt><trkpt lat="43.505271917412905" lon="10.337716468782716"><ele>51.0</ele><time>2026-04-12T07:52:41Z</time></trkpt><trkpt lat="43.505351578422236" lon="10.337670863415218"><ele>51.0</ele><time>2026-04-12T07:52:42Z</time></trkpt><trkpt lat="43.5054284709726" lon="10.337603629484972"><ele>51.0</ele><time>2026-04-12T07:52:43Z</time></trkpt><trkpt lat="43.50550951266689" lon="10.337539968323663"><ele>51.0</ele><time>2026-04-12T07:52:44Z</time></trkpt><trkpt lat="43.505580049199025" lon="10.337459634746097"><ele>51.0</ele><time>2026-04-12T07:52:45Z</time></trkpt><trkpt lat="43.50564447816734" lon="10.337360678152784"><ele>50.0</ele><time>2026-04-12T07:52:46Z</time></trkpt><trkpt lat="43.505712308600586" lon="10.337261184901124"><ele>49.0</ele><time>2026-04-12T07:52:47Z</time></trkpt><trkpt lat="43.50577587157629" lon="10.337161368250513"><ele>48.0</ele><time>2026-04-12T07:52:48Z</time></trkpt><trkpt lat="43.505842136127036" lon="10.337058055812092"><ele>47.0</ele><time>2026-04-12T07:52:49Z</time></trkpt><trkpt lat="43.505906520322846" lon="10.336951202529082"><ele>46.0</ele><time>2026-04-12T07:52:50Z</time></trkpt><trkpt lat="43.50597387146789" lon="10.33683954334648"><ele>45.599999999999994</ele><time>2026-04-12T07:52:51Z</time></trkpt><trkpt lat="43.50604428342037" lon="10.336734490559325"><ele>45.2</ele><time>2026-04-12T07:52:52Z</time></trkpt><trkpt lat="43.506127443465" lon="10.33664554942819"><ele>44.8</ele><time>2026-04-12T07:52:53Z</time></trkpt><trkpt lat="43.50621811879573" lon="10.336564390438783"><ele>44.400000000000006</ele><time>2026-04-12T07:52:54Z</time></trkpt><trkpt lat="43.5063157228779" lon="10.336506404787968"><ele>44.0</ele><time>2026-04-12T07:52:55Z</time></trkpt><trkpt lat="43.50642221104602" lon="10.336472388709343"><ele>43.400000000000006</ele><time>2026-04-12T07:52:56Z</time></trkpt><trkpt lat="43.50652632386699" lon="10.336447657559358"><ele>42.8</ele><time>2026-04-12T07:52:57Z</time></trkpt><trkpt lat="43.50662853275879" lon="10.336436297873288"><ele>42.2</ele><time>2026-04-12T07:52:58Z</time></trkpt><trkpt lat="43.50673397109617" lon="10.336425054442856"><ele>41.599999999999994</ele><time>2026-04-12T07:52:59Z</time></trkpt><trkpt lat="43.506832560066286" lon="10.33641459530591"><ele>41.0</ele><time>2026-04-12T07:53:00Z</time></trkpt><trkpt lat="43.5069331256253" lon="10.336404828459793"><ele>40.8</ele><time>2026-04-12T07:53:01Z</time></trkpt><trkpt lat="43.5070237855658" lon="10.336385395037876"><ele>40.599999999999994</ele><time>2026-04-12T07:53:02Z</time></trkpt><trkpt lat="43.507118151579135" lon="10.33636318328322"><ele>40.4</ele><time>2026-04-12T07:53:03Z</time></trkpt><trkpt lat="43.50721174331369" lon="10.336348559757907"><ele>40.2</ele><time>2026-04-12T07:53:03.999Z</time></trkpt><trkpt lat="43.5073061655285" lon="10.336332090986634"><ele>40.0</ele><time>2026-04-12T07:53:04.999Z</time></trkpt><trkpt lat="43.50739879272544" lon="10.336317321619678"><ele>40.0</ele><time>2026-04-12T07:53:05.999Z</time></trkpt><trkpt lat="43.507490829185514" lon="10.336294786628164"><ele>40.0</ele><time>2026-04-12T07:53:06.999Z</time></trkpt><trkpt lat="43.50758230819688" lon="10.336266447029036"><ele>40.0</ele><time>2026-04-12T07:53:07.999Z</time></trkpt><trkpt lat="43.50767316276878" lon="10.336227715476602"><ele>40.0</ele><time>2026-04-12T07:53:08.999Z</time></trkpt><trkpt lat="43.50776281982125" lon="10.336180518809424"><ele>40.0</ele><time>2026-04-12T07:53:09.999Z</time></trkpt><trkpt lat="43.507851161739254" lon="10.336129664428249"><ele>39.6</ele><time>2026-04-12T07:53:10.999Z</time></trkpt><trkpt lat="43.507939149897325" lon="10.336074330988101"><ele>39.2</ele><time>2026-04-12T07:53:11.999Z</time></trkpt><trkpt lat="43.50802742724996" lon="10.33600965196755"><ele>38.8</ele><time>2026-04-12T07:53:12.999Z</time></trkpt><trkpt lat="43.50811522321105" lon="10.335944045127034"><ele>38.4</ele><time>2026-04-12T07:53:13.999Z</time></trkpt><trkpt lat="43.5082042983021" lon="10.33588404428976"><ele>38.0</ele><time>2026-04-12T07:53:15Z</time></trkpt><trkpt lat="43.508294714567946" lon="10.335822496982441"><ele>38.0</ele><time>2026-04-12T07:53:16Z</time></trkpt><trkpt lat="43.50838152645422" lon="10.335747697267246"><ele>38.0</ele><time>2026-04-12T07:53:17Z</time></trkpt><trkpt lat="43.508466709102414" lon="10.335665595897286"><ele>38.0</ele><time>2026-04-12T07:53:18Z</time></trkpt><trkpt lat="43.50855114643754" lon="10.335586884425547"><ele>38.0</ele><time>2026-04-12T07:53:19Z</time></trkpt><trkpt lat="43.50863155601387" lon="10.335483772173275"><ele>38.0</ele><time>2026-04-12T07:53:20Z</time></trkpt><trkpt lat="43.50871195224852" lon="10.335385206152143"><ele>35.8</ele><time>2026-04-12T07:53:21Z</time></trkpt><trkpt lat="43.508788107305605" lon="10.335283912250182"><ele>33.599999999999994</ele><time>2026-04-12T07:53:22Z</time></trkpt><trkpt lat="43.508857907109466" lon="10.335168791136603"><ele>31.400000000000002</ele><time>2026-04-12T07:53:23Z</time></trkpt><trkpt lat="43.50892334754146" lon="10.33504855292233"><ele>29.200000000000003</ele><time>2026-04-12T07:53:24Z</time></trkpt><trkpt lat="43.50898445311176" lon="10.33492242627691"><ele>27.0</ele><time>2026-04-12T07:53:25Z</time></trkpt><trkpt lat="43.50903808090605" lon="10.33478250522079"><ele>26.6</ele><time>2026-04-12T07:53:26Z</time></trkpt><trkpt lat="43.509102704919314" lon="10.334654701352957"><ele>26.200000000000003</ele><time>2026-04-12T07:53:27Z</time></trkpt><trkpt lat="43.50917346228256" lon="10.334540578230266"><ele>25.8</ele><time>2026-04-12T07:53:28Z</time></trkpt><trkpt lat="43.50923531964407" lon="10.334444690996916"><ele>25.4</ele><time>2026-04-12T07:53:29Z</time></trkpt><trkpt lat="43.509293088166224" lon="10.334367366258219"><ele>25.0</ele><time>2026-04-12T07:53:30Z</time></trkpt><trkpt lat="43.50934925229059" lon="10.33430777925873"><ele>25.000000000000004</ele><time>2026-04-12T07:53:31Z</time></trkpt><trkpt lat="43.509449826256926" lon="10.334220743144861"><ele>25.0</ele><time>2026-04-12T07:53:33Z</time></trkpt><trkpt lat="43.50951586824983" lon="10.334192493250587"><ele>25.0</ele><time>2026-04-12T07:53:34Z</time></trkpt><trkpt lat="43.50959125159003" lon="10.334182782400479"><ele>25.0</ele><time>2026-04-12T07:53:35Z</time></trkpt><trkpt lat="43.50966113189429" lon="10.334172331390114"><ele>25.000000000000004</ele><time>2026-04-12T07:53:36Z</time></trkpt><trkpt lat="43.50972789201507" lon="10.334124496685934"><ele>25.0</ele><time>2026-04-12T07:53:37Z</time></trkpt><trkpt lat="43.509783365275574" lon="10.334051834390076"><ele>24.500000000000004</ele><time>2026-04-12T07:53:38Z</time></trkpt><trkpt lat="43.50981507568246" lon="10.33395191367612"><ele>24.0</ele><time>2026-04-12T07:53:39Z</time></trkpt><trkpt lat="43.50981437879887" lon="10.333844250808006"><ele>23.5</ele><time>2026-04-12T07:53:40Z</time></trkpt><trkpt lat="43.509792888461774" lon="10.33374550840007"><ele>23.0</ele><time>2026-04-12T07:53:41Z</time></trkpt><trkpt lat="43.50974647751793" lon="10.333667144591653"><ele>22.5</ele><time>2026-04-12T07:53:42Z</time></trkpt><trkpt lat="43.50969368586697" lon="10.333610399877985"><ele>22.0</ele><time>2026-04-12T07:53:43Z</time></trkpt><trkpt lat="43.509586143169244" lon="10.333596273151212"><ele>22.0</ele><time>2026-04-12T07:53:45Z</time></trkpt><trkpt lat="43.509595451082276" lon="10.333409388989324"><ele>22.0</ele><time>2026-04-12T07:53:46Z</time></trkpt><trkpt lat="43.50959404654105" lon="10.333319351368681"><ele>22.0</ele><time>2026-04-12T07:53:47Z</time></trkpt><trkpt lat="43.509612222324115" lon="10.333227251523605"><ele>22.0</ele><time>2026-04-12T07:53:48Z</time></trkpt><trkpt lat="43.509588642158754" lon="10.3331175468916"><ele>22.0</ele><time>2026-04-12T07:53:49Z</time></trkpt><trkpt lat="43.50966392908325" lon="10.333044278396171"><ele>22.0</ele><time>2026-04-12T07:53:50Z</time></trkpt><trkpt lat="43.50969013823224" lon="10.332957413356848"><ele>21.833333333333332</ele><time>2026-04-12T07:53:51Z</time></trkpt><trkpt lat="43.50971523006583" lon="10.332859471485087"><ele>21.666666666666664</ele><time>2026-04-12T07:53:52Z</time></trkpt><trkpt lat="43.50974538665062" lon="10.33276345840752"><ele>21.5</ele><time>2026-04-12T07:53:53Z</time></trkpt><trkpt lat="43.50977422465101" lon="10.3326643386955"><ele>21.333333333333332</ele><time>2026-04-12T07:53:54Z</time></trkpt><trkpt lat="43.50980419709196" lon="10.33256434336726"><ele>21.166666666666668</ele><time>2026-04-12T07:53:55Z</time></trkpt><trkpt lat="43.50983865768366" lon="10.33246375169387"><ele>21.0</ele><time>2026-04-12T07:53:56Z</time></trkpt><trkpt lat="43.50987549758655" lon="10.332363103721915"><ele>21.0</ele><time>2026-04-12T07:53:57Z</time></trkpt><trkpt lat="43.509908740650516" lon="10.332271794202287"><ele>21.0</ele><time>2026-04-12T07:53:58Z</time></trkpt><trkpt lat="43.509949127335844" lon="10.332168100822596"><ele>21.0</ele><time>2026-04-12T07:53:59Z</time></trkpt><trkpt lat="43.50998855526014" lon="10.332066613587035"><ele>21.0</ele><time>2026-04-12T07:54:00Z</time></trkpt><trkpt lat="43.51002577943035" lon="10.33196447468256"><ele>21.0</ele><time>2026-04-12T07:54:01Z</time></trkpt><trkpt lat="43.510067599772114" lon="10.331858735651142"><ele>21.0</ele><time>2026-04-12T07:54:02Z</time></trkpt><trkpt lat="43.51010720895092" lon="10.331752590865332"><ele>21.166666666666668</ele><time>2026-04-12T07:54:03Z</time></trkpt><trkpt lat="43.51015142020822" lon="10.3316550610613"><ele>21.333333333333332</ele><time>2026-04-12T07:54:04Z</time></trkpt><trkpt lat="43.51019296863219" lon="10.331555197680787"><ele>21.5</ele><time>2026-04-12T07:54:05Z</time></trkpt><trkpt lat="43.51023860523428" lon="10.33145045493788"><ele>21.666666666666664</ele><time>2026-04-12T07:54:06Z</time></trkpt><trkpt lat="43.51028335360683" lon="10.331351275039184"><ele>21.833333333333332</ele><time>2026-04-12T07:54:07Z</time></trkpt><trkpt lat="43.51032913144637" lon="10.331251962565052"><ele>22.0</ele><time>2026-04-12T07:54:08Z</time></trkpt><trkpt lat="43.51037982926809" lon="10.331150867698238"><ele>21.666666666666664</ele><time>2026-04-12T07:54:09Z</time></trkpt><trkpt lat="43.51042643527697" lon="10.331049874533258"><ele>21.333333333333332</ele><time>2026-04-12T07:54:10Z</time></trkpt><trkpt lat="43.51047515785853" lon="10.330945638878307"><ele>21.0</ele><time>2026-04-12T07:54:11Z</time></trkpt><trkpt lat="43.510531449800055" lon="10.330845759538207"><ele>20.666666666666668</ele><time>2026-04-12T07:54:12Z</time></trkpt><trkpt lat="43.510579104289604" lon="10.330749672360653"><ele>20.333333333333336</ele><time>2026-04-12T07:54:13Z</time></trkpt><trkpt lat="43.510626038642314" lon="10.330648051422001"><ele>20.0</ele><time>2026-04-12T07:54:14Z</time></trkpt><trkpt lat="43.51067722595477" lon="10.330556418657554"><ele>20.0</ele><time>2026-04-12T07:54:15Z</time></trkpt><trkpt lat="43.51072408440672" lon="10.330450591198366"><ele>20.0</ele><time>2026-04-12T07:54:16Z</time></trkpt><trkpt lat="43.5107742747549" lon="10.330343717085853"><ele>20.0</ele><time>2026-04-12T07:54:17Z</time></trkpt><trkpt lat="43.510823998586666" lon="10.330251774368405"><ele>20.0</ele><time>2026-04-12T07:54:18Z</time></trkpt><trkpt lat="43.51087466762861" lon="10.330153366063378"><ele>20.0</ele><time>2026-04-12T07:54:19Z</time></trkpt><trkpt lat="43.51092235505726" lon="10.330055476361721"><ele>20.0</ele><time>2026-04-12T07:54:20Z</time></trkpt><trkpt lat="43.51097113576451" lon="10.32996695428721"><ele>20.0</ele><time>2026-04-12T07:54:21Z</time></trkpt><trkpt lat="43.51102054132507" lon="10.329877459297666"><ele>20.0</ele><time>2026-04-12T07:54:22Z</time></trkpt><trkpt lat="43.51107254507188" lon="10.329786732549028"><ele>20.0</ele><time>2026-04-12T07:54:23Z</time></trkpt><trkpt lat="43.51112480904316" lon="10.329692656533052"><ele>20.0</ele><time>2026-04-12T07:54:24Z</time></trkpt><trkpt lat="43.511172989665916" lon="10.3295967333521"><ele>20.0</ele><time>2026-04-12T07:54:25Z</time></trkpt><trkpt lat="43.51122270991288" lon="10.32950565286939"><ele>20.0</ele><time>2026-04-12T07:54:26Z</time></trkpt><trkpt lat="43.51127200207356" lon="10.329406781622598"><ele>20.0</ele><time>2026-04-12T07:54:27Z</time></trkpt><trkpt lat="43.511322536950836" lon="10.329325604513329"><ele>20.0</ele><time>2026-04-12T07:54:28Z</time></trkpt><trkpt lat="43.511372613130405" lon="10.329230855362459"><ele>20.0</ele><time>2026-04-12T07:54:29Z</time></trkpt><trkpt lat="43.51142502565832" lon="10.329141649923223"><ele>20.0</ele><time>2026-04-12T07:54:30Z</time></trkpt><trkpt lat="43.51147517912539" lon="10.329049178962503"><ele>20.0</ele><time>2026-04-12T07:54:31Z</time></trkpt><trkpt lat="43.51152493883594" lon="10.32895156207159"><ele>20.0</ele><time>2026-04-12T07:54:32Z</time></trkpt><trkpt lat="43.51157820109618" lon="10.328860318033849"><ele>19.333333333333336</ele><time>2026-04-12T07:54:33Z</time></trkpt><trkpt lat="43.51163117397358" lon="10.328771242869387"><ele>18.666666666666668</ele><time>2026-04-12T07:54:34Z</time></trkpt><trkpt lat="43.51168175235953" lon="10.328678098685717"><ele>18.0</ele><time>2026-04-12T07:54:35Z</time></trkpt><trkpt lat="43.51173251414855" lon="10.328579987907595"><ele>17.333333333333332</ele><time>2026-04-12T07:54:36Z</time></trkpt><trkpt lat="43.51178103115348" lon="10.32848194408058"><ele>16.666666666666664</ele><time>2026-04-12T07:54:37Z</time></trkpt><trkpt lat="43.511832349382935" lon="10.328388936198099"><ele>16.0</ele><time>2026-04-12T07:54:38Z</time></trkpt><trkpt lat="43.511889901283" lon="10.328297772353478"><ele>15.999999999999998</ele><time>2026-04-12T07:54:39Z</time></trkpt><trkpt lat="43.51194024385761" lon="10.328197701238778"><ele>16.0</ele><time>2026-04-12T07:54:40Z</time></trkpt><trkpt lat="43.51199078819967" lon="10.328104342236369"><ele>16.0</ele><time>2026-04-12T07:54:41Z</time></trkpt><trkpt lat="43.51204376867104" lon="10.328009369655359"><ele>16.0</ele><time>2026-04-12T07:54:42Z</time></trkpt><trkpt lat="43.512095306158436" lon="10.327909187283069"><ele>15.999999999999998</ele><time>2026-04-12T07:54:43Z</time></trkpt><trkpt lat="43.51214869092144" lon="10.327815765954485"><ele>16.0</ele><time>2026-04-12T07:54:44Z</time></trkpt><trkpt lat="43.512206354406025" lon="10.327727912677078"><ele>15.666666666666666</ele><time>2026-04-12T07:54:45Z</time></trkpt><trkpt lat="43.51226737510055" lon="10.327649094976437"><ele>15.333333333333332</ele><time>2026-04-12T07:54:46Z</time></trkpt><trkpt lat="43.51233026244083" lon="10.327569393925458"><ele>15.0</ele><time>2026-04-12T07:54:47Z</time></trkpt><trkpt lat="43.512390900901316" lon="10.327486037007068"><ele>14.666666666666668</ele><time>2026-04-12T07:54:48Z</time></trkpt><trkpt lat="43.51244711715762" lon="10.327399894718688"><ele>14.333333333333334</ele><time>2026-04-12T07:54:49Z</time></trkpt><trkpt lat="43.512514465167435" lon="10.32731040135858"><ele>14.0</ele><time>2026-04-12T07:54:51Z</time></trkpt><trkpt lat="43.51257929254137" lon="10.327222136549778"><ele>13.2</ele><time>2026-04-12T07:54:54Z</time></trkpt><trkpt lat="43.51265979538762" lon="10.327123853289136"><ele>12.399999999999999</ele><time>2026-04-12T07:54:56Z</time></trkpt><trkpt lat="43.512761615115195" lon="10.327015756532157"><ele>11.6</ele><time>2026-04-12T07:54:58Z</time></trkpt><trkpt lat="43.5128128617416" lon="10.326949182654516"><ele>10.8</ele><time>2026-04-12T07:54:59Z</time></trkpt><trkpt lat="43.51286624019724" lon="10.326883939534953"><ele>10.0</ele><time>2026-04-12T07:55:00Z</time></trkpt><trkpt lat="43.51293099425923" lon="10.326817447838081"><ele>9.5</ele><time>2026-04-12T07:55:01Z</time></trkpt><trkpt lat="43.513003998384555" lon="10.32675472493374"><ele>9.0</ele><time>2026-04-12T07:55:02Z</time></trkpt><trkpt lat="43.513075300135526" lon="10.326693722960997"><ele>8.5</ele><time>2026-04-12T07:55:03Z</time></trkpt><trkpt lat="43.51315047952949" lon="10.326628893774313"><ele>8.0</ele><time>2026-04-12T07:55:04Z</time></trkpt><trkpt lat="43.51322663031578" lon="10.326563613036347"><ele>7.500000000000001</ele><time>2026-04-12T07:55:05Z</time></trkpt><trkpt lat="43.513302220599314" lon="10.326505168364797"><ele>7.0</ele><time>2026-04-12T07:55:06Z</time></trkpt><trkpt lat="43.5133768871188" lon="10.32644838172542"><ele>7.000000000000001</ele><time>2026-04-12T07:55:07Z</time></trkpt><trkpt lat="43.51345105448053" lon="10.326398867794632"><ele>7.0</ele><time>2026-04-12T07:55:08Z</time></trkpt><trkpt lat="43.513524709854366" lon="10.326348851279702"><ele>7.0</ele><time>2026-04-12T07:55:09Z</time></trkpt><trkpt lat="43.5135949483106" lon="10.326303850927896"><ele>7.0</ele><time>2026-04-12T07:55:10Z</time></trkpt><trkpt lat="43.51366514280506" lon="10.326260691825096"><ele>7.000000000000001</ele><time>2026-04-12T07:55:11Z</time></trkpt><trkpt lat="43.513734267437336" lon="10.326208208148518"><ele>7.0</ele><time>2026-04-12T07:55:12Z</time></trkpt><trkpt lat="43.513804502527805" lon="10.32615019845512"><ele>6.8</ele><time>2026-04-12T07:55:13Z</time></trkpt><trkpt lat="43.51392347724518" lon="10.326076587360888"><ele>6.6</ele><time>2026-04-12T07:55:15Z</time></trkpt><trkpt lat="43.51398805689966" lon="10.32604541622906"><ele>6.3999999999999995</ele><time>2026-04-12T07:55:16Z</time></trkpt><trkpt lat="43.51404690505261" lon="10.326010191370031"><ele>6.199999999999999</ele><time>2026-04-12T07:55:17Z</time></trkpt><trkpt lat="43.51416637208795" lon="10.325970665948"><ele>6.0</ele><time>2026-04-12T07:55:19Z</time></trkpt><trkpt lat="43.51427218047833" lon="10.325903912020427"><ele>6.0</ele><time>2026-04-12T07:55:21Z</time></trkpt><trkpt lat="43.51438285306414" lon="10.325846735989643"><ele>6.0</ele><time>2026-04-12T07:55:23Z</time></trkpt><trkpt lat="43.51450116203636" lon="10.325776707101907"><ele>6.0</ele><time>2026-04-12T07:55:25Z</time></trkpt><trkpt lat="43.51456354511328" lon="10.325744566777647"><ele>6.0</ele><time>2026-04-12T07:55:26Z</time></trkpt><trkpt lat="43.514623979336264" lon="10.32570963554545"><ele>6.0</ele><time>2026-04-12T07:55:27Z</time></trkpt><trkpt lat="43.51468427835229" lon="10.325677482020218"><ele>6.0</ele><time>2026-04-12T07:55:28Z</time></trkpt><trkpt lat="43.514799390166345" lon="10.325611193951277"><ele>6.5</ele><time>2026-04-12T07:55:30Z</time></trkpt><trkpt lat="43.51491138414895" lon="10.325548115143837"><ele>7.0</ele><time>2026-04-12T07:55:32Z</time></trkpt><trkpt lat="43.5150188002101" lon="10.325484130930263"><ele>7.5</ele><time>2026-04-12T07:55:34Z</time></trkpt><trkpt lat="43.51512423948596" lon="10.325423094805013"><ele>8.0</ele><time>2026-04-12T07:55:36Z</time></trkpt><trkpt lat="43.51522613976654" lon="10.325357702798973"><ele>8.0</ele><time>2026-04-12T07:55:38Z</time></trkpt><trkpt lat="43.51532672327408" lon="10.325305922063736"><ele>8.0</ele><time>2026-04-12T07:55:40Z</time></trkpt><trkpt lat="43.515424343454576" lon="10.32523984584337"><ele>8.0</ele><time>2026-04-12T07:55:42Z</time></trkpt><trkpt lat="43.51552352450637" lon="10.325175623010702"><ele>8.0</ele><time>2026-04-12T07:55:44Z</time></trkpt><trkpt lat="43.51562405671061" lon="10.325131562730093"><ele>8.0</ele><time>2026-04-12T07:55:46Z</time></trkpt><trkpt lat="43.5157246713146" lon="10.325099765743099"><ele>9.0</ele><time>2026-04-12T07:55:48Z</time></trkpt><trkpt lat="43.515820764874924" lon="10.325098619995998"><ele>10.0</ele><time>2026-04-12T07:55:50Z</time></trkpt><trkpt lat="43.515917895925256" lon="10.325082317102185"><ele>11.0</ele><time>2026-04-12T07:55:52Z</time></trkpt><trkpt lat="43.51600677854114" lon="10.325078544839752"><ele>12.0</ele><time>2026-04-12T07:55:54Z</time></trkpt><trkpt lat="43.516109794795305" lon="10.325067913352221"><ele>13.0</ele><time>2026-04-12T07:55:56Z</time></trkpt><trkpt lat="43.516199173120114" lon="10.325055866050945"><ele>13.0</ele><time>2026-04-12T07:55:58Z</time></trkpt><trkpt lat="43.516305079380075" lon="10.32503029825284"><ele>13.0</ele><time>2026-04-12T07:56:00Z</time></trkpt><trkpt lat="43.51639808041595" lon="10.325016984681268"><ele>13.0</ele><time>2026-04-12T07:56:02Z</time></trkpt><trkpt lat="43.51649593674377" lon="10.325008926427891"><ele>13.0</ele><time>2026-04-12T07:56:04Z</time></trkpt><trkpt lat="43.51659499861878" lon="10.325007961080148"><ele>13.0</ele><time>2026-04-12T07:56:06Z</time></trkpt><trkpt lat="43.51669643777344" lon="10.3249703097147"><ele>13.0</ele><time>2026-04-12T07:56:08Z</time></trkpt><trkpt lat="43.51680210239415" lon="10.324966229976097"><ele>13.0</ele><time>2026-04-12T07:56:10Z</time></trkpt><trkpt lat="43.5168927895935" lon="10.32494795533134"><ele>13.0</ele><time>2026-04-12T07:56:12Z</time></trkpt><trkpt lat="43.51699024237468" lon="10.324928339117106"><ele>13.0</ele><time>2026-04-12T07:56:14Z</time></trkpt><trkpt lat="43.51708810589564" lon="10.324910563732946"><ele>13.0</ele><time>2026-04-12T07:56:16Z</time></trkpt><trkpt lat="43.517178769834274" lon="10.32490951145139"><ele>13.0</ele><time>2026-04-12T07:56:18Z</time></trkpt><trkpt lat="43.51720846969157" lon="10.324727961373112"><ele>13.0</ele><time>2026-04-12T07:56:20Z</time></trkpt><trkpt lat="43.51720511108221" lon="10.3245755572955"><ele>13.0</ele><time>2026-04-12T07:56:22Z</time></trkpt><trkpt lat="43.51718589152943" lon="10.324449920855047"><ele>13.0</ele><time>2026-04-12T07:56:24Z</time></trkpt><trkpt lat="43.51719030342564" lon="10.32429466114395"><ele>13.0</ele><time>2026-04-12T07:56:26Z</time></trkpt><trkpt lat="43.51716828838056" lon="10.324138253167131"><ele>13.0</ele><time>2026-04-12T07:56:28Z</time></trkpt><trkpt lat="43.51717181330893" lon="10.323974813416804"><ele>13.0</ele><time>2026-04-12T07:56:30Z</time></trkpt><trkpt lat="43.51716243744454" lon="10.323808940267718"><ele>13.0</ele><time>2026-04-12T07:56:32Z</time></trkpt><trkpt lat="43.5171460357926" lon="10.323644567886495"><ele>12.600000000000001</ele><time>2026-04-12T07:56:34Z</time></trkpt><trkpt lat="43.51713715066028" lon="10.323466414138654"><ele>12.200000000000001</ele><time>2026-04-12T07:56:36Z</time></trkpt><trkpt lat="43.51712969015995" lon="10.323301554750755"><ele>11.8</ele><time>2026-04-12T07:56:38Z</time></trkpt><trkpt lat="43.517124530392294" lon="10.32321019203226"><ele>11.4</ele><time>2026-04-12T07:56:39Z</time></trkpt><trkpt lat="43.51711440188874" lon="10.323037161368239"><ele>11.0</ele><time>2026-04-12T07:56:41Z</time></trkpt><trkpt lat="43.51710957797089" lon="10.322949489223085"><ele>10.8</ele><time>2026-04-12T07:56:42Z</time></trkpt><trkpt lat="43.51710489007831" lon="10.32285896616799"><ele>10.600000000000001</ele><time>2026-04-12T07:56:43Z</time></trkpt><trkpt lat="43.517090880417605" lon="10.322683516145172"><ele>10.4</ele><time>2026-04-12T07:56:45Z</time></trkpt><trkpt lat="43.51708845431466" lon="10.32251557841418"><ele>10.2</ele><time>2026-04-12T07:56:47Z</time></trkpt><trkpt lat="43.51708132315158" lon="10.322343270230512"><ele>10.0</ele><time>2026-04-12T07:56:49Z</time></trkpt><trkpt lat="43.517073942949" lon="10.322256412500549"><ele>10.166666666666668</ele><time>2026-04-12T07:56:50Z</time></trkpt><trkpt lat="43.51707104023917" lon="10.322166358507816"><ele>10.333333333333334</ele><time>2026-04-12T07:56:51Z</time></trkpt><trkpt lat="43.51706896288776" lon="10.322077399056507"><ele>10.5</ele><time>2026-04-12T07:56:52Z</time></trkpt><trkpt lat="43.51706763338508" lon="10.3219897399583"><ele>10.666666666666666</ele><time>2026-04-12T07:56:53Z</time></trkpt><trkpt lat="43.5170546695456" lon="10.321815018754677"><ele>10.833333333333332</ele><time>2026-04-12T07:56:55Z</time></trkpt><trkpt lat="43.51705026225087" lon="10.321637764040078"><ele>11.0</ele><time>2026-04-12T07:56:57Z</time></trkpt><trkpt lat="43.51703655193842" lon="10.321466401916492"><ele>11.25</ele><time>2026-04-12T07:56:59Z</time></trkpt><trkpt lat="43.51703101262069" lon="10.321290940308643"><ele>11.5</ele><time>2026-04-12T07:57:01Z</time></trkpt><trkpt lat="43.517013718002964" lon="10.321113367294467"><ele>11.75</ele><time>2026-04-12T07:57:03Z</time></trkpt><trkpt lat="43.517007991525205" lon="10.32094724867573"><ele>12.0</ele><time>2026-04-12T07:57:05Z</time></trkpt><trkpt lat="43.51700410701443" lon="10.320778408954837"><ele>12.0</ele><time>2026-04-12T07:57:07Z</time></trkpt><trkpt lat="43.517001286562746" lon="10.320614083628552"><ele>12.0</ele><time>2026-04-12T07:57:09Z</time></trkpt><trkpt lat="43.516997420840866" lon="10.320522731962745"><ele>12.0</ele><time>2026-04-12T07:57:10Z</time></trkpt><trkpt lat="43.516983853571574" lon="10.320356386923503"><ele>12.0</ele><time>2026-04-12T07:57:12Z</time></trkpt><trkpt lat="43.51698331803386" lon="10.320261049422442"><ele>12.0</ele><time>2026-04-12T07:57:13Z</time></trkpt><trkpt lat="43.51698272933137" lon="10.320103077331835"><ele>11.5</ele><time>2026-04-12T07:57:15Z</time></trkpt><trkpt lat="43.516969349845404" lon="10.320010573778474"><ele>11.0</ele><time>2026-04-12T07:57:16Z</time></trkpt><trkpt lat="43.51697315705452" lon="10.319831820742928"><ele>10.5</ele><time>2026-04-12T07:57:18Z</time></trkpt><trkpt lat="43.51695685103857" lon="10.31965948726257"><ele>10.0</ele><time>2026-04-12T07:57:20Z</time></trkpt><trkpt lat="43.51694583433047" lon="10.319482479167409"><ele>9.666666666666668</ele><time>2026-04-12T07:57:22Z</time></trkpt><trkpt lat="43.516937998932875" lon="10.319395119624366"><ele>9.333333333333334</ele><time>2026-04-12T07:57:23Z</time></trkpt><trkpt lat="43.51692749727413" lon="10.319220183182521"><ele>9.0</ele><time>2026-04-12T07:57:24.999Z</time></trkpt><trkpt lat="43.516920691693024" lon="10.319127675319441"><ele>8.666666666666666</ele><time>2026-04-12T07:57:25.999Z</time></trkpt><trkpt lat="43.516913945663504" lon="10.319036951237804"><ele>8.333333333333332</ele><time>2026-04-12T07:57:27Z</time></trkpt><trkpt lat="43.516890831173875" lon="10.318949446473002"><ele>8.0</ele><time>2026-04-12T07:57:28Z</time></trkpt><trkpt lat="43.51688081031272" lon="10.318853512045752"><ele>7.857142857142857</ele><time>2026-04-12T07:57:29Z</time></trkpt><trkpt lat="43.51686757901482" lon="10.31875804959694"><ele>7.7142857142857135</ele><time>2026-04-12T07:57:30Z</time></trkpt><trkpt lat="43.51685914772982" lon="10.318665086009357"><ele>7.571428571428571</ele><time>2026-04-12T07:57:31Z</time></trkpt><trkpt lat="43.516842269534585" lon="10.318566139359687"><ele>7.428571428571429</ele><time>2026-04-12T07:57:32Z</time></trkpt><trkpt lat="43.51683267722872" lon="10.318469616593832"><ele>7.285714285714286</ele><time>2026-04-12T07:57:33Z</time></trkpt><trkpt lat="43.51682436494924" lon="10.318372410167658"><ele>7.142857142857142</ele><time>2026-04-12T07:57:34Z</time></trkpt><trkpt lat="43.51681454469523" lon="10.318280350732941"><ele>7.0</ele><time>2026-04-12T07:57:35Z</time></trkpt><trkpt lat="43.51679721627592" lon="10.318184913943057"><ele>7.0</ele><time>2026-04-12T07:57:36Z</time></trkpt><trkpt lat="43.516785959597904" lon="10.318084537018908"><ele>7.0</ele><time>2026-04-12T07:57:37Z</time></trkpt><trkpt lat="43.51676847466575" lon="10.31798120634531"><ele>7.0</ele><time>2026-04-12T07:57:38Z</time></trkpt><trkpt lat="43.51676009742664" lon="10.317877226589019"><ele>7.0</ele><time>2026-04-12T07:57:39Z</time></trkpt><trkpt lat="43.516750522259684" lon="10.317776606009629"><ele>7.0</ele><time>2026-04-12T07:57:40Z</time></trkpt><trkpt lat="43.51674175874613" lon="10.31767542654131"><ele>7.0</ele><time>2026-04-12T07:57:41Z</time></trkpt><trkpt lat="43.51672964933492" lon="10.317576587142856"><ele>7.0</ele><time>2026-04-12T07:57:42Z</time></trkpt><trkpt lat="43.51672575393192" lon="10.317473495520353"><ele>6.666666666666667</ele><time>2026-04-12T07:57:43Z</time></trkpt><trkpt lat="43.51671056326792" lon="10.317378797546555"><ele>6.333333333333334</ele><time>2026-04-12T07:57:44Z</time></trkpt><trkpt lat="43.516694613582985" lon="10.31728097204429"><ele>6.0</ele><time>2026-04-12T07:57:45Z</time></trkpt><trkpt lat="43.51668367025201" lon="10.31718484757096"><ele>5.666666666666667</ele><time>2026-04-12T07:57:46Z</time></trkpt><trkpt lat="43.516670111836035" lon="10.317041844809708"><ele>5.333333333333334</ele><time>2026-04-12T07:57:48Z</time></trkpt><trkpt lat="43.51669301899446" lon="10.316926563584571"><ele>5.0</ele><time>2026-04-12T07:57:50Z</time></trkpt><trkpt lat="43.51676269178925" lon="10.316843969909256"><ele>4.6</ele><time>2026-04-12T07:57:52Z</time></trkpt><trkpt lat="43.51685376589261" lon="10.316806213533809"><ele>4.2</ele><time>2026-04-12T07:57:54Z</time></trkpt><trkpt lat="43.516947850741" lon="10.316792939050996"><ele>3.8</ele><time>2026-04-12T07:57:56Z</time></trkpt><trkpt lat="43.51704590513214" lon="10.316780273327776"><ele>3.4</ele><time>2026-04-12T07:57:58Z</time></trkpt><trkpt lat="43.517141076061684" lon="10.31675819681627"><ele>3.0</ele><time>2026-04-12T07:58:00Z</time></trkpt><trkpt lat="43.51723289908171" lon="10.316735430637364"><ele>2.8</ele><time>2026-04-12T07:58:02Z</time></trkpt><trkpt lat="43.51733514067348" lon="10.316708469294776"><ele>2.5999999999999996</ele><time>2026-04-12T07:58:04Z</time></trkpt><trkpt lat="43.517431452802136" lon="10.316695194332647"><ele>2.4000000000000004</ele><time>2026-04-12T07:58:06Z</time></trkpt><trkpt lat="43.517530293339554" lon="10.316687793279815"><ele>2.2</ele><time>2026-04-12T07:58:08Z</time></trkpt><trkpt lat="43.51763197920894" lon="10.316663653272128"><ele>2.0</ele><time>2026-04-12T07:58:10Z</time></trkpt><trkpt lat="43.51773257533815" lon="10.316640414095893"><ele>2.0</ele><time>2026-04-12T07:58:12Z</time></trkpt><trkpt lat="43.517833393210836" lon="10.31662627378709"><ele>2.0</ele><time>2026-04-12T07:58:14Z</time></trkpt><trkpt lat="43.517936476002774" lon="10.316603242864398"><ele>2.0</ele><time>2026-04-12T07:58:16Z</time></trkpt><trkpt lat="43.51804275037588" lon="10.316579482139346"><ele>2.0</ele><time>2026-04-12T07:58:18Z</time></trkpt><trkpt lat="43.518152591534985" lon="10.316558766337389"><ele>2.0</ele><time>2026-04-12T07:58:20Z</time></trkpt><trkpt lat="43.518264828038035" lon="10.316526462304719"><ele>1.75</ele><time>2026-04-12T07:58:22Z</time></trkpt><trkpt lat="43.51837793713088" lon="10.316485817190769"><ele>1.5</ele><time>2026-04-12T07:58:24Z</time></trkpt><trkpt lat="43.51848401930288" lon="10.316427821045858"><ele>1.25</ele><time>2026-04-12T07:58:26Z</time></trkpt><trkpt lat="43.51858788518391" lon="10.316368280946437"><ele>1.0</ele><time>2026-04-12T07:58:28Z</time></trkpt><trkpt lat="43.51868150590446" lon="10.316294819023998"><ele>2.0</ele><time>2026-04-12T07:58:30Z</time></trkpt><trkpt lat="43.51875624808577" lon="10.31625516881793"><ele>3.0</ele><time>2026-04-12T07:58:32Z</time></trkpt><trkpt lat="43.51882274116974" lon="10.316240266615972"><ele>4.0</ele><time>2026-04-12T07:58:34Z</time></trkpt><trkpt lat="43.51889959051593" lon="10.316261860062419"><ele>5.0</ele><time>2026-04-12T07:58:36Z</time></trkpt><trkpt lat="43.51898140509929" lon="10.316314051522442"><ele>6.000000000000001</ele><time>2026-04-12T07:58:38Z</time></trkpt><trkpt lat="43.519039411590605" lon="10.316402487602184"><ele>7.0</ele><time>2026-04-12T07:58:40Z</time></trkpt><trkpt lat="43.519111583614205" lon="10.316465341895945"><ele>7.0</ele><time>2026-04-12T07:58:42Z</time></trkpt><trkpt lat="43.519179736790285" lon="10.31654862530594"><ele>6.999999999999999</ele><time>2026-04-12T07:58:44Z</time></trkpt><trkpt lat="43.51918966214345" lon="10.31663633988635"><ele>6.999999999999999</ele><time>2026-04-12T07:58:45Z</time></trkpt><trkpt lat="43.519239029120975" lon="10.316758805801463"><ele>7.0</ele><time>2026-04-12T07:58:47Z</time></trkpt><trkpt lat="43.51929274976248" lon="10.3168729135241"><ele>7.0</ele><time>2026-04-12T07:58:49Z</time></trkpt><trkpt lat="43.51934596852012" lon="10.316984626194396"><ele>7.0</ele><time>2026-04-12T07:58:51Z</time></trkpt><trkpt lat="43.51939889299127" lon="10.317094619083008"><ele>6.999999999999999</ele><time>2026-04-12T07:58:53Z</time></trkpt><trkpt lat="43.519448080623434" lon="10.317204597164325"><ele>6.999999999999999</ele><time>2026-04-12T07:58:55Z</time></trkpt><trkpt lat="43.51950212738121" lon="10.317310836142996"><ele>7.0</ele><time>2026-04-12T07:58:57Z</time></trkpt><trkpt lat="43.519572284856146" lon="10.317392395097334"><ele>7.0</ele><time>2026-04-12T07:58:59Z</time></trkpt><trkpt lat="43.519666483324215" lon="10.3173956920372"><ele>8.0</ele><time>2026-04-12T07:59:01Z</time></trkpt><trkpt lat="43.51975705259547" lon="10.31736922849798"><ele>9.0</ele><time>2026-04-12T07:59:03Z</time></trkpt><trkpt lat="43.51984911943727" lon="10.317339561081726"><ele>10.0</ele><time>2026-04-12T07:59:05Z</time></trkpt><trkpt lat="43.51994473199096" lon="10.317309920877202"><ele>11.0</ele><time>2026-04-12T07:59:07Z</time></trkpt><trkpt lat="43.52003826101433" lon="10.317284171071"><ele>12.0</ele><time>2026-04-12T07:59:09Z</time></trkpt><trkpt lat="43.520128959119376" lon="10.317258643289899"><ele>12.0</ele><time>2026-04-12T07:59:11Z</time></trkpt><trkpt lat="43.52022030560681" lon="10.317242221724024"><ele>12.0</ele><time>2026-04-12T07:59:13Z</time></trkpt><trkpt lat="43.52031289926731" lon="10.317217191747211"><ele>12.0</ele><time>2026-04-12T07:59:15Z</time></trkpt><trkpt lat="43.52040244175238" lon="10.317195824414448"><ele>12.0</ele><time>2026-04-12T07:59:17Z</time></trkpt><trkpt lat="43.52049459241176" lon="10.317171149118057"><ele>12.0</ele><time>2026-04-12T07:59:18.999Z</time></trkpt><trkpt lat="43.520586732058725" lon="10.317147700661698"><ele>12.2</ele><time>2026-04-12T07:59:20.999Z</time></trkpt><trkpt lat="43.52068101067782" lon="10.317126111896508"><ele>12.399999999999999</ele><time>2026-04-12T07:59:22.999Z</time></trkpt><trkpt lat="43.52077705483685" lon="10.317097326276478"><ele>12.600000000000001</ele><time>2026-04-12T07:59:24.999Z</time></trkpt><trkpt lat="43.520874743105374" lon="10.317081377615951"><ele>12.8</ele><time>2026-04-12T07:59:26.999Z</time></trkpt><trkpt lat="43.52096673539161" lon="10.317057342563961"><ele>13.0</ele><time>2026-04-12T07:59:28.999Z</time></trkpt><trkpt lat="43.52106060004931" lon="10.317035811716371"><ele>13.0</ele><time>2026-04-12T07:59:30.999Z</time></trkpt><trkpt lat="43.521159820427066" lon="10.3170076613794"><ele>13.0</ele><time>2026-04-12T07:59:33Z</time></trkpt><trkpt lat="43.52125769048155" lon="10.316977056154668"><ele>13.0</ele><time>2026-04-12T07:59:35Z</time></trkpt><trkpt lat="43.52135221626461" lon="10.316945741565794"><ele>13.0</ele><time>2026-04-12T07:59:37Z</time></trkpt><trkpt lat="43.52144995490804" lon="10.316924142989368"><ele>13.0</ele><time>2026-04-12T07:59:39Z</time></trkpt><trkpt lat="43.52154479740984" lon="10.316900575811728"><ele>12.200000000000001</ele><time>2026-04-12T07:59:41Z</time></trkpt><trkpt lat="43.521645740360775" lon="10.316872202091801"><ele>11.4</ele><time>2026-04-12T07:59:43Z</time></trkpt><trkpt lat="43.52174450864401" lon="10.316848234207894"><ele>10.600000000000001</ele><time>2026-04-12T07:59:45Z</time></trkpt><trkpt lat="43.52184222759009" lon="10.31682085761365"><ele>9.8</ele><time>2026-04-12T07:59:47Z</time></trkpt><trkpt lat="43.52194176359614" lon="10.316792022492066"><ele>9.0</ele><time>2026-04-12T07:59:49Z</time></trkpt><trkpt lat="43.522042152906515" lon="10.316765851776253"><ele>9.0</ele><time>2026-04-12T07:59:51Z</time></trkpt><trkpt lat="43.52214175100425" lon="10.316745222989988"><ele>9.0</ele><time>2026-04-12T07:59:53Z</time></trkpt><trkpt lat="43.522244331749725" lon="10.316711009978965"><ele>9.0</ele><time>2026-04-12T07:59:55Z</time></trkpt><trkpt lat="43.522343444750085" lon="10.316684289891343"><ele>9.0</ele><time>2026-04-12T07:59:57Z</time></trkpt><trkpt lat="43.522441471231474" lon="10.316658614853534"><ele>9.0</ele><time>2026-04-12T07:59:59Z</time></trkpt><trkpt lat="43.522541819005454" lon="10.316631612528594"><ele>9.0</ele><time>2026-04-12T08:00:01Z</time></trkpt><trkpt lat="43.52264319774846" lon="10.316608487313497"><ele>9.0</ele><time>2026-04-12T08:00:03Z</time></trkpt><trkpt lat="43.52274968679153" lon="10.316578154917167"><ele>9.0</ele><time>2026-04-12T08:00:05Z</time></trkpt><trkpt lat="43.5228553973542" lon="10.316553960281892"><ele>9.0</ele><time>2026-04-12T08:00:07Z</time></trkpt><trkpt lat="43.52296128952985" lon="10.31653271206078"><ele>9.0</ele><time>2026-04-12T08:00:09Z</time></trkpt><trkpt lat="43.5230715817064" lon="10.316524667192368"><ele>9.2</ele><time>2026-04-12T08:00:11Z</time></trkpt><trkpt lat="43.52314720430271" lon="10.316484939628847"><ele>9.4</ele><time>2026-04-12T08:00:13Z</time></trkpt><trkpt lat="43.52322309381891" lon="10.316685693659693"><ele>9.6</ele><time>2026-04-12T08:00:15Z</time></trkpt><trkpt lat="43.52325461102075" lon="10.316810057332319"><ele>9.8</ele><time>2026-04-12T08:00:17Z</time></trkpt><trkpt lat="43.52329495042634" lon="10.316897175515686"><ele>10.0</ele><time>2026-04-12T08:00:19Z</time></trkpt><trkpt lat="43.52325611531113" lon="10.316810902906717"><ele>10.0</ele><time>2026-04-12T08:00:22Z</time></trkpt><trkpt lat="43.523267612157824" lon="10.316695420734604"><ele>10.0</ele><time>2026-04-12T08:00:24Z</time></trkpt><trkpt lat="43.52324958596785" lon="10.3165929402039"><ele>10.0</ele><time>2026-04-12T08:00:26Z</time></trkpt><trkpt lat="43.52323863310036" lon="10.31648136261858"><ele>10.0</ele><time>2026-04-12T08:00:28Z</time></trkpt><trkpt lat="43.52320660083492" lon="10.316377636200365"><ele>10.0</ele><time>2026-04-12T08:00:30Z</time></trkpt><trkpt lat="43.52311718380932" lon="10.316344361787953"><ele>10.0</ele><time>2026-04-12T08:00:32Z</time></trkpt><trkpt lat="43.52302854673212" lon="10.316383000084421"><ele>10.0</ele><time>2026-04-12T08:00:34Z</time></trkpt><trkpt lat="43.52293400173959" lon="10.31640604952745"><ele>10.0</ele><time>2026-04-12T08:00:36Z</time></trkpt><trkpt lat="43.52283863828437" lon="10.316415700603892"><ele>10.0</ele><time>2026-04-12T08:00:38Z</time></trkpt><trkpt lat="43.5227498981307" lon="10.3164444752024"><ele>10.0</ele><time>2026-04-12T08:00:40Z</time></trkpt><trkpt lat="43.52266120936555" lon="10.31647356667867"><ele>10.0</ele><time>2026-04-12T08:00:42Z</time></trkpt><trkpt lat="43.52257102999837" lon="10.31650029374245"><ele>9.8</ele><time>2026-04-12T08:00:44Z</time></trkpt><trkpt lat="43.52248253089422" lon="10.316522059665692"><ele>9.6</ele><time>2026-04-12T08:00:46Z</time></trkpt><trkpt lat="43.522393598163845" lon="10.316544194509225"><ele>9.4</ele><time>2026-04-12T08:00:48Z</time></trkpt><trkpt lat="43.52230595978565" lon="10.316571362035738"><ele>9.2</ele><time>2026-04-12T08:00:50Z</time></trkpt><trkpt lat="43.522212956196405" lon="10.316590606116385"><ele>9.0</ele><time>2026-04-12T08:00:52Z</time></trkpt><trkpt lat="43.5221242273609" lon="10.316609837537904"><ele>9.0</ele><time>2026-04-12T08:00:54Z</time></trkpt><trkpt lat="43.52203408635216" lon="10.316632294996495"><ele>9.0</ele><time>2026-04-12T08:00:56Z</time></trkpt><trkpt lat="43.521941804048325" lon="10.316660446652474"><ele>9.0</ele><time>2026-04-12T08:00:58Z</time></trkpt><trkpt lat="43.521850064791664" lon="10.316683749544062"><ele>9.0</ele><time>2026-04-12T08:01:00Z</time></trkpt><trkpt lat="43.52175928191936" lon="10.31671011068867"><ele>9.0</ele><time>2026-04-12T08:01:02Z</time></trkpt><trkpt lat="43.521667520385755" lon="10.316741642807976"><ele>9.0</ele><time>2026-04-12T08:01:04Z</time></trkpt><trkpt lat="43.521575359731514" lon="10.31675970007802"><ele>9.0</ele><time>2026-04-12T08:01:06Z</time></trkpt><trkpt lat="43.52148349494198" lon="10.316782262390493"><ele>9.0</ele><time>2026-04-12T08:01:08Z</time></trkpt><trkpt lat="43.52139063067824" lon="10.316801826977033"><ele>9.0</ele><time>2026-04-12T08:01:10Z</time></trkpt><trkpt lat="43.521301588706876" lon="10.316828223130436"><ele>9.0</ele><time>2026-04-12T08:01:12Z</time></trkpt><trkpt lat="43.521206243740366" lon="10.31684888364995"><ele>9.8</ele><time>2026-04-12T08:01:14Z</time></trkpt><trkpt lat="43.521110500997615" lon="10.316870709572976"><ele>10.600000000000001</ele><time>2026-04-12T08:01:16Z</time></trkpt><trkpt lat="43.52101246899373" lon="10.316899785180752"><ele>11.4</ele><time>2026-04-12T08:01:18Z</time></trkpt><trkpt lat="43.520917328604725" lon="10.316915984210018"><ele>12.200000000000001</ele><time>2026-04-12T08:01:20Z</time></trkpt><trkpt lat="43.520824137055655" lon="10.316932135220664"><ele>13.0</ele><time>2026-04-12T08:01:22Z</time></trkpt><trkpt lat="43.52072474514001" lon="10.316962847979712"><ele>13.0</ele><time>2026-04-12T08:01:24Z</time></trkpt><trkpt lat="43.52062807481536" lon="10.316989152989148"><ele>13.0</ele><time>2026-04-12T08:01:26Z</time></trkpt><trkpt lat="43.52052919273929" lon="10.317013646163419"><ele>13.0</ele><time>2026-04-12T08:01:28Z</time></trkpt><trkpt lat="43.5204277111494" lon="10.317026023107429"><ele>13.0</ele><time>2026-04-12T08:01:30Z</time></trkpt><trkpt lat="43.52033413481185" lon="10.317067037649421"><ele>13.0</ele><time>2026-04-12T08:01:32Z</time></trkpt><trkpt lat="43.52023206126537" lon="10.317083102692473"><ele>12.833333333333332</ele><time>2026-04-12T08:01:34Z</time></trkpt><trkpt lat="43.5201311151584" lon="10.317117845791866"><ele>12.666666666666666</ele><time>2026-04-12T08:01:36Z</time></trkpt><trkpt lat="43.52003547630868" lon="10.317149963246958"><ele>12.5</ele><time>2026-04-12T08:01:38Z</time></trkpt><trkpt lat="43.519950217016444" lon="10.317153729384104"><ele>12.333333333333332</ele><time>2026-04-12T08:01:40Z</time></trkpt><trkpt lat="43.51988016220596" lon="10.317164837373529"><ele>12.166666666666666</ele><time>2026-04-12T08:01:42Z</time></trkpt><trkpt lat="43.51979105023107" lon="10.317180522051641"><ele>12.0</ele><time>2026-04-12T08:01:45Z</time></trkpt><trkpt lat="43.519719953027085" lon="10.317240776276815"><ele>12.0</ele><time>2026-04-12T08:01:48Z</time></trkpt><trkpt lat="43.51963463486714" lon="10.317255941551217"><ele>12.0</ele><time>2026-04-12T08:01:51Z</time></trkpt><trkpt lat="43.51956943319473" lon="10.317207822295492"><ele>12.0</ele><time>2026-04-12T08:01:54Z</time></trkpt><trkpt lat="43.51952455092276" lon="10.317127461112973"><ele>12.0</ele><time>2026-04-12T08:01:56Z</time></trkpt><trkpt lat="43.51948275135811" lon="10.317037873954758"><ele>12.0</ele><time>2026-04-12T08:01:58Z</time></trkpt><trkpt lat="43.51942725993475" lon="10.316956151901303"><ele>12.0</ele><time>2026-04-12T08:02:00Z</time></trkpt><trkpt lat="43.519421217361" lon="10.31683005281509"><ele>11.166666666666666</ele><time>2026-04-12T08:02:02Z</time></trkpt><trkpt lat="43.5193719366247" lon="10.316729073108514"><ele>10.333333333333334</ele><time>2026-04-12T08:02:04Z</time></trkpt><trkpt lat="43.5193171758595" lon="10.316632789944332"><ele>9.5</ele><time>2026-04-12T08:02:06Z</time></trkpt><trkpt lat="43.51924339970243" lon="10.316551962202942"><ele>8.666666666666668</ele><time>2026-04-12T08:02:08Z</time></trkpt><trkpt lat="43.5191760684253" lon="10.316537254825338"><ele>7.833333333333334</ele><time>2026-04-12T08:02:10Z</time></trkpt><trkpt lat="43.519160513122635" lon="10.316433382452708"><ele>7.0</ele><time>2026-04-12T08:02:12Z</time></trkpt><trkpt lat="43.51903254550862" lon="10.316604157597489"><ele>7.0</ele><time>2026-04-12T08:02:15Z</time></trkpt><trkpt lat="43.51895052310835" lon="10.316678586487562"><ele>6.999999999999999</ele><time>2026-04-12T08:02:17Z</time></trkpt><trkpt lat="43.51887956633119" lon="10.316777119355658"><ele>6.999999999999999</ele><time>2026-04-12T08:02:19Z</time></trkpt><trkpt lat="43.51879943668012" lon="10.316845176700529"><ele>7.0</ele><time>2026-04-12T08:02:21Z</time></trkpt><trkpt lat="43.5187295296968" lon="10.316909716887217"><ele>7.0</ele><time>2026-04-12T08:02:23Z</time></trkpt><trkpt lat="43.51864658448209" lon="10.316964110837121"><ele>6.8</ele><time>2026-04-12T08:02:25Z</time></trkpt><trkpt lat="43.51855300821899" lon="10.316982406928512"><ele>6.6</ele><time>2026-04-12T08:02:27Z</time></trkpt><trkpt lat="43.51846066237896" lon="10.31700870863221"><ele>6.3999999999999995</ele><time>2026-04-12T08:02:29Z</time></trkpt><trkpt lat="43.518365498760154" lon="10.317028336323084"><ele>6.199999999999999</ele><time>2026-04-12T08:02:31Z</time></trkpt><trkpt lat="43.51826964345633" lon="10.317055532431233"><ele>6.0</ele><time>2026-04-12T08:02:33Z</time></trkpt><trkpt lat="43.51817440363942" lon="10.317071466459563"><ele>6.0</ele><time>2026-04-12T08:02:35Z</time></trkpt><trkpt lat="43.518084410901885" lon="10.317093747234184"><ele>6.0</ele><time>2026-04-12T08:02:37Z</time></trkpt><trkpt lat="43.517994462023836" lon="10.317096457756278"><ele>6.0</ele><time>2026-04-12T08:02:39Z</time></trkpt><trkpt lat="43.51790026957467" lon="10.317114172890657"><ele>6.0</ele><time>2026-04-12T08:02:41Z</time></trkpt><trkpt lat="43.51780210121253" lon="10.317139273093707"><ele>6.0</ele><time>2026-04-12T08:02:43Z</time></trkpt><trkpt lat="43.5177063793483" lon="10.31715829435462"><ele>6.4</ele><time>2026-04-12T08:02:45Z</time></trkpt><trkpt lat="43.51761050097934" lon="10.317183435182901"><ele>6.8</ele><time>2026-04-12T08:02:47Z</time></trkpt><trkpt lat="43.517522375529914" lon="10.31718381928672"><ele>7.200000000000001</ele><time>2026-04-12T08:02:49Z</time></trkpt><trkpt lat="43.51742643960837" lon="10.317205250576603"><ele>7.6000000000000005</ele><time>2026-04-12T08:02:52Z</time></trkpt><trkpt lat="43.517338663195105" lon="10.31722423959082"><ele>8.0</ele><time>2026-04-12T08:02:54Z</time></trkpt><trkpt lat="43.517242937722756" lon="10.317237237232298"><ele>8.0</ele><time>2026-04-12T08:02:56Z</time></trkpt><trkpt lat="43.5171402480707" lon="10.317259409462677"><ele>8.0</ele><time>2026-04-12T08:02:58Z</time></trkpt><trkpt lat="43.51702864212035" lon="10.317275345089087"><ele>8.0</ele><time>2026-04-12T08:03:00Z</time></trkpt><trkpt lat="43.516920909907064" lon="10.317299334834354"><ele>8.0</ele><time>2026-04-12T08:03:02Z</time></trkpt><trkpt lat="43.516814757287726" lon="10.317325663082041"><ele>8.0</ele><time>2026-04-12T08:03:04Z</time></trkpt><trkpt lat="43.516737339199" lon="10.31732168848795"><ele>7.166666666666666</ele><time>2026-04-12T08:03:06Z</time></trkpt><trkpt lat="43.516697339640075" lon="10.317212861421401"><ele>6.333333333333333</ele><time>2026-04-12T08:03:09Z</time></trkpt><trkpt lat="43.51668909130973" lon="10.317090899580169"><ele>5.5</ele><time>2026-04-12T08:03:11Z</time></trkpt><trkpt lat="43.51667581163622" lon="10.316987565164558"><ele>4.666666666666666</ele><time>2026-04-12T08:03:13Z</time></trkpt><trkpt lat="43.51666100090975" lon="10.316890794730012"><ele>3.833333333333333</ele><time>2026-04-12T08:03:17Z</time></trkpt><trkpt lat="43.516659450485854" lon="10.316797634891612"><ele>3.0</ele><time>2026-04-12T08:03:20Z</time></trkpt><trkpt lat="43.51651738435925" lon="10.316796343052255"><ele>3.0</ele><time>2026-04-12T08:03:22Z</time></trkpt><trkpt lat="43.516421363341145" lon="10.316820515305709"><ele>3.0</ele><time>2026-04-12T08:03:24Z</time></trkpt><trkpt lat="43.5163248345174" lon="10.316833675357088"><ele>3.0</ele><time>2026-04-12T08:03:26Z</time></trkpt><trkpt lat="43.516217085041674" lon="10.316857697318438"><ele>3.0</ele><time>2026-04-12T08:03:28Z</time></trkpt><trkpt lat="43.516106250597375" lon="10.316876416052475"><ele>3.0</ele><time>2026-04-12T08:03:30Z</time></trkpt><trkpt lat="43.51599515867191" lon="10.316898061721885"><ele>2.75</ele><time>2026-04-12T08:03:31.999Z</time></trkpt><trkpt lat="43.515884823242416" lon="10.316915273493127"><ele>2.5</ele><time>2026-04-12T08:03:33.999Z</time></trkpt><trkpt lat="43.51576916611486" lon="10.316940392223536"><ele>2.25</ele><time>2026-04-12T08:03:35.999Z</time></trkpt><trkpt lat="43.51565542764879" lon="10.316960912872549"><ele>2.0</ele><time>2026-04-12T08:03:37.999Z</time></trkpt><trkpt lat="43.515540902925565" lon="10.31698408486399"><ele>2.0</ele><time>2026-04-12T08:03:39.999Z</time></trkpt><trkpt lat="43.51542680532609" lon="10.317007970996274"><ele>2.0</ele><time>2026-04-12T08:03:41.999Z</time></trkpt><trkpt lat="43.51530856181931" lon="10.317018985635475"><ele>2.0</ele><time>2026-04-12T08:03:43.999Z</time></trkpt><trkpt lat="43.51519009135812" lon="10.317037550519505"><ele>2.0</ele><time>2026-04-12T08:03:46Z</time></trkpt><trkpt lat="43.51507516295429" lon="10.317066548393631"><ele>2.0</ele><time>2026-04-12T08:03:48Z</time></trkpt><trkpt lat="43.51496274022557" lon="10.317120029359197"><ele>2.0</ele><time>2026-04-12T08:03:50Z</time></trkpt><trkpt lat="43.514863747822616" lon="10.317201424739686"><ele>2.0</ele><time>2026-04-12T08:03:52Z</time></trkpt><trkpt lat="43.514769606553216" lon="10.31729705255628"><ele>2.0</ele><time>2026-04-12T08:03:54Z</time></trkpt><trkpt lat="43.51468052597099" lon="10.317396992339585"><ele>3.0</ele><time>2026-04-12T08:03:56Z</time></trkpt><trkpt lat="43.51460079803391" lon="10.317511744279239"><ele>4.0</ele><time>2026-04-12T08:03:58Z</time></trkpt><trkpt lat="43.514520716669445" lon="10.317621860309634"><ele>5.0</ele><time>2026-04-12T08:04:00Z</time></trkpt><trkpt lat="43.51443676328754" lon="10.317728536546623"><ele>6.0</ele><time>2026-04-12T08:04:02Z</time></trkpt><trkpt lat="43.514353136674075" lon="10.317830329472871"><ele>6.0</ele><time>2026-04-12T08:04:04Z</time></trkpt><trkpt lat="43.514269144875946" lon="10.317938064374394"><ele>6.0</ele><time>2026-04-12T08:04:06Z</time></trkpt><trkpt lat="43.514186360189925" lon="10.318038564683858"><ele>6.0</ele><time>2026-04-12T08:04:08Z</time></trkpt><trkpt lat="43.51409576553987" lon="10.318135898100449"><ele>6.0</ele><time>2026-04-12T08:04:10Z</time></trkpt><trkpt lat="43.51401149523249" lon="10.31822780927028"><ele>6.0</ele><time>2026-04-12T08:04:12Z</time></trkpt><trkpt lat="43.513965273774225" lon="10.318292168320736"><ele>6.0</ele><time>2026-04-12T08:04:13Z</time></trkpt><trkpt lat="43.513867089211644" lon="10.318363306267118"><ele>6.0</ele><time>2026-04-12T08:04:15Z</time></trkpt><trkpt lat="43.51375283529348" lon="10.318401353384068"><ele>6.0</ele><time>2026-04-12T08:04:17Z</time></trkpt><trkpt lat="43.513639769826725" lon="10.318448211872711"><ele>6.0</ele><time>2026-04-12T08:04:19Z</time></trkpt><trkpt lat="43.51352465391388" lon="10.31846083823974"><ele>6.0</ele><time>2026-04-12T08:04:21Z</time></trkpt><trkpt lat="43.51340787185559" lon="10.3184463177184"><ele>6.0</ele><time>2026-04-12T08:04:23Z</time></trkpt><trkpt lat="43.51329662690675" lon="10.318423723259121"><ele>6.0</ele><time>2026-04-12T08:04:25Z</time></trkpt><trkpt lat="43.51318255849887" lon="10.318384417414665"><ele>6.0</ele><time>2026-04-12T08:04:27Z</time></trkpt><trkpt lat="43.513070624296866" lon="10.318341293543245"><ele>6.0</ele><time>2026-04-12T08:04:29Z</time></trkpt><trkpt lat="43.512957884401175" lon="10.318288637947813"><ele>6.0</ele><time>2026-04-12T08:04:31Z</time></trkpt><trkpt lat="43.5128442901435" lon="10.318216272364348"><ele>6.0</ele><time>2026-04-12T08:04:33Z</time></trkpt><trkpt lat="43.512783281896986" lon="10.318182816003779"><ele>6.0</ele><time>2026-04-12T08:04:34Z</time></trkpt><trkpt lat="43.51266212478447" lon="10.318136844818314"><ele>6.0</ele><time>2026-04-12T08:04:36Z</time></trkpt><trkpt lat="43.512542882885995" lon="10.318114960621939"><ele>6.0</ele><time>2026-04-12T08:04:38Z</time></trkpt><trkpt lat="43.51248224428581" lon="10.318149978666563"><ele>6.0</ele><time>2026-04-12T08:04:39Z</time></trkpt><trkpt lat="43.512431839446656" lon="10.318211953204857"><ele>6.0</ele><time>2026-04-12T08:04:40Z</time></trkpt><trkpt lat="43.512393758931346" lon="10.318284410258226"><ele>6.0</ele><time>2026-04-12T08:04:41Z</time></trkpt><trkpt lat="43.51236940784331" lon="10.3183670674147"><ele>6.0</ele><time>2026-04-12T08:04:42Z</time></trkpt><trkpt lat="43.512286200648724" lon="10.318504235466719"><ele>6.0</ele><time>2026-04-12T08:04:44Z</time></trkpt><trkpt lat="43.51219813035455" lon="10.31863356179212"><ele>6.0</ele><time>2026-04-12T08:04:46Z</time></trkpt><trkpt lat="43.5121527329412" lon="10.318697062519039"><ele>6.0</ele><time>2026-04-12T08:04:47Z</time></trkpt><trkpt lat="43.51210922271664" lon="10.318761111350598"><ele>6.0</ele><time>2026-04-12T08:04:48Z</time></trkpt><trkpt lat="43.51205998307905" lon="10.318823303958139"><ele>6.0</ele><time>2026-04-12T08:04:49Z</time></trkpt><trkpt lat="43.51197058617485" lon="10.318949894005055"><ele>6.0</ele><time>2026-04-12T08:04:51Z</time></trkpt><trkpt lat="43.511886713911345" lon="10.319033030092637"><ele>6.0</ele><time>2026-04-12T08:04:53Z</time></trkpt><trkpt lat="43.51184685873589" lon="10.31910708710667"><ele>5.0</ele><time>2026-04-12T08:04:54Z</time></trkpt><trkpt lat="43.51177001873659" lon="10.319214690094588"><ele>3.9999999999999996</ele><time>2026-04-12T08:04:56Z</time></trkpt><trkpt lat="43.511682346328605" lon="10.31932031005363"><ele>3.0</ele><time>2026-04-12T08:04:58Z</time></trkpt><trkpt lat="43.51160036168973" lon="10.319411875602992"><ele>2.0</ele><time>2026-04-12T08:05:00Z</time></trkpt><trkpt lat="43.51149288412897" lon="10.319478321169369"><ele>1.0</ele><time>2026-04-12T08:05:02Z</time></trkpt><trkpt lat="43.51137959890261" lon="10.319508585291322"><ele>1.0</ele><time>2026-04-12T08:05:04Z</time></trkpt><trkpt lat="43.5112602142067" lon="10.319488918075164"><ele>1.0</ele><time>2026-04-12T08:05:06Z</time></trkpt><trkpt lat="43.51115136713853" lon="10.319447052812237"><ele>1.0</ele><time>2026-04-12T08:05:08Z</time></trkpt><trkpt lat="43.511039458939116" lon="10.319395502173945"><ele>1.0</ele><time>2026-04-12T08:05:10Z</time></trkpt><trkpt lat="43.51092700190217" lon="10.319347711417626"><ele>1.0</ele><time>2026-04-12T08:05:12Z</time></trkpt><trkpt lat="43.51080753877227" lon="10.319299226483855"><ele>1.0</ele><time>2026-04-12T08:05:14Z</time></trkpt><trkpt lat="43.510687888227224" lon="10.319246031104012"><ele>1.0</ele><time>2026-04-12T08:05:16Z</time></trkpt><trkpt lat="43.51062708182931" lon="10.319214996132496"><ele>1.0</ele><time>2026-04-12T08:05:17Z</time></trkpt><trkpt lat="43.51056913915441" lon="10.319177434969319"><ele>1.0</ele><time>2026-04-12T08:05:18Z</time></trkpt><trkpt lat="43.51045384253546" lon="10.319125689820988"><ele>1.5</ele><time>2026-04-12T08:05:20Z</time></trkpt><trkpt lat="43.510338403761054" lon="10.319109111067212"><ele>2.0</ele><time>2026-04-12T08:05:22Z</time></trkpt><trkpt lat="43.51021801441577" lon="10.319118189254363"><ele>2.5</ele><time>2026-04-12T08:05:24Z</time></trkpt><trkpt lat="43.51010368212124" lon="10.3191204196446"><ele>3.0</ele><time>2026-04-12T08:05:26Z</time></trkpt><trkpt lat="43.50999010129994" lon="10.319133721130923"><ele>3.0</ele><time>2026-04-12T08:05:27.999Z</time></trkpt><trkpt lat="43.50987780531653" lon="10.319157440568631"><ele>3.0</ele><time>2026-04-12T08:05:29.999Z</time></trkpt><trkpt lat="43.50976833549171" lon="10.319172911044618"><ele>3.0</ele><time>2026-04-12T08:05:31.999Z</time></trkpt><trkpt lat="43.50965684197379" lon="10.319190620238773"><ele>3.0</ele><time>2026-04-12T08:05:33.999Z</time></trkpt><trkpt lat="43.5095424087644" lon="10.319219511481933"><ele>3.5</ele><time>2026-04-12T08:05:35.999Z</time></trkpt><trkpt lat="43.50943232354628" lon="10.319242268015072"><ele>4.0</ele><time>2026-04-12T08:05:37.999Z</time></trkpt><trkpt lat="43.509319698113195" lon="10.319263809170184"><ele>4.5</ele><time>2026-04-12T08:05:39.999Z</time></trkpt><trkpt lat="43.509207408997" lon="10.319287515531302"><ele>5.0</ele><time>2026-04-12T08:05:41.999Z</time></trkpt><trkpt lat="43.50909670855797" lon="10.319317023427015"><ele>5.0</ele><time>2026-04-12T08:05:43.999Z</time></trkpt><trkpt lat="43.50898562919989" lon="10.319349063257423"><ele>5.0</ele><time>2026-04-12T08:05:45.999Z</time></trkpt><trkpt lat="43.508877248679994" lon="10.319369411040304"><ele>5.0</ele><time>2026-04-12T08:05:47.999Z</time></trkpt><trkpt lat="43.50876699400507" lon="10.319390085205212"><ele>5.0</ele><time>2026-04-12T08:05:49.999Z</time></trkpt><trkpt lat="43.50865700038923" lon="10.319427458701648"><ele>5.0</ele><time>2026-04-12T08:05:52Z</time></trkpt><trkpt lat="43.50855082241155" lon="10.319461927355745"><ele>4.8</ele><time>2026-04-12T08:05:54Z</time></trkpt><trkpt lat="43.50844564672498" lon="10.319489502352614"><ele>4.6</ele><time>2026-04-12T08:05:56Z</time></trkpt><trkpt lat="43.50833752634726" lon="10.319513086721011"><ele>4.4</ele><time>2026-04-12T08:05:58Z</time></trkpt><trkpt lat="43.508228767686525" lon="10.319537102962666"><ele>4.2</ele><time>2026-04-12T08:06:00Z</time></trkpt><trkpt lat="43.50812108350683" lon="10.319544589716346"><ele>4.0</ele><time>2026-04-12T08:06:02Z</time></trkpt><trkpt lat="43.508009018047915" lon="10.319567367849851"><ele>3.25</ele><time>2026-04-12T08:06:04Z</time></trkpt><trkpt lat="43.50790017169283" lon="10.319591627609228"><ele>2.5</ele><time>2026-04-12T08:06:06Z</time></trkpt><trkpt lat="43.50779248281966" lon="10.319623734378073"><ele>1.75</ele><time>2026-04-12T08:06:08Z</time></trkpt><trkpt lat="43.507680929622296" lon="10.3196571992876"><ele>1.0</ele><time>2026-04-12T08:06:10Z</time></trkpt><trkpt lat="43.50756542127444" lon="10.319692054808774"><ele>1.0</ele><time>2026-04-12T08:06:12Z</time></trkpt><trkpt lat="43.50745525029677" lon="10.319717214144848"><ele>1.0</ele><time>2026-04-12T08:06:14Z</time></trkpt><trkpt lat="43.50733853444584" lon="10.319736794189556"><ele>1.0</ele><time>2026-04-12T08:06:16Z</time></trkpt><trkpt lat="43.50722548293481" lon="10.31976716721484"><ele>1.0</ele><time>2026-04-12T08:06:18Z</time></trkpt><trkpt lat="43.507113917833315" lon="10.319798210526983"><ele>2.25</ele><time>2026-04-12T08:06:20Z</time></trkpt><trkpt lat="43.50700116834258" lon="10.31982565810623"><ele>3.5</ele><time>2026-04-12T08:06:22Z</time></trkpt><trkpt lat="43.50688881410668" lon="10.319849172584146"><ele>4.75</ele><time>2026-04-12T08:06:24Z</time></trkpt><trkpt lat="43.506776105237364" lon="10.31988108455108"><ele>6.0</ele><time>2026-04-12T08:06:26Z</time></trkpt><trkpt lat="43.506663820568356" lon="10.319907748775734"><ele>6.0</ele><time>2026-04-12T08:06:28Z</time></trkpt><trkpt lat="43.50655018862018" lon="10.319929124050017"><ele>6.0</ele><time>2026-04-12T08:06:30Z</time></trkpt><trkpt lat="43.50644006268252" lon="10.319945794720859"><ele>6.0</ele><time>2026-04-12T08:06:32Z</time></trkpt><trkpt lat="43.50633063706428" lon="10.319968952212944"><ele>6.0</ele><time>2026-04-12T08:06:34Z</time></trkpt><trkpt lat="43.50621709188606" lon="10.319996867943976"><ele>5.3999999999999995</ele><time>2026-04-12T08:06:36Z</time></trkpt><trkpt lat="43.5061081623201" lon="10.320028820420966"><ele>4.8</ele><time>2026-04-12T08:06:38Z</time></trkpt><trkpt lat="43.50599814653457" lon="10.320049861677443"><ele>4.199999999999999</ele><time>2026-04-12T08:06:40Z</time></trkpt><trkpt lat="43.50588533469643" lon="10.320073311108887"><ele>3.5999999999999996</ele><time>2026-04-12T08:06:42Z</time></trkpt><trkpt lat="43.505775592709334" lon="10.320107735268248"><ele>3.0</ele><time>2026-04-12T08:06:44Z</time></trkpt><trkpt lat="43.50566480318094" lon="10.320142100066427"><ele>3.0</ele><time>2026-04-12T08:06:46Z</time></trkpt><trkpt lat="43.50555714555988" lon="10.320172635800802"><ele>3.0</ele><time>2026-04-12T08:06:48Z</time></trkpt><trkpt lat="43.50544607885904" lon="10.320200215247327"><ele>3.0</ele><time>2026-04-12T08:06:50Z</time></trkpt><trkpt lat="43.50533203656732" lon="10.320224210888595"><ele>3.0</ele><time>2026-04-12T08:06:52Z</time></trkpt><trkpt lat="43.505224120713635" lon="10.320245820415815"><ele>3.0</ele><time>2026-04-12T08:06:54Z</time></trkpt><trkpt lat="43.5051113938538" lon="10.32026728819478"><ele>3.0</ele><time>2026-04-12T08:06:56Z</time></trkpt><trkpt lat="43.50499844113511" lon="10.320291418050916"><ele>3.0</ele><time>2026-04-12T08:06:58Z</time></trkpt><trkpt lat="43.50489053359804" lon="10.32031515776779"><ele>3.0</ele><time>2026-04-12T08:07:00Z</time></trkpt><trkpt lat="43.5047816312958" lon="10.320343909583299"><ele>3.0</ele><time>2026-04-12T08:07:02Z</time></trkpt><trkpt lat="43.504674389478325" lon="10.320374771710814"><ele>3.0</ele><time>2026-04-12T08:07:04Z</time></trkpt><trkpt lat="43.50456785095429" lon="10.32040474408973"><ele>3.0</ele><time>2026-04-12T08:07:06Z</time></trkpt><trkpt lat="43.50445900676807" lon="10.32042104941475"><ele>3.0</ele><time>2026-04-12T08:07:08Z</time></trkpt><trkpt lat="43.50435017482342" lon="10.3204429164327"><ele>3.0</ele><time>2026-04-12T08:07:10Z</time></trkpt><trkpt lat="43.50424304670599" lon="10.320465509397454"><ele>3.0</ele><time>2026-04-12T08:07:12Z</time></trkpt><trkpt lat="43.5041364931183" lon="10.320492791506963"><ele>3.0</ele><time>2026-04-12T08:07:14Z</time></trkpt><trkpt lat="43.50402841157197" lon="10.320522577658751"><ele>3.0</ele><time>2026-04-12T08:07:16Z</time></trkpt><trkpt lat="43.50392151970243" lon="10.320549289913743"><ele>3.0</ele><time>2026-04-12T08:07:18Z</time></trkpt><trkpt lat="43.503813812606225" lon="10.32057609029681"><ele>3.0</ele><time>2026-04-12T08:07:20Z</time></trkpt><trkpt lat="43.503706922140296" lon="10.320598234650927"><ele>3.0</ele><time>2026-04-12T08:07:22Z</time></trkpt><trkpt lat="43.5036021032708" lon="10.320629436061674"><ele>3.0</ele><time>2026-04-12T08:07:24Z</time></trkpt><trkpt lat="43.503493107386596" lon="10.320658976210508"><ele>4.2</ele><time>2026-04-12T08:07:26Z</time></trkpt><trkpt lat="43.50338520558356" lon="10.320674492321022"><ele>5.4</ele><time>2026-04-12T08:07:28Z</time></trkpt><trkpt lat="43.50327178254204" lon="10.320702559731226"><ele>6.6000000000000005</ele><time>2026-04-12T08:07:30Z</time></trkpt><trkpt lat="43.50316368521597" lon="10.32073044706313"><ele>7.8</ele><time>2026-04-12T08:07:32Z</time></trkpt><trkpt lat="43.503053915652714" lon="10.320761195303175"><ele>9.0</ele><time>2026-04-12T08:07:34Z</time></trkpt><trkpt lat="43.50294525530295" lon="10.320796168846446"><ele>8.6</ele><time>2026-04-12T08:07:36Z</time></trkpt><trkpt lat="43.502836140234784" lon="10.320816038516941"><ele>8.2</ele><time>2026-04-12T08:07:38Z</time></trkpt><trkpt lat="43.502725545692925" lon="10.320837871138073"><ele>7.799999999999999</ele><time>2026-04-12T08:07:40Z</time></trkpt><trkpt lat="43.502615096356195" lon="10.320856942108792"><ele>7.3999999999999995</ele><time>2026-04-12T08:07:42Z</time></trkpt><trkpt lat="43.50250545656452" lon="10.320894408937674"><ele>7.0</ele><time>2026-04-12T08:07:44Z</time></trkpt><trkpt lat="43.50239282219928" lon="10.320928028374333"><ele>7.0</ele><time>2026-04-12T08:07:46Z</time></trkpt><trkpt lat="43.50228376498524" lon="10.320954923905322"><ele>6.999999999999999</ele><time>2026-04-12T08:07:48Z</time></trkpt><trkpt lat="43.50217238837201" lon="10.320983981841975"><ele>6.999999999999999</ele><time>2026-04-12T08:07:50Z</time></trkpt><trkpt lat="43.50206191905985" lon="10.321003177306357"><ele>7.0</ele><time>2026-04-12T08:07:51.999Z</time></trkpt><trkpt lat="43.50195077953376" lon="10.321035297131353"><ele>7.0</ele><time>2026-04-12T08:07:53.999Z</time></trkpt><trkpt lat="43.501838595120056" lon="10.321055596627847"><ele>7.0</ele><time>2026-04-12T08:07:55.999Z</time></trkpt><trkpt lat="43.50172479523196" lon="10.321082181774393"><ele>7.0</ele><time>2026-04-12T08:07:58Z</time></trkpt><trkpt lat="43.50161615818584" lon="10.321108162401629"><ele>7.0</ele><time>2026-04-12T08:08:00Z</time></trkpt><trkpt lat="43.50150536141958" lon="10.321137590053075"><ele>7.0</ele><time>2026-04-12T08:08:02Z</time></trkpt><trkpt lat="43.50139335097675" lon="10.321168345652358"><ele>7.0</ele><time>2026-04-12T08:08:04Z</time></trkpt><trkpt lat="43.5012853663852" lon="10.32118547846079"><ele>7.0</ele><time>2026-04-12T08:08:06Z</time></trkpt><trkpt lat="43.50117252786757" lon="10.32118955332875"><ele>7.0</ele><time>2026-04-12T08:08:08Z</time></trkpt><trkpt lat="43.50106020760185" lon="10.321225466530622"><ele>7.0</ele><time>2026-04-12T08:08:10Z</time></trkpt><trkpt lat="43.5009466433182" lon="10.32126160695245"><ele>7.5</ele><time>2026-04-12T08:08:12Z</time></trkpt><trkpt lat="43.50083516192293" lon="10.321289013412875"><ele>8.0</ele><time>2026-04-12T08:08:14Z</time></trkpt><trkpt lat="43.5007236598176" lon="10.321321937765182"><ele>8.5</ele><time>2026-04-12T08:08:16Z</time></trkpt><trkpt lat="43.500609272623315" lon="10.321358514121803"><ele>9.0</ele><time>2026-04-12T08:08:18Z</time></trkpt><trkpt lat="43.50049484074552" lon="10.321396006775075"><ele>9.2</ele><time>2026-04-12T08:08:20Z</time></trkpt><trkpt lat="43.50037984628405" lon="10.321451111135467"><ele>9.4</ele><time>2026-04-12T08:08:22Z</time></trkpt><trkpt lat="43.50026455688894" lon="10.321497762099016"><ele>9.6</ele><time>2026-04-12T08:08:24Z</time></trkpt><trkpt lat="43.500201884970295" lon="10.321519483000419"><ele>9.8</ele><time>2026-04-12T08:08:25Z</time></trkpt><trkpt lat="43.500140884178535" lon="10.321548410437781"><ele>10.0</ele><time>2026-04-12T08:08:26Z</time></trkpt><trkpt lat="43.500019146664336" lon="10.321570531678947"><ele>10.0</ele><time>2026-04-12T08:08:28Z</time></trkpt><trkpt lat="43.49995656647148" lon="10.321590157900264"><ele>10.0</ele><time>2026-04-12T08:08:29Z</time></trkpt><trkpt lat="43.49989125259065" lon="10.321622022683776"><ele>10.0</ele><time>2026-04-12T08:08:30Z</time></trkpt><trkpt lat="43.49977266864083" lon="10.32165830199525"><ele>10.0</ele><time>2026-04-12T08:08:32Z</time></trkpt><trkpt lat="43.499711021751" lon="10.321679242112605"><ele>10.0</ele><time>2026-04-12T08:08:33Z</time></trkpt><trkpt lat="43.49959332033312" lon="10.321719702279617"><ele>10.0</ele><time>2026-04-12T08:08:35Z</time></trkpt><trkpt lat="43.49947895222058" lon="10.32175420638117"><ele>9.75</ele><time>2026-04-12T08:08:37Z</time></trkpt><trkpt lat="43.499362582288086" lon="10.321799102423068"><ele>9.5</ele><time>2026-04-12T08:08:39Z</time></trkpt><trkpt lat="43.49924586304508" lon="10.321837243694533"><ele>9.25</ele><time>2026-04-12T08:08:41Z</time></trkpt><trkpt lat="43.499125494728275" lon="10.321874143530367"><ele>9.0</ele><time>2026-04-12T08:08:43Z</time></trkpt><trkpt lat="43.49900652926368" lon="10.321915253745077"><ele>9.000000000000002</ele><time>2026-04-12T08:08:45Z</time></trkpt><trkpt lat="43.498886585772084" lon="10.321953277594451"><ele>9.0</ele><time>2026-04-12T08:08:47Z</time></trkpt><trkpt lat="43.4988247921072" lon="10.321978271625428"><ele>9.0</ele><time>2026-04-12T08:08:48Z</time></trkpt><trkpt lat="43.498763317302334" lon="10.321998058963548"><ele>9.0</ele><time>2026-04-12T08:08:49Z</time></trkpt><trkpt lat="43.498700476058886" lon="10.322016980366845"><ele>9.0</ele><time>2026-04-12T08:08:50Z</time></trkpt><trkpt lat="43.49863884810101" lon="10.322036145504205"><ele>9.000000000000002</ele><time>2026-04-12T08:08:51Z</time></trkpt><trkpt lat="43.49857416310649" lon="10.322067772862015"><ele>9.0</ele><time>2026-04-12T08:08:52Z</time></trkpt><trkpt lat="43.49845658443976" lon="10.322100846980495"><ele>8.75</ele><time>2026-04-12T08:08:54Z</time></trkpt><trkpt lat="43.498332850940564" lon="10.322141948209065"><ele>8.5</ele><time>2026-04-12T08:08:56Z</time></trkpt><trkpt lat="43.498216015559095" lon="10.322180830114682"><ele>8.25</ele><time>2026-04-12T08:08:58Z</time></trkpt><trkpt lat="43.49809656505943" lon="10.322215337187867"><ele>8.0</ele><time>2026-04-12T08:09:00Z</time></trkpt><trkpt lat="43.49797809763962" lon="10.322240761066189"><ele>8.25</ele><time>2026-04-12T08:09:02Z</time></trkpt><trkpt lat="43.49786656229404" lon="10.32227313227194"><ele>8.5</ele><time>2026-04-12T08:09:04Z</time></trkpt><trkpt lat="43.497749772454554" lon="10.322303579590374"><ele>8.75</ele><time>2026-04-12T08:09:06Z</time></trkpt><trkpt lat="43.49763919917456" lon="10.322344184006482"><ele>9.0</ele><time>2026-04-12T08:09:08Z</time></trkpt><trkpt lat="43.49753229294529" lon="10.322381083168823"><ele>9.0</ele><time>2026-04-12T08:09:10Z</time></trkpt><trkpt lat="43.497428254671604" lon="10.322412475492758"><ele>9.0</ele><time>2026-04-12T08:09:12Z</time></trkpt><trkpt lat="43.4973250667409" lon="10.322452498176164"><ele>9.0</ele><time>2026-04-12T08:09:14Z</time></trkpt><trkpt lat="43.497211492978174" lon="10.322501979896211"><ele>9.0</ele><time>2026-04-12T08:09:16Z</time></trkpt><trkpt lat="43.497101456713324" lon="10.322573881073973"><ele>7.8</ele><time>2026-04-12T08:09:18Z</time></trkpt><trkpt lat="43.496990614429535" lon="10.322648317336732"><ele>6.6000000000000005</ele><time>2026-04-12T08:09:20Z</time></trkpt><trkpt lat="43.496884349552325" lon="10.32274559859191"><ele>5.4</ele><time>2026-04-12T08:09:22Z</time></trkpt><trkpt lat="43.496827387757804" lon="10.322793139740934"><ele>4.2</ele><time>2026-04-12T08:09:23Z</time></trkpt><trkpt lat="43.49677085577193" lon="10.322847690760694"><ele>3.0</ele><time>2026-04-12T08:09:24Z</time></trkpt><trkpt lat="43.496714987325845" lon="10.322897268456986"><ele>2.9999999999999996</ele><time>2026-04-12T08:09:25Z</time></trkpt><trkpt lat="43.49665719131212" lon="10.322948026940947"><ele>3.0</ele><time>2026-04-12T08:09:26Z</time></trkpt><trkpt lat="43.49659945949069" lon="10.32299664731501"><ele>3.0</ele><time>2026-04-12T08:09:27Z</time></trkpt><trkpt lat="43.49654142347389" lon="10.323048860821855"><ele>3.0</ele><time>2026-04-12T08:09:28Z</time></trkpt><trkpt lat="43.49648347975939" lon="10.32309903846437"><ele>3.0</ele><time>2026-04-12T08:09:29Z</time></trkpt><trkpt lat="43.4964283786376" lon="10.323144827776936"><ele>2.9999999999999996</ele><time>2026-04-12T08:09:30Z</time></trkpt><trkpt lat="43.49637307717904" lon="10.323188942162965"><ele>3.0</ele><time>2026-04-12T08:09:31Z</time></trkpt><trkpt lat="43.49626738306762" lon="10.323278294259481"><ele>4.0</ele><time>2026-04-12T08:09:33Z</time></trkpt><trkpt lat="43.4961590741186" lon="10.323355843282318"><ele>5.0</ele><time>2026-04-12T08:09:35Z</time></trkpt><trkpt lat="43.496047382145235" lon="10.32341775758956"><ele>6.0</ele><time>2026-04-12T08:09:37Z</time></trkpt><trkpt lat="43.49593521231507" lon="10.323462069761357"><ele>7.0</ele><time>2026-04-12T08:09:39Z</time></trkpt><trkpt lat="43.495817160927665" lon="10.323478218784029"><ele>7.0</ele><time>2026-04-12T08:09:41Z</time></trkpt><trkpt lat="43.495699530074184" lon="10.323485041399406"><ele>7.0</ele><time>2026-04-12T08:09:43Z</time></trkpt><trkpt lat="43.49557971056694" lon="10.323492461605134"><ele>7.0</ele><time>2026-04-12T08:09:45Z</time></trkpt><trkpt lat="43.495466156747234" lon="10.32349779032621"><ele>7.0</ele><time>2026-04-12T08:09:47Z</time></trkpt><trkpt lat="43.49535621723559" lon="10.323502445015931"><ele>6.0</ele><time>2026-04-12T08:09:49Z</time></trkpt><trkpt lat="43.49524255787866" lon="10.323514866209226"><ele>5.0</ele><time>2026-04-12T08:09:51Z</time></trkpt><trkpt lat="43.495129857366685" lon="10.32353118287732"><ele>4.0</ele><time>2026-04-12T08:09:53Z</time></trkpt><trkpt lat="43.49501707681825" lon="10.323557992873575"><ele>3.0</ele><time>2026-04-12T08:09:54.999Z</time></trkpt><trkpt lat="43.49490336260835" lon="10.323598879985946"><ele>3.0</ele><time>2026-04-12T08:09:56.999Z</time></trkpt><trkpt lat="43.494786091404755" lon="10.323632313161642"><ele>3.0</ele><time>2026-04-12T08:09:58.999Z</time></trkpt><trkpt lat="43.49467208877612" lon="10.32367458102981"><ele>3.0</ele><time>2026-04-12T08:10:00.999Z</time></trkpt><trkpt lat="43.49455637179031" lon="10.323707272843514"><ele>3.0</ele><time>2026-04-12T08:10:03Z</time></trkpt><trkpt lat="43.49444355602399" lon="10.323756253391736"><ele>2.5</ele><time>2026-04-12T08:10:05Z</time></trkpt><trkpt lat="43.49433357294748" lon="10.323818042806968"><ele>2.0</ele><time>2026-04-12T08:10:07Z</time></trkpt><trkpt lat="43.49423453538843" lon="10.32388575943547"><ele>1.5</ele><time>2026-04-12T08:10:09Z</time></trkpt><trkpt lat="43.49413875774473" lon="10.323963321698757"><ele>1.0</ele><time>2026-04-12T08:10:11Z</time></trkpt><trkpt lat="43.494046746161985" lon="10.324046125671993"><ele>1.6</ele><time>2026-04-12T08:10:13Z</time></trkpt><trkpt lat="43.4939540714758" lon="10.324127186858847"><ele>2.2</ele><time>2026-04-12T08:10:15Z</time></trkpt><trkpt lat="43.49386033477784" lon="10.32421776752944"><ele>2.8000000000000003</ele><time>2026-04-12T08:10:17Z</time></trkpt><trkpt lat="43.49377445275577" lon="10.32431061579146"><ele>3.4000000000000004</ele><time>2026-04-12T08:10:19Z</time></trkpt><trkpt lat="43.49368226863008" lon="10.324399036021342"><ele>4.0</ele><time>2026-04-12T08:10:21Z</time></trkpt><trkpt lat="43.49358914454553" lon="10.324489873292444"><ele>4.0</ele><time>2026-04-12T08:10:23Z</time></trkpt><trkpt lat="43.493493752461895" lon="10.324565949916234"><ele>4.0</ele><time>2026-04-12T08:10:25Z</time></trkpt><trkpt lat="43.49340100315275" lon="10.32464805300202"><ele>4.0</ele><time>2026-04-12T08:10:27Z</time></trkpt><trkpt lat="43.49331157246812" lon="10.324729594605206"><ele>4.0</ele><time>2026-04-12T08:10:29Z</time></trkpt><trkpt lat="43.49321900789561" lon="10.324810879175345"><ele>4.0</ele><time>2026-04-12T08:10:31Z</time></trkpt><trkpt lat="43.49312720007592" lon="10.324890684191374"><ele>4.5</ele><time>2026-04-12T08:10:33Z</time></trkpt><trkpt lat="43.49302387575742" lon="10.324942075445222"><ele>5.0</ele><time>2026-04-12T08:10:35Z</time></trkpt><trkpt lat="43.492914376386395" lon="10.324982278330362"><ele>5.5</ele><time>2026-04-12T08:10:37Z</time></trkpt><trkpt lat="43.49280693199191" lon="10.325023365621307"><ele>6.0</ele><time>2026-04-12T08:10:39Z</time></trkpt><trkpt lat="43.49269426514669" lon="10.325057055977567"><ele>6.0</ele><time>2026-04-12T08:10:41Z</time></trkpt><trkpt lat="43.492581710244046" lon="10.325093312631237"><ele>6.0</ele><time>2026-04-12T08:10:43Z</time></trkpt><trkpt lat="43.492469420247424" lon="10.325134724173648"><ele>6.0</ele><time>2026-04-12T08:10:45Z</time></trkpt><trkpt lat="43.49236299794268" lon="10.325173185511916"><ele>6.0</ele><time>2026-04-12T08:10:47Z</time></trkpt><trkpt lat="43.492251556486394" lon="10.325203821138778"><ele>6.0</ele><time>2026-04-12T08:10:49Z</time></trkpt><trkpt lat="43.49214063923711" lon="10.325236414774265"><ele>6.0</ele><time>2026-04-12T08:10:51Z</time></trkpt><trkpt lat="43.492030192860256" lon="10.325276523655129"><ele>6.0</ele><time>2026-04-12T08:10:53Z</time></trkpt><trkpt lat="43.49191599791374" lon="10.32532176531769"><ele>6.0</ele><time>2026-04-12T08:10:55Z</time></trkpt><trkpt lat="43.491802421483314" lon="10.325363927630386"><ele>6.75</ele><time>2026-04-12T08:10:57Z</time></trkpt><trkpt lat="43.49168941089305" lon="10.325408340331846"><ele>7.5</ele><time>2026-04-12T08:10:59Z</time></trkpt><trkpt lat="43.49157436859999" lon="10.325444421080055"><ele>8.25</ele><time>2026-04-12T08:11:01Z</time></trkpt><trkpt lat="43.49145234607314" lon="10.32547067054472"><ele>9.0</ele><time>2026-04-12T08:11:03Z</time></trkpt><trkpt lat="43.491339882063585" lon="10.325520486939705"><ele>8.75</ele><time>2026-04-12T08:11:05Z</time></trkpt><trkpt lat="43.49122340883882" lon="10.325574543828129"><ele>8.5</ele><time>2026-04-12T08:11:07Z</time></trkpt><trkpt lat="43.491110530906376" lon="10.325642641935834"><ele>8.25</ele><time>2026-04-12T08:11:09Z</time></trkpt><trkpt lat="43.49101147729005" lon="10.325733546981422"><ele>8.0</ele><time>2026-04-12T08:11:11Z</time></trkpt><trkpt lat="43.49092025664158" lon="10.325835258872047"><ele>8.0</ele><time>2026-04-12T08:11:13Z</time></trkpt><trkpt lat="43.49082831620233" lon="10.325924127853158"><ele>8.0</ele><time>2026-04-12T08:11:15Z</time></trkpt><trkpt lat="43.4907420116882" lon="10.326025292833286"><ele>8.0</ele><time>2026-04-12T08:11:17Z</time></trkpt><trkpt lat="43.490659656820355" lon="10.32613214664796"><ele>8.0</ele><time>2026-04-12T08:11:19Z</time></trkpt><trkpt lat="43.490592893032314" lon="10.326250881431221"><ele>8.0</ele><time>2026-04-12T08:11:21Z</time></trkpt><trkpt lat="43.49053841807133" lon="10.32638303734749"><ele>8.5</ele><time>2026-04-12T08:11:23Z</time></trkpt><trkpt lat="43.49049043628558" lon="10.32651970195199"><ele>9.0</ele><time>2026-04-12T08:11:25Z</time></trkpt><trkpt lat="43.49043694211794" lon="10.326661190846183"><ele>9.5</ele><time>2026-04-12T08:11:27Z</time></trkpt><trkpt lat="43.49038190991252" lon="10.32679932581644"><ele>10.0</ele><time>2026-04-12T08:11:29Z</time></trkpt><trkpt lat="43.4903318264885" lon="10.326941240774858"><ele>10.0</ele><time>2026-04-12T08:11:31Z</time></trkpt><trkpt lat="43.49027296086487" lon="10.32707564781901"><ele>10.0</ele><time>2026-04-12T08:11:33Z</time></trkpt><trkpt lat="43.490220247585974" lon="10.327213058589539"><ele>10.0</ele><time>2026-04-12T08:11:35Z</time></trkpt><trkpt lat="43.490166914609986" lon="10.327351402077888"><ele>10.0</ele><time>2026-04-12T08:11:37Z</time></trkpt><trkpt lat="43.49011274159655" lon="10.327482558606564"><ele>10.8</ele><time>2026-04-12T08:11:39Z</time></trkpt><trkpt lat="43.49006207857521" lon="10.327616960618835"><ele>11.6</ele><time>2026-04-12T08:11:41Z</time></trkpt><trkpt lat="43.49000902104572" lon="10.327751205197675"><ele>12.399999999999999</ele><time>2026-04-12T08:11:43Z</time></trkpt><trkpt lat="43.48995945734087" lon="10.327889788331929"><ele>13.2</ele><time>2026-04-12T08:11:45Z</time></trkpt><trkpt lat="43.489916106784015" lon="10.328025072998686"><ele>14.0</ele><time>2026-04-12T08:11:47Z</time></trkpt><trkpt lat="43.48986510917429" lon="10.328155745260439"><ele>14.6</ele><time>2026-04-12T08:11:49Z</time></trkpt><trkpt lat="43.489815214684796" lon="10.328283770280615"><ele>15.2</ele><time>2026-04-12T08:11:51Z</time></trkpt><trkpt lat="43.4897650336729" lon="10.328405149399426"><ele>15.799999999999999</ele><time>2026-04-12T08:11:53Z</time></trkpt><trkpt lat="43.48972490909473" lon="10.32854105089048"><ele>16.4</ele><time>2026-04-12T08:11:55Z</time></trkpt><trkpt lat="43.489673516547754" lon="10.328659449251441"><ele>17.0</ele><time>2026-04-12T08:11:57Z</time></trkpt><trkpt lat="43.4896311726418" lon="10.328788294449275"><ele>16.6</ele><time>2026-04-12T08:11:59Z</time></trkpt><trkpt lat="43.48958039309386" lon="10.328912376767617"><ele>16.2</ele><time>2026-04-12T08:12:01Z</time></trkpt><trkpt lat="43.48953083864315" lon="10.329029994258969"><ele>15.8</ele><time>2026-04-12T08:12:03Z</time></trkpt><trkpt lat="43.48947281881268" lon="10.32914754943901"><ele>15.4</ele><time>2026-04-12T08:12:05Z</time></trkpt><trkpt lat="43.48939979225193" lon="10.329245827013382"><ele>15.0</ele><time>2026-04-12T08:12:07Z</time></trkpt><trkpt lat="43.48931183960108" lon="10.329333383112685"><ele>15.0</ele><time>2026-04-12T08:12:09Z</time></trkpt><trkpt lat="43.48921528575015" lon="10.329399815584352"><ele>15.0</ele><time>2026-04-12T08:12:11Z</time></trkpt><trkpt lat="43.48911645844913" lon="10.329464813174809"><ele>15.0</ele><time>2026-04-12T08:12:13Z</time></trkpt><trkpt lat="43.48901719903452" lon="10.329526561616934"><ele>15.0</ele><time>2026-04-12T08:12:15Z</time></trkpt><trkpt lat="43.48891713905305" lon="10.329590721478809"><ele>15.0</ele><time>2026-04-12T08:12:17Z</time></trkpt><trkpt lat="43.48881589919723" lon="10.32964308067808"><ele>15.6</ele><time>2026-04-12T08:12:19Z</time></trkpt><trkpt lat="43.488717926123954" lon="10.329696926570177"><ele>16.2</ele><time>2026-04-12T08:12:21Z</time></trkpt><trkpt lat="43.48862038753141" lon="10.329752305052677"><ele>16.8</ele><time>2026-04-12T08:12:23Z</time></trkpt><trkpt lat="43.48852115079105" lon="10.329802648403412"><ele>17.4</ele><time>2026-04-12T08:12:25Z</time></trkpt><trkpt lat="43.4884263879144" lon="10.32985420170768"><ele>18.0</ele><time>2026-04-12T08:12:27Z</time></trkpt><trkpt lat="43.488328535842115" lon="10.32990493743275"><ele>18.0</ele><time>2026-04-12T08:12:29Z</time></trkpt><trkpt lat="43.48823369698684" lon="10.329958734476996"><ele>18.0</ele><time>2026-04-12T08:12:31Z</time></trkpt><trkpt lat="43.488135522213696" lon="10.330010816126148"><ele>18.0</ele><time>2026-04-12T08:12:33Z</time></trkpt><trkpt lat="43.48803770793995" lon="10.330062554300357"><ele>18.0</ele><time>2026-04-12T08:12:35Z</time></trkpt><trkpt lat="43.487937599235266" lon="10.330116850753617"><ele>18.0</ele><time>2026-04-12T08:12:37Z</time></trkpt><trkpt lat="43.48783917564266" lon="10.330168881498619"><ele>17.4</ele><time>2026-04-12T08:12:39Z</time></trkpt><trkpt lat="43.487740529982254" lon="10.330222725763974"><ele>16.8</ele><time>2026-04-12T08:12:41Z</time></trkpt><trkpt lat="43.48764245593516" lon="10.33027731888308"><ele>16.2</ele><time>2026-04-12T08:12:43Z</time></trkpt><trkpt lat="43.487541672558365" lon="10.330331923388057"><ele>15.6</ele><time>2026-04-12T08:12:45Z</time></trkpt><trkpt lat="43.487439738683335" lon="10.33038218563716"><ele>15.0</ele><time>2026-04-12T08:12:47Z</time></trkpt><trkpt lat="43.487343294513735" lon="10.330436485769834"><ele>15.0</ele><time>2026-04-12T08:12:49Z</time></trkpt><trkpt lat="43.48724542008663" lon="10.330485672872912"><ele>15.0</ele><time>2026-04-12T08:12:51Z</time></trkpt><trkpt lat="43.487148473530034" lon="10.330540469664422"><ele>15.0</ele><time>2026-04-12T08:12:53Z</time></trkpt><trkpt lat="43.4870465459395" lon="10.330594662152057"><ele>15.0</ele><time>2026-04-12T08:12:55Z</time></trkpt><trkpt lat="43.486946308836224" lon="10.330647456503106"><ele>15.0</ele><time>2026-04-12T08:12:57Z</time></trkpt><trkpt lat="43.48684731225212" lon="10.330700860649934"><ele>15.8</ele><time>2026-04-12T08:12:59Z</time></trkpt><trkpt lat="43.48674706645049" lon="10.330756012072458"><ele>16.6</ele><time>2026-04-12T08:13:01Z</time></trkpt><trkpt lat="43.486645838634985" lon="10.33081108578035"><ele>17.4</ele><time>2026-04-12T08:13:03Z</time></trkpt><trkpt lat="43.48654395811372" lon="10.330860112589212"><ele>18.2</ele><time>2026-04-12T08:13:05Z</time></trkpt><trkpt lat="43.486444949810846" lon="10.330917070739945"><ele>19.0</ele><time>2026-04-12T08:13:07Z</time></trkpt><trkpt lat="43.486343614539926" lon="10.3309722139755"><ele>18.5</ele><time>2026-04-12T08:13:09Z</time></trkpt><trkpt lat="43.486238710593085" lon="10.331026535620861"><ele>18.0</ele><time>2026-04-12T08:13:11Z</time></trkpt><trkpt lat="43.48613848934954" lon="10.331087943257566"><ele>17.5</ele><time>2026-04-12T08:13:13Z</time></trkpt><trkpt lat="43.48603005589285" lon="10.331141327811405"><ele>17.0</ele><time>2026-04-12T08:13:15Z</time></trkpt><trkpt lat="43.48592535725812" lon="10.33120995244246"><ele>17.0</ele><time>2026-04-12T08:13:17Z</time></trkpt><trkpt lat="43.48581602439252" lon="10.331271333077698"><ele>17.0</ele><time>2026-04-12T08:13:19Z</time></trkpt><trkpt lat="43.485708312309356" lon="10.331324546870649"><ele>17.0</ele><time>2026-04-12T08:13:21Z</time></trkpt><trkpt lat="43.485599041764374" lon="10.331384743142646"><ele>17.0</ele><time>2026-04-12T08:13:23Z</time></trkpt><trkpt lat="43.48549300730251" lon="10.33143879053395"><ele>17.25</ele><time>2026-04-12T08:13:25Z</time></trkpt><trkpt lat="43.48538506892523" lon="10.331498177474062"><ele>17.5</ele><time>2026-04-12T08:13:27Z</time></trkpt><trkpt lat="43.48527734403369" lon="10.331550870806584"><ele>17.75</ele><time>2026-04-12T08:13:29Z</time></trkpt><trkpt lat="43.48517141724708" lon="10.33160896648998"><ele>18.0</ele><time>2026-04-12T08:13:31Z</time></trkpt><trkpt lat="43.48506300613639" lon="10.331670249340428"><ele>18.0</ele><time>2026-04-12T08:13:33Z</time></trkpt><trkpt lat="43.484957741699986" lon="10.331722087126492"><ele>18.0</ele><time>2026-04-12T08:13:35Z</time></trkpt><trkpt lat="43.484851277921706" lon="10.331781486544122"><ele>18.0</ele><time>2026-04-12T08:13:37Z</time></trkpt><trkpt lat="43.484746061618615" lon="10.331839724646512"><ele>18.0</ele><time>2026-04-12T08:13:39Z</time></trkpt><trkpt lat="43.48463924182248" lon="10.331899652685014"><ele>15.0</ele><time>2026-04-12T08:13:41Z</time></trkpt><trkpt lat="43.48453355271819" lon="10.331957821438802"><ele>12.0</ele><time>2026-04-12T08:13:43Z</time></trkpt><trkpt lat="43.484425417132826" lon="10.332017837529582"><ele>9.0</ele><time>2026-04-12T08:13:45Z</time></trkpt><trkpt lat="43.484316974491534" lon="10.332079255710862"><ele>6.0</ele><time>2026-04-12T08:13:47Z</time></trkpt><trkpt lat="43.484212076828655" lon="10.332144488890322"><ele>6.0</ele><time>2026-04-12T08:13:49Z</time></trkpt><trkpt lat="43.48409617679967" lon="10.332203555664579"><ele>6.0</ele><time>2026-04-12T08:13:51Z</time></trkpt><trkpt lat="43.48398756281787" lon="10.33227541848909"><ele>6.0</ele><time>2026-04-12T08:13:53Z</time></trkpt><trkpt lat="43.48388266208264" lon="10.332349848762181"><ele>6.0</ele><time>2026-04-12T08:13:55Z</time></trkpt><trkpt lat="43.48377414756938" lon="10.332428117517512"><ele>6.5</ele><time>2026-04-12T08:13:57Z</time></trkpt><trkpt lat="43.4837169461863" lon="10.332471783679665"><ele>7.0</ele><time>2026-04-12T08:13:57.999Z</time></trkpt><trkpt lat="43.48366109329385" lon="10.332514511945243"><ele>7.5</ele><time>2026-04-12T08:13:58.999Z</time></trkpt><trkpt lat="43.48354990180023" lon="10.332598492273716"><ele>8.0</ele><time>2026-04-12T08:14:00.999Z</time></trkpt><trkpt lat="43.4834924936541" lon="10.33263761456827"><ele>8.5</ele><time>2026-04-12T08:14:01.999Z</time></trkpt><trkpt lat="43.48343616030752" lon="10.332680570401227"><ele>9.0</ele><time>2026-04-12T08:14:02.999Z</time></trkpt><trkpt lat="43.48332472836562" lon="10.332759571793856"><ele>9.0</ele><time>2026-04-12T08:14:04.999Z</time></trkpt><trkpt lat="43.48326846274258" lon="10.332799334725095"><ele>9.0</ele><time>2026-04-12T08:14:05.999Z</time></trkpt><trkpt lat="43.483156010244535" lon="10.332871848848997"><ele>9.0</ele><time>2026-04-12T08:14:07.999Z</time></trkpt><trkpt lat="43.48309616271462" lon="10.332902237893665"><ele>9.0</ele><time>2026-04-12T08:14:08.999Z</time></trkpt><trkpt lat="43.482984078201106" lon="10.332963982485449"><ele>9.0</ele><time>2026-04-12T08:14:10.999Z</time></trkpt><trkpt lat="43.482869362453414" lon="10.333020839726856"><ele>11.5</ele><time>2026-04-12T08:14:12.999Z</time></trkpt><trkpt lat="43.48275998898114" lon="10.333071817940047"><ele>14.0</ele><time>2026-04-12T08:14:15Z</time></trkpt><trkpt lat="43.48265124060466" lon="10.333115671644165"><ele>16.5</ele><time>2026-04-12T08:14:17Z</time></trkpt><trkpt lat="43.48253893304899" lon="10.333153976270673"><ele>19.0</ele><time>2026-04-12T08:14:19Z</time></trkpt><trkpt lat="43.48242431945508" lon="10.333189533142491"><ele>19.0</ele><time>2026-04-12T08:14:21Z</time></trkpt><trkpt lat="43.48231076782171" lon="10.333227954449475"><ele>19.0</ele><time>2026-04-12T08:14:23Z</time></trkpt><trkpt lat="43.48219628392006" lon="10.333254280910433"><ele>19.0</ele><time>2026-04-12T08:14:25Z</time></trkpt><trkpt lat="43.48207485918566" lon="10.333274195260074"><ele>19.0</ele><time>2026-04-12T08:14:27Z</time></trkpt><trkpt lat="43.48196302727479" lon="10.333293159654854"><ele>18.666666666666664</ele><time>2026-04-12T08:14:29Z</time></trkpt><trkpt lat="43.481899821253904" lon="10.333299228488283"><ele>18.333333333333332</ele><time>2026-04-12T08:14:30Z</time></trkpt><trkpt lat="43.481776548891865" lon="10.333310692500538"><ele>18.0</ele><time>2026-04-12T08:14:32Z</time></trkpt><trkpt lat="43.48165310651355" lon="10.333317085256464"><ele>17.666666666666668</ele><time>2026-04-12T08:14:34Z</time></trkpt><trkpt lat="43.48158895412128" lon="10.333318941285816"><ele>17.333333333333336</ele><time>2026-04-12T08:14:35Z</time></trkpt><trkpt lat="43.48152522618113" lon="10.333320880379652"><ele>17.0</ele><time>2026-04-12T08:14:36Z</time></trkpt><trkpt lat="43.48140286303336" lon="10.333328574324621"><ele>16.999999999999996</ele><time>2026-04-12T08:14:38Z</time></trkpt><trkpt lat="43.48128011931319" lon="10.333327440517719"><ele>17.0</ele><time>2026-04-12T08:14:40Z</time></trkpt><trkpt lat="43.481215519262825" lon="10.33332844865196"><ele>17.0</ele><time>2026-04-12T08:14:41Z</time></trkpt><trkpt lat="43.481149750750305" lon="10.333327905884953"><ele>17.0</ele><time>2026-04-12T08:14:42Z</time></trkpt><trkpt lat="43.48108576631021" lon="10.333328497485322"><ele>17.0</ele><time>2026-04-12T08:14:43Z</time></trkpt><trkpt lat="43.48102208732713" lon="10.333326941867403"><ele>16.999999999999996</ele><time>2026-04-12T08:14:44Z</time></trkpt><trkpt lat="43.480957136451956" lon="10.333327683831914"><ele>17.0</ele><time>2026-04-12T08:14:45Z</time></trkpt><trkpt lat="43.480893217400954" lon="10.333336044511363"><ele>17.0</ele><time>2026-04-12T08:14:46Z</time></trkpt><trkpt lat="43.48076849508134" lon="10.333330826938559"><ele>17.0</ele><time>2026-04-12T08:14:48Z</time></trkpt><trkpt lat="43.480703677188224" lon="10.333326642041888"><ele>17.0</ele><time>2026-04-12T08:14:49Z</time></trkpt><trkpt lat="43.48063846427239" lon="10.333325773680354"><ele>17.0</ele><time>2026-04-12T08:14:50Z</time></trkpt><trkpt lat="43.48057021060235" lon="10.333331748819935"><ele>17.0</ele><time>2026-04-12T08:14:51Z</time></trkpt><trkpt lat="43.48050185103272" lon="10.333326491279077"><ele>17.0</ele><time>2026-04-12T08:14:52Z</time></trkpt><trkpt lat="43.480435924586814" lon="10.333326166820695"><ele>16.57142857142857</ele><time>2026-04-12T08:14:53Z</time></trkpt><trkpt lat="43.480364313519324" lon="10.333332043922555"><ele>16.142857142857142</ele><time>2026-04-12T08:14:54Z</time></trkpt><trkpt lat="43.48029300064787" lon="10.333338494372693"><ele>15.714285714285714</ele><time>2026-04-12T08:14:55Z</time></trkpt><trkpt lat="43.48022059368596" lon="10.333332866937086"><ele>15.285714285714285</ele><time>2026-04-12T08:14:56Z</time></trkpt><trkpt lat="43.48014858156281" lon="10.333331611504585"><ele>14.857142857142858</ele><time>2026-04-12T08:14:57Z</time></trkpt><trkpt lat="43.480076352934894" lon="10.333327490888129"><ele>14.428571428571429</ele><time>2026-04-12T08:14:58Z</time></trkpt><trkpt lat="43.480004983256975" lon="10.333322190999834"><ele>14.0</ele><time>2026-04-12T08:14:59Z</time></trkpt><trkpt lat="43.479936292061865" lon="10.333309473178826"><ele>14.000000000000002</ele><time>2026-04-12T08:15:00Z</time></trkpt><trkpt lat="43.47986963383659" lon="10.333285682683693"><ele>14.0</ele><time>2026-04-12T08:15:01Z</time></trkpt><trkpt lat="43.4798049191781" lon="10.333271204903543"><ele>14.0</ele><time>2026-04-12T08:15:02Z</time></trkpt><trkpt lat="43.47974236059497" lon="10.333244381038668"><ele>14.0</ele><time>2026-04-12T08:15:03Z</time></trkpt><trkpt lat="43.47968071691633" lon="10.333219502534488"><ele>14.000000000000002</ele><time>2026-04-12T08:15:04Z</time></trkpt><trkpt lat="43.47955844597903" lon="10.3331752084943"><ele>14.0</ele><time>2026-04-12T08:15:06Z</time></trkpt><trkpt lat="43.47943747415988" lon="10.33312471100229"><ele>14.799999999999999</ele><time>2026-04-12T08:15:08Z</time></trkpt><trkpt lat="43.4793766540213" lon="10.333099014287635"><ele>15.599999999999998</ele><time>2026-04-12T08:15:09Z</time></trkpt><trkpt lat="43.47926116196299" lon="10.333042149093528"><ele>16.4</ele><time>2026-04-12T08:15:11Z</time></trkpt><trkpt lat="43.479143858153236" lon="10.33297751591454"><ele>17.2</ele><time>2026-04-12T08:15:13Z</time></trkpt><trkpt lat="43.47903379271871" lon="10.332889646569193"><ele>18.0</ele><time>2026-04-12T08:15:15Z</time></trkpt><trkpt lat="43.47892461663996" lon="10.332811499473713"><ele>18.5</ele><time>2026-04-12T08:15:17Z</time></trkpt><trkpt lat="43.47881406498209" lon="10.332727677410222"><ele>19.0</ele><time>2026-04-12T08:15:19Z</time></trkpt><trkpt lat="43.47871459827932" lon="10.33262851708724"><ele>19.5</ele><time>2026-04-12T08:15:21Z</time></trkpt><trkpt lat="43.478627820982275" lon="10.332509176684107"><ele>20.0</ele><time>2026-04-12T08:15:23Z</time></trkpt><trkpt lat="43.47854728102015" lon="10.332377621420333"><ele>20.0</ele><time>2026-04-12T08:15:25Z</time></trkpt><trkpt lat="43.4784890128734" lon="10.332247800484414"><ele>20.0</ele><time>2026-04-12T08:15:27Z</time></trkpt><trkpt lat="43.47842505281618" lon="10.332122552721055"><ele>20.0</ele><time>2026-04-12T08:15:29Z</time></trkpt><trkpt lat="43.47836102422152" lon="10.33199629105511"><ele>20.0</ele><time>2026-04-12T08:15:31Z</time></trkpt><trkpt lat="43.47829816695922" lon="10.331879229382665"><ele>20.0</ele><time>2026-04-12T08:15:33Z</time></trkpt><trkpt lat="43.47822564585895" lon="10.331771561050578"><ele>17.5</ele><time>2026-04-12T08:15:35Z</time></trkpt><trkpt lat="43.478141513380734" lon="10.33166046955627"><ele>15.0</ele><time>2026-04-12T08:15:37Z</time></trkpt><trkpt lat="43.4780576965103" lon="10.331559547726275"><ele>12.5</ele><time>2026-04-12T08:15:39Z</time></trkpt><trkpt lat="43.47796996900463" lon="10.33145699810571"><ele>10.0</ele><time>2026-04-12T08:15:41Z</time></trkpt><trkpt lat="43.47788330124025" lon="10.331353922914674"><ele>10.0</ele><time>2026-04-12T08:15:43Z</time></trkpt><trkpt lat="43.47779881220357" lon="10.331251212372617"><ele>10.0</ele><time>2026-04-12T08:15:45Z</time></trkpt><trkpt lat="43.47770691912001" lon="10.33115272237411"><ele>10.0</ele><time>2026-04-12T08:15:47Z</time></trkpt><trkpt lat="43.477629192665894" lon="10.331046029051613"><ele>10.0</ele><time>2026-04-12T08:15:49Z</time></trkpt><trkpt lat="43.477544193638884" lon="10.330954579353932"><ele>10.0</ele><time>2026-04-12T08:15:51Z</time></trkpt><trkpt lat="43.47746295692762" lon="10.3308615801159"><ele>10.0</ele><time>2026-04-12T08:15:53Z</time></trkpt><trkpt lat="43.47737147894219" lon="10.330782477560668"><ele>10.0</ele><time>2026-04-12T08:15:55Z</time></trkpt><trkpt lat="43.477277080017046" lon="10.330717889951865"><ele>10.0</ele><time>2026-04-12T08:15:57Z</time></trkpt><trkpt lat="43.47717969850844" lon="10.330654843838714"><ele>10.0</ele><time>2026-04-12T08:15:59Z</time></trkpt><trkpt lat="43.477082559076635" lon="10.330598260968586"><ele>10.0</ele><time>2026-04-12T08:16:01Z</time></trkpt><trkpt lat="43.476982111924485" lon="10.330542579142245"><ele>9.4</ele><time>2026-04-12T08:16:03Z</time></trkpt><trkpt lat="43.476882442440086" lon="10.330488864533645"><ele>8.8</ele><time>2026-04-12T08:16:05Z</time></trkpt><trkpt lat="43.47678490863978" lon="10.330440692609258"><ele>8.2</ele><time>2026-04-12T08:16:07Z</time></trkpt><trkpt lat="43.47668235726792" lon="10.330392941864266"><ele>7.6</ele><time>2026-04-12T08:16:09Z</time></trkpt><trkpt lat="43.47658495885729" lon="10.330346683938895"><ele>7.0</ele><time>2026-04-12T08:16:10.999Z</time></trkpt><trkpt lat="43.47648382757229" lon="10.33031984791563"><ele>7.0</ele><time>2026-04-12T08:16:12.999Z</time></trkpt><trkpt lat="43.47638626535615" lon="10.33029809585285"><ele>6.999999999999999</ele><time>2026-04-12T08:16:14.999Z</time></trkpt><trkpt lat="43.476285037500084" lon="10.330297299027942"><ele>6.999999999999999</ele><time>2026-04-12T08:16:16.999Z</time></trkpt><trkpt lat="43.47618800549589" lon="10.330316944630342"><ele>7.0</ele><time>2026-04-12T08:16:18.999Z</time></trkpt><trkpt lat="43.476093316543455" lon="10.330355385948897"><ele>7.0</ele><time>2026-04-12T08:16:21Z</time></trkpt><trkpt lat="43.47600165393223" lon="10.330420291666996"><ele>6.6</ele><time>2026-04-12T08:16:23Z</time></trkpt><trkpt lat="43.47591075176481" lon="10.330482681753326"><ele>6.199999999999999</ele><time>2026-04-12T08:16:25Z</time></trkpt><trkpt lat="43.47582751697003" lon="10.33056369048646"><ele>5.8</ele><time>2026-04-12T08:16:27Z</time></trkpt><trkpt lat="43.47574322822342" lon="10.330654991380326"><ele>5.4</ele><time>2026-04-12T08:16:29Z</time></trkpt><trkpt lat="43.4756691435286" lon="10.33074671472099"><ele>5.0</ele><time>2026-04-12T08:16:31Z</time></trkpt><trkpt lat="43.47559374528034" lon="10.330848607240284"><ele>5.8</ele><time>2026-04-12T08:16:33Z</time></trkpt><trkpt lat="43.47551639868697" lon="10.330957091978327"><ele>6.6</ele><time>2026-04-12T08:16:35Z</time></trkpt><trkpt lat="43.475429552043366" lon="10.331049120220593"><ele>7.4</ele><time>2026-04-12T08:16:37Z</time></trkpt><trkpt lat="43.47533197194148" lon="10.331112566296538"><ele>8.2</ele><time>2026-04-12T08:16:39Z</time></trkpt><trkpt lat="43.47522613942325" lon="10.331150725066696"><ele>9.0</ele><time>2026-04-12T08:16:41Z</time></trkpt><trkpt lat="43.475116021635934" lon="10.331155541926787"><ele>9.0</ele><time>2026-04-12T08:16:43Z</time></trkpt><trkpt lat="43.475006071209165" lon="10.33114502553178"><ele>9.0</ele><time>2026-04-12T08:16:45Z</time></trkpt><trkpt lat="43.47489722241443" lon="10.331122067572645"><ele>9.0</ele><time>2026-04-12T08:16:47Z</time></trkpt><trkpt lat="43.47478938815686" lon="10.331100984078006"><ele>9.0</ele><time>2026-04-12T08:16:49Z</time></trkpt><trkpt lat="43.47468152354682" lon="10.331083696698638"><ele>9.0</ele><time>2026-04-12T08:16:51Z</time></trkpt><trkpt lat="43.47456852441946" lon="10.331065847295571"><ele>8.8</ele><time>2026-04-12T08:16:53Z</time></trkpt><trkpt lat="43.474459640141845" lon="10.331055444769559"><ele>8.600000000000001</ele><time>2026-04-12T08:16:55Z</time></trkpt><trkpt lat="43.47435259221675" lon="10.331041122191067"><ele>8.4</ele><time>2026-04-12T08:16:57Z</time></trkpt><trkpt lat="43.47424716190115" lon="10.331032185776762"><ele>8.200000000000001</ele><time>2026-04-12T08:16:59Z</time></trkpt><trkpt lat="43.4741428081447" lon="10.33105657056997"><ele>8.0</ele><time>2026-04-12T08:17:01Z</time></trkpt><trkpt lat="43.47404686665756" lon="10.331108508928118"><ele>8.0</ele><time>2026-04-12T08:17:03Z</time></trkpt><trkpt lat="43.47395327247797" lon="10.331168250342996"><ele>8.0</ele><time>2026-04-12T08:17:05Z</time></trkpt><trkpt lat="43.47386730915105" lon="10.331249168652864"><ele>8.0</ele><time>2026-04-12T08:17:07Z</time></trkpt><trkpt lat="43.47377384295191" lon="10.331325320094827"><ele>8.0</ele><time>2026-04-12T08:17:09Z</time></trkpt><trkpt lat="43.47368081818032" lon="10.331399236311924"><ele>8.0</ele><time>2026-04-12T08:17:11Z</time></trkpt><trkpt lat="43.47358979281508" lon="10.331482759687214"><ele>9.0</ele><time>2026-04-12T08:17:13Z</time></trkpt><trkpt lat="43.473496983951776" lon="10.331552408957128"><ele>10.0</ele><time>2026-04-12T08:17:15Z</time></trkpt><trkpt lat="43.473403574534906" lon="10.33163075148515"><ele>11.0</ele><time>2026-04-12T08:17:17Z</time></trkpt><trkpt lat="43.473311055128164" lon="10.331700211375237"><ele>12.0</ele><time>2026-04-12T08:17:19Z</time></trkpt><trkpt lat="43.47322554179836" lon="10.331789649789048"><ele>13.0</ele><time>2026-04-12T08:17:21Z</time></trkpt><trkpt lat="43.47315281220823" lon="10.331894938087535"><ele>13.0</ele><time>2026-04-12T08:17:23Z</time></trkpt><trkpt lat="43.47308079529815" lon="10.332002705731899"><ele>13.0</ele><time>2026-04-12T08:17:25Z</time></trkpt><trkpt lat="43.47302324023259" lon="10.332128966487161"><ele>13.0</ele><time>2026-04-12T08:17:27Z</time></trkpt><trkpt lat="43.47296795821565" lon="10.332260642558381"><ele>13.0</ele><time>2026-04-12T08:17:29Z</time></trkpt><trkpt lat="43.47290717842525" lon="10.332397070260404"><ele>13.0</ele><time>2026-04-12T08:17:31Z</time></trkpt><trkpt lat="43.47285147845002" lon="10.332528234575289"><ele>13.0</ele><time>2026-04-12T08:17:33Z</time></trkpt><trkpt lat="43.472792931592245" lon="10.33267339168094"><ele>13.0</ele><time>2026-04-12T08:17:35Z</time></trkpt><trkpt lat="43.472729148371634" lon="10.33280715357451"><ele>13.0</ele><time>2026-04-12T08:17:37Z</time></trkpt><trkpt lat="43.47265875422023" lon="10.33293885434682"><ele>13.0</ele><time>2026-04-12T08:17:39Z</time></trkpt><trkpt lat="43.472584596867335" lon="10.333059476812727"><ele>13.0</ele><time>2026-04-12T08:17:41Z</time></trkpt><trkpt lat="43.47249540445577" lon="10.333162892705591"><ele>13.0</ele><time>2026-04-12T08:17:43Z</time></trkpt><trkpt lat="43.47241673183017" lon="10.333267499685615"><ele>13.0</ele><time>2026-04-12T08:17:45Z</time></trkpt><trkpt lat="43.472336979021215" lon="10.333372248252493"><ele>13.0</ele><time>2026-04-12T08:17:47Z</time></trkpt><trkpt lat="43.47226593156977" lon="10.333469149117759"><ele>13.0</ele><time>2026-04-12T08:17:49Z</time></trkpt><trkpt lat="43.47219266706463" lon="10.333572043034337"><ele>13.0</ele><time>2026-04-12T08:17:51Z</time></trkpt><trkpt lat="43.472116678463266" lon="10.33367253358821"><ele>13.0</ele><time>2026-04-12T08:17:53Z</time></trkpt><trkpt lat="43.4720402736838" lon="10.333779750882547"><ele>13.0</ele><time>2026-04-12T08:17:55Z</time></trkpt><trkpt lat="43.471960107683536" lon="10.333889751133729"><ele>13.0</ele><time>2026-04-12T08:17:57Z</time></trkpt><trkpt lat="43.471881989349235" lon="10.333995260427637"><ele>13.0</ele><time>2026-04-12T08:17:59Z</time></trkpt><trkpt lat="43.47179884479771" lon="10.33410785007403"><ele>11.25</ele><time>2026-04-12T08:18:01Z</time></trkpt><trkpt lat="43.471711924620244" lon="10.334220542354378"><ele>9.5</ele><time>2026-04-12T08:18:03Z</time></trkpt><trkpt lat="43.47162946212968" lon="10.3343317451428"><ele>7.75</ele><time>2026-04-12T08:18:05Z</time></trkpt><trkpt lat="43.471546038970516" lon="10.334447352595989"><ele>6.0</ele><time>2026-04-12T08:18:07Z</time></trkpt><trkpt lat="43.47145353294576" lon="10.334537356561253"><ele>6.0</ele><time>2026-04-12T08:18:09Z</time></trkpt><trkpt lat="43.47142091876445" lon="10.334628047675816"><ele>6.0</ele><time>2026-04-12T08:18:10Z</time></trkpt><trkpt lat="43.47137513476008" lon="10.334690179968272"><ele>6.0</ele><time>2026-04-12T08:18:11Z</time></trkpt><trkpt lat="43.47129126501386" lon="10.334804291956232"><ele>6.0</ele><time>2026-04-12T08:18:13Z</time></trkpt><trkpt lat="43.471207194949145" lon="10.334925472289184"><ele>6.0</ele><time>2026-04-12T08:18:14.999Z</time></trkpt><trkpt lat="43.4711270461292" lon="10.335045122421347"><ele>6.5</ele><time>2026-04-12T08:18:16.999Z</time></trkpt><trkpt lat="43.47104745867558" lon="10.335169826360474"><ele>7.0</ele><time>2026-04-12T08:18:18.999Z</time></trkpt><trkpt lat="43.47096907837019" lon="10.335286316875118"><ele>7.5</ele><time>2026-04-12T08:18:20.999Z</time></trkpt><trkpt lat="43.47089440458559" lon="10.335399036488315"><ele>8.0</ele><time>2026-04-12T08:18:22.999Z</time></trkpt><trkpt lat="43.470811162814634" lon="10.335496900493137"><ele>8.8</ele><time>2026-04-12T08:18:24.999Z</time></trkpt><trkpt lat="43.470720998786064" lon="10.335581610667894"><ele>9.600000000000001</ele><time>2026-04-12T08:18:27Z</time></trkpt><trkpt lat="43.47062699944513" lon="10.33565984275885"><ele>10.399999999999999</ele><time>2026-04-12T08:18:29Z</time></trkpt><trkpt lat="43.47053509373898" lon="10.335725019817252"><ele>11.2</ele><time>2026-04-12T08:18:31Z</time></trkpt><trkpt lat="43.470444760495255" lon="10.33578286562584"><ele>12.0</ele><time>2026-04-12T08:18:33Z</time></trkpt><trkpt lat="43.470352824080024" lon="10.335836395895157"><ele>12.0</ele><time>2026-04-12T08:18:35Z</time></trkpt><trkpt lat="43.47026226786746" lon="10.33588439863484"><ele>12.0</ele><time>2026-04-12T08:18:37Z</time></trkpt><trkpt lat="43.47017374337668" lon="10.335918482665072"><ele>12.0</ele><time>2026-04-12T08:18:39Z</time></trkpt><trkpt lat="43.4701000625027" lon="10.335970111182462"><ele>12.0</ele><time>2026-04-12T08:18:41Z</time></trkpt><trkpt lat="43.47001835253865" lon="10.336004687318379"><ele>12.0</ele><time>2026-04-12T08:18:43Z</time></trkpt><trkpt lat="43.46995510781891" lon="10.336059496861852"><ele>12.0</ele><time>2026-04-12T08:18:45Z</time></trkpt><trkpt lat="43.4698861280243" lon="10.336124915366128"><ele>12.0</ele><time>2026-04-12T08:18:47Z</time></trkpt><trkpt lat="43.46983044506832" lon="10.336197396727789"><ele>12.0</ele><time>2026-04-12T08:18:49Z</time></trkpt><trkpt lat="43.46976992399405" lon="10.336264300955548"><ele>12.0</ele><time>2026-04-12T08:18:51Z</time></trkpt><trkpt lat="43.46970658668047" lon="10.336328250966844"><ele>12.0</ele><time>2026-04-12T08:18:53Z</time></trkpt><trkpt lat="43.46964703022605" lon="10.336393980438046"><ele>12.0</ele><time>2026-04-12T08:18:55Z</time></trkpt><trkpt lat="43.469585704990884" lon="10.33646426163186"><ele>12.0</ele><time>2026-04-12T08:18:57Z</time></trkpt><trkpt lat="43.46952529608452" lon="10.33652373185941"><ele>11.833333333333334</ele><time>2026-04-12T08:18:59Z</time></trkpt><trkpt lat="43.46946525946594" lon="10.336585273650957"><ele>11.666666666666666</ele><time>2026-04-12T08:19:01Z</time></trkpt><trkpt lat="43.46940569414022" lon="10.336660635353821"><ele>11.5</ele><time>2026-04-12T08:19:03Z</time></trkpt><trkpt lat="43.46935940519969" lon="10.336740467400926"><ele>11.333333333333332</ele><time>2026-04-12T08:19:05Z</time></trkpt><trkpt lat="43.46931464614316" lon="10.336827214698053"><ele>11.166666666666666</ele><time>2026-04-12T08:19:07Z</time></trkpt><trkpt lat="43.46927451059733" lon="10.336920158967452"><ele>11.0</ele><time>2026-04-12T08:19:09Z</time></trkpt><trkpt lat="43.46923161850112" lon="10.337010654751362"><ele>11.0</ele><time>2026-04-12T08:19:11Z</time></trkpt><trkpt lat="43.46919065745144" lon="10.337100710030542"><ele>11.0</ele><time>2026-04-12T08:19:13Z</time></trkpt><trkpt lat="43.4691503907695" lon="10.337195179233834"><ele>11.0</ele><time>2026-04-12T08:19:15Z</time></trkpt><trkpt lat="43.469107552882306" lon="10.337286073761192"><ele>11.0</ele><time>2026-04-12T08:19:17Z</time></trkpt><trkpt lat="43.46905572135507" lon="10.337363499309456"><ele>11.0</ele><time>2026-04-12T08:19:19Z</time></trkpt><trkpt lat="43.469000357591625" lon="10.33743631259657"><ele>11.0</ele><time>2026-04-12T08:19:21Z</time></trkpt><trkpt lat="43.468938526972195" lon="10.337505025783765"><ele>10.833333333333332</ele><time>2026-04-12T08:19:23Z</time></trkpt><trkpt lat="43.46887504451324" lon="10.337563973587343"><ele>10.666666666666666</ele><time>2026-04-12T08:19:25Z</time></trkpt><trkpt lat="43.46880881342992" lon="10.337622951934648"><ele>10.5</ele><time>2026-04-12T08:19:27Z</time></trkpt><trkpt lat="43.46874442976017" lon="10.337687186038536"><ele>10.333333333333334</ele><time>2026-04-12T08:19:29Z</time></trkpt><trkpt lat="43.46868695449768" lon="10.337760227643717"><ele>10.166666666666668</ele><time>2026-04-12T08:19:31Z</time></trkpt><trkpt lat="43.468634095364514" lon="10.337836955403112"><ele>10.0</ele><time>2026-04-12T08:19:33Z</time></trkpt><trkpt lat="43.46858001916318" lon="10.337913694632613"><ele>10.0</ele><time>2026-04-12T08:19:35Z</time></trkpt><trkpt lat="43.46852996713013" lon="10.337988001857275"><ele>10.0</ele><time>2026-04-12T08:19:37Z</time></trkpt><trkpt lat="43.46847687910973" lon="10.33806895807089"><ele>10.0</ele><time>2026-04-12T08:19:39Z</time></trkpt><trkpt lat="43.46842480934195" lon="10.338147530824871"><ele>10.0</ele><time>2026-04-12T08:19:41Z</time></trkpt><trkpt lat="43.468373832658" lon="10.338226172534087"><ele>10.0</ele><time>2026-04-12T08:19:43Z</time></trkpt><trkpt lat="43.468321920133846" lon="10.338312069432055"><ele>10.0</ele><time>2026-04-12T08:19:45Z</time></trkpt><trkpt lat="43.468264738535645" lon="10.338391148776836"><ele>11.5</ele><time>2026-04-12T08:19:47Z</time></trkpt><trkpt lat="43.468205841125226" lon="10.33847276154572"><ele>13.0</ele><time>2026-04-12T08:19:49Z</time></trkpt><trkpt lat="43.46814652473937" lon="10.338560785778318"><ele>14.5</ele><time>2026-04-12T08:19:51Z</time></trkpt><trkpt lat="43.468089351418186" lon="10.338652309249083"><ele>16.0</ele><time>2026-04-12T08:19:53Z</time></trkpt><trkpt lat="43.46802669944264" lon="10.338741654595337"><ele>17.5</ele><time>2026-04-12T08:19:55Z</time></trkpt><trkpt lat="43.467963866367576" lon="10.338831919389767"><ele>19.0</ele><time>2026-04-12T08:19:57Z</time></trkpt><trkpt lat="43.467899700697885" lon="10.33892676143818"><ele>19.0</ele><time>2026-04-12T08:19:59Z</time></trkpt><trkpt lat="43.46783416287085" lon="10.33902263613968"><ele>19.0</ele><time>2026-04-12T08:20:01Z</time></trkpt><trkpt lat="43.4677686357035" lon="10.339114278093934"><ele>19.0</ele><time>2026-04-12T08:20:03Z</time></trkpt><trkpt lat="43.467708873334985" lon="10.339200271742055"><ele>19.0</ele><time>2026-04-12T08:20:05Z</time></trkpt><trkpt lat="43.46764467019189" lon="10.339280556107555"><ele>19.0</ele><time>2026-04-12T08:20:07Z</time></trkpt><trkpt lat="43.46757970859799" lon="10.33936438950339"><ele>19.0</ele><time>2026-04-12T08:20:09Z</time></trkpt><trkpt lat="43.467517064008725" lon="10.339449777704226"><ele>19.0</ele><time>2026-04-12T08:20:11Z</time></trkpt><trkpt lat="43.4674497083692" lon="10.339531138991262"><ele>19.0</ele><time>2026-04-12T08:20:13Z</time></trkpt><trkpt lat="43.467384985151796" lon="10.339613089402814"><ele>19.0</ele><time>2026-04-12T08:20:15Z</time></trkpt><trkpt lat="43.46731706850491" lon="10.339692052255682"><ele>19.0</ele><time>2026-04-12T08:20:17Z</time></trkpt><trkpt lat="43.46724552475811" lon="10.339762657554802"><ele>19.0</ele><time>2026-04-12T08:20:19Z</time></trkpt><trkpt lat="43.46718662498455" lon="10.339864979387217"><ele>18.0</ele><time>2026-04-12T08:20:21Z</time></trkpt><trkpt lat="43.46712328807245" lon="10.339952327483012"><ele>17.0</ele><time>2026-04-12T08:20:23Z</time></trkpt><trkpt lat="43.46706550522745" lon="10.340046039087678"><ele>16.0</ele><time>2026-04-12T08:20:25Z</time></trkpt><trkpt lat="43.46701900059617" lon="10.340150638028224"><ele>15.0</ele><time>2026-04-12T08:20:27Z</time></trkpt><trkpt lat="43.46697178826867" lon="10.340249511402195"><ele>13.999999999999998</ele><time>2026-04-12T08:20:29Z</time></trkpt><trkpt lat="43.466920030521976" lon="10.340353595392301"><ele>13.0</ele><time>2026-04-12T08:20:31Z</time></trkpt><trkpt lat="43.46686985800169" lon="10.34045035233352"><ele>12.999999999999998</ele><time>2026-04-12T08:20:33Z</time></trkpt><trkpt lat="43.466810730713064" lon="10.3405439353453"><ele>13.0</ele><time>2026-04-12T08:20:35Z</time></trkpt><trkpt lat="43.46674492014775" lon="10.340629493542254"><ele>13.0</ele><time>2026-04-12T08:20:37Z</time></trkpt><trkpt lat="43.46667429529351" lon="10.340691971302368"><ele>13.0</ele><time>2026-04-12T08:20:39Z</time></trkpt><trkpt lat="43.466605901198974" lon="10.340762147588864"><ele>12.999999999999998</ele><time>2026-04-12T08:20:41Z</time></trkpt><trkpt lat="43.46653449258035" lon="10.340829294103104"><ele>13.0</ele><time>2026-04-12T08:20:43Z</time></trkpt><trkpt lat="43.466474097472066" lon="10.340900641435526"><ele>13.333333333333332</ele><time>2026-04-12T08:20:45Z</time></trkpt><trkpt lat="43.466413361467154" lon="10.340974332405914"><ele>13.666666666666666</ele><time>2026-04-12T08:20:47Z</time></trkpt><trkpt lat="43.466353310157956" lon="10.3410521861672"><ele>14.0</ele><time>2026-04-12T08:20:49Z</time></trkpt><trkpt lat="43.466296547891" lon="10.341124347386861"><ele>14.333333333333332</ele><time>2026-04-12T08:20:51Z</time></trkpt><trkpt lat="43.466240587255555" lon="10.341199724678507"><ele>14.666666666666666</ele><time>2026-04-12T08:20:53Z</time></trkpt><trkpt lat="43.4661866645654" lon="10.341280096075945"><ele>15.0</ele><time>2026-04-12T08:20:55Z</time></trkpt><trkpt lat="43.46612724380476" lon="10.341348569399086"><ele>18.0</ele><time>2026-04-12T08:20:57Z</time></trkpt><trkpt lat="43.466074637451925" lon="10.341420821063641"><ele>21.0</ele><time>2026-04-12T08:20:59Z</time></trkpt><trkpt lat="43.46602149912938" lon="10.341495258928337"><ele>24.0</ele><time>2026-04-12T08:21:01Z</time></trkpt><trkpt lat="43.46596391597032" lon="10.341563700080608"><ele>27.0</ele><time>2026-04-12T08:21:03Z</time></trkpt><trkpt lat="43.46591038567484" lon="10.34163948645951"><ele>30.0</ele><time>2026-04-12T08:21:05Z</time></trkpt><trkpt lat="43.46585145578626" lon="10.341709450880177"><ele>33.0</ele><time>2026-04-12T08:21:07Z</time></trkpt><trkpt lat="43.465795685704" lon="10.341788725393602"><ele>33.0</ele><time>2026-04-12T08:21:09Z</time></trkpt><trkpt lat="43.46573571466548" lon="10.341875325471648"><ele>33.0</ele><time>2026-04-12T08:21:11Z</time></trkpt><trkpt lat="43.46568327472131" lon="10.34196171749763"><ele>33.0</ele><time>2026-04-12T08:21:13Z</time></trkpt><trkpt lat="43.46561221639629" lon="10.342053969596165"><ele>33.0</ele><time>2026-04-12T08:21:15Z</time></trkpt><trkpt lat="43.46554423829935" lon="10.34214773722105"><ele>33.0</ele><time>2026-04-12T08:21:17Z</time></trkpt><trkpt lat="43.46547862881792" lon="10.342242668285675"><ele>30.0</ele><time>2026-04-12T08:21:19Z</time></trkpt><trkpt lat="43.4654091272519" lon="10.3423414504613"><ele>26.999999999999996</ele><time>2026-04-12T08:21:21Z</time></trkpt><trkpt lat="43.46534143434809" lon="10.342440469556086"><ele>24.0</ele><time>2026-04-12T08:21:23Z</time></trkpt><trkpt lat="43.46527565739163" lon="10.34254054772969"><ele>21.0</ele><time>2026-04-12T08:21:25Z</time></trkpt><trkpt lat="43.46521779038034" lon="10.342649908487223"><ele>18.0</ele><time>2026-04-12T08:21:27Z</time></trkpt><trkpt lat="43.46516938238658" lon="10.34275858121008"><ele>18.0</ele><time>2026-04-12T08:21:29Z</time></trkpt><trkpt lat="43.46513728067406" lon="10.3428737723765"><ele>18.0</ele><time>2026-04-12T08:21:31Z</time></trkpt><trkpt lat="43.46510473005149" lon="10.34299094199867"><ele>18.0</ele><time>2026-04-12T08:21:33Z</time></trkpt><trkpt lat="43.46508590915369" lon="10.343106561132153"><ele>18.0</ele><time>2026-04-12T08:21:35Z</time></trkpt><trkpt lat="43.46508119709805" lon="10.343230350167364"><ele>18.0</ele><time>2026-04-12T08:21:37Z</time></trkpt><trkpt lat="43.46509110483593" lon="10.343364034664859"><ele>19.6</ele><time>2026-04-12T08:21:39Z</time></trkpt><trkpt lat="43.465105198816175" lon="10.34349337836903"><ele>21.200000000000003</ele><time>2026-04-12T08:21:41Z</time></trkpt><trkpt lat="43.46512366911116" lon="10.343632528536103"><ele>22.8</ele><time>2026-04-12T08:21:43Z</time></trkpt><trkpt lat="43.46513345043462" lon="10.34378269569657"><ele>24.400000000000002</ele><time>2026-04-12T08:21:45Z</time></trkpt><trkpt lat="43.4651253056454" lon="10.34396428219127"><ele>26.0</ele><time>2026-04-12T08:21:47Z</time></trkpt><trkpt lat="43.465105313921235" lon="10.344066533394306"><ele>27.666666666666664</ele><time>2026-04-12T08:21:48Z</time></trkpt><trkpt lat="43.46507791073473" lon="10.34415396355779"><ele>29.333333333333332</ele><time>2026-04-12T08:21:49Z</time></trkpt><trkpt lat="43.465030536871055" lon="10.344304407476733"><ele>31.0</ele><time>2026-04-12T08:21:51Z</time></trkpt><trkpt lat="43.465005961986236" lon="10.344402842501136"><ele>32.666666666666664</ele><time>2026-04-12T08:21:52Z</time></trkpt><trkpt lat="43.46498782839512" lon="10.344507380340678"><ele>34.333333333333336</ele><time>2026-04-12T08:21:53Z</time></trkpt><trkpt lat="43.464970525778234" lon="10.344618009033475"><ele>36.0</ele><time>2026-04-12T08:21:54Z</time></trkpt><trkpt lat="43.46495327946063" lon="10.344733334408172"><ele>37.0</ele><time>2026-04-12T08:21:55Z</time></trkpt><trkpt lat="43.464934755891896" lon="10.344853828037664"><ele>38.0</ele><time>2026-04-12T08:21:56Z</time></trkpt><trkpt lat="43.46492080589035" lon="10.344977337972983"><ele>39.0</ele><time>2026-04-12T08:21:57Z</time></trkpt><trkpt lat="43.46491246256998" lon="10.345102071406048"><ele>40.0</ele><time>2026-04-12T08:21:58Z</time></trkpt><trkpt lat="43.46490353861077" lon="10.34523223712933"><ele>41.0</ele><time>2026-04-12T08:21:59Z</time></trkpt><trkpt lat="43.464890082757" lon="10.345362922862305"><ele>41.0</ele><time>2026-04-12T08:22:00Z</time></trkpt><trkpt lat="43.46487782417068" lon="10.345496385321168"><ele>41.0</ele><time>2026-04-12T08:22:01Z</time></trkpt><trkpt lat="43.46487294800479" lon="10.345634375023417"><ele>41.0</ele><time>2026-04-12T08:22:02Z</time></trkpt><trkpt lat="43.464876591408526" lon="10.345777943456074"><ele>41.0</ele><time>2026-04-12T08:22:03Z</time></trkpt><trkpt lat="43.46488134423514" lon="10.345915071571415"><ele>41.0</ele><time>2026-04-12T08:22:04Z</time></trkpt><trkpt lat="43.46489413529303" lon="10.346054207829615"><ele>40.599999999999994</ele><time>2026-04-12T08:22:05Z</time></trkpt><trkpt lat="43.46491186346488" lon="10.34619176731902"><ele>40.199999999999996</ele><time>2026-04-12T08:22:06Z</time></trkpt><trkpt lat="43.464930095370185" lon="10.346326983818662"><ele>39.8</ele><time>2026-04-12T08:22:07Z</time></trkpt><trkpt lat="43.46495050630328" lon="10.34646032205108"><ele>39.4</ele><time>2026-04-12T08:22:08Z</time></trkpt><trkpt lat="43.46496856989017" lon="10.346590533453123"><ele>39.0</ele><time>2026-04-12T08:22:09Z</time></trkpt><trkpt lat="43.46498973130748" lon="10.346717397396807"><ele>38.4</ele><time>2026-04-12T08:22:10Z</time></trkpt><trkpt lat="43.46501250344815" lon="10.346842313012338"><ele>37.8</ele><time>2026-04-12T08:22:11Z</time></trkpt><trkpt lat="43.46503430577925" lon="10.346967045738115"><ele>37.2</ele><time>2026-04-12T08:22:12Z</time></trkpt><trkpt lat="43.46505234248203" lon="10.347089974752901"><ele>36.6</ele><time>2026-04-12T08:22:13Z</time></trkpt><trkpt lat="43.46507426183647" lon="10.347211720964578"><ele>36.0</ele><time>2026-04-12T08:22:14Z</time></trkpt><trkpt lat="43.465083364054884" lon="10.347337884978147"><ele>33.0</ele><time>2026-04-12T08:22:15Z</time></trkpt><trkpt lat="43.465094640057195" lon="10.347463333576284"><ele>30.0</ele><time>2026-04-12T08:22:16Z</time></trkpt><trkpt lat="43.46510376460999" lon="10.347586522911532"><ele>27.0</ele><time>2026-04-12T08:22:17Z</time></trkpt><trkpt lat="43.46511091178196" lon="10.34771082801733"><ele>24.0</ele><time>2026-04-12T08:22:18Z</time></trkpt><trkpt lat="43.46511858307607" lon="10.347835935800841"><ele>21.0</ele><time>2026-04-12T08:22:19Z</time></trkpt><trkpt lat="43.46512336300549" lon="10.347969180884135"><ele>18.8</ele><time>2026-04-12T08:22:20Z</time></trkpt><trkpt lat="43.46512752271835" lon="10.348095805982936"><ele>16.6</ele><time>2026-04-12T08:22:21Z</time></trkpt><trkpt lat="43.46512885024762" lon="10.348221904315375"><ele>14.4</ele><time>2026-04-12T08:22:22Z</time></trkpt><trkpt lat="43.46513487450304" lon="10.348345777351941"><ele>12.2</ele><time>2026-04-12T08:22:23Z</time></trkpt><trkpt lat="43.46513528764601" lon="10.348468412088241"><ele>10.0</ele><time>2026-04-12T08:22:24Z</time></trkpt><trkpt lat="43.465136293385534" lon="10.348594841589632"><ele>10.0</ele><time>2026-04-12T08:22:25Z</time></trkpt><trkpt lat="43.46514173094945" lon="10.348719428039209"><ele>10.0</ele><time>2026-04-12T08:22:26Z</time></trkpt><trkpt lat="43.465145845674584" lon="10.348845290610958"><ele>10.0</ele><time>2026-04-12T08:22:27Z</time></trkpt><trkpt lat="43.465147681880566" lon="10.348972426348036"><ele>10.0</ele><time>2026-04-12T08:22:28Z</time></trkpt><trkpt lat="43.465150616370636" lon="10.349097267635596"><ele>10.0</ele><time>2026-04-12T08:22:29Z</time></trkpt><trkpt lat="43.46515109929712" lon="10.34921589057671"><ele>9.833333333333334</ele><time>2026-04-12T08:22:29.999Z</time></trkpt><trkpt lat="43.46515243136751" lon="10.3493421297139"><ele>9.666666666666668</ele><time>2026-04-12T08:22:30.999Z</time></trkpt><trkpt lat="43.46514825563083" lon="10.349460264946881"><ele>9.5</ele><time>2026-04-12T08:22:31.999Z</time></trkpt><trkpt lat="43.46514366523883" lon="10.349572925699517"><ele>9.333333333333334</ele><time>2026-04-12T08:22:32.999Z</time></trkpt><trkpt lat="43.46513835778679" lon="10.349686010953612"><ele>9.166666666666666</ele><time>2026-04-12T08:22:33.999Z</time></trkpt><trkpt lat="43.46513305008839" lon="10.349797552135527"><ele>9.0</ele><time>2026-04-12T08:22:34.999Z</time></trkpt><trkpt lat="43.465124924380326" lon="10.34991058487452"><ele>11.666666666666668</ele><time>2026-04-12T08:22:35.999Z</time></trkpt><trkpt lat="43.46512035282795" lon="10.350015027555177"><ele>14.333333333333334</ele><time>2026-04-12T08:22:36.999Z</time></trkpt><trkpt lat="43.46511722970954" lon="10.35011302742126"><ele>17.0</ele><time>2026-04-12T08:22:37.999Z</time></trkpt><trkpt lat="43.46510596920762" lon="10.350209887219368"><ele>19.666666666666668</ele><time>2026-04-12T08:22:39Z</time></trkpt><trkpt lat="43.46510466351382" lon="10.350300990791087"><ele>22.333333333333336</ele><time>2026-04-12T08:22:40Z</time></trkpt><trkpt lat="43.46510270930867" lon="10.350388728243734"><ele>25.0</ele><time>2026-04-12T08:22:41Z</time></trkpt><trkpt lat="43.46510051740609" lon="10.350553527861589"><ele>27.8</ele><time>2026-04-12T08:22:43Z</time></trkpt><trkpt lat="43.46508090213298" lon="10.35064174905318"><ele>30.6</ele><time>2026-04-12T08:22:44Z</time></trkpt><trkpt lat="43.46506441150392" lon="10.350726756534643"><ele>33.4</ele><time>2026-04-12T08:22:45Z</time></trkpt><trkpt lat="43.46501758764589" lon="10.35087043628287"><ele>36.2</ele><time>2026-04-12T08:22:47Z</time></trkpt><trkpt lat="43.46495145140438" lon="10.350993397381297"><ele>39.0</ele><time>2026-04-12T08:22:49Z</time></trkpt><trkpt lat="43.464877429131015" lon="10.351095159566585"><ele>39.0</ele><time>2026-04-12T08:22:51Z</time></trkpt><trkpt lat="43.46479810446601" lon="10.35118835376492"><ele>39.0</ele><time>2026-04-12T08:22:53Z</time></trkpt><trkpt lat="43.464732409648384" lon="10.351286353276853"><ele>39.0</ele><time>2026-04-12T08:22:55Z</time></trkpt><trkpt lat="43.46467764065787" lon="10.351397319316051"><ele>39.0</ele><time>2026-04-12T08:22:57Z</time></trkpt><trkpt lat="43.46463444042453" lon="10.351509376454736"><ele>39.0</ele><time>2026-04-12T08:22:59Z</time></trkpt><trkpt lat="43.46459595204569" lon="10.351631389652976"><ele>35.8</ele><time>2026-04-12T08:23:01Z</time></trkpt><trkpt lat="43.46456168207929" lon="10.351754243121494"><ele>32.599999999999994</ele><time>2026-04-12T08:23:03Z</time></trkpt><trkpt lat="43.46452880113287" lon="10.351870855751818"><ele>29.4</ele><time>2026-04-12T08:23:05Z</time></trkpt><trkpt lat="43.46448172065377" lon="10.352004293172016"><ele>26.2</ele><time>2026-04-12T08:23:07Z</time></trkpt><trkpt lat="43.46446589596751" lon="10.352114815286933"><ele>23.0</ele><time>2026-04-12T08:23:09Z</time></trkpt><trkpt lat="43.46445631506093" lon="10.35223558540212"><ele>23.0</ele><time>2026-04-12T08:23:11Z</time></trkpt><trkpt lat="43.46445139351239" lon="10.352349364701057"><ele>23.0</ele><time>2026-04-12T08:23:13Z</time></trkpt><trkpt lat="43.4644620728981" lon="10.352466091016503"><ele>23.0</ele><time>2026-04-12T08:23:15Z</time></trkpt><trkpt lat="43.464486962923786" lon="10.352582704436916"><ele>23.0</ele><time>2026-04-12T08:23:17Z</time></trkpt><trkpt lat="43.4645063260027" lon="10.352692804333271"><ele>23.0</ele><time>2026-04-12T08:23:19Z</time></trkpt><trkpt lat="43.464533305697735" lon="10.352800857203402"><ele>23.0</ele><time>2026-04-12T08:23:21Z</time></trkpt><trkpt lat="43.464556890752164" lon="10.352915619840173"><ele>23.0</ele><time>2026-04-12T08:23:23Z</time></trkpt><trkpt lat="43.46458590740559" lon="10.353018068394979"><ele>23.0</ele><time>2026-04-12T08:23:25Z</time></trkpt><trkpt lat="43.46461799323198" lon="10.353119374944427"><ele>23.0</ele><time>2026-04-12T08:23:27Z</time></trkpt><trkpt lat="43.464652744822665" lon="10.353212730155207"><ele>23.0</ele><time>2026-04-12T08:23:29Z</time></trkpt><trkpt lat="43.46469104708658" lon="10.3533314154996"><ele>23.0</ele><time>2026-04-12T08:23:32Z</time></trkpt><trkpt lat="43.46474420497815" lon="10.353436489814714"><ele>23.0</ele><time>2026-04-12T08:23:35Z</time></trkpt><trkpt lat="43.464796054670984" lon="10.35353265911236"><ele>26.285714285714285</ele><time>2026-04-12T08:23:38Z</time></trkpt><trkpt lat="43.46484789803001" lon="10.35363789792574"><ele>29.57142857142857</ele><time>2026-04-12T08:23:41Z</time></trkpt><trkpt lat="43.464887398384455" lon="10.35370884926287"><ele>32.85714285714286</ele><time>2026-04-12T08:23:43Z</time></trkpt><trkpt lat="43.46492320770169" lon="10.353788393169037"><ele>36.14285714285714</ele><time>2026-04-12T08:23:45Z</time></trkpt><trkpt lat="43.46496062479525" lon="10.3538696924627"><ele>39.42857142857142</ele><time>2026-04-12T08:23:47Z</time></trkpt><trkpt lat="43.46500412327064" lon="10.353947549113636"><ele>42.714285714285715</ele><time>2026-04-12T08:23:49Z</time></trkpt><trkpt lat="43.465042281513746" lon="10.354026322915184"><ele>46.0</ele><time>2026-04-12T08:23:51Z</time></trkpt><trkpt lat="43.46508321834512" lon="10.35409988046423"><ele>46.0</ele><time>2026-04-12T08:23:53Z</time></trkpt><trkpt lat="43.46512343260365" lon="10.354179836901826"><ele>46.0</ele><time>2026-04-12T08:23:55Z</time></trkpt><trkpt lat="43.46516371090586" lon="10.354255976121967"><ele>46.0</ele><time>2026-04-12T08:23:57Z</time></trkpt><trkpt lat="43.46521030952505" lon="10.354330508965605"><ele>46.0</ele><time>2026-04-12T08:23:59Z</time></trkpt><trkpt lat="43.46524992257668" lon="10.354421666647733"><ele>46.0</ele><time>2026-04-12T08:24:01Z</time></trkpt><trkpt lat="43.465292702255354" lon="10.354510091914971"><ele>46.0</ele><time>2026-04-12T08:24:03Z</time></trkpt><trkpt lat="43.46533808036168" lon="10.354593719454579"><ele>46.0</ele><time>2026-04-12T08:24:05Z</time></trkpt><trkpt lat="43.46538490539703" lon="10.354683513442032"><ele>45.5</ele><time>2026-04-12T08:24:07Z</time></trkpt><trkpt lat="43.46542719351826" lon="10.354769701633677"><ele>45.0</ele><time>2026-04-12T08:24:09Z</time></trkpt><trkpt lat="43.465469088773645" lon="10.354852630124114"><ele>44.5</ele><time>2026-04-12T08:24:11Z</time></trkpt><trkpt lat="43.465511188610144" lon="10.354943203090343"><ele>44.0</ele><time>2026-04-12T08:24:13Z</time></trkpt><trkpt lat="43.46553303867248" lon="10.355044069099439"><ele>43.5</ele><time>2026-04-12T08:24:15Z</time></trkpt><trkpt lat="43.46554464852486" lon="10.355142946961456"><ele>43.0</ele><time>2026-04-12T08:24:17Z</time></trkpt><trkpt lat="43.46555593029128" lon="10.355251066324511"><ele>46.0</ele><time>2026-04-12T08:24:19Z</time></trkpt><trkpt lat="43.465543812427015" lon="10.355356877151584"><ele>49.0</ele><time>2026-04-12T08:24:21Z</time></trkpt><trkpt lat="43.46553188782211" lon="10.35545467688356"><ele>52.0</ele><time>2026-04-12T08:24:23Z</time></trkpt><trkpt lat="43.465506985181854" lon="10.355549542222594"><ele>55.0</ele><time>2026-04-12T08:24:25Z</time></trkpt><trkpt lat="43.46547691591202" lon="10.355647583597962"><ele>57.99999999999999</ele><time>2026-04-12T08:24:27Z</time></trkpt><trkpt lat="43.46544963988096" lon="10.355744494343103"><ele>61.0</ele><time>2026-04-12T08:24:29Z</time></trkpt><trkpt lat="43.46540497787729" lon="10.355831859873994"><ele>60.99999999999999</ele><time>2026-04-12T08:24:31Z</time></trkpt><trkpt lat="43.46534856857709" lon="10.355900976749545"><ele>61.0</ele><time>2026-04-12T08:24:32.999Z</time></trkpt><trkpt lat="43.465290646708915" lon="10.355960255077353"><ele>60.99999999999999</ele><time>2026-04-12T08:24:34.999Z</time></trkpt><trkpt lat="43.465223290023914" lon="10.356006511793941"><ele>60.99999999999999</ele><time>2026-04-12T08:24:36.999Z</time></trkpt><trkpt lat="43.4651468830025" lon="10.356032829890541"><ele>61.0</ele><time>2026-04-12T08:24:38.999Z</time></trkpt><trkpt lat="43.465076549706104" lon="10.35605092370055"><ele>60.99999999999999</ele><time>2026-04-12T08:24:40.999Z</time></trkpt><trkpt lat="43.46500478937949" lon="10.356058904753192"><ele>60.99999999999999</ele><time>2026-04-12T08:24:42.999Z</time></trkpt><trkpt lat="43.46493807839183" lon="10.356064370851076"><ele>60.99999999999999</ele><time>2026-04-12T08:24:45Z</time></trkpt><trkpt lat="43.46484317755599" lon="10.356076172654173"><ele>61.0</ele><time>2026-04-12T08:24:48Z</time></trkpt><trkpt lat="43.46475250973299" lon="10.356121805068643"><ele>61.0</ele><time>2026-04-12T08:24:51Z</time></trkpt><trkpt lat="43.46468885714864" lon="10.356161636213823"><ele>61.0</ele><time>2026-04-12T08:24:53Z</time></trkpt><trkpt lat="43.464618664846526" lon="10.356223000558218"><ele>60.99999999999999</ele><time>2026-04-12T08:24:55Z</time></trkpt><trkpt lat="43.464555719731486" lon="10.356302016919447"><ele>61.0</ele><time>2026-04-12T08:24:57Z</time></trkpt><trkpt lat="43.46449319494218" lon="10.356374734418377"><ele>64.16666666666666</ele><time>2026-04-12T08:24:59Z</time></trkpt><trkpt lat="43.464433823755336" lon="10.356442215618278"><ele>67.33333333333333</ele><time>2026-04-12T08:25:01Z</time></trkpt><trkpt lat="43.464371358575825" lon="10.35651999680428"><ele>70.5</ele><time>2026-04-12T08:25:03Z</time></trkpt><trkpt lat="43.464306837911494" lon="10.35660184598109"><ele>73.66666666666667</ele><time>2026-04-12T08:25:05Z</time></trkpt><trkpt lat="43.464237936846885" lon="10.356681663791148"><ele>76.83333333333334</ele><time>2026-04-12T08:25:07Z</time></trkpt><trkpt lat="43.46416824966072" lon="10.356754492375774"><ele>80.0</ele><time>2026-04-12T08:25:09Z</time></trkpt><trkpt lat="43.46410350240628" lon="10.356841353019172"><ele>80.0</ele><time>2026-04-12T08:25:11Z</time></trkpt><trkpt lat="43.464033479976656" lon="10.356935181902617"><ele>80.0</ele><time>2026-04-12T08:25:13Z</time></trkpt><trkpt lat="43.463980465278794" lon="10.357045544768955"><ele>80.0</ele><time>2026-04-12T08:25:15Z</time></trkpt><trkpt lat="43.46393157830628" lon="10.357170505348837"><ele>80.0</ele><time>2026-04-12T08:25:17Z</time></trkpt><trkpt lat="43.46385242798955" lon="10.357291035338763"><ele>80.0</ele><time>2026-04-12T08:25:19Z</time></trkpt><trkpt lat="43.46384589505488" lon="10.357476362182888"><ele>79.0</ele><time>2026-04-12T08:25:21Z</time></trkpt><trkpt lat="43.46382603084965" lon="10.357574066417966"><ele>78.0</ele><time>2026-04-12T08:25:22Z</time></trkpt><trkpt lat="43.46381445025704" lon="10.357659701533196"><ele>77.0</ele><time>2026-04-12T08:25:23Z</time></trkpt><trkpt lat="43.46379405593403" lon="10.357765230256216"><ele>76.0</ele><time>2026-04-12T08:25:24Z</time></trkpt><trkpt lat="43.463770544804675" lon="10.357862600247891"><ele>75.0</ele><time>2026-04-12T08:25:25Z</time></trkpt><trkpt lat="43.46375028215254" lon="10.357966924050444"><ele>74.0</ele><time>2026-04-12T08:25:26Z</time></trkpt><trkpt lat="43.463730224348744" lon="10.358075177328285"><ele>71.8</ele><time>2026-04-12T08:25:27Z</time></trkpt><trkpt lat="43.46371335584719" lon="10.358192800526506"><ele>69.60000000000001</ele><time>2026-04-12T08:25:28Z</time></trkpt><trkpt lat="43.46368182708545" lon="10.358306674624588"><ele>67.4</ele><time>2026-04-12T08:25:29Z</time></trkpt><trkpt lat="43.463658589957234" lon="10.358427184895667"><ele>65.2</ele><time>2026-04-12T08:25:30Z</time></trkpt><trkpt lat="43.46362749137564" lon="10.358547411140636"><ele>63.0</ele><time>2026-04-12T08:25:31Z</time></trkpt><trkpt lat="43.463593104973405" lon="10.358674878807859"><ele>63.0</ele><time>2026-04-12T08:25:32Z</time></trkpt><trkpt lat="43.46353339372937" lon="10.358793796415801"><ele>63.0</ele><time>2026-04-12T08:25:33Z</time></trkpt><trkpt lat="43.46343709624787" lon="10.358872740223669"><ele>63.0</ele><time>2026-04-12T08:25:34Z</time></trkpt><trkpt lat="43.46333943635887" lon="10.358944508356668"><ele>63.0</ele><time>2026-04-12T08:25:35Z</time></trkpt><trkpt lat="43.46324745576318" lon="10.359018164242116"><ele>63.0</ele><time>2026-04-12T08:25:36Z</time></trkpt><trkpt lat="43.46315059665122" lon="10.359096317187985"><ele>65.25</ele><time>2026-04-12T08:25:37Z</time></trkpt><trkpt lat="43.463046811834985" lon="10.35917880683063"><ele>67.5</ele><time>2026-04-12T08:25:38Z</time></trkpt><trkpt lat="43.46294570731527" lon="10.359257901216592"><ele>69.75</ele><time>2026-04-12T08:25:39Z</time></trkpt><trkpt lat="43.462852812961415" lon="10.3593404249101"><ele>72.0</ele><time>2026-04-12T08:25:40Z</time></trkpt><trkpt lat="43.46275620739968" lon="10.359424041246651"><ele>68.5</ele><time>2026-04-12T08:25:41Z</time></trkpt><trkpt lat="43.46265481083119" lon="10.359511559144375"><ele>65.0</ele><time>2026-04-12T08:25:42Z</time></trkpt><trkpt lat="43.4625549370822" lon="10.35961015331967"><ele>61.5</ele><time>2026-04-12T08:25:43Z</time></trkpt><trkpt lat="43.46247250703119" lon="10.359736092773817"><ele>58.0</ele><time>2026-04-12T08:25:44Z</time></trkpt><trkpt lat="43.46241696127097" lon="10.359897697192219"><ele>58.0</ele><time>2026-04-12T08:25:45Z</time></trkpt><trkpt lat="43.46236659559085" lon="10.360062204170855"><ele>58.0</ele><time>2026-04-12T08:25:46Z</time></trkpt><trkpt lat="43.462308700904416" lon="10.360221837634327"><ele>58.0</ele><time>2026-04-12T08:25:47Z</time></trkpt><trkpt lat="43.46226403703627" lon="10.360387669322717"><ele>58.0</ele><time>2026-04-12T08:25:48Z</time></trkpt><trkpt lat="43.46223724025793" lon="10.360569288920603"><ele>59.0</ele><time>2026-04-12T08:25:49Z</time></trkpt><trkpt lat="43.46225716598562" lon="10.360763606297592"><ele>60.0</ele><time>2026-04-12T08:25:50Z</time></trkpt><trkpt lat="43.46226718381284" lon="10.360953937083893"><ele>61.0</ele><time>2026-04-12T08:25:51Z</time></trkpt><trkpt lat="43.46228318839145" lon="10.361145869281474"><ele>62.0</ele><time>2026-04-12T08:25:52Z</time></trkpt><trkpt lat="43.46229661945256" lon="10.361332261109728"><ele>59.25</ele><time>2026-04-12T08:25:53Z</time></trkpt><trkpt lat="43.462294805132665" lon="10.36149410526107"><ele>56.5</ele><time>2026-04-12T08:25:54Z</time></trkpt><trkpt lat="43.46232331341948" lon="10.361648297246514"><ele>53.75</ele><time>2026-04-12T08:25:55Z</time></trkpt><trkpt lat="43.462412742630804" lon="10.361773157655373"><ele>51.0</ele><time>2026-04-12T08:25:56Z</time></trkpt><trkpt lat="43.46254161659272" lon="10.361839399964783"><ele>51.0</ele><time>2026-04-12T08:25:57Z</time></trkpt><trkpt lat="43.46268073607296" lon="10.361856628501195"><ele>51.0</ele><time>2026-04-12T08:25:58Z</time></trkpt><trkpt lat="43.46281312729911" lon="10.361855519167403"><ele>51.0</ele><time>2026-04-12T08:25:59Z</time></trkpt><trkpt lat="43.46294028197173" lon="10.36186575363163"><ele>51.0</ele><time>2026-04-12T08:26:00Z</time></trkpt><trkpt lat="43.46303881796481" lon="10.361881140074734"><ele>51.666666666666664</ele><time>2026-04-12T08:26:01Z</time></trkpt><trkpt lat="43.463128819993514" lon="10.361896602464196"><ele>52.33333333333333</ele><time>2026-04-12T08:26:02Z</time></trkpt><trkpt lat="43.46319673637543" lon="10.361941526483749"><ele>53.0</ele><time>2026-04-12T08:26:03Z</time></trkpt><trkpt lat="43.46322922638742" lon="10.362028291666316"><ele>53.666666666666664</ele><time>2026-04-12T08:26:04Z</time></trkpt><trkpt lat="43.463222790010065" lon="10.362157491466755"><ele>54.33333333333333</ele><time>2026-04-12T08:26:05Z</time></trkpt><trkpt lat="43.46318471882518" lon="10.362260815155366"><ele>55.0</ele><time>2026-04-12T08:26:06Z</time></trkpt><trkpt lat="43.463130836167906" lon="10.362360396828292"><ele>55.0</ele><time>2026-04-12T08:26:07Z</time></trkpt><trkpt lat="43.46304708830591" lon="10.362410328959408"><ele>55.0</ele><time>2026-04-12T08:26:08Z</time></trkpt><trkpt lat="43.462953522221866" lon="10.362410335211026"><ele>55.0</ele><time>2026-04-12T08:26:09Z</time></trkpt><trkpt lat="43.462859402494786" lon="10.36242879692054"><ele>55.0</ele><time>2026-04-12T08:26:10Z</time></trkpt><trkpt lat="43.46276927253271" lon="10.362459145419555"><ele>55.0</ele><time>2026-04-12T08:26:11Z</time></trkpt><trkpt lat="43.462666892001856" lon="10.362503052792436"><ele>53.0</ele><time>2026-04-12T08:26:12Z</time></trkpt><trkpt lat="43.462583948506165" lon="10.362535140321892"><ele>51.0</ele><time>2026-04-12T08:26:13Z</time></trkpt><trkpt lat="43.462489873601044" lon="10.362575843410491"><ele>49.0</ele><time>2026-04-12T08:26:14Z</time></trkpt><trkpt lat="43.462396987394314" lon="10.362642766223976"><ele>47.0</ele><time>2026-04-12T08:26:15Z</time></trkpt><trkpt lat="43.46231063864757" lon="10.3627295918464"><ele>45.0</ele><time>2026-04-12T08:26:16Z</time></trkpt><trkpt lat="43.46223312109817" lon="10.362829736465503"><ele>45.0</ele><time>2026-04-12T08:26:17Z</time></trkpt><trkpt lat="43.46215734293926" lon="10.362943202536798"><ele>45.0</ele><time>2026-04-12T08:26:18Z</time></trkpt><trkpt lat="43.46209249029324" lon="10.363068643475488"><ele>45.0</ele><time>2026-04-12T08:26:19Z</time></trkpt><trkpt lat="43.462033793431445" lon="10.363205231624091"><ele>45.0</ele><time>2026-04-12T08:26:20Z</time></trkpt><trkpt lat="43.46198912242617" lon="10.363352397931559"><ele>41.75</ele><time>2026-04-12T08:26:21Z</time></trkpt><trkpt lat="43.46195313586143" lon="10.36351005184888"><ele>38.5</ele><time>2026-04-12T08:26:22Z</time></trkpt><trkpt lat="43.46191625738747" lon="10.363670264597246"><ele>35.25</ele><time>2026-04-12T08:26:23Z</time></trkpt><trkpt lat="43.461880202983004" lon="10.363836343456484"><ele>32.0</ele><time>2026-04-12T08:26:24Z</time></trkpt><trkpt lat="43.46183484551153" lon="10.364000946575091"><ele>31.0</ele><time>2026-04-12T08:26:25Z</time></trkpt><trkpt lat="43.46179465870397" lon="10.364167033380612"><ele>30.0</ele><time>2026-04-12T08:26:26Z</time></trkpt><trkpt lat="43.46174590434784" lon="10.364337078233786"><ele>29.0</ele><time>2026-04-12T08:26:27Z</time></trkpt><trkpt lat="43.46168976932769" lon="10.36450206018733"><ele>28.0</ele><time>2026-04-12T08:26:28Z</time></trkpt><trkpt lat="43.46161698485193" lon="10.364660278839487"><ele>27.75</ele><time>2026-04-12T08:26:29Z</time></trkpt><trkpt lat="43.461521115604484" lon="10.364792652381695"><ele>27.5</ele><time>2026-04-12T08:26:30Z</time></trkpt><trkpt lat="43.46141181672083" lon="10.3649037442502"><ele>27.25</ele><time>2026-04-12T08:26:31Z</time></trkpt><trkpt lat="43.461308811565495" lon="10.365020366694994"><ele>27.0</ele><time>2026-04-12T08:26:32Z</time></trkpt><trkpt lat="43.461212703834065" lon="10.36514063229136"><ele>26.0</ele><time>2026-04-12T08:26:33Z</time></trkpt><trkpt lat="43.461122491164566" lon="10.365267924426476"><ele>25.0</ele><time>2026-04-12T08:26:34Z</time></trkpt><trkpt lat="43.46104346162805" lon="10.365411800945958"><ele>24.0</ele><time>2026-04-12T08:26:35Z</time></trkpt><trkpt lat="43.46097332502536" lon="10.365569716948764"><ele>23.0</ele><time>2026-04-12T08:26:36Z</time></trkpt><trkpt lat="43.46093006544896" lon="10.36573297508423"><ele>22.25</ele><time>2026-04-12T08:26:37Z</time></trkpt><trkpt lat="43.4608993076847" lon="10.365907789763732"><ele>21.5</ele><time>2026-04-12T08:26:38Z</time></trkpt><trkpt lat="43.46087403262488" lon="10.366070334518529"><ele>20.75</ele><time>2026-04-12T08:26:39Z</time></trkpt><trkpt lat="43.46084466246092" lon="10.366240652592081"><ele>20.0</ele><time>2026-04-12T08:26:40Z</time></trkpt><trkpt lat="43.46080504803992" lon="10.366405006563337"><ele>18.5</ele><time>2026-04-12T08:26:41Z</time></trkpt><trkpt lat="43.46075582823796" lon="10.366559411170075"><ele>17.0</ele><time>2026-04-12T08:26:42Z</time></trkpt><trkpt lat="43.46069180074805" lon="10.366700921051661"><ele>15.5</ele><time>2026-04-12T08:26:43Z</time></trkpt><trkpt lat="43.46061589186447" lon="10.36682934162395"><ele>14.0</ele><time>2026-04-12T08:26:44Z</time></trkpt><trkpt lat="43.46053514332417" lon="10.366942929323363"><ele>14.2</ele><time>2026-04-12T08:26:45Z</time></trkpt><trkpt lat="43.46044896114022" lon="10.367041254607686"><ele>14.399999999999999</ele><time>2026-04-12T08:26:46Z</time></trkpt><trkpt lat="43.46035663037536" lon="10.367123212356443"><ele>14.6</ele><time>2026-04-12T08:26:47Z</time></trkpt><trkpt lat="43.46026017144131" lon="10.367188277858236"><ele>14.8</ele><time>2026-04-12T08:26:48Z</time></trkpt><trkpt lat="43.46016259565851" lon="10.367238165202044"><ele>15.0</ele><time>2026-04-12T08:26:49Z</time></trkpt><trkpt lat="43.46006686927125" lon="10.367277590835593"><ele>15.833333333333334</ele><time>2026-04-12T08:26:50Z</time></trkpt><trkpt lat="43.45997638717565" lon="10.367315200237536"><ele>16.666666666666668</ele><time>2026-04-12T08:26:51Z</time></trkpt><trkpt lat="43.459888260645414" lon="10.367351748752967"><ele>17.5</ele><time>2026-04-12T08:26:52Z</time></trkpt><trkpt lat="43.459807216067645" lon="10.367381574607455"><ele>18.333333333333336</ele><time>2026-04-12T08:26:53Z</time></trkpt><trkpt lat="43.45973039228293" lon="10.367411462625055"><ele>19.166666666666668</ele><time>2026-04-12T08:26:54Z</time></trkpt><trkpt lat="43.459658082775434" lon="10.367444587406455"><ele>20.0</ele><time>2026-04-12T08:26:55Z</time></trkpt><trkpt lat="43.45958693405993" lon="10.36748544074435"><ele>20.428571428571427</ele><time>2026-04-12T08:26:56Z</time></trkpt><trkpt lat="43.45952249305612" lon="10.367527076352799"><ele>20.857142857142858</ele><time>2026-04-12T08:26:57Z</time></trkpt><trkpt lat="43.45946086365968" lon="10.367566434621658"><ele>21.285714285714285</ele><time>2026-04-12T08:26:58Z</time></trkpt><trkpt lat="43.45940480301098" lon="10.367618925624697"><ele>21.714285714285715</ele><time>2026-04-12T08:26:59Z</time></trkpt><trkpt lat="43.45934559307221" lon="10.367673219907454"><ele>22.142857142857142</ele><time>2026-04-12T08:27:00Z</time></trkpt><trkpt lat="43.459288839292235" lon="10.367719405104554"><ele>22.571428571428573</ele><time>2026-04-12T08:27:01Z</time></trkpt><trkpt lat="43.45923427843594" lon="10.367774500342778"><ele>23.0</ele><time>2026-04-12T08:27:02Z</time></trkpt><trkpt lat="43.459174894445134" lon="10.367837721526996"><ele>23.0</ele><time>2026-04-12T08:27:03Z</time></trkpt><trkpt lat="43.459115309995866" lon="10.367894834932837"><ele>23.0</ele><time>2026-04-12T08:27:04Z</time></trkpt><trkpt lat="43.45905458981215" lon="10.367952142837634"><ele>23.0</ele><time>2026-04-12T08:27:05Z</time></trkpt><trkpt lat="43.45899437433759" lon="10.36800989456145"><ele>23.0</ele><time>2026-04-12T08:27:06Z</time></trkpt><trkpt lat="43.458929796215905" lon="10.368072866797249"><ele>23.0</ele><time>2026-04-12T08:27:07Z</time></trkpt><trkpt lat="43.45887410409312" lon="10.368138394688096"><ele>23.0</ele><time>2026-04-12T08:27:08Z</time></trkpt><trkpt lat="43.458814845138875" lon="10.368195882164251"><ele>23.0</ele><time>2026-04-12T08:27:09Z</time></trkpt><trkpt lat="43.45876932601662" lon="10.368262861924437"><ele>22.714285714285715</ele><time>2026-04-12T08:27:10Z</time></trkpt><trkpt lat="43.45869919493062" lon="10.368311812877161"><ele>22.428571428571427</ele><time>2026-04-12T08:27:11Z</time></trkpt><trkpt lat="43.4586468650617" lon="10.368369882014106"><ele>22.142857142857142</ele><time>2026-04-12T08:27:12Z</time></trkpt><trkpt lat="43.45859619497022" lon="10.368435109822672"><ele>21.857142857142858</ele><time>2026-04-12T08:27:13Z</time></trkpt><trkpt lat="43.45854918877517" lon="10.368500978646738"><ele>21.57142857142857</ele><time>2026-04-12T08:27:14Z</time></trkpt><trkpt lat="43.458507879087165" lon="10.368578216210878"><ele>21.285714285714285</ele><time>2026-04-12T08:27:15Z</time></trkpt><trkpt lat="43.45846657147431" lon="10.368656120118905"><ele>21.0</ele><time>2026-04-12T08:27:16Z</time></trkpt><trkpt lat="43.45842750912168" lon="10.368742852169596"><ele>21.0</ele><time>2026-04-12T08:27:17Z</time></trkpt><trkpt lat="43.45838808518139" lon="10.368825222238494"><ele>21.0</ele><time>2026-04-12T08:27:18Z</time></trkpt><trkpt lat="43.45835526172063" lon="10.368909950489865"><ele>21.0</ele><time>2026-04-12T08:27:19Z</time></trkpt><trkpt lat="43.4583266656499" lon="10.36900417689678"><ele>21.0</ele><time>2026-04-12T08:27:20Z</time></trkpt><trkpt lat="43.45829957827573" lon="10.369094988997318"><ele>21.0</ele><time>2026-04-12T08:27:21Z</time></trkpt><trkpt lat="43.45827622236109" lon="10.369184198471538"><ele>21.0</ele><time>2026-04-12T08:27:22Z</time></trkpt><trkpt lat="43.45825342664355" lon="10.369272650941745"><ele>21.0</ele><time>2026-04-12T08:27:23Z</time></trkpt><trkpt lat="43.4582281490094" lon="10.369352423812543"><ele>21.0</ele><time>2026-04-12T08:27:24Z</time></trkpt><trkpt lat="43.45820652246597" lon="10.369438160106808"><ele>21.0</ele><time>2026-04-12T08:27:25Z</time></trkpt><trkpt lat="43.45816449611033" lon="10.369595519698954"><ele>21.0</ele><time>2026-04-12T08:27:27Z</time></trkpt><trkpt lat="43.458118930014024" lon="10.36974994727618"><ele>21.0</ele><time>2026-04-12T08:27:29Z</time></trkpt><trkpt lat="43.45807238899869" lon="10.369906406206322"><ele>21.0</ele><time>2026-04-12T08:27:31Z</time></trkpt><trkpt lat="43.458030465707694" lon="10.370052881932152"><ele>21.0</ele><time>2026-04-12T08:27:33Z</time></trkpt><trkpt lat="43.457987325794946" lon="10.37019954726135"><ele>21.0</ele><time>2026-04-12T08:27:35Z</time></trkpt><trkpt lat="43.4579433042577" lon="10.370353280183432"><ele>21.0</ele><time>2026-04-12T08:27:37Z</time></trkpt><trkpt lat="43.45788740913693" lon="10.370496646064758"><ele>21.0</ele><time>2026-04-12T08:27:39Z</time></trkpt><trkpt lat="43.45782269200937" lon="10.370631962995873"><ele>22.0</ele><time>2026-04-12T08:27:41Z</time></trkpt><trkpt lat="43.457758364600394" lon="10.370763795213078"><ele>23.0</ele><time>2026-04-12T08:27:43Z</time></trkpt><trkpt lat="43.45767238433054" lon="10.370885706597601"><ele>24.0</ele><time>2026-04-12T08:27:45Z</time></trkpt><trkpt lat="43.45759220361638" lon="10.370996135853943"><ele>25.0</ele><time>2026-04-12T08:27:47Z</time></trkpt><trkpt lat="43.45749535146329" lon="10.371104117544416"><ele>25.0</ele><time>2026-04-12T08:27:49Z</time></trkpt><trkpt lat="43.45741740484499" lon="10.371209492320087"><ele>25.0</ele><time>2026-04-12T08:27:51Z</time></trkpt><trkpt lat="43.45732706806465" lon="10.371314469836275"><ele>25.0</ele><time>2026-04-12T08:27:53Z</time></trkpt><trkpt lat="43.45723465451982" lon="10.371419768954913"><ele>25.0</ele><time>2026-04-12T08:27:55Z</time></trkpt><trkpt lat="43.457188428100515" lon="10.371481285474783"><ele>25.0</ele><time>2026-04-12T08:27:56Z</time></trkpt><trkpt lat="43.45710036342299" lon="10.37158321698487"><ele>24.8</ele><time>2026-04-12T08:27:58Z</time></trkpt><trkpt lat="43.457013654647945" lon="10.37169104734984"><ele>24.6</ele><time>2026-04-12T08:28:00Z</time></trkpt><trkpt lat="43.456921889533525" lon="10.371797489193826"><ele>24.4</ele><time>2026-04-12T08:28:02Z</time></trkpt><trkpt lat="43.45683686572383" lon="10.371908528749328"><ele>24.2</ele><time>2026-04-12T08:28:04Z</time></trkpt><trkpt lat="43.45678223736164" lon="10.371963278691542"><ele>24.0</ele><time>2026-04-12T08:28:05Z</time></trkpt><trkpt lat="43.45669908990447" lon="10.372065443406381"><ele>24.0</ele><time>2026-04-12T08:28:07Z</time></trkpt><trkpt lat="43.45661137414911" lon="10.372180954419687"><ele>24.0</ele><time>2026-04-12T08:28:09Z</time></trkpt><trkpt lat="43.45653196743483" lon="10.372284492594666"><ele>24.0</ele><time>2026-04-12T08:28:11Z</time></trkpt><trkpt lat="43.45644785581172" lon="10.372401108590001"><ele>24.0</ele><time>2026-04-12T08:28:13Z</time></trkpt><trkpt lat="43.4563685621604" lon="10.37248825194552"><ele>24.0</ele><time>2026-04-12T08:28:15Z</time></trkpt><trkpt lat="43.456318356913066" lon="10.372541427840021"><ele>24.0</ele><time>2026-04-12T08:28:16Z</time></trkpt><trkpt lat="43.456232320898415" lon="10.372642828284578"><ele>24.0</ele><time>2026-04-12T08:28:18Z</time></trkpt><trkpt lat="43.45614488230653" lon="10.372748901454328"><ele>24.0</ele><time>2026-04-12T08:28:20Z</time></trkpt><trkpt lat="43.45606765994291" lon="10.372846142382889"><ele>24.0</ele><time>2026-04-12T08:28:22Z</time></trkpt><trkpt lat="43.455975615412" lon="10.37294965674178"><ele>26.25</ele><time>2026-04-12T08:28:24Z</time></trkpt><trkpt lat="43.45589113949828" lon="10.373053060618947"><ele>28.5</ele><time>2026-04-12T08:28:26Z</time></trkpt><trkpt lat="43.455799182390074" lon="10.373160439432617"><ele>30.75</ele><time>2026-04-12T08:28:28Z</time></trkpt><trkpt lat="43.455705406327894" lon="10.373271647340063"><ele>33.0</ele><time>2026-04-12T08:28:30Z</time></trkpt><trkpt lat="43.455621650653896" lon="10.373381907627092"><ele>33.0</ele><time>2026-04-12T08:28:32Z</time></trkpt><trkpt lat="43.45557114693413" lon="10.373438189645611"><ele>33.0</ele><time>2026-04-12T08:28:33Z</time></trkpt><trkpt lat="43.455520330687804" lon="10.373499641672224"><ele>33.0</ele><time>2026-04-12T08:28:34Z</time></trkpt><trkpt lat="43.45543778051643" lon="10.373593536834596"><ele>33.0</ele><time>2026-04-12T08:28:36Z</time></trkpt><trkpt lat="43.45539213347572" lon="10.37365706013029"><ele>33.0</ele><time>2026-04-12T08:28:37Z</time></trkpt><trkpt lat="43.45534405831264" lon="10.373722984069122"><ele>33.0</ele><time>2026-04-12T08:28:38Z</time></trkpt><trkpt lat="43.455288670642986" lon="10.373783526303711"><ele>33.0</ele><time>2026-04-12T08:28:39Z</time></trkpt><trkpt lat="43.45519314812293" lon="10.37389767415692"><ele>32.833333333333336</ele><time>2026-04-12T08:28:41Z</time></trkpt><trkpt lat="43.455102323208294" lon="10.374015816905308"><ele>32.666666666666664</ele><time>2026-04-12T08:28:43Z</time></trkpt><trkpt lat="43.455009194483175" lon="10.37412802888366"><ele>32.5</ele><time>2026-04-12T08:28:44.999Z</time></trkpt><trkpt lat="43.45496224018136" lon="10.374190176696155"><ele>32.33333333333333</ele><time>2026-04-12T08:28:45.999Z</time></trkpt><trkpt lat="43.45491187027249" lon="10.374252135891112"><ele>32.166666666666664</ele><time>2026-04-12T08:28:46.999Z</time></trkpt><trkpt lat="43.45486260679265" lon="10.374310537202431"><ele>32.0</ele><time>2026-04-12T08:28:47.999Z</time></trkpt><trkpt lat="43.45475751833657" lon="10.374419708857966"><ele>32.0</ele><time>2026-04-12T08:28:49.999Z</time></trkpt><trkpt lat="43.45470824603294" lon="10.374481148369243"><ele>32.0</ele><time>2026-04-12T08:28:50.999Z</time></trkpt><trkpt lat="43.45465961147924" lon="10.374536508092293"><ele>32.0</ele><time>2026-04-12T08:28:51.999Z</time></trkpt><trkpt lat="43.45454810152124" lon="10.374642105259975"><ele>32.0</ele><time>2026-04-12T08:28:53.999Z</time></trkpt><trkpt lat="43.4544400012185" lon="10.37473578735119"><ele>32.0</ele><time>2026-04-12T08:28:55.999Z</time></trkpt><trkpt lat="43.45438505570361" lon="10.3747896489829"><ele>31.8</ele><time>2026-04-12T08:28:57Z</time></trkpt><trkpt lat="43.45428243757053" lon="10.374882520404196"><ele>31.6</ele><time>2026-04-12T08:28:59Z</time></trkpt><trkpt lat="43.45416709710479" lon="10.37496708939197"><ele>31.400000000000002</ele><time>2026-04-12T08:29:01Z</time></trkpt><trkpt lat="43.454109840208815" lon="10.375004337299199"><ele>31.200000000000003</ele><time>2026-04-12T08:29:02Z</time></trkpt><trkpt lat="43.45400443641723" lon="10.375087423592731"><ele>31.0</ele><time>2026-04-12T08:29:04Z</time></trkpt><trkpt lat="43.45394693959586" lon="10.375135162757326"><ele>31.0</ele><time>2026-04-12T08:29:05Z</time></trkpt><trkpt lat="43.45389056726516" lon="10.375182994982287"><ele>31.0</ele><time>2026-04-12T08:29:06Z</time></trkpt><trkpt lat="43.453779076669086" lon="10.37526556006686"><ele>31.0</ele><time>2026-04-12T08:29:08Z</time></trkpt><trkpt lat="43.45366867858926" lon="10.375340027812578"><ele>31.0</ele><time>2026-04-12T08:29:10Z</time></trkpt><trkpt lat="43.45356323718858" lon="10.375419774516045"><ele>31.0</ele><time>2026-04-12T08:29:12Z</time></trkpt><trkpt lat="43.45350743727206" lon="10.37546200445796"><ele>31.333333333333336</ele><time>2026-04-12T08:29:13Z</time></trkpt><trkpt lat="43.45344779369811" lon="10.375497508448065"><ele>31.666666666666668</ele><time>2026-04-12T08:29:14Z</time></trkpt><trkpt lat="43.453395530378565" lon="10.375549305851111"><ele>32.0</ele><time>2026-04-12T08:29:15Z</time></trkpt><trkpt lat="43.453343005181814" lon="10.375598821248035"><ele>32.333333333333336</ele><time>2026-04-12T08:29:16Z</time></trkpt><trkpt lat="43.4532836775724" lon="10.375643564501633"><ele>32.666666666666664</ele><time>2026-04-12T08:29:17Z</time></trkpt><trkpt lat="43.453168553215825" lon="10.37572164537699"><ele>33.0</ele><time>2026-04-12T08:29:19Z</time></trkpt><trkpt lat="43.453113631447664" lon="10.375767113383006"><ele>33.0</ele><time>2026-04-12T08:29:20Z</time></trkpt><trkpt lat="43.45305746333406" lon="10.375815149690824"><ele>33.0</ele><time>2026-04-12T08:29:21Z</time></trkpt><trkpt lat="43.453001743336486" lon="10.375863118897495"><ele>33.0</ele><time>2026-04-12T08:29:22Z</time></trkpt><trkpt lat="43.45289033784745" lon="10.375941076693659"><ele>33.0</ele><time>2026-04-12T08:29:24Z</time></trkpt><trkpt lat="43.452831193229805" lon="10.375989895617188"><ele>33.0</ele><time>2026-04-12T08:29:25Z</time></trkpt><trkpt lat="43.45277379419816" lon="10.376035270236954"><ele>33.0</ele><time>2026-04-12T08:29:26Z</time></trkpt><trkpt lat="43.45266402825519" lon="10.376120001028497"><ele>33.0</ele><time>2026-04-12T08:29:28Z</time></trkpt><trkpt lat="43.45260676459654" lon="10.376159647715308"><ele>33.0</ele><time>2026-04-12T08:29:29Z</time></trkpt><trkpt lat="43.45254688425515" lon="10.376216390231813"><ele>33.0</ele><time>2026-04-12T08:29:30Z</time></trkpt><trkpt lat="43.452492069578334" lon="10.376267687314131"><ele>33.0</ele><time>2026-04-12T08:29:31Z</time></trkpt><trkpt lat="43.45242812751757" lon="10.376308052130502"><ele>33.0</ele><time>2026-04-12T08:29:32Z</time></trkpt><trkpt lat="43.45236516829317" lon="10.376357316715502"><ele>33.0</ele><time>2026-04-12T08:29:33Z</time></trkpt><trkpt lat="43.45230277479533" lon="10.376401390856607"><ele>33.0</ele><time>2026-04-12T08:29:34Z</time></trkpt><trkpt lat="43.452240127517115" lon="10.376451981451018"><ele>33.0</ele><time>2026-04-12T08:29:35Z</time></trkpt><trkpt lat="43.45217575536635" lon="10.376504760441746"><ele>33.0</ele><time>2026-04-12T08:29:36Z</time></trkpt><trkpt lat="43.45211115325995" lon="10.376554927379326"><ele>33.0</ele><time>2026-04-12T08:29:37Z</time></trkpt><trkpt lat="43.45204673502356" lon="10.376615282488258"><ele>33.0</ele><time>2026-04-12T08:29:38Z</time></trkpt><trkpt lat="43.45197846038863" lon="10.376665283800438"><ele>33.0</ele><time>2026-04-12T08:29:39Z</time></trkpt><trkpt lat="43.45190925481099" lon="10.376709037971821"><ele>33.0</ele><time>2026-04-12T08:29:40Z</time></trkpt><trkpt lat="43.45183985326758" lon="10.37676239894964"><ele>31.333333333333332</ele><time>2026-04-12T08:29:41Z</time></trkpt><trkpt lat="43.45176535329038" lon="10.376817022254196"><ele>29.666666666666668</ele><time>2026-04-12T08:29:42Z</time></trkpt><trkpt lat="43.451696157322516" lon="10.376867728530174"><ele>28.0</ele><time>2026-04-12T08:29:43Z</time></trkpt><trkpt lat="43.45162164940651" lon="10.376919219280214"><ele>26.333333333333336</ele><time>2026-04-12T08:29:44Z</time></trkpt><trkpt lat="43.4515477883865" lon="10.376975889561676"><ele>24.666666666666668</ele><time>2026-04-12T08:29:45Z</time></trkpt><trkpt lat="43.45146776110729" lon="10.377041055778545"><ele>23.0</ele><time>2026-04-12T08:29:46Z</time></trkpt><trkpt lat="43.4514023103958" lon="10.377091356569373"><ele>23.0</ele><time>2026-04-12T08:29:47Z</time></trkpt><trkpt lat="43.45132741694341" lon="10.377144552084145"><ele>23.0</ele><time>2026-04-12T08:29:48Z</time></trkpt><trkpt lat="43.45125256522014" lon="10.377204266462932"><ele>23.0</ele><time>2026-04-12T08:29:49Z</time></trkpt><trkpt lat="43.45117379007336" lon="10.37726682385111"><ele>23.0</ele><time>2026-04-12T08:29:50Z</time></trkpt><trkpt lat="43.45109387973327" lon="10.377327822444828"><ele>23.0</ele><time>2026-04-12T08:29:51Z</time></trkpt><trkpt lat="43.45101763048623" lon="10.377392482957248"><ele>23.0</ele><time>2026-04-12T08:29:52Z</time></trkpt><trkpt lat="43.45094242482092" lon="10.377453414683954"><ele>22.333333333333336</ele><time>2026-04-12T08:29:53Z</time></trkpt><trkpt lat="43.45086791794701" lon="10.377528629619993"><ele>21.666666666666668</ele><time>2026-04-12T08:29:54Z</time></trkpt><trkpt lat="43.45079737075172" lon="10.377599618405737"><ele>21.0</ele><time>2026-04-12T08:29:55Z</time></trkpt><trkpt lat="43.45073529276336" lon="10.377686819781001"><ele>20.333333333333332</ele><time>2026-04-12T08:29:56Z</time></trkpt><trkpt lat="43.4506791677925" lon="10.377779936355813"><ele>19.666666666666664</ele><time>2026-04-12T08:29:57Z</time></trkpt><trkpt lat="43.45062437948169" lon="10.377867695540417"><ele>19.0</ele><time>2026-04-12T08:29:58Z</time></trkpt><trkpt lat="43.450566980336816" lon="10.377958643175592"><ele>18.333333333333332</ele><time>2026-04-12T08:29:59Z</time></trkpt><trkpt lat="43.45051322274719" lon="10.378054190709518"><ele>17.666666666666664</ele><time>2026-04-12T08:30:00Z</time></trkpt><trkpt lat="43.45046330041017" lon="10.378156188793621"><ele>17.0</ele><time>2026-04-12T08:30:01Z</time></trkpt><trkpt lat="43.45041187173365" lon="10.378254553113194"><ele>16.333333333333332</ele><time>2026-04-12T08:30:02Z</time></trkpt><trkpt lat="43.45035623647951" lon="10.378344899693737"><ele>15.666666666666666</ele><time>2026-04-12T08:30:03Z</time></trkpt><trkpt lat="43.45029756603439" lon="10.378452438428337"><ele>15.0</ele><time>2026-04-12T08:30:04Z</time></trkpt><trkpt lat="43.45024252898525" lon="10.378564044857004"><ele>15.0</ele><time>2026-04-12T08:30:05Z</time></trkpt><trkpt lat="43.450177105515955" lon="10.378684395544488"><ele>15.0</ele><time>2026-04-12T08:30:06Z</time></trkpt><trkpt lat="43.45010229452322" lon="10.378788230080833"><ele>15.0</ele><time>2026-04-12T08:30:07Z</time></trkpt><trkpt lat="43.45001615131389" lon="10.378896944142692"><ele>15.0</ele><time>2026-04-12T08:30:08Z</time></trkpt><trkpt lat="43.44992171512712" lon="10.379002365903972"><ele>14.6</ele><time>2026-04-12T08:30:09Z</time></trkpt><trkpt lat="43.44983059587116" lon="10.379101283524506"><ele>14.2</ele><time>2026-04-12T08:30:10Z</time></trkpt><trkpt lat="43.449749033992646" lon="10.379193124138897"><ele>13.8</ele><time>2026-04-12T08:30:11Z</time></trkpt><trkpt lat="43.44966627846958" lon="10.379281140708251"><ele>13.4</ele><time>2026-04-12T08:30:12Z</time></trkpt><trkpt lat="43.44958488969091" lon="10.37935763061573"><ele>13.0</ele><time>2026-04-12T08:30:13Z</time></trkpt><trkpt lat="43.44950525324651" lon="10.37943372335319"><ele>12.666666666666666</ele><time>2026-04-12T08:30:14Z</time></trkpt><trkpt lat="43.44942868043999" lon="10.379511232932028"><ele>12.333333333333332</ele><time>2026-04-12T08:30:15Z</time></trkpt><trkpt lat="43.44935821245068" lon="10.379584595091242"><ele>12.0</ele><time>2026-04-12T08:30:16Z</time></trkpt><trkpt lat="43.449285819334264" lon="10.379653174881742"><ele>11.666666666666666</ele><time>2026-04-12T08:30:17Z</time></trkpt><trkpt lat="43.44921321302661" lon="10.379720060326576"><ele>11.333333333333332</ele><time>2026-04-12T08:30:18Z</time></trkpt><trkpt lat="43.44915133583194" lon="10.3797910351844"><ele>11.0</ele><time>2026-04-12T08:30:19Z</time></trkpt><trkpt lat="43.449087820131524" lon="10.379863215093547"><ele>11.0</ele><time>2026-04-12T08:30:20Z</time></trkpt><trkpt lat="43.449028876984656" lon="10.379931634694232"><ele>11.0</ele><time>2026-04-12T08:30:21Z</time></trkpt><trkpt lat="43.44896533057377" lon="10.37998362657991"><ele>11.0</ele><time>2026-04-12T08:30:22Z</time></trkpt><trkpt lat="43.44890110706333" lon="10.380040772984936"><ele>11.0</ele><time>2026-04-12T08:30:23Z</time></trkpt><trkpt lat="43.4488456779092" lon="10.380091490106576"><ele>11.0</ele><time>2026-04-12T08:30:24Z</time></trkpt><trkpt lat="43.448791285749934" lon="10.380135481082709"><ele>11.0</ele><time>2026-04-12T08:30:25Z</time></trkpt><trkpt lat="43.44869746331885" lon="10.38021839688343"><ele>10.8</ele><time>2026-04-12T08:30:27Z</time></trkpt><trkpt lat="43.44860730614368" lon="10.380298938431082"><ele>10.600000000000001</ele><time>2026-04-12T08:30:29Z</time></trkpt><trkpt lat="43.44851943478726" lon="10.380378080689818"><ele>10.4</ele><time>2026-04-12T08:30:31Z</time></trkpt><trkpt lat="43.44844253718049" lon="10.380453764814497"><ele>10.2</ele><time>2026-04-12T08:30:33Z</time></trkpt><trkpt lat="43.44836060990396" lon="10.380529465580807"><ele>10.0</ele><time>2026-04-12T08:30:35Z</time></trkpt><trkpt lat="43.44828205248431" lon="10.380599630482338"><ele>10.2</ele><time>2026-04-12T08:30:37Z</time></trkpt><trkpt lat="43.448203394770886" lon="10.380668350290229"><ele>10.4</ele><time>2026-04-12T08:30:39Z</time></trkpt><trkpt lat="43.448131827536436" lon="10.380741783637127"><ele>10.600000000000001</ele><time>2026-04-12T08:30:41Z</time></trkpt><trkpt lat="43.448052008026515" lon="10.380813403429457"><ele>10.8</ele><time>2026-04-12T08:30:43Z</time></trkpt><trkpt lat="43.447975830556" lon="10.38088683619126"><ele>11.0</ele><time>2026-04-12T08:30:45Z</time></trkpt><trkpt lat="43.44790107398033" lon="10.380956119654718"><ele>11.0</ele><time>2026-04-12T08:30:47Z</time></trkpt><trkpt lat="43.44782113380341" lon="10.381035206623707"><ele>11.0</ele><time>2026-04-12T08:30:48.999Z</time></trkpt><trkpt lat="43.44774481242203" lon="10.38110596714646"><ele>11.0</ele><time>2026-04-12T08:30:50.999Z</time></trkpt><trkpt lat="43.44766895898807" lon="10.38116779488382"><ele>11.0</ele><time>2026-04-12T08:30:52.999Z</time></trkpt><trkpt lat="43.44760096661501" lon="10.38124559179785"><ele>11.0</ele><time>2026-04-12T08:30:54.999Z</time></trkpt><trkpt lat="43.447520330691525" lon="10.381316198302356"><ele>13.200000000000001</ele><time>2026-04-12T08:30:56.999Z</time></trkpt><trkpt lat="43.44744269992068" lon="10.381381917550842"><ele>15.400000000000002</ele><time>2026-04-12T08:30:58.999Z</time></trkpt><trkpt lat="43.44736260330902" lon="10.381448270867573"><ele>17.6</ele><time>2026-04-12T08:31:00.999Z</time></trkpt><trkpt lat="43.44728847182271" lon="10.381520970039094"><ele>19.8</ele><time>2026-04-12T08:31:03Z</time></trkpt><trkpt lat="43.447214212997885" lon="10.381588694595367"><ele>22.0</ele><time>2026-04-12T08:31:05Z</time></trkpt><trkpt lat="43.4471413140638" lon="10.38165892302959"><ele>19.400000000000002</ele><time>2026-04-12T08:31:07Z</time></trkpt><trkpt lat="43.44706423151881" lon="10.38174220669408"><ele>16.8</ele><time>2026-04-12T08:31:09Z</time></trkpt><trkpt lat="43.44699200192046" lon="10.381814692110982"><ele>14.200000000000001</ele><time>2026-04-12T08:31:11Z</time></trkpt><trkpt lat="43.446914089129294" lon="10.381893707531932"><ele>11.600000000000001</ele><time>2026-04-12T08:31:13Z</time></trkpt><trkpt lat="43.44683659149061" lon="10.381965739810434"><ele>9.0</ele><time>2026-04-12T08:31:15Z</time></trkpt><trkpt lat="43.446757706675655" lon="10.382036131025528"><ele>9.0</ele><time>2026-04-12T08:31:17Z</time></trkpt><trkpt lat="43.446681519373044" lon="10.382108729993252"><ele>9.0</ele><time>2026-04-12T08:31:19Z</time></trkpt><trkpt lat="43.44660380873896" lon="10.3821807573036"><ele>9.0</ele><time>2026-04-12T08:31:21Z</time></trkpt><trkpt lat="43.446523125872254" lon="10.382246481886465"><ele>9.0</ele><time>2026-04-12T08:31:23Z</time></trkpt><trkpt lat="43.44644788017478" lon="10.382318582005494"><ele>9.0</ele><time>2026-04-12T08:31:25Z</time></trkpt><trkpt lat="43.44637743925873" lon="10.382383752810313"><ele>9.8</ele><time>2026-04-12T08:31:27Z</time></trkpt><trkpt lat="43.446297159643834" lon="10.38244510496184"><ele>10.600000000000001</ele><time>2026-04-12T08:31:29Z</time></trkpt><trkpt lat="43.44621197719098" lon="10.382496993801754"><ele>11.4</ele><time>2026-04-12T08:31:31Z</time></trkpt><trkpt lat="43.44612606631155" lon="10.382526950245499"><ele>12.200000000000001</ele><time>2026-04-12T08:31:33Z</time></trkpt><trkpt lat="43.44603230865285" lon="10.382553830364076"><ele>13.0</ele><time>2026-04-12T08:31:35Z</time></trkpt><trkpt lat="43.445938466609206" lon="10.382584278619092"><ele>13.0</ele><time>2026-04-12T08:31:37Z</time></trkpt><trkpt lat="43.44583982295819" lon="10.382610510821134"><ele>13.0</ele><time>2026-04-12T08:31:39Z</time></trkpt><trkpt lat="43.445742267110504" lon="10.382641628412623"><ele>13.0</ele><time>2026-04-12T08:31:41Z</time></trkpt><trkpt lat="43.445640896698706" lon="10.382670997594511"><ele>13.0</ele><time>2026-04-12T08:31:43Z</time></trkpt><trkpt lat="43.445534842707815" lon="10.382697003612193"><ele>13.0</ele><time>2026-04-12T08:31:45Z</time></trkpt><trkpt lat="43.445435734075176" lon="10.38273245404478"><ele>12.600000000000001</ele><time>2026-04-12T08:31:47Z</time></trkpt><trkpt lat="43.44533374865408" lon="10.382769301581355"><ele>12.200000000000001</ele><time>2026-04-12T08:31:49Z</time></trkpt><trkpt lat="43.445230320602164" lon="10.382800319501477"><ele>11.8</ele><time>2026-04-12T08:31:51Z</time></trkpt><trkpt lat="43.44512222456509" lon="10.382836734064332"><ele>11.4</ele><time>2026-04-12T08:31:53Z</time></trkpt><trkpt lat="43.445004928549004" lon="10.382870707471831"><ele>11.0</ele><time>2026-04-12T08:31:55Z</time></trkpt><trkpt lat="43.44494162313436" lon="10.38288564955471"><ele>11.0</ele><time>2026-04-12T08:31:56Z</time></trkpt><trkpt lat="43.44482292720931" lon="10.382921172536523"><ele>11.0</ele><time>2026-04-12T08:31:58Z</time></trkpt><trkpt lat="43.44469168699605" lon="10.38295806608644"><ele>11.0</ele><time>2026-04-12T08:32:00Z</time></trkpt><trkpt lat="43.44462681656571" lon="10.382972864227137"><ele>11.0</ele><time>2026-04-12T08:32:01Z</time></trkpt><trkpt lat="43.44455881413609" lon="10.38299745455576"><ele>11.0</ele><time>2026-04-12T08:32:02Z</time></trkpt><trkpt lat="43.444489949021" lon="10.383021699577373"><ele>12.333333333333332</ele><time>2026-04-12T08:32:03Z</time></trkpt><trkpt lat="43.44441945719227" lon="10.383050909553534"><ele>13.666666666666666</ele><time>2026-04-12T08:32:04Z</time></trkpt><trkpt lat="43.444343171799964" lon="10.383074740941048"><ele>15.0</ele><time>2026-04-12T08:32:05Z</time></trkpt><trkpt lat="43.44426953198342" lon="10.383107666700816"><ele>16.333333333333332</ele><time>2026-04-12T08:32:06Z</time></trkpt><trkpt lat="43.44419190041562" lon="10.383143472294437"><ele>17.666666666666664</ele><time>2026-04-12T08:32:07Z</time></trkpt><trkpt lat="43.444114763973516" lon="10.38317623244633"><ele>19.0</ele><time>2026-04-12T08:32:08Z</time></trkpt><trkpt lat="43.444034173741215" lon="10.383218567798167"><ele>19.0</ele><time>2026-04-12T08:32:09Z</time></trkpt><trkpt lat="43.44395652309465" lon="10.383261683247444"><ele>19.0</ele><time>2026-04-12T08:32:10Z</time></trkpt><trkpt lat="43.44387621497617" lon="10.383308018287726"><ele>19.0</ele><time>2026-04-12T08:32:11Z</time></trkpt><trkpt lat="43.44379895886455" lon="10.383358130866696"><ele>19.0</ele><time>2026-04-12T08:32:12Z</time></trkpt><trkpt lat="43.44371897110533" lon="10.383408641452801"><ele>19.0</ele><time>2026-04-12T08:32:13Z</time></trkpt><trkpt lat="43.44364409519356" lon="10.383460453004163"><ele>19.0</ele><time>2026-04-12T08:32:14Z</time></trkpt><trkpt lat="43.44356170395986" lon="10.38351089376344"><ele>18.0</ele><time>2026-04-12T08:32:15Z</time></trkpt><trkpt lat="43.443488679255246" lon="10.383566467771965"><ele>17.0</ele><time>2026-04-12T08:32:16Z</time></trkpt><trkpt lat="43.44342009490973" lon="10.383625520022342"><ele>16.0</ele><time>2026-04-12T08:32:17Z</time></trkpt><trkpt lat="43.44334890153761" lon="10.383673221564466"><ele>15.0</ele><time>2026-04-12T08:32:18Z</time></trkpt><trkpt lat="43.44328030030005" lon="10.383725013972455"><ele>13.999999999999998</ele><time>2026-04-12T08:32:19Z</time></trkpt><trkpt lat="43.4432133951493" lon="10.383769184171394"><ele>13.0</ele><time>2026-04-12T08:32:20Z</time></trkpt><trkpt lat="43.443152234273825" lon="10.383814957599236"><ele>13.142857142857142</ele><time>2026-04-12T08:32:21Z</time></trkpt><trkpt lat="43.443089337357975" lon="10.383862446760732"><ele>13.285714285714286</ele><time>2026-04-12T08:32:22Z</time></trkpt><trkpt lat="43.4430296651911" lon="10.383908645026308"><ele>13.428571428571429</ele><time>2026-04-12T08:32:23Z</time></trkpt><trkpt lat="43.44297244333851" lon="10.383952922483177"><ele>13.571428571428571</ele><time>2026-04-12T08:32:24Z</time></trkpt><trkpt lat="43.442913774640466" lon="10.383995639486162"><ele>13.714285714285715</ele><time>2026-04-12T08:32:25Z</time></trkpt><trkpt lat="43.442854526741655" lon="10.384038546662646"><ele>13.857142857142858</ele><time>2026-04-12T08:32:26Z</time></trkpt><trkpt lat="43.44279815650694" lon="10.384078416484932"><ele>14.0</ele><time>2026-04-12T08:32:27Z</time></trkpt><trkpt lat="43.44274156454377" lon="10.384119519766136"><ele>14.0</ele><time>2026-04-12T08:32:28Z</time></trkpt><trkpt lat="43.442631008225824" lon="10.384199995079678"><ele>14.0</ele><time>2026-04-12T08:32:30Z</time></trkpt><trkpt lat="43.44251853552817" lon="10.384278584701377"><ele>14.0</ele><time>2026-04-12T08:32:32Z</time></trkpt><trkpt lat="43.4424154608464" lon="10.384355498182682"><ele>14.0</ele><time>2026-04-12T08:32:34Z</time></trkpt><trkpt lat="43.44231249332323" lon="10.38442900714926"><ele>14.0</ele><time>2026-04-12T08:32:36Z</time></trkpt><trkpt lat="43.44225207372442" lon="10.384469239305359"><ele>13.999999999999998</ele><time>2026-04-12T08:32:37Z</time></trkpt><trkpt lat="43.44214103451118" lon="10.384546832554078"><ele>13.999999999999998</ele><time>2026-04-12T08:32:39Z</time></trkpt><trkpt lat="43.442045006362335" lon="10.384615418855828"><ele>14.0</ele><time>2026-04-12T08:32:41Z</time></trkpt><trkpt lat="43.441945914303474" lon="10.384685808444653"><ele>14.0</ele><time>2026-04-12T08:32:43Z</time></trkpt><trkpt lat="43.44188209915942" lon="10.384736506336932"><ele>15.000000000000002</ele><time>2026-04-12T08:32:44Z</time></trkpt><trkpt lat="43.44182177765693" lon="10.384784121170783"><ele>16.0</ele><time>2026-04-12T08:32:45Z</time></trkpt><trkpt lat="43.441716511868314" lon="10.384860240888642"><ele>17.0</ele><time>2026-04-12T08:32:47Z</time></trkpt><trkpt lat="43.44165828112046" lon="10.384900303943896"><ele>18.0</ele><time>2026-04-12T08:32:48Z</time></trkpt><trkpt lat="43.44155320907066" lon="10.384982073946851"><ele>19.0</ele><time>2026-04-12T08:32:50Z</time></trkpt><trkpt lat="43.44149849875077" lon="10.385031559388123"><ele>20.0</ele><time>2026-04-12T08:32:51Z</time></trkpt><trkpt lat="43.44143627322096" lon="10.385061347191137"><ele>20.0</ele><time>2026-04-12T08:32:52Z</time></trkpt><trkpt lat="43.44133405105273" lon="10.385138757135131"><ele>20.0</ele><time>2026-04-12T08:32:54Z</time></trkpt><trkpt lat="43.441272475916634" lon="10.385197908804978"><ele>20.0</ele><time>2026-04-12T08:32:55Z</time></trkpt><trkpt lat="43.441170547088475" lon="10.385262074934506"><ele>20.0</ele><time>2026-04-12T08:32:57Z</time></trkpt><trkpt lat="43.44106482961047" lon="10.385342764058299"><ele>20.0</ele><time>2026-04-12T08:32:59Z</time></trkpt><trkpt lat="43.4410082800577" lon="10.385389623058632"><ele>19.4</ele><time>2026-04-12T08:33:00Z</time></trkpt><trkpt lat="43.44089955611494" lon="10.385466164330456"><ele>18.8</ele><time>2026-04-12T08:33:02Z</time></trkpt><trkpt lat="43.44079515575939" lon="10.385539601337339"><ele>18.2</ele><time>2026-04-12T08:33:04Z</time></trkpt><trkpt lat="43.4407367858082" lon="10.385578593565164"><ele>17.6</ele><time>2026-04-12T08:33:05Z</time></trkpt><trkpt lat="43.440679218700325" lon="10.385622192506567"><ele>17.0</ele><time>2026-04-12T08:33:05.999Z</time></trkpt><trkpt lat="43.440575077904704" lon="10.38570357219121"><ele>17.0</ele><time>2026-04-12T08:33:07.999Z</time></trkpt><trkpt lat="43.44046754091748" lon="10.385782932245519"><ele>17.0</ele><time>2026-04-12T08:33:10Z</time></trkpt><trkpt lat="43.44037719787309" lon="10.385856817522125"><ele>17.0</ele><time>2026-04-12T08:33:12Z</time></trkpt><trkpt lat="43.44030754493279" lon="10.385889149426916"><ele>17.0</ele><time>2026-04-12T08:33:13Z</time></trkpt><trkpt lat="43.440203404087704" lon="10.38596624721475"><ele>17.0</ele><time>2026-04-12T08:33:15Z</time></trkpt><trkpt lat="43.44009908094378" lon="10.386030969063233"><ele>17.0</ele><time>2026-04-12T08:33:17Z</time></trkpt><trkpt lat="43.43998558682333" lon="10.386095115479407"><ele>17.0</ele><time>2026-04-12T08:33:19Z</time></trkpt><trkpt lat="43.43987049391512" lon="10.38614977424144"><ele>17.0</ele><time>2026-04-12T08:33:21Z</time></trkpt><trkpt lat="43.43974912583323" lon="10.38616270060456"><ele>17.0</ele><time>2026-04-12T08:33:23Z</time></trkpt><trkpt lat="43.439692747635114" lon="10.386204054183782"><ele>17.0</ele><time>2026-04-12T08:33:24Z</time></trkpt><trkpt lat="43.439639971374284" lon="10.386256188214821"><ele>17.0</ele><time>2026-04-12T08:33:25Z</time></trkpt><trkpt lat="43.439528480617405" lon="10.386313147179814"><ele>17.0</ele><time>2026-04-12T08:33:27Z</time></trkpt><trkpt lat="43.43946650629683" lon="10.386346515300358"><ele>17.0</ele><time>2026-04-12T08:33:28Z</time></trkpt><trkpt lat="43.43939945210333" lon="10.386377168433244"><ele>17.0</ele><time>2026-04-12T08:33:29Z</time></trkpt><trkpt lat="43.43929254365326" lon="10.38644639254056"><ele>17.0</ele><time>2026-04-12T08:33:31Z</time></trkpt><trkpt lat="43.43917803808604" lon="10.386515160262034"><ele>17.0</ele><time>2026-04-12T08:33:33Z</time></trkpt><trkpt lat="43.4390609832104" lon="10.386568437048869"><ele>17.0</ele><time>2026-04-12T08:33:35Z</time></trkpt><trkpt lat="43.43900128744373" lon="10.38660134038258"><ele>17.0</ele><time>2026-04-12T08:33:36Z</time></trkpt><trkpt lat="43.438886724583234" lon="10.386657233519124"><ele>17.0</ele><time>2026-04-12T08:33:38Z</time></trkpt><trkpt lat="43.43878226546915" lon="10.386712853066504"><ele>17.0</ele><time>2026-04-12T08:33:40Z</time></trkpt><trkpt lat="43.43872038307067" lon="10.386747670097208"><ele>16.0</ele><time>2026-04-12T08:33:41Z</time></trkpt><trkpt lat="43.43860786524329" lon="10.386800995384464"><ele>15.0</ele><time>2026-04-12T08:33:43Z</time></trkpt><trkpt lat="43.43854899920402" lon="10.386834238053336"><ele>14.0</ele><time>2026-04-12T08:33:44Z</time></trkpt><trkpt lat="43.4384365729571" lon="10.386885724802337"><ele>13.0</ele><time>2026-04-12T08:33:46Z</time></trkpt><trkpt lat="43.43832718990937" lon="10.386954396847077"><ele>12.0</ele><time>2026-04-12T08:33:48Z</time></trkpt><trkpt lat="43.43826855448089" lon="10.386987641645959"><ele>12.0</ele><time>2026-04-12T08:33:49Z</time></trkpt><trkpt lat="43.43820467551985" lon="10.38700644394328"><ele>12.0</ele><time>2026-04-12T08:33:50Z</time></trkpt><trkpt lat="43.43809145271559" lon="10.387060853545355"><ele>12.0</ele><time>2026-04-12T08:33:52Z</time></trkpt><trkpt lat="43.43797862215455" lon="10.387121200985733"><ele>12.0</ele><time>2026-04-12T08:33:54Z</time></trkpt><trkpt lat="43.43791815660642" lon="10.387146866592305"><ele>12.0</ele><time>2026-04-12T08:33:55Z</time></trkpt><trkpt lat="43.43780538786901" lon="10.387214680440936"><ele>13.0</ele><time>2026-04-12T08:33:57Z</time></trkpt><trkpt lat="43.43769130998279" lon="10.387269834639486"><ele>14.0</ele><time>2026-04-12T08:33:59Z</time></trkpt><trkpt lat="43.43757574285847" lon="10.387321901586155"><ele>15.0</ele><time>2026-04-12T08:34:01Z</time></trkpt><trkpt lat="43.437464263237146" lon="10.387384769359654"><ele>16.0</ele><time>2026-04-12T08:34:03Z</time></trkpt><trkpt lat="43.437405087244095" lon="10.387414404803298"><ele>17.0</ele><time>2026-04-12T08:34:04Z</time></trkpt><trkpt lat="43.437285677425585" lon="10.3874784194374"><ele>17.0</ele><time>2026-04-12T08:34:06Z</time></trkpt><trkpt lat="43.43716936155721" lon="10.387532693176654"><ele>17.0</ele><time>2026-04-12T08:34:08Z</time></trkpt><trkpt lat="43.43710955014259" lon="10.387570608702553"><ele>17.0</ele><time>2026-04-12T08:34:09Z</time></trkpt><trkpt lat="43.436992621718666" lon="10.387633901223959"><ele>17.0</ele><time>2026-04-12T08:34:11Z</time></trkpt><trkpt lat="43.43693583393595" lon="10.387680276927254"><ele>17.0</ele><time>2026-04-12T08:34:12Z</time></trkpt><trkpt lat="43.43682160754899" lon="10.387722247992237"><ele>16.4</ele><time>2026-04-12T08:34:14Z</time></trkpt><trkpt lat="43.436756804093264" lon="10.387754589334806"><ele>15.799999999999999</ele><time>2026-04-12T08:34:15Z</time></trkpt><trkpt lat="43.4366492259898" lon="10.387811728128888"><ele>15.2</ele><time>2026-04-12T08:34:17Z</time></trkpt><trkpt lat="43.43654310620312" lon="10.387871209051854"><ele>14.6</ele><time>2026-04-12T08:34:19Z</time></trkpt><trkpt lat="43.43643665337505" lon="10.387919852931505"><ele>14.0</ele><time>2026-04-12T08:34:21Z</time></trkpt><trkpt lat="43.43632628721935" lon="10.387977312017373"><ele>15.5</ele><time>2026-04-12T08:34:23Z</time></trkpt><trkpt lat="43.43621416325984" lon="10.388036739147653"><ele>17.0</ele><time>2026-04-12T08:34:25Z</time></trkpt><trkpt lat="43.436098697025955" lon="10.388086666995084"><ele>18.5</ele><time>2026-04-12T08:34:27Z</time></trkpt><trkpt lat="43.435992263403314" lon="10.388146824208045"><ele>20.0</ele><time>2026-04-12T08:34:29Z</time></trkpt><trkpt lat="43.435884209705144" lon="10.38819212148083"><ele>20.0</ele><time>2026-04-12T08:34:31Z</time></trkpt><trkpt lat="43.435786098517745" lon="10.388241319571845"><ele>20.0</ele><time>2026-04-12T08:34:33Z</time></trkpt><trkpt lat="43.43573075002464" lon="10.388289458986918"><ele>20.0</ele><time>2026-04-12T08:34:34Z</time></trkpt><trkpt lat="43.435626546263826" lon="10.388331337410367"><ele>20.0</ele><time>2026-04-12T08:34:36Z</time></trkpt><trkpt lat="43.43553174092234" lon="10.388396570043799"><ele>20.0</ele><time>2026-04-12T08:34:38Z</time></trkpt><trkpt lat="43.4354372227411" lon="10.388459099442489"><ele>19.6</ele><time>2026-04-12T08:34:40Z</time></trkpt><trkpt lat="43.435347239112374" lon="10.388507610026902"><ele>19.2</ele><time>2026-04-12T08:34:42Z</time></trkpt><trkpt lat="43.43526777344375" lon="10.388557687428726"><ele>18.8</ele><time>2026-04-12T08:34:44Z</time></trkpt><trkpt lat="43.43521052955915" lon="10.3886056688489"><ele>18.4</ele><time>2026-04-12T08:34:45Z</time></trkpt><trkpt lat="43.43510830539225" lon="10.388683279257096"><ele>18.0</ele><time>2026-04-12T08:34:47Z</time></trkpt><trkpt lat="43.43501548007365" lon="10.388756412815722"><ele>18.0</ele><time>2026-04-12T08:34:49Z</time></trkpt><trkpt lat="43.43491680062407" lon="10.388819711281803"><ele>18.0</ele><time>2026-04-12T08:34:51Z</time></trkpt><trkpt lat="43.43481705274125" lon="10.388892160693313"><ele>18.0</ele><time>2026-04-12T08:34:53Z</time></trkpt><trkpt lat="43.43471409464607" lon="10.388965158532127"><ele>18.0</ele><time>2026-04-12T08:34:55Z</time></trkpt><trkpt lat="43.43461420775976" lon="10.389043247084967"><ele>17.8</ele><time>2026-04-12T08:34:57Z</time></trkpt><trkpt lat="43.434500223173195" lon="10.389113538708903"><ele>17.6</ele><time>2026-04-12T08:34:59Z</time></trkpt><trkpt lat="43.434446282232464" lon="10.38916243812611"><ele>17.4</ele><time>2026-04-12T08:35:00Z</time></trkpt><trkpt lat="43.43438870155373" lon="10.389209927806252"><ele>17.2</ele><time>2026-04-12T08:35:01Z</time></trkpt><trkpt lat="43.43428155544049" lon="10.389290093094067"><ele>17.0</ele><time>2026-04-12T08:35:02.999Z</time></trkpt><trkpt lat="43.434212660521496" lon="10.389337727244193"><ele>17.0</ele><time>2026-04-12T08:35:03.999Z</time></trkpt><trkpt lat="43.43410066662928" lon="10.389424170773804"><ele>17.0</ele><time>2026-04-12T08:35:05.999Z</time></trkpt><trkpt lat="43.43398659325928" lon="10.389509062937007"><ele>17.0</ele><time>2026-04-12T08:35:07.999Z</time></trkpt><trkpt lat="43.43392698605686" lon="10.389552114219603"><ele>17.0</ele><time>2026-04-12T08:35:08.999Z</time></trkpt><trkpt lat="43.43386439069194" lon="10.389592906153121"><ele>17.0</ele><time>2026-04-12T08:35:09.999Z</time></trkpt><trkpt lat="43.433805986229245" lon="10.389638082594168"><ele>17.428571428571427</ele><time>2026-04-12T08:35:10.999Z</time></trkpt><trkpt lat="43.43374955901012" lon="10.389684492095654"><ele>17.857142857142858</ele><time>2026-04-12T08:35:11.999Z</time></trkpt><trkpt lat="43.43368987174627" lon="10.389724934490781"><ele>18.285714285714285</ele><time>2026-04-12T08:35:12.999Z</time></trkpt><trkpt lat="43.433633074614995" lon="10.38976567579166"><ele>18.714285714285715</ele><time>2026-04-12T08:35:13.999Z</time></trkpt><trkpt lat="43.43357223855764" lon="10.389811003899826"><ele>19.142857142857142</ele><time>2026-04-12T08:35:15Z</time></trkpt><trkpt lat="43.433515262415746" lon="10.38985481832489"><ele>19.57142857142857</ele><time>2026-04-12T08:35:16Z</time></trkpt><trkpt lat="43.433458206759795" lon="10.389901791261247"><ele>20.0</ele><time>2026-04-12T08:35:17Z</time></trkpt><trkpt lat="43.43340228492697" lon="10.389946733494401"><ele>20.0</ele><time>2026-04-12T08:35:18Z</time></trkpt><trkpt lat="43.4333466449664" lon="10.389988700463611"><ele>20.0</ele><time>2026-04-12T08:35:19Z</time></trkpt><trkpt lat="43.43328801592515" lon="10.39002898258064"><ele>20.0</ele><time>2026-04-12T08:35:20Z</time></trkpt><trkpt lat="43.43322912208858" lon="10.390059877284173"><ele>20.0</ele><time>2026-04-12T08:35:21Z</time></trkpt><trkpt lat="43.433176874255636" lon="10.390111147849657"><ele>20.0</ele><time>2026-04-12T08:35:22Z</time></trkpt><trkpt lat="43.43311537434018" lon="10.390148985594653"><ele>20.0</ele><time>2026-04-12T08:35:23Z</time></trkpt><trkpt lat="43.433056020780235" lon="10.390186029414352"><ele>20.0</ele><time>2026-04-12T08:35:24Z</time></trkpt><trkpt lat="43.43294725446005" lon="10.390260756270866"><ele>20.166666666666668</ele><time>2026-04-12T08:35:26Z</time></trkpt><trkpt lat="43.43289187675798" lon="10.390304634991681"><ele>20.333333333333336</ele><time>2026-04-12T08:35:27Z</time></trkpt><trkpt lat="43.43283465537902" lon="10.390341294552268"><ele>20.5</ele><time>2026-04-12T08:35:28Z</time></trkpt><trkpt lat="43.432718044951656" lon="10.390410275341518"><ele>20.666666666666668</ele><time>2026-04-12T08:35:30Z</time></trkpt><trkpt lat="43.43260974730924" lon="10.390499976373698"><ele>20.833333333333332</ele><time>2026-04-12T08:35:32Z</time></trkpt><trkpt lat="43.432552789590346" lon="10.390545783589493"><ele>21.0</ele><time>2026-04-12T08:35:33Z</time></trkpt><trkpt lat="43.43248372730943" lon="10.390557612097286"><ele>21.0</ele><time>2026-04-12T08:35:34Z</time></trkpt><trkpt lat="43.43239295689282" lon="10.39062653626206"><ele>21.0</ele><time>2026-04-12T08:35:36Z</time></trkpt><trkpt lat="43.432330088544866" lon="10.390684136744026"><ele>21.0</ele><time>2026-04-12T08:35:37Z</time></trkpt><trkpt lat="43.43223845469713" lon="10.390776568926237"><ele>21.0</ele><time>2026-04-12T08:35:39Z</time></trkpt><trkpt lat="43.43217398701198" lon="10.390805515114415"><ele>21.0</ele><time>2026-04-12T08:35:40Z</time></trkpt><trkpt lat="43.43206321671274" lon="10.390880082386857"><ele>20.0</ele><time>2026-04-12T08:35:42Z</time></trkpt><trkpt lat="43.43200557519409" lon="10.390918807928465"><ele>19.0</ele><time>2026-04-12T08:35:43Z</time></trkpt><trkpt lat="43.43190408738103" lon="10.391001160287258"><ele>18.0</ele><time>2026-04-12T08:35:45Z</time></trkpt><trkpt lat="43.43184619185288" lon="10.391053566931685"><ele>17.0</ele><time>2026-04-12T08:35:46Z</time></trkpt><trkpt lat="43.43173865765846" lon="10.39114110342395"><ele>16.0</ele><time>2026-04-12T08:35:48Z</time></trkpt><trkpt lat="43.43163708751878" lon="10.39122788224454"><ele>16.0</ele><time>2026-04-12T08:35:50Z</time></trkpt><trkpt lat="43.43153143105593" lon="10.391308888867071"><ele>16.0</ele><time>2026-04-12T08:35:52Z</time></trkpt><trkpt lat="43.431426552754964" lon="10.391411479095996"><ele>16.0</ele><time>2026-04-12T08:35:54Z</time></trkpt><trkpt lat="43.431330415952196" lon="10.391506202157345"><ele>16.0</ele><time>2026-04-12T08:35:56Z</time></trkpt><trkpt lat="43.43124372573122" lon="10.391608304026995"><ele>15.499999999999998</ele><time>2026-04-12T08:35:58Z</time></trkpt><trkpt lat="43.431200000455725" lon="10.391674918343002"><ele>15.0</ele><time>2026-04-12T08:35:59Z</time></trkpt><trkpt lat="43.431133770371375" lon="10.39180642341878"><ele>14.5</ele><time>2026-04-12T08:36:01Z</time></trkpt><trkpt lat="43.431086323482994" lon="10.39196008501513"><ele>14.0</ele><time>2026-04-12T08:36:03Z</time></trkpt><trkpt lat="43.43106279462911" lon="10.39204266926593"><ele>13.499999999999998</ele><time>2026-04-12T08:36:04Z</time></trkpt><trkpt lat="43.43104505683796" lon="10.392126733630672"><ele>13.0</ele><time>2026-04-12T08:36:05Z</time></trkpt><trkpt lat="43.431025612223195" lon="10.39221573198937"><ele>13.0</ele><time>2026-04-12T08:36:06Z</time></trkpt><trkpt lat="43.43101565975652" lon="10.392306971660089"><ele>13.0</ele><time>2026-04-12T08:36:07Z</time></trkpt><trkpt lat="43.4310126939495" lon="10.392399669016582"><ele>13.0</ele><time>2026-04-12T08:36:08Z</time></trkpt><trkpt lat="43.43101267137965" lon="10.392494154650185"><ele>13.0</ele><time>2026-04-12T08:36:09Z</time></trkpt><trkpt lat="43.43100982658322" lon="10.3925857643767"><ele>13.0</ele><time>2026-04-12T08:36:10Z</time></trkpt><trkpt lat="43.43101341002913" lon="10.392688812268661"><ele>13.0</ele><time>2026-04-12T08:36:11Z</time></trkpt><trkpt lat="43.431005231401876" lon="10.392781951739194"><ele>13.0</ele><time>2026-04-12T08:36:12Z</time></trkpt><trkpt lat="43.430995679646024" lon="10.392875682749677"><ele>13.0</ele><time>2026-04-12T08:36:13Z</time></trkpt><trkpt lat="43.43098084797999" lon="10.392965221887113"><ele>13.0</ele><time>2026-04-12T08:36:14Z</time></trkpt><trkpt lat="43.4309639338763" lon="10.393054429594175"><ele>13.0</ele><time>2026-04-12T08:36:15Z</time></trkpt><trkpt lat="43.43093479664378" lon="10.393143769226034"><ele>13.0</ele><time>2026-04-12T08:36:16Z</time></trkpt><trkpt lat="43.430902519836316" lon="10.393222264520174"><ele>13.0</ele><time>2026-04-12T08:36:17Z</time></trkpt><trkpt lat="43.43087090957586" lon="10.39329928261999"><ele>13.0</ele><time>2026-04-12T08:36:18Z</time></trkpt><trkpt lat="43.4308385478596" lon="10.393374568221827"><ele>13.0</ele><time>2026-04-12T08:36:19Z</time></trkpt><trkpt lat="43.430771872747755" lon="10.393510041777315"><ele>13.8</ele><time>2026-04-12T08:36:21Z</time></trkpt><trkpt lat="43.43070203485981" lon="10.393642894534137"><ele>14.600000000000001</ele><time>2026-04-12T08:36:23Z</time></trkpt><trkpt lat="43.43063332662665" lon="10.393766862540572"><ele>15.399999999999999</ele><time>2026-04-12T08:36:25Z</time></trkpt><trkpt lat="43.43057331616486" lon="10.393884511050656"><ele>16.2</ele><time>2026-04-12T08:36:27Z</time></trkpt><trkpt lat="43.43052292248898" lon="10.393995429158016"><ele>17.0</ele><time>2026-04-12T08:36:29Z</time></trkpt><trkpt lat="43.43046175212026" lon="10.39411078320998"><ele>17.8</ele><time>2026-04-12T08:36:31Z</time></trkpt><trkpt lat="43.43041210090367" lon="10.394220499198388"><ele>18.6</ele><time>2026-04-12T08:36:33Z</time></trkpt><trkpt lat="43.430361212155695" lon="10.394323663637179"><ele>19.400000000000002</ele><time>2026-04-12T08:36:35Z</time></trkpt><trkpt lat="43.43030855359496" lon="10.394424717366999"><ele>20.2</ele><time>2026-04-12T08:36:37Z</time></trkpt><trkpt lat="43.430258909331165" lon="10.394525611516634"><ele>21.0</ele><time>2026-04-12T08:36:39Z</time></trkpt><trkpt lat="43.43019760278349" lon="10.394628844713635"><ele>21.8</ele><time>2026-04-12T08:36:41Z</time></trkpt><trkpt lat="43.43013008210558" lon="10.39470574248422"><ele>22.6</ele><time>2026-04-12T08:36:43Z</time></trkpt><trkpt lat="43.43005639926706" lon="10.394786849516397"><ele>23.4</ele><time>2026-04-12T08:36:45Z</time></trkpt><trkpt lat="43.42998350510176" lon="10.394856941826117"><ele>24.2</ele><time>2026-04-12T08:36:47Z</time></trkpt><trkpt lat="43.42990543539473" lon="10.394916468859213"><ele>25.0</ele><time>2026-04-12T08:36:49Z</time></trkpt><trkpt lat="43.42983059680092" lon="10.394987060670793"><ele>25.0</ele><time>2026-04-12T08:36:51Z</time></trkpt><trkpt lat="43.42977116460504" lon="10.395084313731477"><ele>25.0</ele><time>2026-04-12T08:36:53Z</time></trkpt><trkpt lat="43.42971255544671" lon="10.395185652523306"><ele>25.0</ele><time>2026-04-12T08:36:55Z</time></trkpt><trkpt lat="43.42965692925798" lon="10.395319870273383"><ele>25.0</ele><time>2026-04-12T08:36:57Z</time></trkpt><trkpt lat="43.4296141386133" lon="10.395474991466784"><ele>25.0</ele><time>2026-04-12T08:36:59Z</time></trkpt><trkpt lat="43.429578973485" lon="10.395551792358383"><ele>24.333333333333336</ele><time>2026-04-12T08:37:00Z</time></trkpt><trkpt lat="43.42950139696368" lon="10.395705166439415"><ele>23.666666666666668</ele><time>2026-04-12T08:37:02Z</time></trkpt><trkpt lat="43.429474194296446" lon="10.39579811536708"><ele>23.0</ele><time>2026-04-12T08:37:03Z</time></trkpt><trkpt lat="43.42943252748142" lon="10.395880185580536"><ele>22.333333333333336</ele><time>2026-04-12T08:37:04Z</time></trkpt><trkpt lat="43.429386087812496" lon="10.395954310848015"><ele>21.666666666666668</ele><time>2026-04-12T08:37:05Z</time></trkpt><trkpt lat="43.429341552755496" lon="10.396033935597847"><ele>21.0</ele><time>2026-04-12T08:37:05.999Z</time></trkpt><trkpt lat="43.42927574187628" lon="10.396089575073313"><ele>21.0</ele><time>2026-04-12T08:37:06.999Z</time></trkpt><trkpt lat="43.42921444128707" lon="10.39613902735704"><ele>21.0</ele><time>2026-04-12T08:37:07.999Z</time></trkpt><trkpt lat="43.429152527715125" lon="10.396175054049824"><ele>21.0</ele><time>2026-04-12T08:37:08.999Z</time></trkpt><trkpt lat="43.429090583409305" lon="10.396215871394892"><ele>21.0</ele><time>2026-04-12T08:37:09.999Z</time></trkpt><trkpt lat="43.42903214824085" lon="10.396254081831781"><ele>21.0</ele><time>2026-04-12T08:37:10.999Z</time></trkpt><trkpt lat="43.42892534224738" lon="10.396336328424457"><ele>21.0</ele><time>2026-04-12T08:37:12.999Z</time></trkpt><trkpt lat="43.42883116687692" lon="10.396429982941262"><ele>19.5</ele><time>2026-04-12T08:37:14.999Z</time></trkpt><trkpt lat="43.428745634674094" lon="10.396532067965028"><ele>18.0</ele><time>2026-04-12T08:37:16.999Z</time></trkpt><trkpt lat="43.42867685157099" lon="10.396653190103091"><ele>16.5</ele><time>2026-04-12T08:37:18.999Z</time></trkpt><trkpt lat="43.42861410374355" lon="10.396789317193969"><ele>15.0</ele><time>2026-04-12T08:37:21Z</time></trkpt><trkpt lat="43.42856544990391" lon="10.396938127376794"><ele>15.0</ele><time>2026-04-12T08:37:23Z</time></trkpt><trkpt lat="43.42854570736988" lon="10.39702079145781"><ele>15.0</ele><time>2026-04-12T08:37:24Z</time></trkpt><trkpt lat="43.42852683272799" lon="10.397105190966304"><ele>15.0</ele><time>2026-04-12T08:37:25Z</time></trkpt><trkpt lat="43.428510658740535" lon="10.397197396302378"><ele>15.0</ele><time>2026-04-12T08:37:26Z</time></trkpt><trkpt lat="43.428493571120015" lon="10.397292776531959"><ele>15.0</ele><time>2026-04-12T08:37:27Z</time></trkpt><trkpt lat="43.42847664260438" lon="10.397387050005422"><ele>15.0</ele><time>2026-04-12T08:37:28Z</time></trkpt><trkpt lat="43.428460411521904" lon="10.397483446051764"><ele>15.0</ele><time>2026-04-12T08:37:29Z</time></trkpt><trkpt lat="43.42843998015375" lon="10.397584800395006"><ele>15.166666666666666</ele><time>2026-04-12T08:37:30Z</time></trkpt><trkpt lat="43.42841000056922" lon="10.397683510794051"><ele>15.333333333333332</ele><time>2026-04-12T08:37:31Z</time></trkpt><trkpt lat="43.42838185036055" lon="10.397785313810042"><ele>15.5</ele><time>2026-04-12T08:37:32Z</time></trkpt><trkpt lat="43.42834680031271" lon="10.397888928495659"><ele>15.666666666666666</ele><time>2026-04-12T08:37:33Z</time></trkpt><trkpt lat="43.42830045652987" lon="10.397983671165736"><ele>15.833333333333332</ele><time>2026-04-12T08:37:34Z</time></trkpt><trkpt lat="43.42825259614101" lon="10.398077222080206"><ele>16.0</ele><time>2026-04-12T08:37:35Z</time></trkpt><trkpt lat="43.42819474498706" lon="10.398168060681822"><ele>15.999999999999998</ele><time>2026-04-12T08:37:36Z</time></trkpt><trkpt lat="43.428138377835516" lon="10.398249550240372"><ele>16.0</ele><time>2026-04-12T08:37:37Z</time></trkpt><trkpt lat="43.42808072153538" lon="10.398331887428903"><ele>16.0</ele><time>2026-04-12T08:37:38Z</time></trkpt><trkpt lat="43.42802276298897" lon="10.398414644053743"><ele>16.0</ele><time>2026-04-12T08:37:39Z</time></trkpt><trkpt lat="43.42796282787124" lon="10.398496399488023"><ele>15.999999999999998</ele><time>2026-04-12T08:37:40Z</time></trkpt><trkpt lat="43.42790374364365" lon="10.398574692811783"><ele>16.0</ele><time>2026-04-12T08:37:41Z</time></trkpt><trkpt lat="43.42784308308088" lon="10.39864863782969"><ele>14.833333333333332</ele><time>2026-04-12T08:37:42Z</time></trkpt><trkpt lat="43.42777617839924" lon="10.398697860865303"><ele>13.666666666666666</ele><time>2026-04-12T08:37:43Z</time></trkpt><trkpt lat="43.42769380493392" lon="10.398715132260572"><ele>12.5</ele><time>2026-04-12T08:37:44Z</time></trkpt><trkpt lat="43.427620479115696" lon="10.398705761158537"><ele>11.333333333333332</ele><time>2026-04-12T08:37:45Z</time></trkpt><trkpt lat="43.4275435025417" lon="10.398687001987843"><ele>10.166666666666666</ele><time>2026-04-12T08:37:46Z</time></trkpt><trkpt lat="43.42747504887017" lon="10.398708983107603"><ele>9.0</ele><time>2026-04-12T08:37:47Z</time></trkpt><trkpt lat="43.427398838724294" lon="10.398717298725233"><ele>9.0</ele><time>2026-04-12T08:37:48Z</time></trkpt><trkpt lat="43.427333099016856" lon="10.398724471909098"><ele>9.0</ele><time>2026-04-12T08:37:49Z</time></trkpt><trkpt lat="43.42722931882789" lon="10.398768577594534"><ele>9.0</ele><time>2026-04-12T08:37:51Z</time></trkpt><trkpt lat="43.42711821036061" lon="10.398793822169297"><ele>9.0</ele><time>2026-04-12T08:37:53Z</time></trkpt><trkpt lat="43.42701522655805" lon="10.39886748121738"><ele>9.0</ele><time>2026-04-12T08:37:55Z</time></trkpt><trkpt lat="43.42693222172642" lon="10.398975302090788"><ele>8.75</ele><time>2026-04-12T08:37:57Z</time></trkpt><trkpt lat="43.4268678003339" lon="10.399112118852138"><ele>8.5</ele><time>2026-04-12T08:37:59Z</time></trkpt><trkpt lat="43.42683006487626" lon="10.39925976450195"><ele>8.25</ele><time>2026-04-12T08:38:01Z</time></trkpt><trkpt lat="43.42679130865661" lon="10.399410610106672"><ele>8.0</ele><time>2026-04-12T08:38:03Z</time></trkpt><trkpt lat="43.42674965235016" lon="10.39956136524065"><ele>10.25</ele><time>2026-04-12T08:38:05Z</time></trkpt><trkpt lat="43.426692957746795" lon="10.399701939818224"><ele>12.5</ele><time>2026-04-12T08:38:07Z</time></trkpt><trkpt lat="43.42660341818614" lon="10.399803912207407"><ele>14.75</ele><time>2026-04-12T08:38:09Z</time></trkpt><trkpt lat="43.42649417745362" lon="10.399841360142215"><ele>17.0</ele><time>2026-04-12T08:38:11Z</time></trkpt><trkpt lat="43.42637771633618" lon="10.399877509672752"><ele>14.799999999999999</ele><time>2026-04-12T08:38:13Z</time></trkpt><trkpt lat="43.42626627052892" lon="10.399920343726585"><ele>12.6</ele><time>2026-04-12T08:38:15Z</time></trkpt><trkpt lat="43.42616277335615" lon="10.39998226637635"><ele>10.399999999999999</ele><time>2026-04-12T08:38:17Z</time></trkpt><trkpt lat="43.426073815932284" lon="10.400069354158092"><ele>8.2</ele><time>2026-04-12T08:38:19Z</time></trkpt><trkpt lat="43.42599503689876" lon="10.400174938470371"><ele>6.0</ele><time>2026-04-12T08:38:21Z</time></trkpt><trkpt lat="43.42593267524211" lon="10.400313085605106"><ele>6.0</ele><time>2026-04-12T08:38:23Z</time></trkpt><trkpt lat="43.42586383772398" lon="10.400434017940496"><ele>6.0</ele><time>2026-04-12T08:38:25Z</time></trkpt><trkpt lat="43.42578992983195" lon="10.400556104788736"><ele>6.0</ele><time>2026-04-12T08:38:27Z</time></trkpt><trkpt lat="43.425738882775256" lon="10.400677435880805"><ele>6.0</ele><time>2026-04-12T08:38:29Z</time></trkpt><trkpt lat="43.42565928251643" lon="10.40078514028529"><ele>6.0</ele><time>2026-04-12T08:38:31Z</time></trkpt><trkpt lat="43.42556152971387" lon="10.400852005134094"><ele>6.8</ele><time>2026-04-12T08:38:33Z</time></trkpt><trkpt lat="43.42545013744342" lon="10.40089261609385"><ele>7.6</ele><time>2026-04-12T08:38:35Z</time></trkpt><trkpt lat="43.42534269470714" lon="10.400931181084278"><ele>8.4</ele><time>2026-04-12T08:38:37Z</time></trkpt><trkpt lat="43.425241340272876" lon="10.400975198001252"><ele>9.2</ele><time>2026-04-12T08:38:39Z</time></trkpt><trkpt lat="43.42513338155801" lon="10.401019441158432"><ele>10.0</ele><time>2026-04-12T08:38:41Z</time></trkpt><trkpt lat="43.42503112184974" lon="10.40105699937897"><ele>10.0</ele><time>2026-04-12T08:38:43Z</time></trkpt><trkpt lat="43.424931072145014" lon="10.401101271434639"><ele>10.0</ele><time>2026-04-12T08:38:45Z</time></trkpt><trkpt lat="43.42483237555219" lon="10.401131515757358"><ele>10.0</ele><time>2026-04-12T08:38:47Z</time></trkpt><trkpt lat="43.42473478770999" lon="10.401164066926212"><ele>10.0</ele><time>2026-04-12T08:38:49Z</time></trkpt><trkpt lat="43.42463196239383" lon="10.401187412633975"><ele>10.0</ele><time>2026-04-12T08:38:51Z</time></trkpt><trkpt lat="43.42453083117768" lon="10.401190665432704"><ele>9.2</ele><time>2026-04-12T08:38:53Z</time></trkpt><trkpt lat="43.424431176978764" lon="10.401204820026486"><ele>8.4</ele><time>2026-04-12T08:38:55Z</time></trkpt><trkpt lat="43.42432991071715" lon="10.401223142630858"><ele>7.6</ele><time>2026-04-12T08:38:57Z</time></trkpt><trkpt lat="43.42422954917629" lon="10.401235799634277"><ele>6.8</ele><time>2026-04-12T08:38:59Z</time></trkpt><trkpt lat="43.42412664385527" lon="10.40124787307009"><ele>6.0</ele><time>2026-04-12T08:39:01Z</time></trkpt><trkpt lat="43.42402095445617" lon="10.401264531174009"><ele>6.0</ele><time>2026-04-12T08:39:03Z</time></trkpt><trkpt lat="43.42391053998694" lon="10.401290100576778"><ele>6.0</ele><time>2026-04-12T08:39:05Z</time></trkpt><trkpt lat="43.42380766857467" lon="10.401324634723798"><ele>6.0</ele><time>2026-04-12T08:39:07Z</time></trkpt><trkpt lat="43.42370833521267" lon="10.401354385143861"><ele>6.0</ele><time>2026-04-12T08:39:08.999Z</time></trkpt><trkpt lat="43.42360332299676" lon="10.40138431832153"><ele>6.0</ele><time>2026-04-12T08:39:10.999Z</time></trkpt><trkpt lat="43.42350010665115" lon="10.401421056448914"><ele>9.0</ele><time>2026-04-12T08:39:12.999Z</time></trkpt><trkpt lat="43.4233937031382" lon="10.40146223377282"><ele>12.0</ele><time>2026-04-12T08:39:14.999Z</time></trkpt><trkpt lat="43.42329112184302" lon="10.401506249544116"><ele>15.000000000000002</ele><time>2026-04-12T08:39:16.999Z</time></trkpt><trkpt lat="43.42319188160501" lon="10.401550673803724"><ele>18.0</ele><time>2026-04-12T08:39:18.999Z</time></trkpt><trkpt lat="43.42309119253167" lon="10.401571770016039"><ele>21.0</ele><time>2026-04-12T08:39:20.999Z</time></trkpt><trkpt lat="43.4229829697604" lon="10.401559900722475"><ele>21.0</ele><time>2026-04-12T08:39:22.999Z</time></trkpt><trkpt lat="43.422879793199165" lon="10.401537391069997"><ele>21.0</ele><time>2026-04-12T08:39:24.999Z</time></trkpt><trkpt lat="43.42278267532816" lon="10.40148839911485"><ele>21.0</ele><time>2026-04-12T08:39:27Z</time></trkpt><trkpt lat="43.42267955530105" lon="10.401453200911298"><ele>21.0</ele><time>2026-04-12T08:39:29Z</time></trkpt><trkpt lat="43.422578306218156" lon="10.401437426260065"><ele>21.0</ele><time>2026-04-12T08:39:31Z</time></trkpt><trkpt lat="43.42247289301763" lon="10.401421933117456"><ele>21.0</ele><time>2026-04-12T08:39:33Z</time></trkpt><trkpt lat="43.42235462055895" lon="10.401402114690203"><ele>21.0</ele><time>2026-04-12T08:39:35Z</time></trkpt><trkpt lat="43.42224955892573" lon="10.401357057540341"><ele>21.0</ele><time>2026-04-12T08:39:37Z</time></trkpt><trkpt lat="43.42214437322739" lon="10.401321635074664"><ele>21.0</ele><time>2026-04-12T08:39:39Z</time></trkpt><trkpt lat="43.42203191908283" lon="10.401299679099504"><ele>18.8</ele><time>2026-04-12T08:39:41Z</time></trkpt><trkpt lat="43.42192108221837" lon="10.401274136957708"><ele>16.6</ele><time>2026-04-12T08:39:43Z</time></trkpt><trkpt lat="43.42181086727743" lon="10.401249602773857"><ele>14.4</ele><time>2026-04-12T08:39:45Z</time></trkpt><trkpt lat="43.42170526528331" lon="10.401212263330818"><ele>12.2</ele><time>2026-04-12T08:39:47Z</time></trkpt><trkpt lat="43.42159997247474" lon="10.401188049390479"><ele>10.0</ele><time>2026-04-12T08:39:49Z</time></trkpt><trkpt lat="43.42149413586364" lon="10.40116330851905"><ele>10.0</ele><time>2026-04-12T08:39:51Z</time></trkpt><trkpt lat="43.421390715729494" lon="10.40113643467162"><ele>10.0</ele><time>2026-04-12T08:39:53Z</time></trkpt><trkpt lat="43.42128907655662" lon="10.401108787122535"><ele>10.0</ele><time>2026-04-12T08:39:55Z</time></trkpt><trkpt lat="43.421188345357486" lon="10.40108662042331"><ele>10.0</ele><time>2026-04-12T08:39:57Z</time></trkpt><trkpt lat="43.421083279808755" lon="10.40110928424958"><ele>10.0</ele><time>2026-04-12T08:39:59Z</time></trkpt><trkpt lat="43.42098396575668" lon="10.401156033093647"><ele>9.2</ele><time>2026-04-12T08:40:01Z</time></trkpt><trkpt lat="43.42088736982396" lon="10.401219147593462"><ele>8.4</ele><time>2026-04-12T08:40:03Z</time></trkpt><trkpt lat="43.4207983616751" lon="10.40129764895621"><ele>7.6</ele><time>2026-04-12T08:40:05Z</time></trkpt><trkpt lat="43.42069937809422" lon="10.401374527777767"><ele>6.8</ele><time>2026-04-12T08:40:07Z</time></trkpt><trkpt lat="43.4206094757921" lon="10.401447864255498"><ele>6.0</ele><time>2026-04-12T08:40:09Z</time></trkpt><trkpt lat="43.420519539718896" lon="10.40152872172571"><ele>6.6</ele><time>2026-04-12T08:40:11Z</time></trkpt><trkpt lat="43.42042898570624" lon="10.401606836772139"><ele>7.199999999999999</ele><time>2026-04-12T08:40:13Z</time></trkpt><trkpt lat="43.42033701234577" lon="10.40168406578049"><ele>7.800000000000001</ele><time>2026-04-12T08:40:15Z</time></trkpt><trkpt lat="43.42024116475746" lon="10.40174415959569"><ele>8.4</ele><time>2026-04-12T08:40:17Z</time></trkpt><trkpt lat="43.42013799276075" lon="10.401783628943946"><ele>9.0</ele><time>2026-04-12T08:40:19Z</time></trkpt><trkpt lat="43.42003392948141" lon="10.401806100582968"><ele>9.0</ele><time>2026-04-12T08:40:21Z</time></trkpt><trkpt lat="43.4199291501467" lon="10.401799161365982"><ele>9.0</ele><time>2026-04-12T08:40:23Z</time></trkpt><trkpt lat="43.419830356197906" lon="10.401783826297603"><ele>9.0</ele><time>2026-04-12T08:40:25Z</time></trkpt><trkpt lat="43.419730437261066" lon="10.401786063165222"><ele>9.0</ele><time>2026-04-12T08:40:27Z</time></trkpt><trkpt lat="43.41963233658276" lon="10.401784957325996"><ele>9.0</ele><time>2026-04-12T08:40:29Z</time></trkpt><trkpt lat="43.4195296965817" lon="10.401789598765617"><ele>10.0</ele><time>2026-04-12T08:40:31Z</time></trkpt><trkpt lat="43.41942848591761" lon="10.40178999799328"><ele>11.0</ele><time>2026-04-12T08:40:33Z</time></trkpt><trkpt lat="43.419324170421135" lon="10.401779802413788"><ele>11.999999999999998</ele><time>2026-04-12T08:40:35Z</time></trkpt><trkpt lat="43.41922019569317" lon="10.40177638554133"><ele>13.0</ele><time>2026-04-12T08:40:37Z</time></trkpt><trkpt lat="43.419116168927935" lon="10.401784084209744"><ele>14.0</ele><time>2026-04-12T08:40:39Z</time></trkpt><trkpt lat="43.41901163440591" lon="10.401770934321057"><ele>14.0</ele><time>2026-04-12T08:40:41Z</time></trkpt><trkpt lat="43.41890709718669" lon="10.401768681850818"><ele>13.999999999999998</ele><time>2026-04-12T08:40:43Z</time></trkpt><trkpt lat="43.41880113132533" lon="10.401758026933004"><ele>13.999999999999998</ele><time>2026-04-12T08:40:45Z</time></trkpt><trkpt lat="43.41869496108751" lon="10.401762570160226"><ele>14.0</ele><time>2026-04-12T08:40:47Z</time></trkpt><trkpt lat="43.41860108507333" lon="10.401735410018704"><ele>14.0</ele><time>2026-04-12T08:40:49Z</time></trkpt><trkpt lat="43.41849826882347" lon="10.401712873694624"><ele>14.399999999999999</ele><time>2026-04-12T08:40:51Z</time></trkpt><trkpt lat="43.41839859096222" lon="10.401699882218123"><ele>14.799999999999999</ele><time>2026-04-12T08:40:53Z</time></trkpt><trkpt lat="43.418302419670546" lon="10.40167536602636"><ele>15.200000000000001</ele><time>2026-04-12T08:40:55Z</time></trkpt><trkpt lat="43.41820382131125" lon="10.401652931841822"><ele>15.600000000000001</ele><time>2026-04-12T08:40:57Z</time></trkpt><trkpt lat="43.41810748681317" lon="10.401633423753191"><ele>16.0</ele><time>2026-04-12T08:40:59Z</time></trkpt><trkpt lat="43.41800847525502" lon="10.401612513523125"><ele>16.8</ele><time>2026-04-12T08:41:01Z</time></trkpt><trkpt lat="43.417905341677134" lon="10.401599351494054"><ele>17.6</ele><time>2026-04-12T08:41:03Z</time></trkpt><trkpt lat="43.417803865241616" lon="10.401583826176495"><ele>18.4</ele><time>2026-04-12T08:41:05Z</time></trkpt><trkpt lat="43.417703243882904" lon="10.401561870921455"><ele>19.2</ele><time>2026-04-12T08:41:07Z</time></trkpt><trkpt lat="43.417602630745904" lon="10.40153727634044"><ele>20.0</ele><time>2026-04-12T08:41:09Z</time></trkpt><trkpt lat="43.41749890535949" lon="10.40151584791772"><ele>20.0</ele><time>2026-04-12T08:41:11Z</time></trkpt><trkpt lat="43.417398436325385" lon="10.401485072871536"><ele>20.0</ele><time>2026-04-12T08:41:13Z</time></trkpt><trkpt lat="43.41729904576223" lon="10.401460976162875"><ele>20.0</ele><time>2026-04-12T08:41:15Z</time></trkpt><trkpt lat="43.417192222413725" lon="10.40144904585483"><ele>20.0</ele><time>2026-04-12T08:41:17Z</time></trkpt><trkpt lat="43.41708866132867" lon="10.401425270117276"><ele>20.0</ele><time>2026-04-12T08:41:19Z</time></trkpt><trkpt lat="43.41698773480739" lon="10.401410224286058"><ele>21.2</ele><time>2026-04-12T08:41:21Z</time></trkpt><trkpt lat="43.41688578707678" lon="10.40139149044157"><ele>22.4</ele><time>2026-04-12T08:41:23Z</time></trkpt><trkpt lat="43.41678409613516" lon="10.401376549760624"><ele>23.6</ele><time>2026-04-12T08:41:25Z</time></trkpt><trkpt lat="43.416689454714735" lon="10.401357300773459"><ele>24.8</ele><time>2026-04-12T08:41:27Z</time></trkpt><trkpt lat="43.41659100208794" lon="10.401316145498757"><ele>26.0</ele><time>2026-04-12T08:41:29Z</time></trkpt><trkpt lat="43.4164928765721" lon="10.401311344917518"><ele>23.833333333333332</ele><time>2026-04-12T08:41:31Z</time></trkpt><trkpt lat="43.416396076827624" lon="10.40130247507221"><ele>21.666666666666664</ele><time>2026-04-12T08:41:33Z</time></trkpt><trkpt lat="43.41630932622919" lon="10.401267956171901"><ele>19.5</ele><time>2026-04-12T08:41:35Z</time></trkpt><trkpt lat="43.41622043477568" lon="10.401254295550876"><ele>17.333333333333332</ele><time>2026-04-12T08:41:37Z</time></trkpt><trkpt lat="43.416135782780444" lon="10.401253061249053"><ele>15.166666666666664</ele><time>2026-04-12T08:41:39Z</time></trkpt><trkpt lat="43.41606094080243" lon="10.401273384895907"><ele>13.0</ele><time>2026-04-12T08:41:41Z</time></trkpt><trkpt lat="43.415984639091164" lon="10.40129720756563"><ele>11.666666666666666</ele><time>2026-04-12T08:41:43Z</time></trkpt><trkpt lat="43.41591643445324" lon="10.401320700827883"><ele>10.333333333333332</ele><time>2026-04-12T08:41:45Z</time></trkpt><trkpt lat="43.415833234213636" lon="10.40137124945165"><ele>9.0</ele><time>2026-04-12T08:41:47Z</time></trkpt><trkpt lat="43.41576581841709" lon="10.401433483181428"><ele>7.666666666666666</ele><time>2026-04-12T08:41:49Z</time></trkpt><trkpt lat="43.415709112497524" lon="10.401502731911444"><ele>6.333333333333334</ele><time>2026-04-12T08:41:51Z</time></trkpt><trkpt lat="43.41565934351085" lon="10.401580520743389"><ele>5.0</ele><time>2026-04-12T08:41:53Z</time></trkpt><trkpt lat="43.41560523841351" lon="10.401656407151766"><ele>5.5</ele><time>2026-04-12T08:41:55Z</time></trkpt><trkpt lat="43.415548363161754" lon="10.401740535410207"><ele>6.0</ele><time>2026-04-12T08:41:57Z</time></trkpt><trkpt lat="43.41549503735989" lon="10.40181152087881"><ele>6.5</ele><time>2026-04-12T08:41:59Z</time></trkpt><trkpt lat="43.41543863062039" lon="10.401893127056475"><ele>7.0</ele><time>2026-04-12T08:42:01Z</time></trkpt><trkpt lat="43.415381863063246" lon="10.401952902540527"><ele>7.499999999999999</ele><time>2026-04-12T08:42:03Z</time></trkpt><trkpt lat="43.415314755319855" lon="10.402017588334774"><ele>8.0</ele><time>2026-04-12T08:42:05Z</time></trkpt><trkpt lat="43.415238952932484" lon="10.402054612469447"><ele>7.999999999999999</ele><time>2026-04-12T08:42:07Z</time></trkpt><trkpt lat="43.415151008091826" lon="10.402061567335696"><ele>8.0</ele><time>2026-04-12T08:42:09Z</time></trkpt><trkpt lat="43.41507848228748" lon="10.402068078050425"><ele>8.0</ele><time>2026-04-12T08:42:11Z</time></trkpt><trkpt lat="43.414993879452375" lon="10.402082672509742"><ele>8.0</ele><time>2026-04-12T08:42:13Z</time></trkpt><trkpt lat="43.41492067908972" lon="10.402114546952504"><ele>7.999999999999999</ele><time>2026-04-12T08:42:15Z</time></trkpt><trkpt lat="43.41485050381199" lon="10.40216712886996"><ele>8.0</ele><time>2026-04-12T08:42:17Z</time></trkpt><trkpt lat="43.41478071771443" lon="10.402217458070801"><ele>10.333333333333332</ele><time>2026-04-12T08:42:19Z</time></trkpt><trkpt lat="43.414717918836736" lon="10.402283264648283"><ele>12.666666666666666</ele><time>2026-04-12T08:42:21Z</time></trkpt><trkpt lat="43.41464956644378" lon="10.402341801194167"><ele>15.0</ele><time>2026-04-12T08:42:23Z</time></trkpt><trkpt lat="43.41458054695818" lon="10.402404032887025"><ele>17.333333333333332</ele><time>2026-04-12T08:42:25Z</time></trkpt><trkpt lat="43.4145178095303" lon="10.402468159343602"><ele>19.666666666666664</ele><time>2026-04-12T08:42:27Z</time></trkpt><trkpt lat="43.414449349463496" lon="10.402495074080331"><ele>22.0</ele><time>2026-04-12T08:42:29Z</time></trkpt><trkpt lat="43.41437269495917" lon="10.402544265743064"><ele>22.0</ele><time>2026-04-12T08:42:31Z</time></trkpt><trkpt lat="43.4142891087087" lon="10.402591373276298"><ele>22.0</ele><time>2026-04-12T08:42:33Z</time></trkpt><trkpt lat="43.41421498018662" lon="10.402640002782487"><ele>22.0</ele><time>2026-04-12T08:42:35Z</time></trkpt><trkpt lat="43.41412645500144" lon="10.402681534774828"><ele>22.0</ele><time>2026-04-12T08:42:37Z</time></trkpt><trkpt lat="43.41403140225562" lon="10.402706587208733"><ele>22.0</ele><time>2026-04-12T08:42:39Z</time></trkpt><trkpt lat="43.41393443860839" lon="10.402696545872816"><ele>22.0</ele><time>2026-04-12T08:42:41Z</time></trkpt><trkpt lat="43.41383239365372" lon="10.402650085028315"><ele>22.0</ele><time>2026-04-12T08:42:43Z</time></trkpt><trkpt lat="43.41373626733411" lon="10.402602917348334"><ele>22.0</ele><time>2026-04-12T08:42:45Z</time></trkpt><trkpt lat="43.41364100375846" lon="10.402578672965918"><ele>22.0</ele><time>2026-04-12T08:42:47Z</time></trkpt><trkpt lat="43.413549096338194" lon="10.402584821801026"><ele>22.0</ele><time>2026-04-12T08:42:49Z</time></trkpt><trkpt lat="43.41345352485088" lon="10.402618828375498"><ele>20.6</ele><time>2026-04-12T08:42:51Z</time></trkpt><trkpt lat="43.41336562630923" lon="10.402677896028358"><ele>19.200000000000003</ele><time>2026-04-12T08:42:53Z</time></trkpt><trkpt lat="43.41328783947982" lon="10.402753954593521"><ele>17.8</ele><time>2026-04-12T08:42:55Z</time></trkpt><trkpt lat="43.41321977589411" lon="10.402851737710808"><ele>16.4</ele><time>2026-04-12T08:42:57Z</time></trkpt><trkpt lat="43.41315541871132" lon="10.40295226933411"><ele>15.0</ele><time>2026-04-12T08:42:59Z</time></trkpt><trkpt lat="43.41309253068586" lon="10.4030591032057"><ele>14.333333333333334</ele><time>2026-04-12T08:43:01Z</time></trkpt><trkpt lat="43.41303737170255" lon="10.403164523673569"><ele>13.666666666666666</ele><time>2026-04-12T08:43:03Z</time></trkpt><trkpt lat="43.412983059722215" lon="10.403255675974616"><ele>13.0</ele><time>2026-04-12T08:43:05Z</time></trkpt><trkpt lat="43.4129307604732" lon="10.403342227910102"><ele>12.333333333333332</ele><time>2026-04-12T08:43:07Z</time></trkpt><trkpt lat="43.41288380542191" lon="10.403438113379673"><ele>11.666666666666666</ele><time>2026-04-12T08:43:09Z</time></trkpt><trkpt lat="43.41282857909619" lon="10.403519333291335"><ele>11.0</ele><time>2026-04-12T08:43:11Z</time></trkpt><trkpt lat="43.41277506367056" lon="10.40360546254146"><ele>11.0</ele><time>2026-04-12T08:43:13Z</time></trkpt><trkpt lat="43.4127187811721" lon="10.403693000439276"><ele>11.0</ele><time>2026-04-12T08:43:15Z</time></trkpt><trkpt lat="43.41265391543569" lon="10.403765711119167"><ele>11.0</ele><time>2026-04-12T08:43:17Z</time></trkpt><trkpt lat="43.41258892811886" lon="10.403849325578955"><ele>11.0</ele><time>2026-04-12T08:43:19Z</time></trkpt><trkpt lat="43.41250933173668" lon="10.403909793999043"><ele>11.0</ele><time>2026-04-12T08:43:21Z</time></trkpt><trkpt lat="43.41241678072104" lon="10.403983003095579"><ele>14.200000000000001</ele><time>2026-04-12T08:43:23Z</time></trkpt><trkpt lat="43.412317097443335" lon="10.404037550826748"><ele>17.400000000000002</ele><time>2026-04-12T08:43:25Z</time></trkpt><trkpt lat="43.412206545665605" lon="10.404085966149085"><ele>20.6</ele><time>2026-04-12T08:43:26.999Z</time></trkpt><trkpt lat="43.4120818663737" lon="10.40410473199251"><ele>23.8</ele><time>2026-04-12T08:43:28.999Z</time></trkpt><trkpt lat="43.412014637602006" lon="10.404100215307377"><ele>27.0</ele><time>2026-04-12T08:43:29.999Z</time></trkpt><trkpt lat="43.41194634820423" lon="10.40408774442313"><ele>27.0</ele><time>2026-04-12T08:43:30.999Z</time></trkpt><trkpt lat="43.41187361049492" lon="10.40407801502926"><ele>27.0</ele><time>2026-04-12T08:43:31.999Z</time></trkpt><trkpt lat="43.41180207380255" lon="10.404047502205538"><ele>27.0</ele><time>2026-04-12T08:43:32.999Z</time></trkpt><trkpt lat="43.41173906120135" lon="10.40402007794001"><ele>27.0</ele><time>2026-04-12T08:43:33.999Z</time></trkpt><trkpt lat="43.41166775669422" lon="10.403993543212955"><ele>27.0</ele><time>2026-04-12T08:43:34.999Z</time></trkpt><trkpt lat="43.411597919574646" lon="10.403966901078475"><ele>27.0</ele><time>2026-04-12T08:43:35.999Z</time></trkpt><trkpt lat="43.41153077529481" lon="10.403932559174565"><ele>27.0</ele><time>2026-04-12T08:43:36.999Z</time></trkpt><trkpt lat="43.41146403751708" lon="10.403901097376377"><ele>27.0</ele><time>2026-04-12T08:43:37.999Z</time></trkpt><trkpt lat="43.41139202289775" lon="10.403878512370214"><ele>27.0</ele><time>2026-04-12T08:43:39Z</time></trkpt><trkpt lat="43.411315611800255" lon="10.403867773915456"><ele>27.0</ele><time>2026-04-12T08:43:40Z</time></trkpt><trkpt lat="43.41124441420784" lon="10.403848790020046"><ele>27.0</ele><time>2026-04-12T08:43:41Z</time></trkpt><trkpt lat="43.41116660849431" lon="10.403831561689092"><ele>27.0</ele><time>2026-04-12T08:43:42Z</time></trkpt><trkpt lat="43.41109809654152" lon="10.403826909707886"><ele>27.0</ele><time>2026-04-12T08:43:43Z</time></trkpt><trkpt lat="43.41102459814422" lon="10.403828843559522"><ele>27.0</ele><time>2026-04-12T08:43:44Z</time></trkpt><trkpt lat="43.41095015768533" lon="10.403840214566463"><ele>26.857142857142858</ele><time>2026-04-12T08:43:45Z</time></trkpt><trkpt lat="43.41088148526086" lon="10.403859589264204"><ele>26.714285714285715</ele><time>2026-04-12T08:43:46Z</time></trkpt><trkpt lat="43.410809444793585" lon="10.403882103970174"><ele>26.57142857142857</ele><time>2026-04-12T08:43:47Z</time></trkpt><trkpt lat="43.410742290177666" lon="10.403919462240243"><ele>26.42857142857143</ele><time>2026-04-12T08:43:48Z</time></trkpt><trkpt lat="43.41067724136109" lon="10.40395851188434"><ele>26.28571428571429</ele><time>2026-04-12T08:43:49Z</time></trkpt><trkpt lat="43.41061330192078" lon="10.404009446290209"><ele>26.142857142857142</ele><time>2026-04-12T08:43:50Z</time></trkpt><trkpt lat="43.410552226050186" lon="10.404064150381133"><ele>26.0</ele><time>2026-04-12T08:43:51Z</time></trkpt><trkpt lat="43.41049297407377" lon="10.404129989717532"><ele>22.666666666666664</ele><time>2026-04-12T08:43:52Z</time></trkpt><trkpt lat="43.410440421788316" lon="10.404191532240418"><ele>19.333333333333332</ele><time>2026-04-12T08:43:53Z</time></trkpt><trkpt lat="43.410386870195445" lon="10.404277293083094"><ele>16.0</ele><time>2026-04-12T08:43:54Z</time></trkpt><trkpt lat="43.410338346412466" lon="10.404358601475323"><ele>12.666666666666666</ele><time>2026-04-12T08:43:55Z</time></trkpt><trkpt lat="43.41029937514315" lon="10.40444775673866"><ele>9.333333333333332</ele><time>2026-04-12T08:43:56Z</time></trkpt><trkpt lat="43.410260452844014" lon="10.404542982130248"><ele>6.0</ele><time>2026-04-12T08:43:57Z</time></trkpt><trkpt lat="43.41023147138198" lon="10.404643207519216"><ele>7.5</ele><time>2026-04-12T08:43:58Z</time></trkpt><trkpt lat="43.41020170135375" lon="10.404747164442897"><ele>9.0</ele><time>2026-04-12T08:43:59Z</time></trkpt><trkpt lat="43.4101768289203" lon="10.404855889831094"><ele>10.5</ele><time>2026-04-12T08:44:00Z</time></trkpt><trkpt lat="43.410158021325316" lon="10.404964954873167"><ele>12.0</ele><time>2026-04-12T08:44:01Z</time></trkpt><trkpt lat="43.41013088572577" lon="10.405065505260264"><ele>13.5</ele><time>2026-04-12T08:44:02Z</time></trkpt><trkpt lat="43.41011043751139" lon="10.405175588670538"><ele>15.0</ele><time>2026-04-12T08:44:03Z</time></trkpt><trkpt lat="43.41008929618568" lon="10.405282445932432"><ele>15.0</ele><time>2026-04-12T08:44:04Z</time></trkpt><trkpt lat="43.410075102761255" lon="10.405398639878687"><ele>15.0</ele><time>2026-04-12T08:44:05Z</time></trkpt><trkpt lat="43.41006207998485" lon="10.40551150983285"><ele>15.0</ele><time>2026-04-12T08:44:06Z</time></trkpt><trkpt lat="43.41005081730695" lon="10.405625979631726"><ele>15.0</ele><time>2026-04-12T08:44:07Z</time></trkpt><trkpt lat="43.41004092947427" lon="10.405739356015124"><ele>15.0</ele><time>2026-04-12T08:44:08Z</time></trkpt><trkpt lat="43.41003455664693" lon="10.405861320059547"><ele>15.0</ele><time>2026-04-12T08:44:09Z</time></trkpt><trkpt lat="43.41004649732543" lon="10.405974942580226"><ele>15.0</ele><time>2026-04-12T08:44:10Z</time></trkpt><trkpt lat="43.410055369722244" lon="10.406088844262671"><ele>15.0</ele><time>2026-04-12T08:44:11Z</time></trkpt><trkpt lat="43.41006788204055" lon="10.406202999851569"><ele>15.0</ele><time>2026-04-12T08:44:12Z</time></trkpt><trkpt lat="43.41008076934171" lon="10.406325468809422"><ele>15.0</ele><time>2026-04-12T08:44:13Z</time></trkpt><trkpt lat="43.410098998371765" lon="10.406447740490087"><ele>15.0</ele><time>2026-04-12T08:44:14Z</time></trkpt><trkpt lat="43.41011592386903" lon="10.406570345831108"><ele>15.0</ele><time>2026-04-12T08:44:15Z</time></trkpt><trkpt lat="43.41013981792464" lon="10.40669478899909"><ele>15.0</ele><time>2026-04-12T08:44:16Z</time></trkpt><trkpt lat="43.410157678722065" lon="10.406820703031542"><ele>15.0</ele><time>2026-04-12T08:44:17Z</time></trkpt><trkpt lat="43.41017524319264" lon="10.406954455125948"><ele>15.0</ele><time>2026-04-12T08:44:18Z</time></trkpt><trkpt lat="43.410195439343255" lon="10.407070797486801"><ele>15.0</ele><time>2026-04-12T08:44:19Z</time></trkpt><trkpt lat="43.41021776619487" lon="10.407192150775824"><ele>15.0</ele><time>2026-04-12T08:44:20Z</time></trkpt><trkpt lat="43.410230356119634" lon="10.407325711196686"><ele>15.6</ele><time>2026-04-12T08:44:21Z</time></trkpt><trkpt lat="43.41020568297286" lon="10.407451116688359"><ele>16.2</ele><time>2026-04-12T08:44:22Z</time></trkpt><trkpt lat="43.410146913833145" lon="10.407549902390615"><ele>16.8</ele><time>2026-04-12T08:44:23Z</time></trkpt><trkpt lat="43.41006397346845" lon="10.407613654785374"><ele>17.4</ele><time>2026-04-12T08:44:24Z</time></trkpt><trkpt lat="43.40997196551498" lon="10.407629409717954"><ele>18.0</ele><time>2026-04-12T08:44:25Z</time></trkpt><trkpt lat="43.409885814262964" lon="10.407607897598442"><ele>18.0</ele><time>2026-04-12T08:44:26Z</time></trkpt><trkpt lat="43.40980839804044" lon="10.407586325676512"><ele>18.0</ele><time>2026-04-12T08:44:27Z</time></trkpt><trkpt lat="43.409737120671856" lon="10.407574763279037"><ele>18.0</ele><time>2026-04-12T08:44:28Z</time></trkpt><trkpt lat="43.409670399452516" lon="10.40757272408767"><ele>18.0</ele><time>2026-04-12T08:44:29Z</time></trkpt><trkpt lat="43.409548589582755" lon="10.40755738362576"><ele>18.0</ele><time>2026-04-12T08:44:31Z</time></trkpt><trkpt lat="43.40943751286142" lon="10.407543468848443"><ele>17.6</ele><time>2026-04-12T08:44:33Z</time></trkpt><trkpt lat="43.40933177482999" lon="10.40754775224556"><ele>17.200000000000003</ele><time>2026-04-12T08:44:35Z</time></trkpt><trkpt lat="43.40922950990272" lon="10.407556889154726"><ele>16.8</ele><time>2026-04-12T08:44:37Z</time></trkpt><trkpt lat="43.40913187227283" lon="10.407587406682307"><ele>16.400000000000002</ele><time>2026-04-12T08:44:39Z</time></trkpt><trkpt lat="43.40903625405657" lon="10.40761697435305"><ele>16.0</ele><time>2026-04-12T08:44:41Z</time></trkpt><trkpt lat="43.408942340998664" lon="10.407651138769689"><ele>16.0</ele><time>2026-04-12T08:44:43Z</time></trkpt><trkpt lat="43.40885118695719" lon="10.407687466388259"><ele>16.0</ele><time>2026-04-12T08:44:45Z</time></trkpt><trkpt lat="43.408760375968676" lon="10.40771547236435"><ele>16.0</ele><time>2026-04-12T08:44:47Z</time></trkpt><trkpt lat="43.40867154537444" lon="10.407744108436127"><ele>16.0</ele><time>2026-04-12T08:44:49Z</time></trkpt><trkpt lat="43.40858069916243" lon="10.407777119904578"><ele>16.0</ele><time>2026-04-12T08:44:51Z</time></trkpt><trkpt lat="43.408491211685316" lon="10.407811117528565"><ele>15.600000000000001</ele><time>2026-04-12T08:44:53Z</time></trkpt><trkpt lat="43.40839980980395" lon="10.407841054065022"><ele>15.200000000000001</ele><time>2026-04-12T08:44:55Z</time></trkpt><trkpt lat="43.40830853154877" lon="10.407874431061558"><ele>14.799999999999999</ele><time>2026-04-12T08:44:57Z</time></trkpt><trkpt lat="43.40821750523899" lon="10.407907091214287"><ele>14.399999999999999</ele><time>2026-04-12T08:44:59Z</time></trkpt><trkpt lat="43.40812974937678" lon="10.407942927660343"><ele>14.0</ele><time>2026-04-12T08:45:01Z</time></trkpt><trkpt lat="43.40804073382743" lon="10.407969299371457"><ele>15.399999999999999</ele><time>2026-04-12T08:45:03Z</time></trkpt><trkpt lat="43.40795411838777" lon="10.408006794712913"><ele>16.799999999999997</ele><time>2026-04-12T08:45:05Z</time></trkpt><trkpt lat="43.407867017889444" lon="10.40804081140784"><ele>18.200000000000003</ele><time>2026-04-12T08:45:07Z</time></trkpt><trkpt lat="43.40777887146131" lon="10.408075479234059"><ele>19.6</ele><time>2026-04-12T08:45:09Z</time></trkpt><trkpt lat="43.407692133593315" lon="10.408111227733002"><ele>21.0</ele><time>2026-04-12T08:45:11Z</time></trkpt><trkpt lat="43.407603960696804" lon="10.408153412883506"><ele>21.0</ele><time>2026-04-12T08:45:13Z</time></trkpt><trkpt lat="43.40751832864033" lon="10.408199371353097"><ele>21.0</ele><time>2026-04-12T08:45:15Z</time></trkpt><trkpt lat="43.40743412062256" lon="10.408244013490899"><ele>21.0</ele><time>2026-04-12T08:45:17Z</time></trkpt><trkpt lat="43.40734756720999" lon="10.408296435416446"><ele>21.0</ele><time>2026-04-12T08:45:19Z</time></trkpt><trkpt lat="43.40726660057451" lon="10.408345609714587"><ele>21.0</ele><time>2026-04-12T08:45:21Z</time></trkpt><trkpt lat="43.407180326032794" lon="10.408398736617475"><ele>20.6</ele><time>2026-04-12T08:45:23Z</time></trkpt><trkpt lat="43.40709847445109" lon="10.40845801721478"><ele>20.200000000000003</ele><time>2026-04-12T08:45:25Z</time></trkpt><trkpt lat="43.40701660440822" lon="10.408521946886477"><ele>19.799999999999997</ele><time>2026-04-12T08:45:27Z</time></trkpt><trkpt lat="43.406938929024484" lon="10.40858576281725"><ele>19.4</ele><time>2026-04-12T08:45:29Z</time></trkpt><trkpt lat="43.406862612113606" lon="10.408647315039953"><ele>19.0</ele><time>2026-04-12T08:45:31Z</time></trkpt><trkpt lat="43.406788854974" lon="10.408709590231435"><ele>19.0</ele><time>2026-04-12T08:45:33Z</time></trkpt><trkpt lat="43.40671313818526" lon="10.408776579503728"><ele>19.0</ele><time>2026-04-12T08:45:35Z</time></trkpt><trkpt lat="43.40664448356489" lon="10.408845905328068"><ele>19.0</ele><time>2026-04-12T08:45:36.999Z</time></trkpt><trkpt lat="43.406586947652876" lon="10.408909494977097"><ele>19.0</ele><time>2026-04-12T08:45:38.999Z</time></trkpt><trkpt lat="43.406522650940595" lon="10.40897033732229"><ele>19.0</ele><time>2026-04-12T08:45:41.999Z</time></trkpt><trkpt lat="43.40644795912107" lon="10.409015033891848"><ele>19.0</ele><time>2026-04-12T08:45:45Z</time></trkpt><trkpt lat="43.40639421286627" lon="10.409063933137377"><ele>20.428571428571427</ele><time>2026-04-12T08:45:47Z</time></trkpt><trkpt lat="43.40639134975003" lon="10.409161472216905"><ele>21.85714285714286</ele><time>2026-04-12T08:45:49Z</time></trkpt><trkpt lat="43.406421787941525" lon="10.409244688400257"><ele>23.28571428571429</ele><time>2026-04-12T08:45:51Z</time></trkpt><trkpt lat="43.40646257759624" lon="10.40931225738447"><ele>24.714285714285715</ele><time>2026-04-12T08:45:53Z</time></trkpt><trkpt lat="43.40649886910793" lon="10.409384533991924"><ele>26.142857142857146</ele><time>2026-04-12T08:45:55Z</time></trkpt><trkpt lat="43.40653386301558" lon="10.409466060169812"><ele>27.571428571428577</ele><time>2026-04-12T08:45:57Z</time></trkpt><trkpt lat="43.40657368630339" lon="10.409583678616288"><ele>29.000000000000004</ele><time>2026-04-12T08:46:00Z</time></trkpt><trkpt lat="43.40659440133346" lon="10.409676222786068"><ele>30.000000000000004</ele><time>2026-04-12T08:46:02Z</time></trkpt><trkpt lat="43.40660946006747" lon="10.409762443522013"><ele>31.0</ele><time>2026-04-12T08:46:04Z</time></trkpt><trkpt lat="43.406641025685325" lon="10.409892788196627"><ele>32.0</ele><time>2026-04-12T08:46:07Z</time></trkpt><trkpt lat="43.40666391199456" lon="10.40997806489171"><ele>33.0</ele><time>2026-04-12T08:46:09Z</time></trkpt><trkpt lat="43.40668733278382" lon="10.410060676844184"><ele>34.0</ele><time>2026-04-12T08:46:11Z</time></trkpt><trkpt lat="43.4066972688456" lon="10.410150489300088"><ele>35.00000000000001</ele><time>2026-04-12T08:46:13Z</time></trkpt><trkpt lat="43.40668948294557" lon="10.410237525735521"><ele>36.0</ele><time>2026-04-12T08:46:15Z</time></trkpt><trkpt lat="43.406683529657535" lon="10.410327497740946"><ele>36.00000000000001</ele><time>2026-04-12T08:46:17Z</time></trkpt><trkpt lat="43.406652631624226" lon="10.41041682022157"><ele>36.0</ele><time>2026-04-12T08:46:19Z</time></trkpt><trkpt lat="43.40664333591654" lon="10.410511758836408"><ele>36.0</ele><time>2026-04-12T08:46:21Z</time></trkpt><trkpt lat="43.40665477426586" lon="10.410602632288956"><ele>36.0</ele><time>2026-04-12T08:46:23Z</time></trkpt><trkpt lat="43.40664562362291" lon="10.410697600694036"><ele>36.0</ele><time>2026-04-12T08:46:25Z</time></trkpt><trkpt lat="43.40666312643821" lon="10.410782104854883"><ele>36.00000000000001</ele><time>2026-04-12T08:46:27Z</time></trkpt><trkpt lat="43.40669129933971" lon="10.410862018269503"><ele>36.0</ele><time>2026-04-12T08:46:29Z</time></trkpt><trkpt lat="43.40674884370166" lon="10.410966347490005"><ele>36.85714285714286</ele><time>2026-04-12T08:46:32Z</time></trkpt><trkpt lat="43.40670698844407" lon="10.411058822431736"><ele>37.714285714285715</ele><time>2026-04-12T08:46:33Z</time></trkpt><trkpt lat="43.406721883504225" lon="10.411152579405464"><ele>38.57142857142857</ele><time>2026-04-12T08:46:35Z</time></trkpt><trkpt lat="43.406740424977556" lon="10.411242885970722"><ele>39.42857142857143</ele><time>2026-04-12T08:46:37Z</time></trkpt><trkpt lat="43.40675860537463" lon="10.411340728202614"><ele>40.285714285714285</ele><time>2026-04-12T08:46:39Z</time></trkpt><trkpt lat="43.40682151278685" lon="10.411405715321804"><ele>41.142857142857146</ele><time>2026-04-12T08:46:41Z</time></trkpt><trkpt lat="43.40689983486666" lon="10.411412852641588"><ele>42.0</ele><time>2026-04-12T08:46:43Z</time></trkpt><trkpt lat="43.40697722988253" lon="10.411412398479063"><ele>42.714285714285715</ele><time>2026-04-12T08:46:45Z</time></trkpt><trkpt lat="43.407048662820124" lon="10.411399442617041"><ele>43.42857142857143</ele><time>2026-04-12T08:46:47Z</time></trkpt><trkpt lat="43.40712010181125" lon="10.411402370731938"><ele>44.14285714285714</ele><time>2026-04-12T08:46:49Z</time></trkpt><trkpt lat="43.40718541728583" lon="10.411379434137906"><ele>44.85714285714286</ele><time>2026-04-12T08:46:51Z</time></trkpt><trkpt lat="43.40725931848129" lon="10.411399043518946"><ele>45.57142857142857</ele><time>2026-04-12T08:46:53Z</time></trkpt><trkpt lat="43.4073298387485" lon="10.411403971545127"><ele>46.285714285714285</ele><time>2026-04-12T08:46:55Z</time></trkpt><trkpt lat="43.40739606921655" lon="10.41142180298607"><ele>47.0</ele><time>2026-04-12T08:46:57Z</time></trkpt><trkpt lat="43.40747405950459" lon="10.411433636819591"><ele>48.33333333333333</ele><time>2026-04-12T08:46:59Z</time></trkpt><trkpt lat="43.407542153544135" lon="10.411458509152839"><ele>49.666666666666664</ele><time>2026-04-12T08:47:01Z</time></trkpt><trkpt lat="43.40760834237041" lon="10.411476308910348"><ele>51.0</ele><time>2026-04-12T08:47:03Z</time></trkpt><trkpt lat="43.40769878544211" lon="10.411513689492079"><ele>52.33333333333333</ele><time>2026-04-12T08:47:06Z</time></trkpt><trkpt lat="43.40778867303914" lon="10.411544945798672"><ele>53.666666666666664</ele><time>2026-04-12T08:47:09Z</time></trkpt><trkpt lat="43.40785641282237" lon="10.411565020364053"><ele>55.0</ele><time>2026-04-12T08:47:11Z</time></trkpt><trkpt lat="43.407948355690856" lon="10.411604316031871"><ele>55.666666666666664</ele><time>2026-04-12T08:47:14Z</time></trkpt><trkpt lat="43.40800783815205" lon="10.41164482056417"><ele>56.33333333333333</ele><time>2026-04-12T08:47:16Z</time></trkpt><trkpt lat="43.40807423421843" lon="10.411737789601444"><ele>57.0</ele><time>2026-04-12T08:47:19Z</time></trkpt><trkpt lat="43.40814114718532" lon="10.411829781178898"><ele>57.66666666666667</ele><time>2026-04-12T08:47:22Z</time></trkpt><trkpt lat="43.40818546687217" lon="10.411900071358385"><ele>58.333333333333336</ele><time>2026-04-12T08:47:24Z</time></trkpt><trkpt lat="43.40822959467257" lon="10.411967501565487"><ele>59.0</ele><time>2026-04-12T08:47:26Z</time></trkpt><trkpt lat="43.40830338133476" lon="10.412039806903364"><ele>59.0</ele><time>2026-04-12T08:47:29Z</time></trkpt><trkpt lat="43.40837669684498" lon="10.412059687142136"><ele>59.0</ele><time>2026-04-12T08:47:31Z</time></trkpt><trkpt lat="43.408443274445325" lon="10.412051399961223"><ele>59.0</ele><time>2026-04-12T08:47:33Z</time></trkpt><trkpt lat="43.40850514694881" lon="10.412021742844908"><ele>59.0</ele><time>2026-04-12T08:47:35Z</time></trkpt><trkpt lat="43.408566209048246" lon="10.411977474004903"><ele>59.0</ele><time>2026-04-12T08:47:37Z</time></trkpt><trkpt lat="43.40861909468079" lon="10.411871946645206"><ele>59.0</ele><time>2026-04-12T08:47:39.999Z</time></trkpt><trkpt lat="43.40864258684241" lon="10.411789615282057"><ele>59.0</ele><time>2026-04-12T08:47:41.999Z</time></trkpt><trkpt lat="43.40865755527532" lon="10.411667374814412"><ele>59.00000000000001</ele><time>2026-04-12T08:47:44.999Z</time></trkpt><trkpt lat="43.408672920847195" lon="10.411541893291245"><ele>59.0</ele><time>2026-04-12T08:47:47.999Z</time></trkpt><trkpt lat="43.40868501047434" lon="10.4114154956227"><ele>59.0</ele><time>2026-04-12T08:47:51Z</time></trkpt><trkpt lat="43.40873430789516" lon="10.411352711082671"><ele>59.0</ele><time>2026-04-12T08:47:53Z</time></trkpt><trkpt lat="43.40880181727575" lon="10.411329451348397"><ele>59.00000000000001</ele><time>2026-04-12T08:47:55Z</time></trkpt><trkpt lat="43.408869232174645" lon="10.411361149820012"><ele>59.0</ele><time>2026-04-12T08:47:57Z</time></trkpt><trkpt lat="43.40890825652981" lon="10.41143344938814"><ele>60.0</ele><time>2026-04-12T08:47:59Z</time></trkpt><trkpt lat="43.40893186068568" lon="10.41152207610633"><ele>61.0</ele><time>2026-04-12T08:48:01Z</time></trkpt><trkpt lat="43.408957154888405" lon="10.411603357009033"><ele>62.0</ele><time>2026-04-12T08:48:03Z</time></trkpt><trkpt lat="43.40897995213511" lon="10.411686080593418"><ele>63.0</ele><time>2026-04-12T08:48:05Z</time></trkpt><trkpt lat="43.408994865864024" lon="10.411772843497971"><ele>64.0</ele><time>2026-04-12T08:48:07Z</time></trkpt><trkpt lat="43.40902133816866" lon="10.411859247664104"><ele>65.0</ele><time>2026-04-12T08:48:09Z</time></trkpt><trkpt lat="43.40903670914369" lon="10.411943403354373"><ele>66.0</ele><time>2026-04-12T08:48:11Z</time></trkpt><trkpt lat="43.40907150939905" lon="10.412103293310565"><ele>66.0</ele><time>2026-04-12T08:48:15Z</time></trkpt><trkpt lat="43.40909405090048" lon="10.412199620750913"><ele>72.0</ele><time>2026-04-12T08:48:17Z</time></trkpt><trkpt lat="43.409113295931974" lon="10.412286516275374"><ele>72.0</ele><time>2026-04-12T08:48:19Z</time></trkpt><trkpt lat="43.409143002035485" lon="10.412372478028985"><ele>72.0</ele><time>2026-04-12T08:48:21Z</time></trkpt><trkpt lat="43.40916763126137" lon="10.412457843365834"><ele>72.0</ele><time>2026-04-12T08:48:23Z</time></trkpt><trkpt lat="43.409205490664334" lon="10.412564684506584"><ele>72.0</ele><time>2026-04-12T08:48:26Z</time></trkpt></trkseg></trk></gpx>